<?xml version="1.0" encoding="UTF-8" standalone="no" ?>
<gpx xmlns="http://www.topografix.com/GPX/1/1" xmlns:xsi="http://www.w3.org/2001/XMLSchema-instance" xsi:schemaLocation="http://www.topografix.com/GPX/1/1 http://www.topografix.com/GPX/1/1/gpx.xsd" version="1.1" creator="VisuGPX - https://www.visugpx.com">
  <metadata>
    <name>rando_10_04_2011</name>
    <desc><![CDATA[Randonnée avec Bertrand et Frantz]]></desc>
  </metadata>
  <trk>
    <name><![CDATA[2011-04-10T06:40:45Z]]></name>
    <trkseg>
      <trkpt lat="46.29937" lon="4.77555">
        <ele>138.8</ele>
        <time>2011-04-10T06:40:45Z</time>
      </trkpt>
      <trkpt lat="46.29938" lon="4.77554">
        <ele>138.8</ele>
        <time>2011-04-10T06:40:46Z</time>
      </trkpt>
      <trkpt lat="46.29947" lon="4.77544">
        <ele>138.8</ele>
        <time>2011-04-10T06:40:52Z</time>
      </trkpt>
      <trkpt lat="46.29962" lon="4.77521">
        <ele>138.8</ele>
        <time>2011-04-10T06:41:01Z</time>
      </trkpt>
      <trkpt lat="46.29977" lon="4.77502">
        <ele>138.8</ele>
        <time>2011-04-10T06:41:08Z</time>
      </trkpt>
      <trkpt lat="46.30002" lon="4.77471">
        <ele>138.8</ele>
        <time>2011-04-10T06:41:18Z</time>
      </trkpt>
      <trkpt lat="46.30025" lon="4.77442">
        <ele>138.8</ele>
        <time>2011-04-10T06:41:26Z</time>
      </trkpt>
      <trkpt lat="46.30045" lon="4.77419">
        <ele>138.8</ele>
        <time>2011-04-10T06:41:32Z</time>
      </trkpt>
      <trkpt lat="46.30067" lon="4.77393">
        <ele>138.8</ele>
        <time>2011-04-10T06:41:39Z</time>
      </trkpt>
      <trkpt lat="46.30088" lon="4.77362">
        <ele>138.8</ele>
        <time>2011-04-10T06:41:47Z</time>
      </trkpt>
      <trkpt lat="46.30112" lon="4.77322">
        <ele>138.8</ele>
        <time>2011-04-10T06:41:56Z</time>
      </trkpt>
      <trkpt lat="46.30132" lon="4.77282">
        <ele>138.8</ele>
        <time>2011-04-10T06:42:04Z</time>
      </trkpt>
      <trkpt lat="46.30147" lon="4.77242">
        <ele>138.8</ele>
        <time>2011-04-10T06:42:11Z</time>
      </trkpt>
      <trkpt lat="46.30174" lon="4.77173">
        <ele>138.8</ele>
        <time>2011-04-10T06:42:22Z</time>
      </trkpt>
      <trkpt lat="46.30182" lon="4.77156">
        <ele>138.8</ele>
        <time>2011-04-10T06:42:25Z</time>
      </trkpt>
      <trkpt lat="46.30203" lon="4.77119">
        <ele>138.8</ele>
        <time>2011-04-10T06:42:32Z</time>
      </trkpt>
      <trkpt lat="46.30232" lon="4.77072">
        <ele>138.8</ele>
        <time>2011-04-10T06:42:42Z</time>
      </trkpt>
      <trkpt lat="46.30248" lon="4.77055">
        <ele>138.8</ele>
        <time>2011-04-10T06:42:47Z</time>
      </trkpt>
      <trkpt lat="46.30256" lon="4.7705">
        <ele>138.8</ele>
        <time>2011-04-10T06:42:49Z</time>
      </trkpt>
      <trkpt lat="46.30271" lon="4.77029">
        <ele>138.8</ele>
        <time>2011-04-10T06:42:54Z</time>
      </trkpt>
      <trkpt lat="46.30277" lon="4.7702">
        <ele>138.8</ele>
        <time>2011-04-10T06:42:56Z</time>
      </trkpt>
      <trkpt lat="46.30293" lon="4.77011">
        <ele>138.8</ele>
        <time>2011-04-10T06:43:00Z</time>
      </trkpt>
      <trkpt lat="46.30315" lon="4.76993">
        <ele>138.8</ele>
        <time>2011-04-10T06:43:06Z</time>
      </trkpt>
      <trkpt lat="46.30329" lon="4.76983">
        <ele>138.8</ele>
        <time>2011-04-10T06:43:11Z</time>
      </trkpt>
      <trkpt lat="46.30355" lon="4.76969">
        <ele>138.8</ele>
        <time>2011-04-10T06:43:18Z</time>
      </trkpt>
      <trkpt lat="46.30372" lon="4.76963">
        <ele>138.8</ele>
        <time>2011-04-10T06:43:22Z</time>
      </trkpt>
      <trkpt lat="46.30377" lon="4.76961">
        <ele>138.8</ele>
        <time>2011-04-10T06:43:23Z</time>
      </trkpt>
      <trkpt lat="46.30391" lon="4.76958">
        <ele>138.8</ele>
        <time>2011-04-10T06:43:26Z</time>
      </trkpt>
      <trkpt lat="46.30416" lon="4.76951">
        <ele>138.8</ele>
        <time>2011-04-10T06:43:31Z</time>
      </trkpt>
      <trkpt lat="46.30449" lon="4.76943">
        <ele>138.8</ele>
        <time>2011-04-10T06:43:38Z</time>
      </trkpt>
      <trkpt lat="46.30454" lon="4.76942">
        <ele>138.8</ele>
        <time>2011-04-10T06:43:39Z</time>
      </trkpt>
      <trkpt lat="46.30506" lon="4.76924">
        <ele>138.8</ele>
        <time>2011-04-10T06:43:49Z</time>
      </trkpt>
      <trkpt lat="46.3055" lon="4.76902">
        <ele>138.8</ele>
        <time>2011-04-10T06:43:58Z</time>
      </trkpt>
      <trkpt lat="46.30555" lon="4.76898">
        <ele>138.8</ele>
        <time>2011-04-10T06:43:59Z</time>
      </trkpt>
      <trkpt lat="46.30572" lon="4.76886">
        <ele>138.8</ele>
        <time>2011-04-10T06:44:03Z</time>
      </trkpt>
      <trkpt lat="46.30578" lon="4.76882">
        <ele>138.8</ele>
        <time>2011-04-10T06:44:05Z</time>
      </trkpt>
      <trkpt lat="46.30594" lon="4.7687">
        <ele>138.8</ele>
        <time>2011-04-10T06:44:09Z</time>
      </trkpt>
      <trkpt lat="46.30611" lon="4.76856">
        <ele>138.8</ele>
        <time>2011-04-10T06:44:13Z</time>
      </trkpt>
      <trkpt lat="46.30619" lon="4.76849">
        <ele>138.8</ele>
        <time>2011-04-10T06:44:15Z</time>
      </trkpt>
      <trkpt lat="46.30649" lon="4.76825">
        <ele>138.8</ele>
        <time>2011-04-10T06:44:22Z</time>
      </trkpt>
      <trkpt lat="46.30658" lon="4.76819">
        <ele>138.8</ele>
        <time>2011-04-10T06:44:26Z</time>
      </trkpt>
      <trkpt lat="46.3066" lon="4.76819">
        <ele>138.8</ele>
        <time>2011-04-10T06:44:27Z</time>
      </trkpt>
      <trkpt lat="46.30677" lon="4.76808">
        <ele>138.8</ele>
        <time>2011-04-10T06:44:32Z</time>
      </trkpt>
      <trkpt lat="46.30704" lon="4.76795">
        <ele>138.8</ele>
        <time>2011-04-10T06:44:39Z</time>
      </trkpt>
      <trkpt lat="46.30726" lon="4.76785">
        <ele>138.8</ele>
        <time>2011-04-10T06:44:44Z</time>
      </trkpt>
      <trkpt lat="46.30747" lon="4.76773">
        <ele>138.8</ele>
        <time>2011-04-10T06:44:49Z</time>
      </trkpt>
      <trkpt lat="46.30794" lon="4.76745">
        <ele>138.8</ele>
        <time>2011-04-10T06:45:00Z</time>
      </trkpt>
      <trkpt lat="46.30829" lon="4.76714">
        <ele>138.8</ele>
        <time>2011-04-10T06:45:09Z</time>
      </trkpt>
      <trkpt lat="46.30864" lon="4.76678">
        <ele>138.8</ele>
        <time>2011-04-10T06:45:18Z</time>
      </trkpt>
      <trkpt lat="46.30873" lon="4.76668">
        <ele>138.8</ele>
        <time>2011-04-10T06:45:21Z</time>
      </trkpt>
      <trkpt lat="46.30886" lon="4.76652">
        <ele>138.8</ele>
        <time>2011-04-10T06:45:25Z</time>
      </trkpt>
      <trkpt lat="46.30895" lon="4.76636">
        <ele>138.8</ele>
        <time>2011-04-10T06:45:28Z</time>
      </trkpt>
      <trkpt lat="46.30905" lon="4.7662">
        <ele>138.8</ele>
        <time>2011-04-10T06:45:31Z</time>
      </trkpt>
      <trkpt lat="46.30915" lon="4.76597">
        <ele>138.8</ele>
        <time>2011-04-10T06:45:34Z</time>
      </trkpt>
      <trkpt lat="46.30934" lon="4.76555">
        <ele>138.8</ele>
        <time>2011-04-10T06:45:40Z</time>
      </trkpt>
      <trkpt lat="46.30949" lon="4.76524">
        <ele>138.8</ele>
        <time>2011-04-10T06:45:45Z</time>
      </trkpt>
      <trkpt lat="46.30956" lon="4.76501">
        <ele>138.8</ele>
        <time>2011-04-10T06:45:48Z</time>
      </trkpt>
      <trkpt lat="46.30975" lon="4.7646">
        <ele>138.8</ele>
        <time>2011-04-10T06:45:54Z</time>
      </trkpt>
      <trkpt lat="46.30994" lon="4.7642">
        <ele>138.8</ele>
        <time>2011-04-10T06:46:00Z</time>
      </trkpt>
      <trkpt lat="46.31013" lon="4.76385">
        <ele>138.8</ele>
        <time>2011-04-10T06:46:06Z</time>
      </trkpt>
      <trkpt lat="46.3104" lon="4.76344">
        <ele>138.8</ele>
        <time>2011-04-10T06:46:13Z</time>
      </trkpt>
      <trkpt lat="46.31075" lon="4.76297">
        <ele>138.8</ele>
        <time>2011-04-10T06:46:22Z</time>
      </trkpt>
      <trkpt lat="46.31104" lon="4.76262">
        <ele>138.8</ele>
        <time>2011-04-10T06:46:29Z</time>
      </trkpt>
      <trkpt lat="46.31121" lon="4.76241">
        <ele>139</ele>
        <time>2011-04-10T06:46:33Z</time>
      </trkpt>
      <trkpt lat="46.3113" lon="4.76231">
        <ele>139.4</ele>
        <time>2011-04-10T06:46:35Z</time>
      </trkpt>
      <trkpt lat="46.31137" lon="4.76222">
        <ele>139.6</ele>
        <time>2011-04-10T06:46:37Z</time>
      </trkpt>
      <trkpt lat="46.31145" lon="4.76213">
        <ele>139.8</ele>
        <time>2011-04-10T06:46:39Z</time>
      </trkpt>
      <trkpt lat="46.31153" lon="4.76204">
        <ele>140</ele>
        <time>2011-04-10T06:46:41Z</time>
      </trkpt>
      <trkpt lat="46.31165" lon="4.76191">
        <ele>140.2</ele>
        <time>2011-04-10T06:46:44Z</time>
      </trkpt>
      <trkpt lat="46.31226" lon="4.76142">
        <ele>140.8</ele>
        <time>2011-04-10T06:46:59Z</time>
      </trkpt>
      <trkpt lat="46.31239" lon="4.76131">
        <ele>140.8</ele>
        <time>2011-04-10T06:47:03Z</time>
      </trkpt>
      <trkpt lat="46.31256" lon="4.7612">
        <ele>140.8</ele>
        <time>2011-04-10T06:47:08Z</time>
      </trkpt>
      <trkpt lat="46.31265" lon="4.76112">
        <ele>140.8</ele>
        <time>2011-04-10T06:47:11Z</time>
      </trkpt>
      <trkpt lat="46.31287" lon="4.76104">
        <ele>140.8</ele>
        <time>2011-04-10T06:47:16Z</time>
      </trkpt>
      <trkpt lat="46.31294" lon="4.76101">
        <ele>140.8</ele>
        <time>2011-04-10T06:47:18Z</time>
      </trkpt>
      <trkpt lat="46.31311" lon="4.76095">
        <ele>141.2</ele>
        <time>2011-04-10T06:47:22Z</time>
      </trkpt>
      <trkpt lat="46.31316" lon="4.76093">
        <ele>141.2</ele>
        <time>2011-04-10T06:47:23Z</time>
      </trkpt>
      <trkpt lat="46.3132" lon="4.76092">
        <ele>141.4</ele>
        <time>2011-04-10T06:47:24Z</time>
      </trkpt>
      <trkpt lat="46.31328" lon="4.7609">
        <ele>141.8</ele>
        <time>2011-04-10T06:47:26Z</time>
      </trkpt>
      <trkpt lat="46.31333" lon="4.7609">
        <ele>141.8</ele>
        <time>2011-04-10T06:47:27Z</time>
      </trkpt>
      <trkpt lat="46.31337" lon="4.7609">
        <ele>142</ele>
        <time>2011-04-10T06:47:28Z</time>
      </trkpt>
      <trkpt lat="46.31345" lon="4.7609">
        <ele>142.2</ele>
        <time>2011-04-10T06:47:30Z</time>
      </trkpt>
      <trkpt lat="46.31349" lon="4.76089">
        <ele>142.2</ele>
        <time>2011-04-10T06:47:31Z</time>
      </trkpt>
      <trkpt lat="46.31363" lon="4.76089">
        <ele>142.4</ele>
        <time>2011-04-10T06:47:34Z</time>
      </trkpt>
      <trkpt lat="46.31387" lon="4.76084">
        <ele>142.8</ele>
        <time>2011-04-10T06:47:40Z</time>
      </trkpt>
      <trkpt lat="46.31391" lon="4.76082">
        <ele>142.8</ele>
        <time>2011-04-10T06:47:41Z</time>
      </trkpt>
      <trkpt lat="46.31405" lon="4.76079">
        <ele>142.8</ele>
        <time>2011-04-10T06:47:44Z</time>
      </trkpt>
      <trkpt lat="46.31439" lon="4.76076">
        <ele>142.8</ele>
        <time>2011-04-10T06:47:51Z</time>
      </trkpt>
      <trkpt lat="46.31467" lon="4.76076">
        <ele>143</ele>
        <time>2011-04-10T06:47:58Z</time>
      </trkpt>
      <trkpt lat="46.31488" lon="4.76071">
        <ele>143</ele>
        <time>2011-04-10T06:48:03Z</time>
      </trkpt>
      <trkpt lat="46.31519" lon="4.76067">
        <ele>143</ele>
        <time>2011-04-10T06:48:10Z</time>
      </trkpt>
      <trkpt lat="46.31557" lon="4.76061">
        <ele>143</ele>
        <time>2011-04-10T06:48:18Z</time>
      </trkpt>
      <trkpt lat="46.31598" lon="4.7605">
        <ele>143</ele>
        <time>2011-04-10T06:48:27Z</time>
      </trkpt>
      <trkpt lat="46.31634" lon="4.76035">
        <ele>143</ele>
        <time>2011-04-10T06:48:35Z</time>
      </trkpt>
      <trkpt lat="46.31688" lon="4.76006">
        <ele>143</ele>
        <time>2011-04-10T06:48:47Z</time>
      </trkpt>
      <trkpt lat="46.31736" lon="4.75973">
        <ele>143</ele>
        <time>2011-04-10T06:48:58Z</time>
      </trkpt>
      <trkpt lat="46.31772" lon="4.75943">
        <ele>143</ele>
        <time>2011-04-10T06:49:07Z</time>
      </trkpt>
      <trkpt lat="46.31816" lon="4.75905">
        <ele>143</ele>
        <time>2011-04-10T06:49:18Z</time>
      </trkpt>
      <trkpt lat="46.31824" lon="4.75897">
        <ele>143.2</ele>
        <time>2011-04-10T06:49:20Z</time>
      </trkpt>
      <trkpt lat="46.31833" lon="4.7589">
        <ele>143.6</ele>
        <time>2011-04-10T06:49:22Z</time>
      </trkpt>
      <trkpt lat="46.31841" lon="4.75883">
        <ele>143.8</ele>
        <time>2011-04-10T06:49:24Z</time>
      </trkpt>
      <trkpt lat="46.31849" lon="4.75876">
        <ele>144</ele>
        <time>2011-04-10T06:49:26Z</time>
      </trkpt>
      <trkpt lat="46.31858" lon="4.75868">
        <ele>144.2</ele>
        <time>2011-04-10T06:49:28Z</time>
      </trkpt>
      <trkpt lat="46.31889" lon="4.75838">
        <ele>144.6</ele>
        <time>2011-04-10T06:49:34Z</time>
      </trkpt>
      <trkpt lat="46.31909" lon="4.75817">
        <ele>144.8</ele>
        <time>2011-04-10T06:49:38Z</time>
      </trkpt>
      <trkpt lat="46.31934" lon="4.75784">
        <ele>144.8</ele>
        <time>2011-04-10T06:49:45Z</time>
      </trkpt>
      <trkpt lat="46.31955" lon="4.75757">
        <ele>145</ele>
        <time>2011-04-10T06:49:51Z</time>
      </trkpt>
      <trkpt lat="46.31977" lon="4.75728">
        <ele>145</ele>
        <time>2011-04-10T06:49:57Z</time>
      </trkpt>
      <trkpt lat="46.31983" lon="4.75721">
        <ele>145</ele>
        <time>2011-04-10T06:49:59Z</time>
      </trkpt>
      <trkpt lat="46.32004" lon="4.75694">
        <ele>145</ele>
        <time>2011-04-10T06:50:05Z</time>
      </trkpt>
      <trkpt lat="46.32039" lon="4.75647">
        <ele>145</ele>
        <time>2011-04-10T06:50:15Z</time>
      </trkpt>
      <trkpt lat="46.32071" lon="4.75605">
        <ele>145</ele>
        <time>2011-04-10T06:50:24Z</time>
      </trkpt>
      <trkpt lat="46.32077" lon="4.75596">
        <ele>145</ele>
        <time>2011-04-10T06:50:26Z</time>
      </trkpt>
      <trkpt lat="46.32091" lon="4.75585">
        <ele>145</ele>
        <time>2011-04-10T06:50:30Z</time>
      </trkpt>
      <trkpt lat="46.32094" lon="4.7558">
        <ele>145</ele>
        <time>2011-04-10T06:50:31Z</time>
      </trkpt>
      <trkpt lat="46.32103" lon="4.75565">
        <ele>145.2</ele>
        <time>2011-04-10T06:50:34Z</time>
      </trkpt>
      <trkpt lat="46.32109" lon="4.75554">
        <ele>145.6</ele>
        <time>2011-04-10T06:50:36Z</time>
      </trkpt>
      <trkpt lat="46.32112" lon="4.75549">
        <ele>145.8</ele>
        <time>2011-04-10T06:50:37Z</time>
      </trkpt>
      <trkpt lat="46.32119" lon="4.75532">
        <ele>146</ele>
        <time>2011-04-10T06:50:40Z</time>
      </trkpt>
      <trkpt lat="46.32125" lon="4.75522">
        <ele>146.2</ele>
        <time>2011-04-10T06:50:42Z</time>
      </trkpt>
      <trkpt lat="46.32136" lon="4.75504">
        <ele>146.6</ele>
        <time>2011-04-10T06:50:46Z</time>
      </trkpt>
      <trkpt lat="46.32141" lon="4.75493">
        <ele>146.6</ele>
        <time>2011-04-10T06:50:48Z</time>
      </trkpt>
      <trkpt lat="46.32147" lon="4.75469">
        <ele>146.8</ele>
        <time>2011-04-10T06:50:52Z</time>
      </trkpt>
      <trkpt lat="46.32163" lon="4.75433">
        <ele>147</ele>
        <time>2011-04-10T06:50:58Z</time>
      </trkpt>
      <trkpt lat="46.32174" lon="4.75403">
        <ele>147</ele>
        <time>2011-04-10T06:51:03Z</time>
      </trkpt>
      <trkpt lat="46.32206" lon="4.75347">
        <ele>147</ele>
        <time>2011-04-10T06:51:13Z</time>
      </trkpt>
      <trkpt lat="46.32221" lon="4.75318">
        <ele>147</ele>
        <time>2011-04-10T06:51:19Z</time>
      </trkpt>
      <trkpt lat="46.32229" lon="4.753">
        <ele>147</ele>
        <time>2011-04-10T06:51:24Z</time>
      </trkpt>
      <trkpt lat="46.32229" lon="4.75296">
        <ele>147</ele>
        <time>2011-04-10T06:51:25Z</time>
      </trkpt>
      <trkpt lat="46.32229" lon="4.75295">
        <ele>147</ele>
        <time>2011-04-10T06:51:26Z</time>
      </trkpt>
      <trkpt lat="46.3223" lon="4.7529">
        <ele>147</ele>
        <time>2011-04-10T06:51:29Z</time>
      </trkpt>
      <trkpt lat="46.32238" lon="4.75274">
        <ele>147</ele>
        <time>2011-04-10T06:51:36Z</time>
      </trkpt>
      <trkpt lat="46.32239" lon="4.75272">
        <ele>147</ele>
        <time>2011-04-10T06:51:37Z</time>
      </trkpt>
      <trkpt lat="46.32245" lon="4.75261">
        <ele>147</ele>
        <time>2011-04-10T06:51:43Z</time>
      </trkpt>
      <trkpt lat="46.32249" lon="4.75247">
        <ele>147</ele>
        <time>2011-04-10T06:51:48Z</time>
      </trkpt>
      <trkpt lat="46.32252" lon="4.75228">
        <ele>147</ele>
        <time>2011-04-10T06:51:54Z</time>
      </trkpt>
      <trkpt lat="46.32253" lon="4.75196">
        <ele>147</ele>
        <time>2011-04-10T06:52:03Z</time>
      </trkpt>
      <trkpt lat="46.32254" lon="4.75175">
        <ele>147</ele>
        <time>2011-04-10T06:52:08Z</time>
      </trkpt>
      <trkpt lat="46.32253" lon="4.75161">
        <ele>147</ele>
        <time>2011-04-10T06:52:13Z</time>
      </trkpt>
      <trkpt lat="46.32252" lon="4.75149">
        <ele>147</ele>
        <time>2011-04-10T06:52:17Z</time>
      </trkpt>
      <trkpt lat="46.32257" lon="4.75136">
        <ele>146.8</ele>
        <time>2011-04-10T06:52:23Z</time>
      </trkpt>
      <trkpt lat="46.32255" lon="4.75126">
        <ele>146.4</ele>
        <time>2011-04-10T06:52:25Z</time>
      </trkpt>
      <trkpt lat="46.32252" lon="4.75115">
        <ele>146.2</ele>
        <time>2011-04-10T06:52:27Z</time>
      </trkpt>
      <trkpt lat="46.32252" lon="4.7511">
        <ele>146</ele>
        <time>2011-04-10T06:52:28Z</time>
      </trkpt>
      <trkpt lat="46.32252" lon="4.75105">
        <ele>146</ele>
        <time>2011-04-10T06:52:29Z</time>
      </trkpt>
      <trkpt lat="46.32252" lon="4.75095">
        <ele>145.8</ele>
        <time>2011-04-10T06:52:31Z</time>
      </trkpt>
      <trkpt lat="46.32248" lon="4.75076">
        <ele>145.4</ele>
        <time>2011-04-10T06:52:35Z</time>
      </trkpt>
      <trkpt lat="46.32244" lon="4.75048">
        <ele>145.2</ele>
        <time>2011-04-10T06:52:40Z</time>
      </trkpt>
      <trkpt lat="46.32243" lon="4.75035">
        <ele>145.2</ele>
        <time>2011-04-10T06:52:42Z</time>
      </trkpt>
      <trkpt lat="46.32243" lon="4.75003">
        <ele>145</ele>
        <time>2011-04-10T06:52:47Z</time>
      </trkpt>
      <trkpt lat="46.32239" lon="4.74979">
        <ele>145</ele>
        <time>2011-04-10T06:52:51Z</time>
      </trkpt>
      <trkpt lat="46.32236" lon="4.74949">
        <ele>145</ele>
        <time>2011-04-10T06:52:56Z</time>
      </trkpt>
      <trkpt lat="46.32235" lon="4.74938">
        <ele>145</ele>
        <time>2011-04-10T06:52:58Z</time>
      </trkpt>
      <trkpt lat="46.32234" lon="4.74926">
        <ele>145</ele>
        <time>2011-04-10T06:53:00Z</time>
      </trkpt>
      <trkpt lat="46.32228" lon="4.74877">
        <ele>144.8</ele>
        <time>2011-04-10T06:53:07Z</time>
      </trkpt>
      <trkpt lat="46.32227" lon="4.74871">
        <ele>144.8</ele>
        <time>2011-04-10T06:53:08Z</time>
      </trkpt>
      <trkpt lat="46.32222" lon="4.74834">
        <ele>144.8</ele>
        <time>2011-04-10T06:53:13Z</time>
      </trkpt>
      <trkpt lat="46.32221" lon="4.74829">
        <ele>144.8</ele>
        <time>2011-04-10T06:53:14Z</time>
      </trkpt>
      <trkpt lat="46.32215" lon="4.74793">
        <ele>144.8</ele>
        <time>2011-04-10T06:53:19Z</time>
      </trkpt>
      <trkpt lat="46.32212" lon="4.74764">
        <ele>144.8</ele>
        <time>2011-04-10T06:53:23Z</time>
      </trkpt>
      <trkpt lat="46.32208" lon="4.74749">
        <ele>144.8</ele>
        <time>2011-04-10T06:53:25Z</time>
      </trkpt>
      <trkpt lat="46.32206" lon="4.74735">
        <ele>144.8</ele>
        <time>2011-04-10T06:53:27Z</time>
      </trkpt>
      <trkpt lat="46.32204" lon="4.74723">
        <ele>144.8</ele>
        <time>2011-04-10T06:53:29Z</time>
      </trkpt>
      <trkpt lat="46.32199" lon="4.74677">
        <ele>144.8</ele>
        <time>2011-04-10T06:53:35Z</time>
      </trkpt>
      <trkpt lat="46.32203" lon="4.74639">
        <ele>144.8</ele>
        <time>2011-04-10T06:53:41Z</time>
      </trkpt>
      <trkpt lat="46.322" lon="4.74585">
        <ele>144.8</ele>
        <time>2011-04-10T06:53:48Z</time>
      </trkpt>
      <trkpt lat="46.32196" lon="4.74561">
        <ele>144.8</ele>
        <time>2011-04-10T06:53:52Z</time>
      </trkpt>
      <trkpt lat="46.32196" lon="4.74555">
        <ele>144.8</ele>
        <time>2011-04-10T06:53:53Z</time>
      </trkpt>
      <trkpt lat="46.32194" lon="4.74538">
        <ele>144.8</ele>
        <time>2011-04-10T06:53:56Z</time>
      </trkpt>
      <trkpt lat="46.32192" lon="4.74526">
        <ele>145</ele>
        <time>2011-04-10T06:53:58Z</time>
      </trkpt>
      <trkpt lat="46.32189" lon="4.74515">
        <ele>145.4</ele>
        <time>2011-04-10T06:54:00Z</time>
      </trkpt>
      <trkpt lat="46.32187" lon="4.74507">
        <ele>145.8</ele>
        <time>2011-04-10T06:54:02Z</time>
      </trkpt>
      <trkpt lat="46.32185" lon="4.74503">
        <ele>145.8</ele>
        <time>2011-04-10T06:54:03Z</time>
      </trkpt>
      <trkpt lat="46.32179" lon="4.74489">
        <ele>146.2</ele>
        <time>2011-04-10T06:54:06Z</time>
      </trkpt>
      <trkpt lat="46.32182" lon="4.74472">
        <ele>146.4</ele>
        <time>2011-04-10T06:54:10Z</time>
      </trkpt>
      <trkpt lat="46.32181" lon="4.74464">
        <ele>146.6</ele>
        <time>2011-04-10T06:54:12Z</time>
      </trkpt>
      <trkpt lat="46.3218" lon="4.74448">
        <ele>146.8</ele>
        <time>2011-04-10T06:54:18Z</time>
      </trkpt>
      <trkpt lat="46.32177" lon="4.74446">
        <ele>147</ele>
        <time>2011-04-10T06:54:19Z</time>
      </trkpt>
      <trkpt lat="46.32174" lon="4.74441">
        <ele>147.4</ele>
        <time>2011-04-10T06:54:21Z</time>
      </trkpt>
      <trkpt lat="46.32172" lon="4.74437">
        <ele>147.8</ele>
        <time>2011-04-10T06:54:23Z</time>
      </trkpt>
      <trkpt lat="46.3217" lon="4.74436">
        <ele>147.8</ele>
        <time>2011-04-10T06:54:24Z</time>
      </trkpt>
      <trkpt lat="46.32171" lon="4.74428">
        <ele>148.2</ele>
        <time>2011-04-10T06:54:27Z</time>
      </trkpt>
      <trkpt lat="46.32165" lon="4.74412">
        <ele>148.6</ele>
        <time>2011-04-10T06:54:32Z</time>
      </trkpt>
      <trkpt lat="46.32159" lon="4.74398">
        <ele>149</ele>
        <time>2011-04-10T06:54:36Z</time>
      </trkpt>
      <trkpt lat="46.32158" lon="4.7439">
        <ele>149.4</ele>
        <time>2011-04-10T06:54:38Z</time>
      </trkpt>
      <trkpt lat="46.32154" lon="4.74384">
        <ele>149.8</ele>
        <time>2011-04-10T06:54:40Z</time>
      </trkpt>
      <trkpt lat="46.32149" lon="4.74376">
        <ele>150</ele>
        <time>2011-04-10T06:54:42Z</time>
      </trkpt>
      <trkpt lat="46.32145" lon="4.74368">
        <ele>150.2</ele>
        <time>2011-04-10T06:54:44Z</time>
      </trkpt>
      <trkpt lat="46.32135" lon="4.74336">
        <ele>150.6</ele>
        <time>2011-04-10T06:54:50Z</time>
      </trkpt>
      <trkpt lat="46.32129" lon="4.74318">
        <ele>151</ele>
        <time>2011-04-10T06:54:54Z</time>
      </trkpt>
      <trkpt lat="46.32129" lon="4.74313">
        <ele>151.4</ele>
        <time>2011-04-10T06:54:56Z</time>
      </trkpt>
      <trkpt lat="46.3213" lon="4.74309">
        <ele>151.8</ele>
        <time>2011-04-10T06:54:58Z</time>
      </trkpt>
      <trkpt lat="46.32129" lon="4.74307">
        <ele>152</ele>
        <time>2011-04-10T06:54:59Z</time>
      </trkpt>
      <trkpt lat="46.32128" lon="4.743">
        <ele>152.4</ele>
        <time>2011-04-10T06:55:02Z</time>
      </trkpt>
      <trkpt lat="46.32127" lon="4.74296">
        <ele>152.4</ele>
        <time>2011-04-10T06:55:03Z</time>
      </trkpt>
      <trkpt lat="46.32126" lon="4.74286">
        <ele>153.2</ele>
        <time>2011-04-10T06:55:06Z</time>
      </trkpt>
      <trkpt lat="46.32125" lon="4.74276">
        <ele>153.6</ele>
        <time>2011-04-10T06:55:08Z</time>
      </trkpt>
      <trkpt lat="46.32123" lon="4.74264">
        <ele>154</ele>
        <time>2011-04-10T06:55:10Z</time>
      </trkpt>
      <trkpt lat="46.32123" lon="4.74251">
        <ele>154.2</ele>
        <time>2011-04-10T06:55:12Z</time>
      </trkpt>
      <trkpt lat="46.32123" lon="4.74245">
        <ele>154.6</ele>
        <time>2011-04-10T06:55:13Z</time>
      </trkpt>
      <trkpt lat="46.32122" lon="4.74233">
        <ele>155.2</ele>
        <time>2011-04-10T06:55:15Z</time>
      </trkpt>
      <trkpt lat="46.32121" lon="4.74229">
        <ele>155.4</ele>
        <time>2011-04-10T06:55:16Z</time>
      </trkpt>
      <trkpt lat="46.32121" lon="4.74224">
        <ele>155.6</ele>
        <time>2011-04-10T06:55:17Z</time>
      </trkpt>
      <trkpt lat="46.32121" lon="4.74214">
        <ele>156</ele>
        <time>2011-04-10T06:55:19Z</time>
      </trkpt>
      <trkpt lat="46.3212" lon="4.74205">
        <ele>156.2</ele>
        <time>2011-04-10T06:55:21Z</time>
      </trkpt>
      <trkpt lat="46.3212" lon="4.74197">
        <ele>156.8</ele>
        <time>2011-04-10T06:55:27Z</time>
      </trkpt>
      <trkpt lat="46.32118" lon="4.74197">
        <ele>157</ele>
        <time>2011-04-10T06:55:28Z</time>
      </trkpt>
      <trkpt lat="46.32107" lon="4.74203">
        <ele>157.2</ele>
        <time>2011-04-10T06:55:31Z</time>
      </trkpt>
      <trkpt lat="46.32084" lon="4.74207">
        <ele>157.4</ele>
        <time>2011-04-10T06:55:37Z</time>
      </trkpt>
      <trkpt lat="46.32059" lon="4.7421">
        <ele>157.4</ele>
        <time>2011-04-10T06:55:44Z</time>
      </trkpt>
      <trkpt lat="46.32039" lon="4.74215">
        <ele>157.8</ele>
        <time>2011-04-10T06:55:50Z</time>
      </trkpt>
      <trkpt lat="46.32032" lon="4.74216">
        <ele>158.2</ele>
        <time>2011-04-10T06:55:52Z</time>
      </trkpt>
      <trkpt lat="46.32026" lon="4.74218">
        <ele>158.4</ele>
        <time>2011-04-10T06:55:54Z</time>
      </trkpt>
      <trkpt lat="46.32021" lon="4.7422">
        <ele>158.6</ele>
        <time>2011-04-10T06:55:56Z</time>
      </trkpt>
      <trkpt lat="46.32016" lon="4.74222">
        <ele>158.8</ele>
        <time>2011-04-10T06:55:58Z</time>
      </trkpt>
      <trkpt lat="46.32013" lon="4.74223">
        <ele>159.2</ele>
        <time>2011-04-10T06:55:59Z</time>
      </trkpt>
      <trkpt lat="46.32008" lon="4.74225">
        <ele>159.6</ele>
        <time>2011-04-10T06:56:01Z</time>
      </trkpt>
      <trkpt lat="46.32002" lon="4.74227">
        <ele>160</ele>
        <time>2011-04-10T06:56:03Z</time>
      </trkpt>
      <trkpt lat="46.31996" lon="4.7423">
        <ele>160.4</ele>
        <time>2011-04-10T06:56:05Z</time>
      </trkpt>
      <trkpt lat="46.3199" lon="4.7423">
        <ele>160.6</ele>
        <time>2011-04-10T06:56:07Z</time>
      </trkpt>
      <trkpt lat="46.31987" lon="4.74228">
        <ele>160.8</ele>
        <time>2011-04-10T06:56:08Z</time>
      </trkpt>
      <trkpt lat="46.31977" lon="4.74211">
        <ele>161</ele>
        <time>2011-04-10T06:56:12Z</time>
      </trkpt>
      <trkpt lat="46.31975" lon="4.74207">
        <ele>161.4</ele>
        <time>2011-04-10T06:56:13Z</time>
      </trkpt>
      <trkpt lat="46.31971" lon="4.742">
        <ele>161.8</ele>
        <time>2011-04-10T06:56:15Z</time>
      </trkpt>
      <trkpt lat="46.31967" lon="4.74193">
        <ele>162.2</ele>
        <time>2011-04-10T06:56:17Z</time>
      </trkpt>
      <trkpt lat="46.31963" lon="4.74186">
        <ele>162.6</ele>
        <time>2011-04-10T06:56:19Z</time>
      </trkpt>
      <trkpt lat="46.3196" lon="4.74181">
        <ele>162.8</ele>
        <time>2011-04-10T06:56:21Z</time>
      </trkpt>
      <trkpt lat="46.31956" lon="4.74165">
        <ele>163.2</ele>
        <time>2011-04-10T06:56:25Z</time>
      </trkpt>
      <trkpt lat="46.31954" lon="4.74162">
        <ele>163.4</ele>
        <time>2011-04-10T06:56:27Z</time>
      </trkpt>
      <trkpt lat="46.31953" lon="4.74161">
        <ele>164</ele>
        <time>2011-04-10T06:56:29Z</time>
      </trkpt>
      <trkpt lat="46.31952" lon="4.74162">
        <ele>164.4</ele>
        <time>2011-04-10T06:56:31Z</time>
      </trkpt>
      <trkpt lat="46.31949" lon="4.74161">
        <ele>164.6</ele>
        <time>2011-04-10T06:56:32Z</time>
      </trkpt>
      <trkpt lat="46.31948" lon="4.74161">
        <ele>164.6</ele>
        <time>2011-04-10T06:56:33Z</time>
      </trkpt>
      <trkpt lat="46.31939" lon="4.74156">
        <ele>165</ele>
        <time>2011-04-10T06:56:35Z</time>
      </trkpt>
      <trkpt lat="46.31941" lon="4.74137">
        <ele>165.4</ele>
        <time>2011-04-10T06:56:38Z</time>
      </trkpt>
      <trkpt lat="46.31935" lon="4.74132">
        <ele>166</ele>
        <time>2011-04-10T06:56:40Z</time>
      </trkpt>
      <trkpt lat="46.31924" lon="4.7413">
        <ele>166.4</ele>
        <time>2011-04-10T06:56:42Z</time>
      </trkpt>
      <trkpt lat="46.31915" lon="4.74123">
        <ele>167</ele>
        <time>2011-04-10T06:56:44Z</time>
      </trkpt>
      <trkpt lat="46.31906" lon="4.74116">
        <ele>167.6</ele>
        <time>2011-04-10T06:56:46Z</time>
      </trkpt>
      <trkpt lat="46.31899" lon="4.74114">
        <ele>168</ele>
        <time>2011-04-10T06:56:48Z</time>
      </trkpt>
      <trkpt lat="46.31893" lon="4.74117">
        <ele>168.4</ele>
        <time>2011-04-10T06:56:50Z</time>
      </trkpt>
      <trkpt lat="46.31887" lon="4.7412">
        <ele>169</ele>
        <time>2011-04-10T06:56:52Z</time>
      </trkpt>
      <trkpt lat="46.31882" lon="4.74124">
        <ele>169.6</ele>
        <time>2011-04-10T06:56:54Z</time>
      </trkpt>
      <trkpt lat="46.31878" lon="4.74128">
        <ele>170.2</ele>
        <time>2011-04-10T06:56:56Z</time>
      </trkpt>
      <trkpt lat="46.31873" lon="4.74132">
        <ele>170.6</ele>
        <time>2011-04-10T06:56:58Z</time>
      </trkpt>
      <trkpt lat="46.31869" lon="4.74136">
        <ele>171</ele>
        <time>2011-04-10T06:57:00Z</time>
      </trkpt>
      <trkpt lat="46.31858" lon="4.74137">
        <ele>171.4</ele>
        <time>2011-04-10T06:57:04Z</time>
      </trkpt>
      <trkpt lat="46.31856" lon="4.74135">
        <ele>171.8</ele>
        <time>2011-04-10T06:57:05Z</time>
      </trkpt>
      <trkpt lat="46.31854" lon="4.74132">
        <ele>172</ele>
        <time>2011-04-10T06:57:06Z</time>
      </trkpt>
      <trkpt lat="46.31853" lon="4.74129">
        <ele>172.2</ele>
        <time>2011-04-10T06:57:07Z</time>
      </trkpt>
      <trkpt lat="46.31851" lon="4.74123">
        <ele>172.6</ele>
        <time>2011-04-10T06:57:09Z</time>
      </trkpt>
      <trkpt lat="46.31849" lon="4.74116">
        <ele>173</ele>
        <time>2011-04-10T06:57:11Z</time>
      </trkpt>
      <trkpt lat="46.31848" lon="4.74113">
        <ele>173.4</ele>
        <time>2011-04-10T06:57:12Z</time>
      </trkpt>
      <trkpt lat="46.31846" lon="4.74107">
        <ele>174</ele>
        <time>2011-04-10T06:57:14Z</time>
      </trkpt>
      <trkpt lat="46.31845" lon="4.741">
        <ele>174.4</ele>
        <time>2011-04-10T06:57:16Z</time>
      </trkpt>
      <trkpt lat="46.31845" lon="4.74097">
        <ele>175</ele>
        <time>2011-04-10T06:57:17Z</time>
      </trkpt>
      <trkpt lat="46.31844" lon="4.7409">
        <ele>175.6</ele>
        <time>2011-04-10T06:57:19Z</time>
      </trkpt>
      <trkpt lat="46.31843" lon="4.74082">
        <ele>176.2</ele>
        <time>2011-04-10T06:57:21Z</time>
      </trkpt>
      <trkpt lat="46.31842" lon="4.74075">
        <ele>176.8</ele>
        <time>2011-04-10T06:57:23Z</time>
      </trkpt>
      <trkpt lat="46.31842" lon="4.74068">
        <ele>177.2</ele>
        <time>2011-04-10T06:57:25Z</time>
      </trkpt>
      <trkpt lat="46.31842" lon="4.74047">
        <ele>177.8</ele>
        <time>2011-04-10T06:57:31Z</time>
      </trkpt>
      <trkpt lat="46.31842" lon="4.74021">
        <ele>178.6</ele>
        <time>2011-04-10T06:57:37Z</time>
      </trkpt>
      <trkpt lat="46.31841" lon="4.74013">
        <ele>179</ele>
        <time>2011-04-10T06:57:39Z</time>
      </trkpt>
      <trkpt lat="46.31841" lon="4.74005">
        <ele>179.2</ele>
        <time>2011-04-10T06:57:41Z</time>
      </trkpt>
      <trkpt lat="46.31841" lon="4.73996">
        <ele>179.6</ele>
        <time>2011-04-10T06:57:43Z</time>
      </trkpt>
      <trkpt lat="46.31841" lon="4.73988">
        <ele>179.8</ele>
        <time>2011-04-10T06:57:45Z</time>
      </trkpt>
      <trkpt lat="46.31843" lon="4.73964">
        <ele>180.2</ele>
        <time>2011-04-10T06:57:51Z</time>
      </trkpt>
      <trkpt lat="46.31844" lon="4.73937">
        <ele>180.6</ele>
        <time>2011-04-10T06:57:57Z</time>
      </trkpt>
      <trkpt lat="46.31842" lon="4.73926">
        <ele>180.8</ele>
        <time>2011-04-10T06:58:00Z</time>
      </trkpt>
      <trkpt lat="46.3184" lon="4.73919">
        <ele>181.2</ele>
        <time>2011-04-10T06:58:02Z</time>
      </trkpt>
      <trkpt lat="46.31837" lon="4.73912">
        <ele>181.6</ele>
        <time>2011-04-10T06:58:04Z</time>
      </trkpt>
      <trkpt lat="46.31832" lon="4.73905">
        <ele>181.8</ele>
        <time>2011-04-10T06:58:06Z</time>
      </trkpt>
      <trkpt lat="46.31827" lon="4.73901">
        <ele>182</ele>
        <time>2011-04-10T06:58:08Z</time>
      </trkpt>
      <trkpt lat="46.31807" lon="4.73889">
        <ele>182.6</ele>
        <time>2011-04-10T06:58:15Z</time>
      </trkpt>
      <trkpt lat="46.31797" lon="4.73872">
        <ele>182.8</ele>
        <time>2011-04-10T06:58:20Z</time>
      </trkpt>
      <trkpt lat="46.31791" lon="4.73856">
        <ele>183</ele>
        <time>2011-04-10T06:58:24Z</time>
      </trkpt>
      <trkpt lat="46.31788" lon="4.73847">
        <ele>183.4</ele>
        <time>2011-04-10T06:58:26Z</time>
      </trkpt>
      <trkpt lat="46.31786" lon="4.7384">
        <ele>183.8</ele>
        <time>2011-04-10T06:58:28Z</time>
      </trkpt>
      <trkpt lat="46.31784" lon="4.73832">
        <ele>184</ele>
        <time>2011-04-10T06:58:30Z</time>
      </trkpt>
      <trkpt lat="46.31782" lon="4.73824">
        <ele>184.2</ele>
        <time>2011-04-10T06:58:32Z</time>
      </trkpt>
      <trkpt lat="46.31774" lon="4.73794">
        <ele>184.8</ele>
        <time>2011-04-10T06:58:40Z</time>
      </trkpt>
      <trkpt lat="46.31772" lon="4.7379">
        <ele>185</ele>
        <time>2011-04-10T06:58:41Z</time>
      </trkpt>
      <trkpt lat="46.3177" lon="4.73783">
        <ele>185.4</ele>
        <time>2011-04-10T06:58:43Z</time>
      </trkpt>
      <trkpt lat="46.31768" lon="4.73775">
        <ele>185.8</ele>
        <time>2011-04-10T06:58:45Z</time>
      </trkpt>
      <trkpt lat="46.31766" lon="4.73768">
        <ele>186</ele>
        <time>2011-04-10T06:58:47Z</time>
      </trkpt>
      <trkpt lat="46.31764" lon="4.73761">
        <ele>186.4</ele>
        <time>2011-04-10T06:58:49Z</time>
      </trkpt>
      <trkpt lat="46.31763" lon="4.73757">
        <ele>186.6</ele>
        <time>2011-04-10T06:58:50Z</time>
      </trkpt>
      <trkpt lat="46.31761" lon="4.73749">
        <ele>187.2</ele>
        <time>2011-04-10T06:58:52Z</time>
      </trkpt>
      <trkpt lat="46.3176" lon="4.73742">
        <ele>187.6</ele>
        <time>2011-04-10T06:58:54Z</time>
      </trkpt>
      <trkpt lat="46.31759" lon="4.73734">
        <ele>188</ele>
        <time>2011-04-10T06:58:56Z</time>
      </trkpt>
      <trkpt lat="46.31757" lon="4.73727">
        <ele>188.4</ele>
        <time>2011-04-10T06:58:58Z</time>
      </trkpt>
      <trkpt lat="46.31756" lon="4.7372">
        <ele>189</ele>
        <time>2011-04-10T06:59:00Z</time>
      </trkpt>
      <trkpt lat="46.31755" lon="4.73713">
        <ele>189.4</ele>
        <time>2011-04-10T06:59:02Z</time>
      </trkpt>
      <trkpt lat="46.31753" lon="4.73707">
        <ele>189.8</ele>
        <time>2011-04-10T06:59:04Z</time>
      </trkpt>
      <trkpt lat="46.31751" lon="4.737">
        <ele>190.2</ele>
        <time>2011-04-10T06:59:06Z</time>
      </trkpt>
      <trkpt lat="46.31751" lon="4.73697">
        <ele>190.4</ele>
        <time>2011-04-10T06:59:07Z</time>
      </trkpt>
      <trkpt lat="46.31749" lon="4.7369">
        <ele>191</ele>
        <time>2011-04-10T06:59:09Z</time>
      </trkpt>
      <trkpt lat="46.31748" lon="4.73683">
        <ele>191.4</ele>
        <time>2011-04-10T06:59:11Z</time>
      </trkpt>
      <trkpt lat="46.31746" lon="4.73678">
        <ele>191.8</ele>
        <time>2011-04-10T06:59:13Z</time>
      </trkpt>
      <trkpt lat="46.31745" lon="4.73675">
        <ele>192.2</ele>
        <time>2011-04-10T06:59:15Z</time>
      </trkpt>
      <trkpt lat="46.31745" lon="4.73673">
        <ele>192.2</ele>
        <time>2011-04-10T06:59:16Z</time>
      </trkpt>
      <trkpt lat="46.31734" lon="4.7368">
        <ele>192.8</ele>
        <time>2011-04-10T06:59:22Z</time>
      </trkpt>
      <trkpt lat="46.3173" lon="4.73683">
        <ele>193.2</ele>
        <time>2011-04-10T06:59:24Z</time>
      </trkpt>
      <trkpt lat="46.31725" lon="4.73684">
        <ele>193.6</ele>
        <time>2011-04-10T06:59:26Z</time>
      </trkpt>
      <trkpt lat="46.3172" lon="4.73684">
        <ele>194</ele>
        <time>2011-04-10T06:59:28Z</time>
      </trkpt>
      <trkpt lat="46.31716" lon="4.73682">
        <ele>194.4</ele>
        <time>2011-04-10T06:59:30Z</time>
      </trkpt>
      <trkpt lat="46.31712" lon="4.73678">
        <ele>194.6</ele>
        <time>2011-04-10T06:59:32Z</time>
      </trkpt>
      <trkpt lat="46.31703" lon="4.73663">
        <ele>195.4</ele>
        <time>2011-04-10T06:59:39Z</time>
      </trkpt>
      <trkpt lat="46.317" lon="4.73658">
        <ele>195.8</ele>
        <time>2011-04-10T06:59:41Z</time>
      </trkpt>
      <trkpt lat="46.31698" lon="4.73654">
        <ele>196.2</ele>
        <time>2011-04-10T06:59:43Z</time>
      </trkpt>
      <trkpt lat="46.31696" lon="4.7365">
        <ele>196.4</ele>
        <time>2011-04-10T06:59:45Z</time>
      </trkpt>
      <trkpt lat="46.31694" lon="4.73646">
        <ele>196.6</ele>
        <time>2011-04-10T06:59:47Z</time>
      </trkpt>
      <trkpt lat="46.31693" lon="4.73644">
        <ele>197</ele>
        <time>2011-04-10T06:59:48Z</time>
      </trkpt>
      <trkpt lat="46.31691" lon="4.7364">
        <ele>197.4</ele>
        <time>2011-04-10T06:59:50Z</time>
      </trkpt>
      <trkpt lat="46.31689" lon="4.73637">
        <ele>198</ele>
        <time>2011-04-10T06:59:52Z</time>
      </trkpt>
      <trkpt lat="46.31686" lon="4.73633">
        <ele>198.2</ele>
        <time>2011-04-10T06:59:54Z</time>
      </trkpt>
      <trkpt lat="46.31684" lon="4.73629">
        <ele>198.6</ele>
        <time>2011-04-10T06:59:56Z</time>
      </trkpt>
      <trkpt lat="46.31683" lon="4.73627">
        <ele>198.8</ele>
        <time>2011-04-10T06:59:57Z</time>
      </trkpt>
      <trkpt lat="46.31682" lon="4.73623">
        <ele>199.4</ele>
        <time>2011-04-10T06:59:59Z</time>
      </trkpt>
      <trkpt lat="46.31681" lon="4.73619">
        <ele>200</ele>
        <time>2011-04-10T07:00:01Z</time>
      </trkpt>
      <trkpt lat="46.31679" lon="4.73615">
        <ele>200.2</ele>
        <time>2011-04-10T07:00:03Z</time>
      </trkpt>
      <trkpt lat="46.31679" lon="4.73613">
        <ele>200.6</ele>
        <time>2011-04-10T07:00:04Z</time>
      </trkpt>
      <trkpt lat="46.31678" lon="4.73609">
        <ele>201.4</ele>
        <time>2011-04-10T07:00:06Z</time>
      </trkpt>
      <trkpt lat="46.31676" lon="4.73605">
        <ele>201.8</ele>
        <time>2011-04-10T07:00:08Z</time>
      </trkpt>
      <trkpt lat="46.31674" lon="4.73601">
        <ele>202.2</ele>
        <time>2011-04-10T07:00:10Z</time>
      </trkpt>
      <trkpt lat="46.31673" lon="4.73596">
        <ele>202.6</ele>
        <time>2011-04-10T07:00:12Z</time>
      </trkpt>
      <trkpt lat="46.31668" lon="4.73585">
        <ele>203.4</ele>
        <time>2011-04-10T07:00:17Z</time>
      </trkpt>
      <trkpt lat="46.31667" lon="4.7358">
        <ele>204</ele>
        <time>2011-04-10T07:00:19Z</time>
      </trkpt>
      <trkpt lat="46.31665" lon="4.73576">
        <ele>204.4</ele>
        <time>2011-04-10T07:00:21Z</time>
      </trkpt>
      <trkpt lat="46.31663" lon="4.73572">
        <ele>204.8</ele>
        <time>2011-04-10T07:00:23Z</time>
      </trkpt>
      <trkpt lat="46.31661" lon="4.73568">
        <ele>205</ele>
        <time>2011-04-10T07:00:25Z</time>
      </trkpt>
      <trkpt lat="46.31659" lon="4.73564">
        <ele>205.4</ele>
        <time>2011-04-10T07:00:27Z</time>
      </trkpt>
      <trkpt lat="46.31656" lon="4.73559">
        <ele>206</ele>
        <time>2011-04-10T07:00:29Z</time>
      </trkpt>
      <trkpt lat="46.31654" lon="4.73554">
        <ele>206.4</ele>
        <time>2011-04-10T07:00:31Z</time>
      </trkpt>
      <trkpt lat="46.31652" lon="4.7355">
        <ele>206.8</ele>
        <time>2011-04-10T07:00:33Z</time>
      </trkpt>
      <trkpt lat="46.3165" lon="4.73546">
        <ele>207</ele>
        <time>2011-04-10T07:00:35Z</time>
      </trkpt>
      <trkpt lat="46.31647" lon="4.73541">
        <ele>207.6</ele>
        <time>2011-04-10T07:00:38Z</time>
      </trkpt>
      <trkpt lat="46.31645" lon="4.73537">
        <ele>208.2</ele>
        <time>2011-04-10T07:00:40Z</time>
      </trkpt>
      <trkpt lat="46.31643" lon="4.73534">
        <ele>208.6</ele>
        <time>2011-04-10T07:00:42Z</time>
      </trkpt>
      <trkpt lat="46.31641" lon="4.7353">
        <ele>209</ele>
        <time>2011-04-10T07:00:44Z</time>
      </trkpt>
      <trkpt lat="46.31639" lon="4.73526">
        <ele>209.2</ele>
        <time>2011-04-10T07:00:46Z</time>
      </trkpt>
      <trkpt lat="46.31629" lon="4.73508">
        <ele>210.2</ele>
        <time>2011-04-10T07:00:55Z</time>
      </trkpt>
      <trkpt lat="46.31628" lon="4.73504">
        <ele>210.6</ele>
        <time>2011-04-10T07:00:57Z</time>
      </trkpt>
      <trkpt lat="46.31626" lon="4.735">
        <ele>211</ele>
        <time>2011-04-10T07:00:59Z</time>
      </trkpt>
      <trkpt lat="46.31624" lon="4.73496">
        <ele>211.2</ele>
        <time>2011-04-10T07:01:01Z</time>
      </trkpt>
      <trkpt lat="46.31622" lon="4.73492">
        <ele>211.4</ele>
        <time>2011-04-10T07:01:03Z</time>
      </trkpt>
      <trkpt lat="46.31616" lon="4.73478">
        <ele>212</ele>
        <time>2011-04-10T07:01:10Z</time>
      </trkpt>
      <trkpt lat="46.31615" lon="4.73476">
        <ele>212.2</ele>
        <time>2011-04-10T07:01:11Z</time>
      </trkpt>
      <trkpt lat="46.31612" lon="4.73473">
        <ele>212.8</ele>
        <time>2011-04-10T07:01:13Z</time>
      </trkpt>
      <trkpt lat="46.31609" lon="4.73471">
        <ele>213</ele>
        <time>2011-04-10T07:01:15Z</time>
      </trkpt>
      <trkpt lat="46.31606" lon="4.73468">
        <ele>213.4</ele>
        <time>2011-04-10T07:01:17Z</time>
      </trkpt>
      <trkpt lat="46.31603" lon="4.73465">
        <ele>213.6</ele>
        <time>2011-04-10T07:01:19Z</time>
      </trkpt>
      <trkpt lat="46.31589" lon="4.73454">
        <ele>214.2</ele>
        <time>2011-04-10T07:01:28Z</time>
      </trkpt>
      <trkpt lat="46.31577" lon="4.73447">
        <ele>214.4</ele>
        <time>2011-04-10T07:01:33Z</time>
      </trkpt>
      <trkpt lat="46.31549" lon="4.73438">
        <ele>214.4</ele>
        <time>2011-04-10T07:01:42Z</time>
      </trkpt>
      <trkpt lat="46.31541" lon="4.73435">
        <ele>214.8</ele>
        <time>2011-04-10T07:01:45Z</time>
      </trkpt>
      <trkpt lat="46.31536" lon="4.73432">
        <ele>215</ele>
        <time>2011-04-10T07:01:47Z</time>
      </trkpt>
      <trkpt lat="46.31531" lon="4.7343">
        <ele>215.4</ele>
        <time>2011-04-10T07:01:49Z</time>
      </trkpt>
      <trkpt lat="46.31525" lon="4.73428">
        <ele>215.6</ele>
        <time>2011-04-10T07:01:51Z</time>
      </trkpt>
      <trkpt lat="46.3152" lon="4.73426">
        <ele>215.8</ele>
        <time>2011-04-10T07:01:53Z</time>
      </trkpt>
      <trkpt lat="46.31495" lon="4.73415">
        <ele>216.4</ele>
        <time>2011-04-10T07:02:02Z</time>
      </trkpt>
      <trkpt lat="46.31492" lon="4.73413">
        <ele>216.6</ele>
        <time>2011-04-10T07:02:03Z</time>
      </trkpt>
      <trkpt lat="46.31487" lon="4.73412">
        <ele>217</ele>
        <time>2011-04-10T07:02:05Z</time>
      </trkpt>
      <trkpt lat="46.31481" lon="4.7341">
        <ele>217.4</ele>
        <time>2011-04-10T07:02:07Z</time>
      </trkpt>
      <trkpt lat="46.31476" lon="4.7341">
        <ele>217.6</ele>
        <time>2011-04-10T07:02:09Z</time>
      </trkpt>
      <trkpt lat="46.3147" lon="4.7341">
        <ele>217.8</ele>
        <time>2011-04-10T07:02:11Z</time>
      </trkpt>
      <trkpt lat="46.31448" lon="4.73411">
        <ele>218.4</ele>
        <time>2011-04-10T07:02:19Z</time>
      </trkpt>
      <trkpt lat="46.31442" lon="4.73411">
        <ele>218.8</ele>
        <time>2011-04-10T07:02:21Z</time>
      </trkpt>
      <trkpt lat="46.31437" lon="4.73412">
        <ele>219.2</ele>
        <time>2011-04-10T07:02:23Z</time>
      </trkpt>
      <trkpt lat="46.31432" lon="4.73412">
        <ele>219.4</ele>
        <time>2011-04-10T07:02:25Z</time>
      </trkpt>
      <trkpt lat="46.31427" lon="4.73412">
        <ele>219.8</ele>
        <time>2011-04-10T07:02:27Z</time>
      </trkpt>
      <trkpt lat="46.31422" lon="4.73413">
        <ele>220</ele>
        <time>2011-04-10T07:02:29Z</time>
      </trkpt>
      <trkpt lat="46.31411" lon="4.73412">
        <ele>220.6</ele>
        <time>2011-04-10T07:02:34Z</time>
      </trkpt>
      <trkpt lat="46.31409" lon="4.73411">
        <ele>220.8</ele>
        <time>2011-04-10T07:02:35Z</time>
      </trkpt>
      <trkpt lat="46.31407" lon="4.73407">
        <ele>221.2</ele>
        <time>2011-04-10T07:02:37Z</time>
      </trkpt>
      <trkpt lat="46.31405" lon="4.734">
        <ele>221.6</ele>
        <time>2011-04-10T07:02:40Z</time>
      </trkpt>
      <trkpt lat="46.31405" lon="4.73393">
        <ele>221.8</ele>
        <time>2011-04-10T07:02:42Z</time>
      </trkpt>
      <trkpt lat="46.31405" lon="4.73383">
        <ele>222.4</ele>
        <time>2011-04-10T07:02:45Z</time>
      </trkpt>
      <trkpt lat="46.31404" lon="4.73378">
        <ele>222.8</ele>
        <time>2011-04-10T07:02:47Z</time>
      </trkpt>
      <trkpt lat="46.31404" lon="4.73371">
        <ele>223.2</ele>
        <time>2011-04-10T07:02:49Z</time>
      </trkpt>
      <trkpt lat="46.31403" lon="4.73365">
        <ele>223.6</ele>
        <time>2011-04-10T07:02:51Z</time>
      </trkpt>
      <trkpt lat="46.31402" lon="4.73359">
        <ele>223.8</ele>
        <time>2011-04-10T07:02:53Z</time>
      </trkpt>
      <trkpt lat="46.31399" lon="4.73332">
        <ele>224.8</ele>
        <time>2011-04-10T07:03:02Z</time>
      </trkpt>
      <trkpt lat="46.31398" lon="4.73327">
        <ele>225.2</ele>
        <time>2011-04-10T07:03:04Z</time>
      </trkpt>
      <trkpt lat="46.31397" lon="4.73322">
        <ele>225.6</ele>
        <time>2011-04-10T07:03:06Z</time>
      </trkpt>
      <trkpt lat="46.31396" lon="4.73316">
        <ele>225.8</ele>
        <time>2011-04-10T07:03:08Z</time>
      </trkpt>
      <trkpt lat="46.31396" lon="4.73312">
        <ele>226</ele>
        <time>2011-04-10T07:03:10Z</time>
      </trkpt>
      <trkpt lat="46.31395" lon="4.73306">
        <ele>226.4</ele>
        <time>2011-04-10T07:03:12Z</time>
      </trkpt>
      <trkpt lat="46.31395" lon="4.73301">
        <ele>227</ele>
        <time>2011-04-10T07:03:14Z</time>
      </trkpt>
      <trkpt lat="46.31395" lon="4.73295">
        <ele>227.4</ele>
        <time>2011-04-10T07:03:16Z</time>
      </trkpt>
      <trkpt lat="46.31395" lon="4.73289">
        <ele>227.6</ele>
        <time>2011-04-10T07:03:18Z</time>
      </trkpt>
      <trkpt lat="46.31395" lon="4.73284">
        <ele>228</ele>
        <time>2011-04-10T07:03:20Z</time>
      </trkpt>
      <trkpt lat="46.31395" lon="4.73264">
        <ele>228.6</ele>
        <time>2011-04-10T07:03:28Z</time>
      </trkpt>
      <trkpt lat="46.31395" lon="4.73262">
        <ele>228.8</ele>
        <time>2011-04-10T07:03:29Z</time>
      </trkpt>
      <trkpt lat="46.31396" lon="4.73257">
        <ele>229.4</ele>
        <time>2011-04-10T07:03:31Z</time>
      </trkpt>
      <trkpt lat="46.31397" lon="4.73253">
        <ele>229.8</ele>
        <time>2011-04-10T07:03:33Z</time>
      </trkpt>
      <trkpt lat="46.314" lon="4.73249">
        <ele>230</ele>
        <time>2011-04-10T07:03:35Z</time>
      </trkpt>
      <trkpt lat="46.31401" lon="4.73247">
        <ele>230.2</ele>
        <time>2011-04-10T07:03:36Z</time>
      </trkpt>
      <trkpt lat="46.31396" lon="4.73225">
        <ele>231</ele>
        <time>2011-04-10T07:03:45Z</time>
      </trkpt>
      <trkpt lat="46.31394" lon="4.73221">
        <ele>231.6</ele>
        <time>2011-04-10T07:03:47Z</time>
      </trkpt>
      <trkpt lat="46.31392" lon="4.73217">
        <ele>232</ele>
        <time>2011-04-10T07:03:49Z</time>
      </trkpt>
      <trkpt lat="46.31389" lon="4.73212">
        <ele>232.4</ele>
        <time>2011-04-10T07:03:51Z</time>
      </trkpt>
      <trkpt lat="46.31387" lon="4.73209">
        <ele>232.6</ele>
        <time>2011-04-10T07:03:53Z</time>
      </trkpt>
      <trkpt lat="46.31386" lon="4.73204">
        <ele>233</ele>
        <time>2011-04-10T07:03:55Z</time>
      </trkpt>
      <trkpt lat="46.31383" lon="4.732">
        <ele>233.6</ele>
        <time>2011-04-10T07:03:57Z</time>
      </trkpt>
      <trkpt lat="46.31382" lon="4.73196">
        <ele>234</ele>
        <time>2011-04-10T07:03:59Z</time>
      </trkpt>
      <trkpt lat="46.31379" lon="4.73191">
        <ele>234.4</ele>
        <time>2011-04-10T07:04:01Z</time>
      </trkpt>
      <trkpt lat="46.31377" lon="4.73187">
        <ele>234.8</ele>
        <time>2011-04-10T07:04:03Z</time>
      </trkpt>
      <trkpt lat="46.31376" lon="4.73183">
        <ele>235.4</ele>
        <time>2011-04-10T07:04:05Z</time>
      </trkpt>
      <trkpt lat="46.31374" lon="4.73179">
        <ele>236</ele>
        <time>2011-04-10T07:04:07Z</time>
      </trkpt>
      <trkpt lat="46.31372" lon="4.73176">
        <ele>236.4</ele>
        <time>2011-04-10T07:04:09Z</time>
      </trkpt>
      <trkpt lat="46.3137" lon="4.73172">
        <ele>236.6</ele>
        <time>2011-04-10T07:04:11Z</time>
      </trkpt>
      <trkpt lat="46.31369" lon="4.7317">
        <ele>237</ele>
        <time>2011-04-10T07:04:12Z</time>
      </trkpt>
      <trkpt lat="46.31367" lon="4.73166">
        <ele>237.6</ele>
        <time>2011-04-10T07:04:14Z</time>
      </trkpt>
      <trkpt lat="46.31365" lon="4.73163">
        <ele>238</ele>
        <time>2011-04-10T07:04:16Z</time>
      </trkpt>
      <trkpt lat="46.31363" lon="4.7316">
        <ele>238.6</ele>
        <time>2011-04-10T07:04:18Z</time>
      </trkpt>
      <trkpt lat="46.31361" lon="4.73156">
        <ele>239.4</ele>
        <time>2011-04-10T07:04:20Z</time>
      </trkpt>
      <trkpt lat="46.31359" lon="4.73153">
        <ele>240</ele>
        <time>2011-04-10T07:04:22Z</time>
      </trkpt>
      <trkpt lat="46.31358" lon="4.7315">
        <ele>240.4</ele>
        <time>2011-04-10T07:04:24Z</time>
      </trkpt>
      <trkpt lat="46.31357" lon="4.73148">
        <ele>240.8</ele>
        <time>2011-04-10T07:04:25Z</time>
      </trkpt>
      <trkpt lat="46.31356" lon="4.73146">
        <ele>241.2</ele>
        <time>2011-04-10T07:04:26Z</time>
      </trkpt>
      <trkpt lat="46.31354" lon="4.73142">
        <ele>242</ele>
        <time>2011-04-10T07:04:29Z</time>
      </trkpt>
      <trkpt lat="46.31353" lon="4.73139">
        <ele>242.4</ele>
        <time>2011-04-10T07:04:31Z</time>
      </trkpt>
      <trkpt lat="46.31352" lon="4.73138">
        <ele>242.8</ele>
        <time>2011-04-10T07:04:32Z</time>
      </trkpt>
      <trkpt lat="46.31351" lon="4.73138">
        <ele>243.2</ele>
        <time>2011-04-10T07:04:33Z</time>
      </trkpt>
      <trkpt lat="46.31349" lon="4.73136">
        <ele>244.2</ele>
        <time>2011-04-10T07:04:36Z</time>
      </trkpt>
      <trkpt lat="46.31348" lon="4.73135">
        <ele>244.6</ele>
        <time>2011-04-10T07:04:38Z</time>
      </trkpt>
      <trkpt lat="46.31347" lon="4.73131">
        <ele>245</ele>
        <time>2011-04-10T07:04:40Z</time>
      </trkpt>
      <trkpt lat="46.31347" lon="4.73127">
        <ele>245.4</ele>
        <time>2011-04-10T07:04:42Z</time>
      </trkpt>
      <trkpt lat="46.31346" lon="4.73125">
        <ele>246</ele>
        <time>2011-04-10T07:04:44Z</time>
      </trkpt>
      <trkpt lat="46.31345" lon="4.73125">
        <ele>246.4</ele>
        <time>2011-04-10T07:04:45Z</time>
      </trkpt>
      <trkpt lat="46.31344" lon="4.73123">
        <ele>246.6</ele>
        <time>2011-04-10T07:04:46Z</time>
      </trkpt>
      <trkpt lat="46.31343" lon="4.73124">
        <ele>246.8</ele>
        <time>2011-04-10T07:04:47Z</time>
      </trkpt>
      <trkpt lat="46.31338" lon="4.73122">
        <ele>247.2</ele>
        <time>2011-04-10T07:04:50Z</time>
      </trkpt>
      <trkpt lat="46.31329" lon="4.7312">
        <ele>248.2</ele>
        <time>2011-04-10T07:04:56Z</time>
      </trkpt>
      <trkpt lat="46.31326" lon="4.73119">
        <ele>248.6</ele>
        <time>2011-04-10T07:04:58Z</time>
      </trkpt>
      <trkpt lat="46.31324" lon="4.73117">
        <ele>249</ele>
        <time>2011-04-10T07:05:00Z</time>
      </trkpt>
      <trkpt lat="46.31321" lon="4.73116">
        <ele>249.4</ele>
        <time>2011-04-10T07:05:02Z</time>
      </trkpt>
      <trkpt lat="46.31318" lon="4.73114">
        <ele>249.6</ele>
        <time>2011-04-10T07:05:04Z</time>
      </trkpt>
      <trkpt lat="46.31317" lon="4.73113">
        <ele>250</ele>
        <time>2011-04-10T07:05:05Z</time>
      </trkpt>
      <trkpt lat="46.31314" lon="4.73112">
        <ele>250.4</ele>
        <time>2011-04-10T07:05:07Z</time>
      </trkpt>
      <trkpt lat="46.31312" lon="4.73111">
        <ele>251</ele>
        <time>2011-04-10T07:05:09Z</time>
      </trkpt>
      <trkpt lat="46.31309" lon="4.73109">
        <ele>251.2</ele>
        <time>2011-04-10T07:05:11Z</time>
      </trkpt>
      <trkpt lat="46.31307" lon="4.73108">
        <ele>251.6</ele>
        <time>2011-04-10T07:05:13Z</time>
      </trkpt>
      <trkpt lat="46.313" lon="4.73105">
        <ele>252.4</ele>
        <time>2011-04-10T07:05:18Z</time>
      </trkpt>
      <trkpt lat="46.31297" lon="4.73104">
        <ele>252.8</ele>
        <time>2011-04-10T07:05:20Z</time>
      </trkpt>
      <trkpt lat="46.31295" lon="4.73102">
        <ele>253.2</ele>
        <time>2011-04-10T07:05:22Z</time>
      </trkpt>
      <trkpt lat="46.31292" lon="4.73101">
        <ele>253.6</ele>
        <time>2011-04-10T07:05:24Z</time>
      </trkpt>
      <trkpt lat="46.3129" lon="4.73099">
        <ele>253.8</ele>
        <time>2011-04-10T07:05:26Z</time>
      </trkpt>
      <trkpt lat="46.31277" lon="4.73096">
        <ele>254.8</ele>
        <time>2011-04-10T07:05:34Z</time>
      </trkpt>
      <trkpt lat="46.31274" lon="4.73096">
        <ele>255.2</ele>
        <time>2011-04-10T07:05:36Z</time>
      </trkpt>
      <trkpt lat="46.31271" lon="4.73095">
        <ele>255.4</ele>
        <time>2011-04-10T07:05:38Z</time>
      </trkpt>
      <trkpt lat="46.31268" lon="4.73095">
        <ele>255.8</ele>
        <time>2011-04-10T07:05:40Z</time>
      </trkpt>
      <trkpt lat="46.31265" lon="4.73094">
        <ele>256</ele>
        <time>2011-04-10T07:05:42Z</time>
      </trkpt>
      <trkpt lat="46.31251" lon="4.73094">
        <ele>256.6</ele>
        <time>2011-04-10T07:05:49Z</time>
      </trkpt>
      <trkpt lat="46.31241" lon="4.73094">
        <ele>257</ele>
        <time>2011-04-10T07:05:55Z</time>
      </trkpt>
      <trkpt lat="46.31238" lon="4.73094">
        <ele>257.4</ele>
        <time>2011-04-10T07:05:57Z</time>
      </trkpt>
      <trkpt lat="46.31235" lon="4.73095">
        <ele>257.6</ele>
        <time>2011-04-10T07:05:59Z</time>
      </trkpt>
      <trkpt lat="46.31233" lon="4.73095">
        <ele>258</ele>
        <time>2011-04-10T07:06:01Z</time>
      </trkpt>
      <trkpt lat="46.3123" lon="4.73096">
        <ele>258.2</ele>
        <time>2011-04-10T07:06:03Z</time>
      </trkpt>
      <trkpt lat="46.31227" lon="4.73097">
        <ele>258.6</ele>
        <time>2011-04-10T07:06:08Z</time>
      </trkpt>
      <trkpt lat="46.31229" lon="4.73098">
        <ele>259</ele>
        <time>2011-04-10T07:06:23Z</time>
      </trkpt>
      <trkpt lat="46.31229" lon="4.73098">
        <ele>259</ele>
        <time>2011-04-10T07:06:27Z</time>
      </trkpt>
      <trkpt lat="46.31229" lon="4.73097">
        <ele>259</ele>
        <time>2011-04-10T07:06:33Z</time>
      </trkpt>
      <trkpt lat="46.31229" lon="4.73098">
        <ele>259</ele>
        <time>2011-04-10T07:06:37Z</time>
      </trkpt>
      <trkpt lat="46.31224" lon="4.731">
        <ele>259</ele>
        <time>2011-04-10T07:06:46Z</time>
      </trkpt>
      <trkpt lat="46.31218" lon="4.73101">
        <ele>259</ele>
        <time>2011-04-10T07:06:48Z</time>
      </trkpt>
      <trkpt lat="46.31204" lon="4.73106">
        <ele>259</ele>
        <time>2011-04-10T07:06:52Z</time>
      </trkpt>
      <trkpt lat="46.31182" lon="4.73111">
        <ele>259</ele>
        <time>2011-04-10T07:06:57Z</time>
      </trkpt>
      <trkpt lat="46.31164" lon="4.73116">
        <ele>258.8</ele>
        <time>2011-04-10T07:07:01Z</time>
      </trkpt>
      <trkpt lat="46.31159" lon="4.73117">
        <ele>258.6</ele>
        <time>2011-04-10T07:07:02Z</time>
      </trkpt>
      <trkpt lat="46.31144" lon="4.73121">
        <ele>258.2</ele>
        <time>2011-04-10T07:07:05Z</time>
      </trkpt>
      <trkpt lat="46.3114" lon="4.73121">
        <ele>258</ele>
        <time>2011-04-10T07:07:06Z</time>
      </trkpt>
      <trkpt lat="46.31136" lon="4.73119">
        <ele>258</ele>
        <time>2011-04-10T07:07:07Z</time>
      </trkpt>
      <trkpt lat="46.31132" lon="4.73115">
        <ele>257.8</ele>
        <time>2011-04-10T07:07:09Z</time>
      </trkpt>
      <trkpt lat="46.31129" lon="4.73106">
        <ele>257.4</ele>
        <time>2011-04-10T07:07:12Z</time>
      </trkpt>
      <trkpt lat="46.31126" lon="4.73099">
        <ele>257.4</ele>
        <time>2011-04-10T07:07:15Z</time>
      </trkpt>
      <trkpt lat="46.31122" lon="4.73094">
        <ele>257.2</ele>
        <time>2011-04-10T07:07:18Z</time>
      </trkpt>
      <trkpt lat="46.3112" lon="4.73092">
        <ele>257.4</ele>
        <time>2011-04-10T07:07:19Z</time>
      </trkpt>
      <trkpt lat="46.31117" lon="4.73089">
        <ele>257.6</ele>
        <time>2011-04-10T07:07:21Z</time>
      </trkpt>
      <trkpt lat="46.31114" lon="4.73085">
        <ele>258</ele>
        <time>2011-04-10T07:07:23Z</time>
      </trkpt>
      <trkpt lat="46.3111" lon="4.73082">
        <ele>258.2</ele>
        <time>2011-04-10T07:07:25Z</time>
      </trkpt>
      <trkpt lat="46.31107" lon="4.73078">
        <ele>258.4</ele>
        <time>2011-04-10T07:07:27Z</time>
      </trkpt>
      <trkpt lat="46.31104" lon="4.73074">
        <ele>259</ele>
        <time>2011-04-10T07:07:29Z</time>
      </trkpt>
      <trkpt lat="46.31101" lon="4.73071">
        <ele>259.4</ele>
        <time>2011-04-10T07:07:31Z</time>
      </trkpt>
      <trkpt lat="46.31098" lon="4.73068">
        <ele>259.8</ele>
        <time>2011-04-10T07:07:33Z</time>
      </trkpt>
      <trkpt lat="46.31095" lon="4.73066">
        <ele>260</ele>
        <time>2011-04-10T07:07:35Z</time>
      </trkpt>
      <trkpt lat="46.31089" lon="4.73063">
        <ele>260.4</ele>
        <time>2011-04-10T07:07:40Z</time>
      </trkpt>
      <trkpt lat="46.31084" lon="4.7306">
        <ele>261</ele>
        <time>2011-04-10T07:07:45Z</time>
      </trkpt>
      <trkpt lat="46.31083" lon="4.73059">
        <ele>261.2</ele>
        <time>2011-04-10T07:07:46Z</time>
      </trkpt>
      <trkpt lat="46.3108" lon="4.73056">
        <ele>261.8</ele>
        <time>2011-04-10T07:07:49Z</time>
      </trkpt>
      <trkpt lat="46.31079" lon="4.73054">
        <ele>262</ele>
        <time>2011-04-10T07:07:50Z</time>
      </trkpt>
      <trkpt lat="46.31079" lon="4.73052">
        <ele>262</ele>
        <time>2011-04-10T07:07:51Z</time>
      </trkpt>
      <trkpt lat="46.31078" lon="4.73047">
        <ele>262.2</ele>
        <time>2011-04-10T07:07:53Z</time>
      </trkpt>
      <trkpt lat="46.31079" lon="4.73043">
        <ele>262.4</ele>
        <time>2011-04-10T07:07:55Z</time>
      </trkpt>
      <trkpt lat="46.31083" lon="4.73037">
        <ele>263.2</ele>
        <time>2011-04-10T07:07:58Z</time>
      </trkpt>
      <trkpt lat="46.31086" lon="4.73035">
        <ele>263.6</ele>
        <time>2011-04-10T07:08:00Z</time>
      </trkpt>
      <trkpt lat="46.3109" lon="4.73033">
        <ele>264</ele>
        <time>2011-04-10T07:08:02Z</time>
      </trkpt>
      <trkpt lat="46.31094" lon="4.73031">
        <ele>264.2</ele>
        <time>2011-04-10T07:08:04Z</time>
      </trkpt>
      <trkpt lat="46.31098" lon="4.73029">
        <ele>264.6</ele>
        <time>2011-04-10T07:08:06Z</time>
      </trkpt>
      <trkpt lat="46.31101" lon="4.73027">
        <ele>265.2</ele>
        <time>2011-04-10T07:08:08Z</time>
      </trkpt>
      <trkpt lat="46.31105" lon="4.73025">
        <ele>265.6</ele>
        <time>2011-04-10T07:08:10Z</time>
      </trkpt>
      <trkpt lat="46.31108" lon="4.73023">
        <ele>265.8</ele>
        <time>2011-04-10T07:08:12Z</time>
      </trkpt>
      <trkpt lat="46.31112" lon="4.73021">
        <ele>266.2</ele>
        <time>2011-04-10T07:08:14Z</time>
      </trkpt>
      <trkpt lat="46.31115" lon="4.73019">
        <ele>266.6</ele>
        <time>2011-04-10T07:08:16Z</time>
      </trkpt>
      <trkpt lat="46.31119" lon="4.73017">
        <ele>267.2</ele>
        <time>2011-04-10T07:08:18Z</time>
      </trkpt>
      <trkpt lat="46.31122" lon="4.73015">
        <ele>267.6</ele>
        <time>2011-04-10T07:08:20Z</time>
      </trkpt>
      <trkpt lat="46.31125" lon="4.73012">
        <ele>268</ele>
        <time>2011-04-10T07:08:22Z</time>
      </trkpt>
      <trkpt lat="46.31128" lon="4.7301">
        <ele>268.2</ele>
        <time>2011-04-10T07:08:24Z</time>
      </trkpt>
      <trkpt lat="46.31135" lon="4.73006">
        <ele>268.8</ele>
        <time>2011-04-10T07:08:28Z</time>
      </trkpt>
      <trkpt lat="46.31138" lon="4.73003">
        <ele>269.4</ele>
        <time>2011-04-10T07:08:30Z</time>
      </trkpt>
      <trkpt lat="46.31141" lon="4.73001">
        <ele>269.8</ele>
        <time>2011-04-10T07:08:32Z</time>
      </trkpt>
      <trkpt lat="46.31144" lon="4.72999">
        <ele>270.2</ele>
        <time>2011-04-10T07:08:34Z</time>
      </trkpt>
      <trkpt lat="46.31147" lon="4.72996">
        <ele>270.4</ele>
        <time>2011-04-10T07:08:36Z</time>
      </trkpt>
      <trkpt lat="46.31152" lon="4.72993">
        <ele>271</ele>
        <time>2011-04-10T07:08:39Z</time>
      </trkpt>
      <trkpt lat="46.31155" lon="4.7299">
        <ele>271.4</ele>
        <time>2011-04-10T07:08:41Z</time>
      </trkpt>
      <trkpt lat="46.31159" lon="4.72988">
        <ele>272</ele>
        <time>2011-04-10T07:08:43Z</time>
      </trkpt>
      <trkpt lat="46.31162" lon="4.72986">
        <ele>272.2</ele>
        <time>2011-04-10T07:08:45Z</time>
      </trkpt>
      <trkpt lat="46.31165" lon="4.72984">
        <ele>272.6</ele>
        <time>2011-04-10T07:08:47Z</time>
      </trkpt>
      <trkpt lat="46.31168" lon="4.72982">
        <ele>273</ele>
        <time>2011-04-10T07:08:49Z</time>
      </trkpt>
      <trkpt lat="46.31171" lon="4.72979">
        <ele>273.4</ele>
        <time>2011-04-10T07:08:51Z</time>
      </trkpt>
      <trkpt lat="46.31175" lon="4.72977">
        <ele>274</ele>
        <time>2011-04-10T07:08:53Z</time>
      </trkpt>
      <trkpt lat="46.31178" lon="4.72974">
        <ele>274.2</ele>
        <time>2011-04-10T07:08:55Z</time>
      </trkpt>
      <trkpt lat="46.31181" lon="4.72971">
        <ele>274.6</ele>
        <time>2011-04-10T07:08:57Z</time>
      </trkpt>
      <trkpt lat="46.31194" lon="4.72959">
        <ele>275.2</ele>
        <time>2011-04-10T07:09:06Z</time>
      </trkpt>
      <trkpt lat="46.31196" lon="4.72956">
        <ele>275.6</ele>
        <time>2011-04-10T07:09:07Z</time>
      </trkpt>
      <trkpt lat="46.31199" lon="4.72953">
        <ele>276</ele>
        <time>2011-04-10T07:09:09Z</time>
      </trkpt>
      <trkpt lat="46.31202" lon="4.7295">
        <ele>276.4</ele>
        <time>2011-04-10T07:09:11Z</time>
      </trkpt>
      <trkpt lat="46.31205" lon="4.72947">
        <ele>276.6</ele>
        <time>2011-04-10T07:09:13Z</time>
      </trkpt>
      <trkpt lat="46.31207" lon="4.72944">
        <ele>277</ele>
        <time>2011-04-10T07:09:15Z</time>
      </trkpt>
      <trkpt lat="46.3121" lon="4.7294">
        <ele>277.6</ele>
        <time>2011-04-10T07:09:17Z</time>
      </trkpt>
      <trkpt lat="46.31212" lon="4.72937">
        <ele>278</ele>
        <time>2011-04-10T07:09:19Z</time>
      </trkpt>
      <trkpt lat="46.31214" lon="4.72933">
        <ele>278.4</ele>
        <time>2011-04-10T07:09:21Z</time>
      </trkpt>
      <trkpt lat="46.31216" lon="4.72928">
        <ele>279</ele>
        <time>2011-04-10T07:09:23Z</time>
      </trkpt>
      <trkpt lat="46.31218" lon="4.72924">
        <ele>279.6</ele>
        <time>2011-04-10T07:09:25Z</time>
      </trkpt>
      <trkpt lat="46.3122" lon="4.7292">
        <ele>280</ele>
        <time>2011-04-10T07:09:27Z</time>
      </trkpt>
      <trkpt lat="46.31221" lon="4.72915">
        <ele>280.4</ele>
        <time>2011-04-10T07:09:29Z</time>
      </trkpt>
      <trkpt lat="46.31223" lon="4.72911">
        <ele>281</ele>
        <time>2011-04-10T07:09:31Z</time>
      </trkpt>
      <trkpt lat="46.31225" lon="4.72907">
        <ele>281.6</ele>
        <time>2011-04-10T07:09:33Z</time>
      </trkpt>
      <trkpt lat="46.31227" lon="4.72904">
        <ele>282</ele>
        <time>2011-04-10T07:09:35Z</time>
      </trkpt>
      <trkpt lat="46.3123" lon="4.729">
        <ele>282.4</ele>
        <time>2011-04-10T07:09:37Z</time>
      </trkpt>
      <trkpt lat="46.31232" lon="4.72897">
        <ele>282.8</ele>
        <time>2011-04-10T07:09:39Z</time>
      </trkpt>
      <trkpt lat="46.31234" lon="4.72893">
        <ele>283.2</ele>
        <time>2011-04-10T07:09:41Z</time>
      </trkpt>
      <trkpt lat="46.31237" lon="4.72889">
        <ele>283.8</ele>
        <time>2011-04-10T07:09:43Z</time>
      </trkpt>
      <trkpt lat="46.31239" lon="4.72885">
        <ele>284.2</ele>
        <time>2011-04-10T07:09:45Z</time>
      </trkpt>
      <trkpt lat="46.31241" lon="4.72882">
        <ele>284.6</ele>
        <time>2011-04-10T07:09:47Z</time>
      </trkpt>
      <trkpt lat="46.31244" lon="4.72878">
        <ele>284.8</ele>
        <time>2011-04-10T07:09:49Z</time>
      </trkpt>
      <trkpt lat="46.31247" lon="4.72873">
        <ele>285.4</ele>
        <time>2011-04-10T07:09:52Z</time>
      </trkpt>
      <trkpt lat="46.3125" lon="4.72868">
        <ele>286</ele>
        <time>2011-04-10T07:09:54Z</time>
      </trkpt>
      <trkpt lat="46.31253" lon="4.72865">
        <ele>286.4</ele>
        <time>2011-04-10T07:09:56Z</time>
      </trkpt>
      <trkpt lat="46.31255" lon="4.72861">
        <ele>286.6</ele>
        <time>2011-04-10T07:09:58Z</time>
      </trkpt>
      <trkpt lat="46.31258" lon="4.72858">
        <ele>287</ele>
        <time>2011-04-10T07:10:00Z</time>
      </trkpt>
      <trkpt lat="46.3126" lon="4.72855">
        <ele>287.4</ele>
        <time>2011-04-10T07:10:02Z</time>
      </trkpt>
      <trkpt lat="46.31263" lon="4.72851">
        <ele>288</ele>
        <time>2011-04-10T07:10:04Z</time>
      </trkpt>
      <trkpt lat="46.31266" lon="4.72848">
        <ele>288.4</ele>
        <time>2011-04-10T07:10:06Z</time>
      </trkpt>
      <trkpt lat="46.3127" lon="4.72845">
        <ele>288.6</ele>
        <time>2011-04-10T07:10:08Z</time>
      </trkpt>
      <trkpt lat="46.31273" lon="4.72842">
        <ele>289</ele>
        <time>2011-04-10T07:10:10Z</time>
      </trkpt>
      <trkpt lat="46.31279" lon="4.72837">
        <ele>289.6</ele>
        <time>2011-04-10T07:10:14Z</time>
      </trkpt>
      <trkpt lat="46.31281" lon="4.72834">
        <ele>290</ele>
        <time>2011-04-10T07:10:16Z</time>
      </trkpt>
      <trkpt lat="46.31283" lon="4.72831">
        <ele>290.4</ele>
        <time>2011-04-10T07:10:18Z</time>
      </trkpt>
      <trkpt lat="46.31285" lon="4.72827">
        <ele>290.8</ele>
        <time>2011-04-10T07:10:20Z</time>
      </trkpt>
      <trkpt lat="46.31285" lon="4.72823">
        <ele>291</ele>
        <time>2011-04-10T07:10:22Z</time>
      </trkpt>
      <trkpt lat="46.31287" lon="4.72817">
        <ele>291.6</ele>
        <time>2011-04-10T07:10:25Z</time>
      </trkpt>
      <trkpt lat="46.31288" lon="4.72813">
        <ele>292</ele>
        <time>2011-04-10T07:10:27Z</time>
      </trkpt>
      <trkpt lat="46.31289" lon="4.72808">
        <ele>292.6</ele>
        <time>2011-04-10T07:10:29Z</time>
      </trkpt>
      <trkpt lat="46.3129" lon="4.72804">
        <ele>292.8</ele>
        <time>2011-04-10T07:10:31Z</time>
      </trkpt>
      <trkpt lat="46.31291" lon="4.728">
        <ele>293.2</ele>
        <time>2011-04-10T07:10:33Z</time>
      </trkpt>
      <trkpt lat="46.31292" lon="4.72798">
        <ele>293.4</ele>
        <time>2011-04-10T07:10:34Z</time>
      </trkpt>
      <trkpt lat="46.31293" lon="4.72794">
        <ele>294</ele>
        <time>2011-04-10T07:10:36Z</time>
      </trkpt>
      <trkpt lat="46.31294" lon="4.7279">
        <ele>294.4</ele>
        <time>2011-04-10T07:10:38Z</time>
      </trkpt>
      <trkpt lat="46.31296" lon="4.72785">
        <ele>294.8</ele>
        <time>2011-04-10T07:10:40Z</time>
      </trkpt>
      <trkpt lat="46.31297" lon="4.72781">
        <ele>295.2</ele>
        <time>2011-04-10T07:10:42Z</time>
      </trkpt>
      <trkpt lat="46.31297" lon="4.72778">
        <ele>295.4</ele>
        <time>2011-04-10T07:10:43Z</time>
      </trkpt>
      <trkpt lat="46.31299" lon="4.72774">
        <ele>296</ele>
        <time>2011-04-10T07:10:45Z</time>
      </trkpt>
      <trkpt lat="46.313" lon="4.72769">
        <ele>296.4</ele>
        <time>2011-04-10T07:10:47Z</time>
      </trkpt>
      <trkpt lat="46.31302" lon="4.72764">
        <ele>296.8</ele>
        <time>2011-04-10T07:10:49Z</time>
      </trkpt>
      <trkpt lat="46.31302" lon="4.72762">
        <ele>297.2</ele>
        <time>2011-04-10T07:10:50Z</time>
      </trkpt>
      <trkpt lat="46.31304" lon="4.72758">
        <ele>297.8</ele>
        <time>2011-04-10T07:10:52Z</time>
      </trkpt>
      <trkpt lat="46.31305" lon="4.72754">
        <ele>298.4</ele>
        <time>2011-04-10T07:10:54Z</time>
      </trkpt>
      <trkpt lat="46.31306" lon="4.72749">
        <ele>298.8</ele>
        <time>2011-04-10T07:10:56Z</time>
      </trkpt>
      <trkpt lat="46.31308" lon="4.72745">
        <ele>299.4</ele>
        <time>2011-04-10T07:10:58Z</time>
      </trkpt>
      <trkpt lat="46.31309" lon="4.7274">
        <ele>300</ele>
        <time>2011-04-10T07:11:00Z</time>
      </trkpt>
      <trkpt lat="46.3131" lon="4.72735">
        <ele>300.6</ele>
        <time>2011-04-10T07:11:02Z</time>
      </trkpt>
      <trkpt lat="46.31311" lon="4.7273">
        <ele>301</ele>
        <time>2011-04-10T07:11:04Z</time>
      </trkpt>
      <trkpt lat="46.31312" lon="4.72725">
        <ele>301.6</ele>
        <time>2011-04-10T07:11:06Z</time>
      </trkpt>
      <trkpt lat="46.31313" lon="4.7272">
        <ele>302.4</ele>
        <time>2011-04-10T07:11:08Z</time>
      </trkpt>
      <trkpt lat="46.31315" lon="4.72716">
        <ele>302.8</ele>
        <time>2011-04-10T07:11:10Z</time>
      </trkpt>
      <trkpt lat="46.31316" lon="4.72711">
        <ele>303.4</ele>
        <time>2011-04-10T07:11:12Z</time>
      </trkpt>
      <trkpt lat="46.31317" lon="4.72709">
        <ele>303.8</ele>
        <time>2011-04-10T07:11:13Z</time>
      </trkpt>
      <trkpt lat="46.31318" lon="4.72704">
        <ele>304.4</ele>
        <time>2011-04-10T07:11:15Z</time>
      </trkpt>
      <trkpt lat="46.31319" lon="4.72701">
        <ele>305</ele>
        <time>2011-04-10T07:11:17Z</time>
      </trkpt>
      <trkpt lat="46.3132" lon="4.72697">
        <ele>305.4</ele>
        <time>2011-04-10T07:11:19Z</time>
      </trkpt>
      <trkpt lat="46.31321" lon="4.72695">
        <ele>305.8</ele>
        <time>2011-04-10T07:11:21Z</time>
      </trkpt>
      <trkpt lat="46.31325" lon="4.72691">
        <ele>306.6</ele>
        <time>2011-04-10T07:11:26Z</time>
      </trkpt>
      <trkpt lat="46.31326" lon="4.72691">
        <ele>307</ele>
        <time>2011-04-10T07:11:27Z</time>
      </trkpt>
      <trkpt lat="46.31329" lon="4.72687">
        <ele>307.6</ele>
        <time>2011-04-10T07:11:30Z</time>
      </trkpt>
      <trkpt lat="46.3133" lon="4.72686">
        <ele>307.8</ele>
        <time>2011-04-10T07:11:31Z</time>
      </trkpt>
      <trkpt lat="46.31335" lon="4.72681">
        <ele>308.2</ele>
        <time>2011-04-10T07:11:34Z</time>
      </trkpt>
      <trkpt lat="46.31347" lon="4.72668">
        <ele>309</ele>
        <time>2011-04-10T07:11:42Z</time>
      </trkpt>
      <trkpt lat="46.31353" lon="4.72662">
        <ele>309.4</ele>
        <time>2011-04-10T07:11:46Z</time>
      </trkpt>
      <trkpt lat="46.31356" lon="4.7266">
        <ele>309.8</ele>
        <time>2011-04-10T07:11:48Z</time>
      </trkpt>
      <trkpt lat="46.31359" lon="4.72657">
        <ele>310.2</ele>
        <time>2011-04-10T07:11:50Z</time>
      </trkpt>
      <trkpt lat="46.31362" lon="4.72653">
        <ele>310.4</ele>
        <time>2011-04-10T07:11:52Z</time>
      </trkpt>
      <trkpt lat="46.31365" lon="4.72649">
        <ele>310.8</ele>
        <time>2011-04-10T07:11:54Z</time>
      </trkpt>
      <trkpt lat="46.31377" lon="4.72634">
        <ele>311.6</ele>
        <time>2011-04-10T07:12:02Z</time>
      </trkpt>
      <trkpt lat="46.31379" lon="4.72629">
        <ele>312</ele>
        <time>2011-04-10T07:12:04Z</time>
      </trkpt>
      <trkpt lat="46.31382" lon="4.72625">
        <ele>312.4</ele>
        <time>2011-04-10T07:12:06Z</time>
      </trkpt>
      <trkpt lat="46.31385" lon="4.7262">
        <ele>312.6</ele>
        <time>2011-04-10T07:12:08Z</time>
      </trkpt>
      <trkpt lat="46.31388" lon="4.72615">
        <ele>313</ele>
        <time>2011-04-10T07:12:10Z</time>
      </trkpt>
      <trkpt lat="46.31395" lon="4.72602">
        <ele>313.6</ele>
        <time>2011-04-10T07:12:15Z</time>
      </trkpt>
      <trkpt lat="46.31397" lon="4.72596">
        <ele>314</ele>
        <time>2011-04-10T07:12:17Z</time>
      </trkpt>
      <trkpt lat="46.31399" lon="4.72591">
        <ele>314.4</ele>
        <time>2011-04-10T07:12:19Z</time>
      </trkpt>
      <trkpt lat="46.31402" lon="4.72586">
        <ele>314.8</ele>
        <time>2011-04-10T07:12:21Z</time>
      </trkpt>
      <trkpt lat="46.31405" lon="4.72582">
        <ele>315</ele>
        <time>2011-04-10T07:12:23Z</time>
      </trkpt>
      <trkpt lat="46.31419" lon="4.72566">
        <ele>315.8</ele>
        <time>2011-04-10T07:12:31Z</time>
      </trkpt>
      <trkpt lat="46.31423" lon="4.72562">
        <ele>316.4</ele>
        <time>2011-04-10T07:12:33Z</time>
      </trkpt>
      <trkpt lat="46.31426" lon="4.72558">
        <ele>316.6</ele>
        <time>2011-04-10T07:12:35Z</time>
      </trkpt>
      <trkpt lat="46.3143" lon="4.72554">
        <ele>317</ele>
        <time>2011-04-10T07:12:37Z</time>
      </trkpt>
      <trkpt lat="46.31434" lon="4.72549">
        <ele>317.2</ele>
        <time>2011-04-10T07:12:39Z</time>
      </trkpt>
      <trkpt lat="46.31436" lon="4.72547">
        <ele>317.6</ele>
        <time>2011-04-10T07:12:40Z</time>
      </trkpt>
      <trkpt lat="46.31439" lon="4.72543">
        <ele>318</ele>
        <time>2011-04-10T07:12:42Z</time>
      </trkpt>
      <trkpt lat="46.31443" lon="4.72539">
        <ele>318.6</ele>
        <time>2011-04-10T07:12:44Z</time>
      </trkpt>
      <trkpt lat="46.31446" lon="4.72536">
        <ele>319</ele>
        <time>2011-04-10T07:12:46Z</time>
      </trkpt>
      <trkpt lat="46.3145" lon="4.72532">
        <ele>319.2</ele>
        <time>2011-04-10T07:12:48Z</time>
      </trkpt>
      <trkpt lat="46.3146" lon="4.72519">
        <ele>320</ele>
        <time>2011-04-10T07:12:54Z</time>
      </trkpt>
      <trkpt lat="46.31463" lon="4.72514">
        <ele>320.4</ele>
        <time>2011-04-10T07:12:56Z</time>
      </trkpt>
      <trkpt lat="46.31466" lon="4.72509">
        <ele>320.8</ele>
        <time>2011-04-10T07:12:58Z</time>
      </trkpt>
      <trkpt lat="46.31469" lon="4.72504">
        <ele>321.2</ele>
        <time>2011-04-10T07:13:00Z</time>
      </trkpt>
      <trkpt lat="46.31472" lon="4.72499">
        <ele>321.4</ele>
        <time>2011-04-10T07:13:02Z</time>
      </trkpt>
      <trkpt lat="46.31486" lon="4.72472">
        <ele>322.2</ele>
        <time>2011-04-10T07:13:11Z</time>
      </trkpt>
      <trkpt lat="46.31488" lon="4.7247">
        <ele>322.4</ele>
        <time>2011-04-10T07:13:12Z</time>
      </trkpt>
      <trkpt lat="46.31491" lon="4.72463">
        <ele>322.8</ele>
        <time>2011-04-10T07:13:14Z</time>
      </trkpt>
      <trkpt lat="46.31495" lon="4.72457">
        <ele>323.2</ele>
        <time>2011-04-10T07:13:16Z</time>
      </trkpt>
      <trkpt lat="46.31498" lon="4.72451">
        <ele>323.4</ele>
        <time>2011-04-10T07:13:18Z</time>
      </trkpt>
      <trkpt lat="46.315" lon="4.72447">
        <ele>323.6</ele>
        <time>2011-04-10T07:13:20Z</time>
      </trkpt>
      <trkpt lat="46.31504" lon="4.72435">
        <ele>324</ele>
        <time>2011-04-10T07:13:26Z</time>
      </trkpt>
      <trkpt lat="46.31503" lon="4.72429">
        <ele>324.2</ele>
        <time>2011-04-10T07:13:31Z</time>
      </trkpt>
      <trkpt lat="46.315" lon="4.72432">
        <ele>324.4</ele>
        <time>2011-04-10T07:13:35Z</time>
      </trkpt>
      <trkpt lat="46.31501" lon="4.72435">
        <ele>324.4</ele>
        <time>2011-04-10T07:13:42Z</time>
      </trkpt>
      <trkpt lat="46.31501" lon="4.72435">
        <ele>324.4</ele>
        <time>2011-04-10T07:13:47Z</time>
      </trkpt>
      <trkpt lat="46.31501" lon="4.72435">
        <ele>324.6</ele>
        <time>2011-04-10T07:13:53Z</time>
      </trkpt>
      <trkpt lat="46.31501" lon="4.72435">
        <ele>324.6</ele>
        <time>2011-04-10T07:14:05Z</time>
      </trkpt>
      <trkpt lat="46.31501" lon="4.72435">
        <ele>324.6</ele>
        <time>2011-04-10T07:14:18Z</time>
      </trkpt>
      <trkpt lat="46.31501" lon="4.72435">
        <ele>324.6</ele>
        <time>2011-04-10T07:14:23Z</time>
      </trkpt>
      <trkpt lat="46.31501" lon="4.72435">
        <ele>324.6</ele>
        <time>2011-04-10T07:14:29Z</time>
      </trkpt>
      <trkpt lat="46.31501" lon="4.72435">
        <ele>324.6</ele>
        <time>2011-04-10T07:14:41Z</time>
      </trkpt>
      <trkpt lat="46.31501" lon="4.72433">
        <ele>324.6</ele>
        <time>2011-04-10T07:14:44Z</time>
      </trkpt>
      <trkpt lat="46.31499" lon="4.72422">
        <ele>324.6</ele>
        <time>2011-04-10T07:14:48Z</time>
      </trkpt>
      <trkpt lat="46.31497" lon="4.7242">
        <ele>324.6</ele>
        <time>2011-04-10T07:14:49Z</time>
      </trkpt>
      <trkpt lat="46.31492" lon="4.72418">
        <ele>324.8</ele>
        <time>2011-04-10T07:14:51Z</time>
      </trkpt>
      <trkpt lat="46.31482" lon="4.72416">
        <ele>325.4</ele>
        <time>2011-04-10T07:14:55Z</time>
      </trkpt>
      <trkpt lat="46.31477" lon="4.72415">
        <ele>325.6</ele>
        <time>2011-04-10T07:14:57Z</time>
      </trkpt>
      <trkpt lat="46.31473" lon="4.72416">
        <ele>325.8</ele>
        <time>2011-04-10T07:14:59Z</time>
      </trkpt>
      <trkpt lat="46.3147" lon="4.72416">
        <ele>326.2</ele>
        <time>2011-04-10T07:15:00Z</time>
      </trkpt>
      <trkpt lat="46.31465" lon="4.72417">
        <ele>326.6</ele>
        <time>2011-04-10T07:15:02Z</time>
      </trkpt>
      <trkpt lat="46.3146" lon="4.7242">
        <ele>327</ele>
        <time>2011-04-10T07:15:04Z</time>
      </trkpt>
      <trkpt lat="46.31454" lon="4.72423">
        <ele>327.4</ele>
        <time>2011-04-10T07:15:06Z</time>
      </trkpt>
      <trkpt lat="46.31448" lon="4.72426">
        <ele>327.6</ele>
        <time>2011-04-10T07:15:08Z</time>
      </trkpt>
      <trkpt lat="46.31442" lon="4.72428">
        <ele>328.2</ele>
        <time>2011-04-10T07:15:10Z</time>
      </trkpt>
      <trkpt lat="46.31436" lon="4.7243">
        <ele>328.6</ele>
        <time>2011-04-10T07:15:12Z</time>
      </trkpt>
      <trkpt lat="46.31429" lon="4.72431">
        <ele>329</ele>
        <time>2011-04-10T07:15:14Z</time>
      </trkpt>
      <trkpt lat="46.31423" lon="4.72432">
        <ele>329.4</ele>
        <time>2011-04-10T07:15:16Z</time>
      </trkpt>
      <trkpt lat="46.31417" lon="4.72432">
        <ele>329.8</ele>
        <time>2011-04-10T07:15:18Z</time>
      </trkpt>
      <trkpt lat="46.31397" lon="4.72434">
        <ele>330.6</ele>
        <time>2011-04-10T07:15:24Z</time>
      </trkpt>
      <trkpt lat="46.3139" lon="4.72435">
        <ele>331</ele>
        <time>2011-04-10T07:15:26Z</time>
      </trkpt>
      <trkpt lat="46.31383" lon="4.72436">
        <ele>331.4</ele>
        <time>2011-04-10T07:15:28Z</time>
      </trkpt>
      <trkpt lat="46.31377" lon="4.72437">
        <ele>331.8</ele>
        <time>2011-04-10T07:15:30Z</time>
      </trkpt>
      <trkpt lat="46.31369" lon="4.72438">
        <ele>332</ele>
        <time>2011-04-10T07:15:32Z</time>
      </trkpt>
      <trkpt lat="46.31343" lon="4.72441">
        <ele>332.6</ele>
        <time>2011-04-10T07:15:40Z</time>
      </trkpt>
      <trkpt lat="46.31334" lon="4.72441">
        <ele>332.8</ele>
        <time>2011-04-10T07:15:45Z</time>
      </trkpt>
      <trkpt lat="46.31328" lon="4.72435">
        <ele>333</ele>
        <time>2011-04-10T07:15:49Z</time>
      </trkpt>
      <trkpt lat="46.31329" lon="4.72428">
        <ele>333.4</ele>
        <time>2011-04-10T07:15:51Z</time>
      </trkpt>
      <trkpt lat="46.31331" lon="4.72424">
        <ele>333.6</ele>
        <time>2011-04-10T07:15:52Z</time>
      </trkpt>
      <trkpt lat="46.31332" lon="4.7242">
        <ele>333.8</ele>
        <time>2011-04-10T07:15:53Z</time>
      </trkpt>
      <trkpt lat="46.31336" lon="4.72414">
        <ele>334</ele>
        <time>2011-04-10T07:15:55Z</time>
      </trkpt>
      <trkpt lat="46.31339" lon="4.72409">
        <ele>334.2</ele>
        <time>2011-04-10T07:15:57Z</time>
      </trkpt>
      <trkpt lat="46.3135" lon="4.72392">
        <ele>334.8</ele>
        <time>2011-04-10T07:16:04Z</time>
      </trkpt>
      <trkpt lat="46.31353" lon="4.72387">
        <ele>335</ele>
        <time>2011-04-10T07:16:06Z</time>
      </trkpt>
      <trkpt lat="46.31357" lon="4.72383">
        <ele>335.4</ele>
        <time>2011-04-10T07:16:08Z</time>
      </trkpt>
      <trkpt lat="46.3136" lon="4.72379">
        <ele>335.8</ele>
        <time>2011-04-10T07:16:10Z</time>
      </trkpt>
      <trkpt lat="46.31364" lon="4.72374">
        <ele>336</ele>
        <time>2011-04-10T07:16:12Z</time>
      </trkpt>
      <trkpt lat="46.31367" lon="4.72368">
        <ele>336.2</ele>
        <time>2011-04-10T07:16:14Z</time>
      </trkpt>
      <trkpt lat="46.31383" lon="4.72344">
        <ele>337.2</ele>
        <time>2011-04-10T07:16:24Z</time>
      </trkpt>
      <trkpt lat="46.31387" lon="4.72339">
        <ele>337.6</ele>
        <time>2011-04-10T07:16:26Z</time>
      </trkpt>
      <trkpt lat="46.3139" lon="4.72334">
        <ele>337.8</ele>
        <time>2011-04-10T07:16:28Z</time>
      </trkpt>
      <trkpt lat="46.31393" lon="4.7233">
        <ele>338.2</ele>
        <time>2011-04-10T07:16:30Z</time>
      </trkpt>
      <trkpt lat="46.31396" lon="4.72325">
        <ele>338.4</ele>
        <time>2011-04-10T07:16:32Z</time>
      </trkpt>
      <trkpt lat="46.31398" lon="4.72323">
        <ele>338.6</ele>
        <time>2011-04-10T07:16:33Z</time>
      </trkpt>
      <trkpt lat="46.31402" lon="4.72318">
        <ele>339.2</ele>
        <time>2011-04-10T07:16:35Z</time>
      </trkpt>
      <trkpt lat="46.31405" lon="4.72314">
        <ele>339.6</ele>
        <time>2011-04-10T07:16:37Z</time>
      </trkpt>
      <trkpt lat="46.31408" lon="4.72309">
        <ele>339.8</ele>
        <time>2011-04-10T07:16:39Z</time>
      </trkpt>
      <trkpt lat="46.31411" lon="4.72304">
        <ele>340.2</ele>
        <time>2011-04-10T07:16:41Z</time>
      </trkpt>
      <trkpt lat="46.31412" lon="4.72302">
        <ele>340.4</ele>
        <time>2011-04-10T07:16:42Z</time>
      </trkpt>
      <trkpt lat="46.31414" lon="4.72297">
        <ele>341</ele>
        <time>2011-04-10T07:16:44Z</time>
      </trkpt>
      <trkpt lat="46.31417" lon="4.72292">
        <ele>341.4</ele>
        <time>2011-04-10T07:16:46Z</time>
      </trkpt>
      <trkpt lat="46.31419" lon="4.72288">
        <ele>341.8</ele>
        <time>2011-04-10T07:16:48Z</time>
      </trkpt>
      <trkpt lat="46.3142" lon="4.72285">
        <ele>342.2</ele>
        <time>2011-04-10T07:16:50Z</time>
      </trkpt>
      <trkpt lat="46.31422" lon="4.72282">
        <ele>342.6</ele>
        <time>2011-04-10T07:16:53Z</time>
      </trkpt>
      <trkpt lat="46.31422" lon="4.72276">
        <ele>343</ele>
        <time>2011-04-10T07:16:57Z</time>
      </trkpt>
      <trkpt lat="46.3142" lon="4.72272">
        <ele>343.6</ele>
        <time>2011-04-10T07:16:59Z</time>
      </trkpt>
      <trkpt lat="46.31419" lon="4.72267">
        <ele>344</ele>
        <time>2011-04-10T07:17:01Z</time>
      </trkpt>
      <trkpt lat="46.31418" lon="4.72264">
        <ele>344.4</ele>
        <time>2011-04-10T07:17:03Z</time>
      </trkpt>
      <trkpt lat="46.31418" lon="4.7226">
        <ele>344.8</ele>
        <time>2011-04-10T07:17:05Z</time>
      </trkpt>
      <trkpt lat="46.31419" lon="4.72256">
        <ele>345.4</ele>
        <time>2011-04-10T07:17:07Z</time>
      </trkpt>
      <trkpt lat="46.31421" lon="4.72252">
        <ele>345.8</ele>
        <time>2011-04-10T07:17:09Z</time>
      </trkpt>
      <trkpt lat="46.31423" lon="4.72248">
        <ele>346.2</ele>
        <time>2011-04-10T07:17:11Z</time>
      </trkpt>
      <trkpt lat="46.31426" lon="4.72243">
        <ele>346.4</ele>
        <time>2011-04-10T07:17:13Z</time>
      </trkpt>
      <trkpt lat="46.31429" lon="4.72237">
        <ele>347</ele>
        <time>2011-04-10T07:17:16Z</time>
      </trkpt>
      <trkpt lat="46.31431" lon="4.72233">
        <ele>347.6</ele>
        <time>2011-04-10T07:17:18Z</time>
      </trkpt>
      <trkpt lat="46.31433" lon="4.72231">
        <ele>347.8</ele>
        <time>2011-04-10T07:17:19Z</time>
      </trkpt>
      <trkpt lat="46.31437" lon="4.7223">
        <ele>348.4</ele>
        <time>2011-04-10T07:17:22Z</time>
      </trkpt>
      <trkpt lat="46.31441" lon="4.72232">
        <ele>348.6</ele>
        <time>2011-04-10T07:17:24Z</time>
      </trkpt>
      <trkpt lat="46.31446" lon="4.72235">
        <ele>348.8</ele>
        <time>2011-04-10T07:17:26Z</time>
      </trkpt>
      <trkpt lat="46.3145" lon="4.72236">
        <ele>349</ele>
        <time>2011-04-10T07:17:28Z</time>
      </trkpt>
      <trkpt lat="46.31457" lon="4.72231">
        <ele>349.2</ele>
        <time>2011-04-10T07:17:32Z</time>
      </trkpt>
      <trkpt lat="46.31463" lon="4.7221">
        <ele>349.6</ele>
        <time>2011-04-10T07:17:40Z</time>
      </trkpt>
      <trkpt lat="46.31464" lon="4.72205">
        <ele>349.8</ele>
        <time>2011-04-10T07:17:42Z</time>
      </trkpt>
      <trkpt lat="46.31465" lon="4.72201">
        <ele>350.2</ele>
        <time>2011-04-10T07:17:44Z</time>
      </trkpt>
      <trkpt lat="46.31467" lon="4.72198">
        <ele>350.6</ele>
        <time>2011-04-10T07:17:46Z</time>
      </trkpt>
      <trkpt lat="46.31468" lon="4.72194">
        <ele>350.8</ele>
        <time>2011-04-10T07:17:48Z</time>
      </trkpt>
      <trkpt lat="46.31468" lon="4.7219">
        <ele>351</ele>
        <time>2011-04-10T07:17:50Z</time>
      </trkpt>
      <trkpt lat="46.31469" lon="4.72186">
        <ele>351.4</ele>
        <time>2011-04-10T07:17:52Z</time>
      </trkpt>
      <trkpt lat="46.3147" lon="4.72182">
        <ele>351.8</ele>
        <time>2011-04-10T07:17:54Z</time>
      </trkpt>
      <trkpt lat="46.31471" lon="4.72178">
        <ele>352.2</ele>
        <time>2011-04-10T07:17:56Z</time>
      </trkpt>
      <trkpt lat="46.31472" lon="4.72174">
        <ele>352.6</ele>
        <time>2011-04-10T07:17:58Z</time>
      </trkpt>
      <trkpt lat="46.31473" lon="4.7217">
        <ele>352.8</ele>
        <time>2011-04-10T07:18:00Z</time>
      </trkpt>
      <trkpt lat="46.31474" lon="4.72161">
        <ele>353.4</ele>
        <time>2011-04-10T07:18:04Z</time>
      </trkpt>
      <trkpt lat="46.31474" lon="4.72157">
        <ele>353.8</ele>
        <time>2011-04-10T07:18:06Z</time>
      </trkpt>
      <trkpt lat="46.31475" lon="4.72153">
        <ele>354.2</ele>
        <time>2011-04-10T07:18:08Z</time>
      </trkpt>
      <trkpt lat="46.31475" lon="4.72148">
        <ele>354.6</ele>
        <time>2011-04-10T07:18:10Z</time>
      </trkpt>
      <trkpt lat="46.31476" lon="4.72144">
        <ele>354.8</ele>
        <time>2011-04-10T07:18:12Z</time>
      </trkpt>
      <trkpt lat="46.31476" lon="4.72142">
        <ele>355.2</ele>
        <time>2011-04-10T07:18:13Z</time>
      </trkpt>
      <trkpt lat="46.31476" lon="4.72138">
        <ele>355.8</ele>
        <time>2011-04-10T07:18:15Z</time>
      </trkpt>
      <trkpt lat="46.31475" lon="4.72134">
        <ele>356.2</ele>
        <time>2011-04-10T07:18:17Z</time>
      </trkpt>
      <trkpt lat="46.31475" lon="4.7213">
        <ele>356.6</ele>
        <time>2011-04-10T07:18:19Z</time>
      </trkpt>
      <trkpt lat="46.31476" lon="4.72125">
        <ele>357</ele>
        <time>2011-04-10T07:18:21Z</time>
      </trkpt>
      <trkpt lat="46.31476" lon="4.72121">
        <ele>357.6</ele>
        <time>2011-04-10T07:18:23Z</time>
      </trkpt>
      <trkpt lat="46.31478" lon="4.72116">
        <ele>358</ele>
        <time>2011-04-10T07:18:25Z</time>
      </trkpt>
      <trkpt lat="46.31479" lon="4.72113">
        <ele>358.6</ele>
        <time>2011-04-10T07:18:27Z</time>
      </trkpt>
      <trkpt lat="46.31481" lon="4.72109">
        <ele>359.4</ele>
        <time>2011-04-10T07:18:29Z</time>
      </trkpt>
      <trkpt lat="46.31483" lon="4.72106">
        <ele>359.8</ele>
        <time>2011-04-10T07:18:31Z</time>
      </trkpt>
      <trkpt lat="46.31486" lon="4.72103">
        <ele>360.4</ele>
        <time>2011-04-10T07:18:33Z</time>
      </trkpt>
      <trkpt lat="46.3149" lon="4.72101">
        <ele>360.8</ele>
        <time>2011-04-10T07:18:35Z</time>
      </trkpt>
      <trkpt lat="46.31493" lon="4.72099">
        <ele>361.6</ele>
        <time>2011-04-10T07:18:37Z</time>
      </trkpt>
      <trkpt lat="46.31496" lon="4.72097">
        <ele>362</ele>
        <time>2011-04-10T07:18:39Z</time>
      </trkpt>
      <trkpt lat="46.31498" lon="4.72095">
        <ele>362.4</ele>
        <time>2011-04-10T07:18:41Z</time>
      </trkpt>
      <trkpt lat="46.315" lon="4.72092">
        <ele>362.8</ele>
        <time>2011-04-10T07:18:43Z</time>
      </trkpt>
      <trkpt lat="46.315" lon="4.7209">
        <ele>363.2</ele>
        <time>2011-04-10T07:18:44Z</time>
      </trkpt>
      <trkpt lat="46.31501" lon="4.72087">
        <ele>363.8</ele>
        <time>2011-04-10T07:18:46Z</time>
      </trkpt>
      <trkpt lat="46.31502" lon="4.72083">
        <ele>364.4</ele>
        <time>2011-04-10T07:18:48Z</time>
      </trkpt>
      <trkpt lat="46.31502" lon="4.72079">
        <ele>364.8</ele>
        <time>2011-04-10T07:18:50Z</time>
      </trkpt>
      <trkpt lat="46.31502" lon="4.72076">
        <ele>365.2</ele>
        <time>2011-04-10T07:18:51Z</time>
      </trkpt>
      <trkpt lat="46.31502" lon="4.72072">
        <ele>365.8</ele>
        <time>2011-04-10T07:18:53Z</time>
      </trkpt>
      <trkpt lat="46.31503" lon="4.72067">
        <ele>366.4</ele>
        <time>2011-04-10T07:18:55Z</time>
      </trkpt>
      <trkpt lat="46.31503" lon="4.72063">
        <ele>366.8</ele>
        <time>2011-04-10T07:18:57Z</time>
      </trkpt>
      <trkpt lat="46.31503" lon="4.72059">
        <ele>367.4</ele>
        <time>2011-04-10T07:18:59Z</time>
      </trkpt>
      <trkpt lat="46.31504" lon="4.72055">
        <ele>368</ele>
        <time>2011-04-10T07:19:01Z</time>
      </trkpt>
      <trkpt lat="46.31504" lon="4.72051">
        <ele>368.6</ele>
        <time>2011-04-10T07:19:03Z</time>
      </trkpt>
      <trkpt lat="46.31505" lon="4.72045">
        <ele>369</ele>
        <time>2011-04-10T07:19:05Z</time>
      </trkpt>
      <trkpt lat="46.31505" lon="4.72042">
        <ele>369.6</ele>
        <time>2011-04-10T07:19:07Z</time>
      </trkpt>
      <trkpt lat="46.31506" lon="4.72038">
        <ele>370.2</ele>
        <time>2011-04-10T07:19:09Z</time>
      </trkpt>
      <trkpt lat="46.31507" lon="4.72034">
        <ele>370.6</ele>
        <time>2011-04-10T07:19:11Z</time>
      </trkpt>
      <trkpt lat="46.31508" lon="4.7203">
        <ele>371.2</ele>
        <time>2011-04-10T07:19:13Z</time>
      </trkpt>
      <trkpt lat="46.31508" lon="4.72026">
        <ele>371.4</ele>
        <time>2011-04-10T07:19:15Z</time>
      </trkpt>
      <trkpt lat="46.31509" lon="4.72023">
        <ele>371.8</ele>
        <time>2011-04-10T07:19:16Z</time>
      </trkpt>
      <trkpt lat="46.31508" lon="4.72019">
        <ele>372.4</ele>
        <time>2011-04-10T07:19:18Z</time>
      </trkpt>
      <trkpt lat="46.31508" lon="4.72015">
        <ele>372.8</ele>
        <time>2011-04-10T07:19:20Z</time>
      </trkpt>
      <trkpt lat="46.31506" lon="4.72011">
        <ele>373.2</ele>
        <time>2011-04-10T07:19:22Z</time>
      </trkpt>
      <trkpt lat="46.31504" lon="4.72007">
        <ele>373.6</ele>
        <time>2011-04-10T07:19:24Z</time>
      </trkpt>
      <trkpt lat="46.31492" lon="4.71997">
        <ele>374.6</ele>
        <time>2011-04-10T07:19:33Z</time>
      </trkpt>
      <trkpt lat="46.31489" lon="4.71994">
        <ele>375</ele>
        <time>2011-04-10T07:19:35Z</time>
      </trkpt>
      <trkpt lat="46.31487" lon="4.71991">
        <ele>375.4</ele>
        <time>2011-04-10T07:19:37Z</time>
      </trkpt>
      <trkpt lat="46.31486" lon="4.71987">
        <ele>375.6</ele>
        <time>2011-04-10T07:19:39Z</time>
      </trkpt>
      <trkpt lat="46.31485" lon="4.71983">
        <ele>376</ele>
        <time>2011-04-10T07:19:41Z</time>
      </trkpt>
      <trkpt lat="46.31485" lon="4.71972">
        <ele>376.6</ele>
        <time>2011-04-10T07:19:46Z</time>
      </trkpt>
      <trkpt lat="46.31485" lon="4.71968">
        <ele>377</ele>
        <time>2011-04-10T07:19:48Z</time>
      </trkpt>
      <trkpt lat="46.31485" lon="4.71964">
        <ele>377.4</ele>
        <time>2011-04-10T07:19:50Z</time>
      </trkpt>
      <trkpt lat="46.31485" lon="4.71959">
        <ele>377.6</ele>
        <time>2011-04-10T07:19:52Z</time>
      </trkpt>
      <trkpt lat="46.31485" lon="4.71955">
        <ele>378</ele>
        <time>2011-04-10T07:19:54Z</time>
      </trkpt>
      <trkpt lat="46.31485" lon="4.71953">
        <ele>378.2</ele>
        <time>2011-04-10T07:19:55Z</time>
      </trkpt>
      <trkpt lat="46.31486" lon="4.71948">
        <ele>378.8</ele>
        <time>2011-04-10T07:19:57Z</time>
      </trkpt>
      <trkpt lat="46.31486" lon="4.71943">
        <ele>379.2</ele>
        <time>2011-04-10T07:19:59Z</time>
      </trkpt>
      <trkpt lat="46.31486" lon="4.71941">
        <ele>379.6</ele>
        <time>2011-04-10T07:20:00Z</time>
      </trkpt>
      <trkpt lat="46.31486" lon="4.71936">
        <ele>380.4</ele>
        <time>2011-04-10T07:20:02Z</time>
      </trkpt>
      <trkpt lat="46.31486" lon="4.71932">
        <ele>380.8</ele>
        <time>2011-04-10T07:20:04Z</time>
      </trkpt>
      <trkpt lat="46.31485" lon="4.71928">
        <ele>381.4</ele>
        <time>2011-04-10T07:20:06Z</time>
      </trkpt>
      <trkpt lat="46.31485" lon="4.71927">
        <ele>381.8</ele>
        <time>2011-04-10T07:20:07Z</time>
      </trkpt>
      <trkpt lat="46.31485" lon="4.71924">
        <ele>382.4</ele>
        <time>2011-04-10T07:20:09Z</time>
      </trkpt>
      <trkpt lat="46.31485" lon="4.7192">
        <ele>383</ele>
        <time>2011-04-10T07:20:11Z</time>
      </trkpt>
      <trkpt lat="46.31485" lon="4.71917">
        <ele>383.4</ele>
        <time>2011-04-10T07:20:13Z</time>
      </trkpt>
      <trkpt lat="46.31485" lon="4.71914">
        <ele>383.8</ele>
        <time>2011-04-10T07:20:15Z</time>
      </trkpt>
      <trkpt lat="46.31485" lon="4.71912">
        <ele>384.2</ele>
        <time>2011-04-10T07:20:16Z</time>
      </trkpt>
      <trkpt lat="46.31485" lon="4.71908">
        <ele>384.8</ele>
        <time>2011-04-10T07:20:18Z</time>
      </trkpt>
      <trkpt lat="46.31485" lon="4.71904">
        <ele>385.2</ele>
        <time>2011-04-10T07:20:20Z</time>
      </trkpt>
      <trkpt lat="46.31485" lon="4.71901">
        <ele>385.8</ele>
        <time>2011-04-10T07:20:22Z</time>
      </trkpt>
      <trkpt lat="46.31485" lon="4.71897">
        <ele>386</ele>
        <time>2011-04-10T07:20:24Z</time>
      </trkpt>
      <trkpt lat="46.31485" lon="4.71893">
        <ele>386.4</ele>
        <time>2011-04-10T07:20:26Z</time>
      </trkpt>
      <trkpt lat="46.31485" lon="4.71889">
        <ele>387</ele>
        <time>2011-04-10T07:20:28Z</time>
      </trkpt>
      <trkpt lat="46.31485" lon="4.71885">
        <ele>387.6</ele>
        <time>2011-04-10T07:20:30Z</time>
      </trkpt>
      <trkpt lat="46.31484" lon="4.7188">
        <ele>387.8</ele>
        <time>2011-04-10T07:20:32Z</time>
      </trkpt>
      <trkpt lat="46.31484" lon="4.71878">
        <ele>388.2</ele>
        <time>2011-04-10T07:20:33Z</time>
      </trkpt>
      <trkpt lat="46.31484" lon="4.71874">
        <ele>388.8</ele>
        <time>2011-04-10T07:20:35Z</time>
      </trkpt>
      <trkpt lat="46.31484" lon="4.71869">
        <ele>389.4</ele>
        <time>2011-04-10T07:20:37Z</time>
      </trkpt>
      <trkpt lat="46.31484" lon="4.71865">
        <ele>389.8</ele>
        <time>2011-04-10T07:20:39Z</time>
      </trkpt>
      <trkpt lat="46.31484" lon="4.71861">
        <ele>390.2</ele>
        <time>2011-04-10T07:20:41Z</time>
      </trkpt>
      <trkpt lat="46.31484" lon="4.71859">
        <ele>390.4</ele>
        <time>2011-04-10T07:20:42Z</time>
      </trkpt>
      <trkpt lat="46.31484" lon="4.71855">
        <ele>391</ele>
        <time>2011-04-10T07:20:44Z</time>
      </trkpt>
      <trkpt lat="46.31484" lon="4.71851">
        <ele>391.6</ele>
        <time>2011-04-10T07:20:46Z</time>
      </trkpt>
      <trkpt lat="46.31484" lon="4.71847">
        <ele>392</ele>
        <time>2011-04-10T07:20:48Z</time>
      </trkpt>
      <trkpt lat="46.31484" lon="4.71843">
        <ele>392.2</ele>
        <time>2011-04-10T07:20:50Z</time>
      </trkpt>
      <trkpt lat="46.31484" lon="4.71841">
        <ele>392.6</ele>
        <time>2011-04-10T07:20:51Z</time>
      </trkpt>
      <trkpt lat="46.31483" lon="4.71837">
        <ele>393.2</ele>
        <time>2011-04-10T07:20:53Z</time>
      </trkpt>
      <trkpt lat="46.31483" lon="4.71833">
        <ele>393.6</ele>
        <time>2011-04-10T07:20:55Z</time>
      </trkpt>
      <trkpt lat="46.31484" lon="4.71829">
        <ele>394</ele>
        <time>2011-04-10T07:20:57Z</time>
      </trkpt>
      <trkpt lat="46.31484" lon="4.71825">
        <ele>394.4</ele>
        <time>2011-04-10T07:20:59Z</time>
      </trkpt>
      <trkpt lat="46.31484" lon="4.71821">
        <ele>394.8</ele>
        <time>2011-04-10T07:21:01Z</time>
      </trkpt>
      <trkpt lat="46.31484" lon="4.71817">
        <ele>395.4</ele>
        <time>2011-04-10T07:21:03Z</time>
      </trkpt>
      <trkpt lat="46.31484" lon="4.71812">
        <ele>396</ele>
        <time>2011-04-10T07:21:05Z</time>
      </trkpt>
      <trkpt lat="46.31484" lon="4.71808">
        <ele>396.4</ele>
        <time>2011-04-10T07:21:07Z</time>
      </trkpt>
      <trkpt lat="46.31484" lon="4.71804">
        <ele>396.8</ele>
        <time>2011-04-10T07:21:09Z</time>
      </trkpt>
      <trkpt lat="46.31485" lon="4.718">
        <ele>397.2</ele>
        <time>2011-04-10T07:21:11Z</time>
      </trkpt>
      <trkpt lat="46.31486" lon="4.71795">
        <ele>397.8</ele>
        <time>2011-04-10T07:21:13Z</time>
      </trkpt>
      <trkpt lat="46.31487" lon="4.71791">
        <ele>398.2</ele>
        <time>2011-04-10T07:21:15Z</time>
      </trkpt>
      <trkpt lat="46.31487" lon="4.71788">
        <ele>398.6</ele>
        <time>2011-04-10T07:21:17Z</time>
      </trkpt>
      <trkpt lat="46.31488" lon="4.71785">
        <ele>399</ele>
        <time>2011-04-10T07:21:19Z</time>
      </trkpt>
      <trkpt lat="46.31488" lon="4.71782">
        <ele>399.6</ele>
        <time>2011-04-10T07:21:21Z</time>
      </trkpt>
      <trkpt lat="46.31488" lon="4.7178">
        <ele>400</ele>
        <time>2011-04-10T07:21:22Z</time>
      </trkpt>
      <trkpt lat="46.31488" lon="4.71778">
        <ele>400.2</ele>
        <time>2011-04-10T07:21:23Z</time>
      </trkpt>
      <trkpt lat="46.31486" lon="4.71775">
        <ele>400.6</ele>
        <time>2011-04-10T07:21:25Z</time>
      </trkpt>
      <trkpt lat="46.31485" lon="4.71773">
        <ele>400.6</ele>
        <time>2011-04-10T07:21:26Z</time>
      </trkpt>
      <trkpt lat="46.31484" lon="4.71769">
        <ele>401.2</ele>
        <time>2011-04-10T07:21:28Z</time>
      </trkpt>
      <trkpt lat="46.31482" lon="4.71765">
        <ele>401.8</ele>
        <time>2011-04-10T07:21:30Z</time>
      </trkpt>
      <trkpt lat="46.31481" lon="4.71762">
        <ele>402.2</ele>
        <time>2011-04-10T07:21:32Z</time>
      </trkpt>
      <trkpt lat="46.31479" lon="4.71758">
        <ele>402.6</ele>
        <time>2011-04-10T07:21:34Z</time>
      </trkpt>
      <trkpt lat="46.31478" lon="4.71754">
        <ele>403</ele>
        <time>2011-04-10T07:21:36Z</time>
      </trkpt>
      <trkpt lat="46.31474" lon="4.71738">
        <ele>403.8</ele>
        <time>2011-04-10T07:21:44Z</time>
      </trkpt>
      <trkpt lat="46.31472" lon="4.71732">
        <ele>404.2</ele>
        <time>2011-04-10T07:21:47Z</time>
      </trkpt>
      <trkpt lat="46.3147" lon="4.71727">
        <ele>404.6</ele>
        <time>2011-04-10T07:21:49Z</time>
      </trkpt>
      <trkpt lat="46.31469" lon="4.71723">
        <ele>405</ele>
        <time>2011-04-10T07:21:51Z</time>
      </trkpt>
      <trkpt lat="46.31468" lon="4.71719">
        <ele>405.2</ele>
        <time>2011-04-10T07:21:53Z</time>
      </trkpt>
      <trkpt lat="46.31467" lon="4.71714">
        <ele>405.4</ele>
        <time>2011-04-10T07:21:55Z</time>
      </trkpt>
      <trkpt lat="46.31464" lon="4.71701">
        <ele>406.2</ele>
        <time>2011-04-10T07:22:01Z</time>
      </trkpt>
      <trkpt lat="46.31463" lon="4.71697">
        <ele>406.6</ele>
        <time>2011-04-10T07:22:03Z</time>
      </trkpt>
      <trkpt lat="46.31461" lon="4.71692">
        <ele>407</ele>
        <time>2011-04-10T07:22:05Z</time>
      </trkpt>
      <trkpt lat="46.3146" lon="4.71688">
        <ele>407.2</ele>
        <time>2011-04-10T07:22:07Z</time>
      </trkpt>
      <trkpt lat="46.31458" lon="4.71684">
        <ele>407.4</ele>
        <time>2011-04-10T07:22:09Z</time>
      </trkpt>
      <trkpt lat="46.31455" lon="4.7167">
        <ele>408.2</ele>
        <time>2011-04-10T07:22:15Z</time>
      </trkpt>
      <trkpt lat="46.31454" lon="4.71665">
        <ele>408.6</ele>
        <time>2011-04-10T07:22:17Z</time>
      </trkpt>
      <trkpt lat="46.31453" lon="4.7166">
        <ele>409</ele>
        <time>2011-04-10T07:22:19Z</time>
      </trkpt>
      <trkpt lat="46.31453" lon="4.71655">
        <ele>409.2</ele>
        <time>2011-04-10T07:22:21Z</time>
      </trkpt>
      <trkpt lat="46.31452" lon="4.7165">
        <ele>409.8</ele>
        <time>2011-04-10T07:22:23Z</time>
      </trkpt>
      <trkpt lat="46.31451" lon="4.71645">
        <ele>410.2</ele>
        <time>2011-04-10T07:22:25Z</time>
      </trkpt>
      <trkpt lat="46.31451" lon="4.7164">
        <ele>410.8</ele>
        <time>2011-04-10T07:22:27Z</time>
      </trkpt>
      <trkpt lat="46.3145" lon="4.71635">
        <ele>411</ele>
        <time>2011-04-10T07:22:29Z</time>
      </trkpt>
      <trkpt lat="46.31449" lon="4.7163">
        <ele>411.4</ele>
        <time>2011-04-10T07:22:31Z</time>
      </trkpt>
      <trkpt lat="46.31449" lon="4.71625">
        <ele>411.8</ele>
        <time>2011-04-10T07:22:33Z</time>
      </trkpt>
      <trkpt lat="46.31448" lon="4.7162">
        <ele>412.4</ele>
        <time>2011-04-10T07:22:35Z</time>
      </trkpt>
      <trkpt lat="46.31448" lon="4.71615">
        <ele>412.8</ele>
        <time>2011-04-10T07:22:37Z</time>
      </trkpt>
      <trkpt lat="46.31448" lon="4.71609">
        <ele>413.2</ele>
        <time>2011-04-10T07:22:39Z</time>
      </trkpt>
      <trkpt lat="46.31448" lon="4.71605">
        <ele>413.6</ele>
        <time>2011-04-10T07:22:41Z</time>
      </trkpt>
      <trkpt lat="46.31448" lon="4.71602">
        <ele>414</ele>
        <time>2011-04-10T07:22:42Z</time>
      </trkpt>
      <trkpt lat="46.31447" lon="4.71597">
        <ele>414.6</ele>
        <time>2011-04-10T07:22:44Z</time>
      </trkpt>
      <trkpt lat="46.31447" lon="4.71592">
        <ele>415</ele>
        <time>2011-04-10T07:22:46Z</time>
      </trkpt>
      <trkpt lat="46.31446" lon="4.71586">
        <ele>415.4</ele>
        <time>2011-04-10T07:22:48Z</time>
      </trkpt>
      <trkpt lat="46.31446" lon="4.7158">
        <ele>415.8</ele>
        <time>2011-04-10T07:22:50Z</time>
      </trkpt>
      <trkpt lat="46.31446" lon="4.71572">
        <ele>416.4</ele>
        <time>2011-04-10T07:22:53Z</time>
      </trkpt>
      <trkpt lat="46.31446" lon="4.71568">
        <ele>417</ele>
        <time>2011-04-10T07:22:55Z</time>
      </trkpt>
      <trkpt lat="46.31446" lon="4.71564">
        <ele>417.4</ele>
        <time>2011-04-10T07:22:57Z</time>
      </trkpt>
      <trkpt lat="46.31446" lon="4.71561">
        <ele>417.8</ele>
        <time>2011-04-10T07:22:59Z</time>
      </trkpt>
      <trkpt lat="46.31446" lon="4.7156">
        <ele>418</ele>
        <time>2011-04-10T07:23:01Z</time>
      </trkpt>
      <trkpt lat="46.31447" lon="4.7156">
        <ele>418.8</ele>
        <time>2011-04-10T07:23:08Z</time>
      </trkpt>
      <trkpt lat="46.31447" lon="4.71561">
        <ele>419.2</ele>
        <time>2011-04-10T07:23:18Z</time>
      </trkpt>
      <trkpt lat="46.31447" lon="4.7156">
        <ele>419.4</ele>
        <time>2011-04-10T07:23:27Z</time>
      </trkpt>
      <trkpt lat="46.31447" lon="4.7156">
        <ele>419.4</ele>
        <time>2011-04-10T07:23:32Z</time>
      </trkpt>
      <trkpt lat="46.31447" lon="4.7156">
        <ele>419.4</ele>
        <time>2011-04-10T07:23:39Z</time>
      </trkpt>
      <trkpt lat="46.31447" lon="4.71561">
        <ele>419.4</ele>
        <time>2011-04-10T07:23:49Z</time>
      </trkpt>
      <trkpt lat="46.31447" lon="4.71561">
        <ele>419.4</ele>
        <time>2011-04-10T07:24:00Z</time>
      </trkpt>
      <trkpt lat="46.31447" lon="4.71561">
        <ele>419.4</ele>
        <time>2011-04-10T07:24:06Z</time>
      </trkpt>
      <trkpt lat="46.31447" lon="4.71561">
        <ele>419.4</ele>
        <time>2011-04-10T07:24:10Z</time>
      </trkpt>
      <trkpt lat="46.31447" lon="4.71561">
        <ele>419.4</ele>
        <time>2011-04-10T07:24:29Z</time>
      </trkpt>
      <trkpt lat="46.31447" lon="4.71561">
        <ele>419.4</ele>
        <time>2011-04-10T07:24:32Z</time>
      </trkpt>
      <trkpt lat="46.31447" lon="4.71561">
        <ele>419.4</ele>
        <time>2011-04-10T07:25:06Z</time>
      </trkpt>
      <trkpt lat="46.31446" lon="4.71561">
        <ele>419.4</ele>
        <time>2011-04-10T07:25:43Z</time>
      </trkpt>
      <trkpt lat="46.31446" lon="4.71562">
        <ele>419.4</ele>
        <time>2011-04-10T07:25:50Z</time>
      </trkpt>
      <trkpt lat="46.31446" lon="4.71562">
        <ele>419.4</ele>
        <time>2011-04-10T07:26:02Z</time>
      </trkpt>
      <trkpt lat="46.31446" lon="4.71563">
        <ele>419.4</ele>
        <time>2011-04-10T07:26:19Z</time>
      </trkpt>
      <trkpt lat="46.31452" lon="4.71563">
        <ele>419.4</ele>
        <time>2011-04-10T07:26:26Z</time>
      </trkpt>
      <trkpt lat="46.31456" lon="4.71564">
        <ele>419.4</ele>
        <time>2011-04-10T07:26:33Z</time>
      </trkpt>
      <trkpt lat="46.3146" lon="4.71567">
        <ele>419.4</ele>
        <time>2011-04-10T07:26:42Z</time>
      </trkpt>
      <trkpt lat="46.31461" lon="4.71568">
        <ele>419.4</ele>
        <time>2011-04-10T07:26:43Z</time>
      </trkpt>
      <trkpt lat="46.31468" lon="4.7157">
        <ele>419.4</ele>
        <time>2011-04-10T07:26:48Z</time>
      </trkpt>
      <trkpt lat="46.31477" lon="4.71569">
        <ele>419.4</ele>
        <time>2011-04-10T07:26:53Z</time>
      </trkpt>
      <trkpt lat="46.31491" lon="4.71574">
        <ele>419.4</ele>
        <time>2011-04-10T07:26:59Z</time>
      </trkpt>
      <trkpt lat="46.31505" lon="4.71581">
        <ele>419.2</ele>
        <time>2011-04-10T07:27:05Z</time>
      </trkpt>
      <trkpt lat="46.31509" lon="4.71583">
        <ele>418.8</ele>
        <time>2011-04-10T07:27:07Z</time>
      </trkpt>
      <trkpt lat="46.3151" lon="4.71583">
        <ele>418.6</ele>
        <time>2011-04-10T07:27:08Z</time>
      </trkpt>
      <trkpt lat="46.31515" lon="4.71585">
        <ele>418.2</ele>
        <time>2011-04-10T07:27:11Z</time>
      </trkpt>
      <trkpt lat="46.31518" lon="4.71588">
        <ele>418</ele>
        <time>2011-04-10T07:27:13Z</time>
      </trkpt>
      <trkpt lat="46.3152" lon="4.71589">
        <ele>417.8</ele>
        <time>2011-04-10T07:27:14Z</time>
      </trkpt>
      <trkpt lat="46.31522" lon="4.71591">
        <ele>417.2</ele>
        <time>2011-04-10T07:27:16Z</time>
      </trkpt>
      <trkpt lat="46.31524" lon="4.71591">
        <ele>416.8</ele>
        <time>2011-04-10T07:27:18Z</time>
      </trkpt>
      <trkpt lat="46.31526" lon="4.71591">
        <ele>416.4</ele>
        <time>2011-04-10T07:27:20Z</time>
      </trkpt>
      <trkpt lat="46.31529" lon="4.71592">
        <ele>416.2</ele>
        <time>2011-04-10T07:27:22Z</time>
      </trkpt>
      <trkpt lat="46.31534" lon="4.71595">
        <ele>415.8</ele>
        <time>2011-04-10T07:27:24Z</time>
      </trkpt>
      <trkpt lat="46.31538" lon="4.71597">
        <ele>415.2</ele>
        <time>2011-04-10T07:27:26Z</time>
      </trkpt>
      <trkpt lat="46.31541" lon="4.716">
        <ele>414.6</ele>
        <time>2011-04-10T07:27:28Z</time>
      </trkpt>
      <trkpt lat="46.31543" lon="4.71602">
        <ele>414.2</ele>
        <time>2011-04-10T07:27:29Z</time>
      </trkpt>
      <trkpt lat="46.31547" lon="4.71605">
        <ele>413.4</ele>
        <time>2011-04-10T07:27:31Z</time>
      </trkpt>
      <trkpt lat="46.31549" lon="4.71609">
        <ele>413</ele>
        <time>2011-04-10T07:27:33Z</time>
      </trkpt>
      <trkpt lat="46.31552" lon="4.71613">
        <ele>412.2</ele>
        <time>2011-04-10T07:27:35Z</time>
      </trkpt>
      <trkpt lat="46.31555" lon="4.71617">
        <ele>411.4</ele>
        <time>2011-04-10T07:27:37Z</time>
      </trkpt>
      <trkpt lat="46.31558" lon="4.71623">
        <ele>410.8</ele>
        <time>2011-04-10T07:27:39Z</time>
      </trkpt>
      <trkpt lat="46.31561" lon="4.71629">
        <ele>410</ele>
        <time>2011-04-10T07:27:41Z</time>
      </trkpt>
      <trkpt lat="46.31565" lon="4.71636">
        <ele>409.2</ele>
        <time>2011-04-10T07:27:43Z</time>
      </trkpt>
      <trkpt lat="46.31568" lon="4.71641">
        <ele>408.4</ele>
        <time>2011-04-10T07:27:45Z</time>
      </trkpt>
      <trkpt lat="46.31571" lon="4.71645">
        <ele>407.4</ele>
        <time>2011-04-10T07:27:47Z</time>
      </trkpt>
      <trkpt lat="46.31573" lon="4.71648">
        <ele>406.6</ele>
        <time>2011-04-10T07:27:49Z</time>
      </trkpt>
      <trkpt lat="46.31573" lon="4.71649">
        <ele>406</ele>
        <time>2011-04-10T07:27:51Z</time>
      </trkpt>
      <trkpt lat="46.31573" lon="4.71649">
        <ele>405.6</ele>
        <time>2011-04-10T07:27:52Z</time>
      </trkpt>
      <trkpt lat="46.31573" lon="4.71648">
        <ele>404.8</ele>
        <time>2011-04-10T07:27:54Z</time>
      </trkpt>
      <trkpt lat="46.31573" lon="4.71648">
        <ele>404.2</ele>
        <time>2011-04-10T07:27:56Z</time>
      </trkpt>
      <trkpt lat="46.31573" lon="4.71648">
        <ele>403.6</ele>
        <time>2011-04-10T07:27:58Z</time>
      </trkpt>
      <trkpt lat="46.31573" lon="4.71648">
        <ele>403.2</ele>
        <time>2011-04-10T07:28:00Z</time>
      </trkpt>
      <trkpt lat="46.31577" lon="4.71647">
        <ele>402.2</ele>
        <time>2011-04-10T07:28:08Z</time>
      </trkpt>
      <trkpt lat="46.3158" lon="4.71647">
        <ele>401.6</ele>
        <time>2011-04-10T07:28:14Z</time>
      </trkpt>
      <trkpt lat="46.31581" lon="4.71646">
        <ele>401.2</ele>
        <time>2011-04-10T07:28:16Z</time>
      </trkpt>
      <trkpt lat="46.31582" lon="4.71646">
        <ele>400.8</ele>
        <time>2011-04-10T07:28:18Z</time>
      </trkpt>
      <trkpt lat="46.31583" lon="4.71647">
        <ele>400.6</ele>
        <time>2011-04-10T07:28:20Z</time>
      </trkpt>
      <trkpt lat="46.31584" lon="4.71647">
        <ele>400.4</ele>
        <time>2011-04-10T07:28:22Z</time>
      </trkpt>
      <trkpt lat="46.31587" lon="4.71647">
        <ele>399.6</ele>
        <time>2011-04-10T07:28:27Z</time>
      </trkpt>
      <trkpt lat="46.31587" lon="4.71647">
        <ele>399.2</ele>
        <time>2011-04-10T07:28:29Z</time>
      </trkpt>
      <trkpt lat="46.31588" lon="4.71647">
        <ele>398.8</ele>
        <time>2011-04-10T07:28:31Z</time>
      </trkpt>
      <trkpt lat="46.31588" lon="4.71646">
        <ele>398.4</ele>
        <time>2011-04-10T07:28:33Z</time>
      </trkpt>
      <trkpt lat="46.31588" lon="4.71646">
        <ele>398.2</ele>
        <time>2011-04-10T07:28:35Z</time>
      </trkpt>
      <trkpt lat="46.31593" lon="4.71649">
        <ele>397.4</ele>
        <time>2011-04-10T07:28:40Z</time>
      </trkpt>
      <trkpt lat="46.31594" lon="4.7165">
        <ele>397</ele>
        <time>2011-04-10T07:28:42Z</time>
      </trkpt>
      <trkpt lat="46.31595" lon="4.71651">
        <ele>396.6</ele>
        <time>2011-04-10T07:28:44Z</time>
      </trkpt>
      <trkpt lat="46.31595" lon="4.71651">
        <ele>396.2</ele>
        <time>2011-04-10T07:28:46Z</time>
      </trkpt>
      <trkpt lat="46.31594" lon="4.71651">
        <ele>395.8</ele>
        <time>2011-04-10T07:28:48Z</time>
      </trkpt>
      <trkpt lat="46.31597" lon="4.71652">
        <ele>394.8</ele>
        <time>2011-04-10T07:28:58Z</time>
      </trkpt>
      <trkpt lat="46.31598" lon="4.71653">
        <ele>394.4</ele>
        <time>2011-04-10T07:29:00Z</time>
      </trkpt>
      <trkpt lat="46.31598" lon="4.71653">
        <ele>394</ele>
        <time>2011-04-10T07:29:02Z</time>
      </trkpt>
      <trkpt lat="46.31599" lon="4.71652">
        <ele>393.8</ele>
        <time>2011-04-10T07:29:04Z</time>
      </trkpt>
      <trkpt lat="46.316" lon="4.71651">
        <ele>393.6</ele>
        <time>2011-04-10T07:29:06Z</time>
      </trkpt>
      <trkpt lat="46.31601" lon="4.7165">
        <ele>393</ele>
        <time>2011-04-10T07:29:11Z</time>
      </trkpt>
      <trkpt lat="46.31602" lon="4.7165">
        <ele>392.8</ele>
        <time>2011-04-10T07:29:13Z</time>
      </trkpt>
      <trkpt lat="46.31603" lon="4.7165">
        <ele>392.2</ele>
        <time>2011-04-10T07:29:15Z</time>
      </trkpt>
      <trkpt lat="46.31603" lon="4.71649">
        <ele>392</ele>
        <time>2011-04-10T07:29:17Z</time>
      </trkpt>
      <trkpt lat="46.31604" lon="4.71648">
        <ele>391.6</ele>
        <time>2011-04-10T07:29:19Z</time>
      </trkpt>
      <trkpt lat="46.31603" lon="4.71648">
        <ele>391.4</ele>
        <time>2011-04-10T07:29:21Z</time>
      </trkpt>
      <trkpt lat="46.31604" lon="4.71645">
        <ele>390.6</ele>
        <time>2011-04-10T07:29:28Z</time>
      </trkpt>
      <trkpt lat="46.31604" lon="4.71644">
        <ele>390.2</ele>
        <time>2011-04-10T07:29:30Z</time>
      </trkpt>
      <trkpt lat="46.31605" lon="4.71644">
        <ele>389.8</ele>
        <time>2011-04-10T07:29:32Z</time>
      </trkpt>
      <trkpt lat="46.31606" lon="4.71644">
        <ele>389.4</ele>
        <time>2011-04-10T07:29:34Z</time>
      </trkpt>
      <trkpt lat="46.31607" lon="4.71644">
        <ele>389.2</ele>
        <time>2011-04-10T07:29:36Z</time>
      </trkpt>
      <trkpt lat="46.31608" lon="4.71645">
        <ele>388.8</ele>
        <time>2011-04-10T07:29:38Z</time>
      </trkpt>
      <trkpt lat="46.3161" lon="4.71648">
        <ele>388.4</ele>
        <time>2011-04-10T07:29:40Z</time>
      </trkpt>
      <trkpt lat="46.31614" lon="4.71651">
        <ele>387.8</ele>
        <time>2011-04-10T07:29:42Z</time>
      </trkpt>
      <trkpt lat="46.31616" lon="4.71653">
        <ele>387.4</ele>
        <time>2011-04-10T07:29:43Z</time>
      </trkpt>
      <trkpt lat="46.31621" lon="4.71655">
        <ele>386.8</ele>
        <time>2011-04-10T07:29:45Z</time>
      </trkpt>
      <trkpt lat="46.31624" lon="4.71657">
        <ele>385.8</ele>
        <time>2011-04-10T07:29:47Z</time>
      </trkpt>
      <trkpt lat="46.31626" lon="4.71657">
        <ele>385.4</ele>
        <time>2011-04-10T07:29:48Z</time>
      </trkpt>
      <trkpt lat="46.31628" lon="4.71658">
        <ele>384</ele>
        <time>2011-04-10T07:29:51Z</time>
      </trkpt>
      <trkpt lat="46.3163" lon="4.71656">
        <ele>383</ele>
        <time>2011-04-10T07:29:53Z</time>
      </trkpt>
      <trkpt lat="46.3163" lon="4.71655">
        <ele>382.6</ele>
        <time>2011-04-10T07:29:54Z</time>
      </trkpt>
      <trkpt lat="46.31631" lon="4.71653">
        <ele>382</ele>
        <time>2011-04-10T07:29:55Z</time>
      </trkpt>
      <trkpt lat="46.31632" lon="4.71647">
        <ele>381.2</ele>
        <time>2011-04-10T07:29:57Z</time>
      </trkpt>
      <trkpt lat="46.31632" lon="4.71639">
        <ele>380.4</ele>
        <time>2011-04-10T07:29:59Z</time>
      </trkpt>
      <trkpt lat="46.31632" lon="4.71631">
        <ele>379.4</ele>
        <time>2011-04-10T07:30:01Z</time>
      </trkpt>
      <trkpt lat="46.31631" lon="4.71623">
        <ele>378.4</ele>
        <time>2011-04-10T07:30:03Z</time>
      </trkpt>
      <trkpt lat="46.3163" lon="4.71614">
        <ele>377.6</ele>
        <time>2011-04-10T07:30:05Z</time>
      </trkpt>
      <trkpt lat="46.31629" lon="4.71604">
        <ele>376.6</ele>
        <time>2011-04-10T07:30:07Z</time>
      </trkpt>
      <trkpt lat="46.31627" lon="4.71593">
        <ele>375.8</ele>
        <time>2011-04-10T07:30:09Z</time>
      </trkpt>
      <trkpt lat="46.31626" lon="4.71582">
        <ele>374.8</ele>
        <time>2011-04-10T07:30:11Z</time>
      </trkpt>
      <trkpt lat="46.31625" lon="4.71577">
        <ele>374.4</ele>
        <time>2011-04-10T07:30:12Z</time>
      </trkpt>
      <trkpt lat="46.31625" lon="4.71572">
        <ele>373.8</ele>
        <time>2011-04-10T07:30:13Z</time>
      </trkpt>
      <trkpt lat="46.31624" lon="4.71565">
        <ele>373</ele>
        <time>2011-04-10T07:30:15Z</time>
      </trkpt>
      <trkpt lat="46.31624" lon="4.71563">
        <ele>372.4</ele>
        <time>2011-04-10T07:30:16Z</time>
      </trkpt>
      <trkpt lat="46.31624" lon="4.71561">
        <ele>372</ele>
        <time>2011-04-10T07:30:17Z</time>
      </trkpt>
      <trkpt lat="46.31624" lon="4.71558">
        <ele>371.2</ele>
        <time>2011-04-10T07:30:19Z</time>
      </trkpt>
      <trkpt lat="46.31624" lon="4.71557">
        <ele>370.8</ele>
        <time>2011-04-10T07:30:20Z</time>
      </trkpt>
      <trkpt lat="46.31624" lon="4.71555">
        <ele>370.6</ele>
        <time>2011-04-10T07:30:21Z</time>
      </trkpt>
      <trkpt lat="46.31625" lon="4.71553">
        <ele>370</ele>
        <time>2011-04-10T07:30:22Z</time>
      </trkpt>
      <trkpt lat="46.31625" lon="4.71547">
        <ele>369.2</ele>
        <time>2011-04-10T07:30:24Z</time>
      </trkpt>
      <trkpt lat="46.31625" lon="4.71539">
        <ele>368.4</ele>
        <time>2011-04-10T07:30:26Z</time>
      </trkpt>
      <trkpt lat="46.31622" lon="4.71531">
        <ele>367.8</ele>
        <time>2011-04-10T07:30:28Z</time>
      </trkpt>
      <trkpt lat="46.31621" lon="4.71527">
        <ele>367.4</ele>
        <time>2011-04-10T07:30:29Z</time>
      </trkpt>
      <trkpt lat="46.31619" lon="4.71523">
        <ele>367</ele>
        <time>2011-04-10T07:30:30Z</time>
      </trkpt>
      <trkpt lat="46.31618" lon="4.7152">
        <ele>366.6</ele>
        <time>2011-04-10T07:30:31Z</time>
      </trkpt>
      <trkpt lat="46.31616" lon="4.71513">
        <ele>365.8</ele>
        <time>2011-04-10T07:30:33Z</time>
      </trkpt>
      <trkpt lat="46.31614" lon="4.71505">
        <ele>365.4</ele>
        <time>2011-04-10T07:30:35Z</time>
      </trkpt>
      <trkpt lat="46.31612" lon="4.71496">
        <ele>364.6</ele>
        <time>2011-04-10T07:30:37Z</time>
      </trkpt>
      <trkpt lat="46.31609" lon="4.71487">
        <ele>364</ele>
        <time>2011-04-10T07:30:39Z</time>
      </trkpt>
      <trkpt lat="46.31606" lon="4.71478">
        <ele>363.2</ele>
        <time>2011-04-10T07:30:41Z</time>
      </trkpt>
      <trkpt lat="46.31604" lon="4.71474">
        <ele>362.8</ele>
        <time>2011-04-10T07:30:42Z</time>
      </trkpt>
      <trkpt lat="46.316" lon="4.71466">
        <ele>362</ele>
        <time>2011-04-10T07:30:44Z</time>
      </trkpt>
      <trkpt lat="46.31597" lon="4.71461">
        <ele>361.2</ele>
        <time>2011-04-10T07:30:46Z</time>
      </trkpt>
      <trkpt lat="46.31596" lon="4.71459">
        <ele>360.2</ele>
        <time>2011-04-10T07:30:48Z</time>
      </trkpt>
      <trkpt lat="46.31596" lon="4.71459">
        <ele>359.4</ele>
        <time>2011-04-10T07:30:50Z</time>
      </trkpt>
      <trkpt lat="46.31597" lon="4.7146">
        <ele>358.8</ele>
        <time>2011-04-10T07:30:52Z</time>
      </trkpt>
      <trkpt lat="46.31597" lon="4.7146">
        <ele>358.4</ele>
        <time>2011-04-10T07:30:54Z</time>
      </trkpt>
      <trkpt lat="46.31594" lon="4.71458">
        <ele>357.4</ele>
        <time>2011-04-10T07:31:00Z</time>
      </trkpt>
      <trkpt lat="46.31594" lon="4.71459">
        <ele>356.4</ele>
        <time>2011-04-10T07:31:13Z</time>
      </trkpt>
      <trkpt lat="46.31594" lon="4.71459">
        <ele>356.2</ele>
        <time>2011-04-10T07:31:47Z</time>
      </trkpt>
      <trkpt lat="46.31594" lon="4.71459">
        <ele>356.2</ele>
        <time>2011-04-10T07:32:02Z</time>
      </trkpt>
      <trkpt lat="46.31594" lon="4.71459">
        <ele>356.2</ele>
        <time>2011-04-10T07:32:15Z</time>
      </trkpt>
      <trkpt lat="46.31594" lon="4.71459">
        <ele>356.2</ele>
        <time>2011-04-10T07:32:36Z</time>
      </trkpt>
      <trkpt lat="46.31594" lon="4.71459">
        <ele>356.2</ele>
        <time>2011-04-10T07:32:44Z</time>
      </trkpt>
      <trkpt lat="46.31594" lon="4.71459">
        <ele>356.2</ele>
        <time>2011-04-10T07:32:54Z</time>
      </trkpt>
      <trkpt lat="46.31588" lon="4.71455">
        <ele>356.2</ele>
        <time>2011-04-10T07:32:59Z</time>
      </trkpt>
      <trkpt lat="46.31578" lon="4.71448">
        <ele>356.2</ele>
        <time>2011-04-10T07:33:01Z</time>
      </trkpt>
      <trkpt lat="46.31561" lon="4.71438">
        <ele>355.6</ele>
        <time>2011-04-10T07:33:04Z</time>
      </trkpt>
      <trkpt lat="46.31555" lon="4.71434">
        <ele>355.2</ele>
        <time>2011-04-10T07:33:06Z</time>
      </trkpt>
      <trkpt lat="46.3155" lon="4.71428">
        <ele>354.8</ele>
        <time>2011-04-10T07:33:08Z</time>
      </trkpt>
      <trkpt lat="46.31547" lon="4.71425">
        <ele>354.6</ele>
        <time>2011-04-10T07:33:09Z</time>
      </trkpt>
      <trkpt lat="46.31541" lon="4.7142">
        <ele>353.8</ele>
        <time>2011-04-10T07:33:12Z</time>
      </trkpt>
      <trkpt lat="46.3154" lon="4.71419">
        <ele>353.4</ele>
        <time>2011-04-10T07:33:14Z</time>
      </trkpt>
      <trkpt lat="46.31541" lon="4.71417">
        <ele>353.2</ele>
        <time>2011-04-10T07:33:16Z</time>
      </trkpt>
      <trkpt lat="46.31542" lon="4.71416">
        <ele>352.8</ele>
        <time>2011-04-10T07:33:19Z</time>
      </trkpt>
      <trkpt lat="46.31554" lon="4.71414">
        <ele>352.4</ele>
        <time>2011-04-10T07:33:25Z</time>
      </trkpt>
      <trkpt lat="46.31564" lon="4.71418">
        <ele>352</ele>
        <time>2011-04-10T07:33:28Z</time>
      </trkpt>
      <trkpt lat="46.31569" lon="4.71422">
        <ele>351.6</ele>
        <time>2011-04-10T07:33:30Z</time>
      </trkpt>
      <trkpt lat="46.31572" lon="4.71423">
        <ele>351.4</ele>
        <time>2011-04-10T07:33:31Z</time>
      </trkpt>
      <trkpt lat="46.31573" lon="4.71424">
        <ele>351.2</ele>
        <time>2011-04-10T07:33:32Z</time>
      </trkpt>
      <trkpt lat="46.31575" lon="4.71422">
        <ele>351</ele>
        <time>2011-04-10T07:33:34Z</time>
      </trkpt>
      <trkpt lat="46.31578" lon="4.71417">
        <ele>350.6</ele>
        <time>2011-04-10T07:33:36Z</time>
      </trkpt>
      <trkpt lat="46.31579" lon="4.71412">
        <ele>350.4</ele>
        <time>2011-04-10T07:33:37Z</time>
      </trkpt>
      <trkpt lat="46.31581" lon="4.71397">
        <ele>349.8</ele>
        <time>2011-04-10T07:33:39Z</time>
      </trkpt>
      <trkpt lat="46.31583" lon="4.71388">
        <ele>349.4</ele>
        <time>2011-04-10T07:33:40Z</time>
      </trkpt>
      <trkpt lat="46.31586" lon="4.71377">
        <ele>348.8</ele>
        <time>2011-04-10T07:33:41Z</time>
      </trkpt>
      <trkpt lat="46.31592" lon="4.71338">
        <ele>346.6</ele>
        <time>2011-04-10T07:33:44Z</time>
      </trkpt>
      <trkpt lat="46.31596" lon="4.71309">
        <ele>345</ele>
        <time>2011-04-10T07:33:46Z</time>
      </trkpt>
      <trkpt lat="46.316" lon="4.71279">
        <ele>343</ele>
        <time>2011-04-10T07:33:48Z</time>
      </trkpt>
      <trkpt lat="46.31603" lon="4.71252">
        <ele>340.8</ele>
        <time>2011-04-10T07:33:50Z</time>
      </trkpt>
      <trkpt lat="46.31604" lon="4.71239">
        <ele>339.8</ele>
        <time>2011-04-10T07:33:51Z</time>
      </trkpt>
      <trkpt lat="46.31605" lon="4.71225">
        <ele>338.6</ele>
        <time>2011-04-10T07:33:52Z</time>
      </trkpt>
      <trkpt lat="46.31607" lon="4.71214">
        <ele>337.4</ele>
        <time>2011-04-10T07:33:53Z</time>
      </trkpt>
      <trkpt lat="46.31608" lon="4.71204">
        <ele>336.2</ele>
        <time>2011-04-10T07:33:54Z</time>
      </trkpt>
      <trkpt lat="46.3161" lon="4.71193">
        <ele>334</ele>
        <time>2011-04-10T07:33:56Z</time>
      </trkpt>
      <trkpt lat="46.31611" lon="4.71189">
        <ele>332</ele>
        <time>2011-04-10T07:33:58Z</time>
      </trkpt>
      <trkpt lat="46.31611" lon="4.71188">
        <ele>331</ele>
        <time>2011-04-10T07:33:59Z</time>
      </trkpt>
      <trkpt lat="46.31607" lon="4.71182">
        <ele>328.6</ele>
        <time>2011-04-10T07:34:02Z</time>
      </trkpt>
      <trkpt lat="46.31603" lon="4.71179">
        <ele>327.8</ele>
        <time>2011-04-10T07:34:03Z</time>
      </trkpt>
      <trkpt lat="46.31592" lon="4.71172">
        <ele>326.2</ele>
        <time>2011-04-10T07:34:05Z</time>
      </trkpt>
      <trkpt lat="46.31586" lon="4.7117">
        <ele>325.6</ele>
        <time>2011-04-10T07:34:06Z</time>
      </trkpt>
      <trkpt lat="46.31582" lon="4.71169">
        <ele>325</ele>
        <time>2011-04-10T07:34:07Z</time>
      </trkpt>
      <trkpt lat="46.31575" lon="4.7117">
        <ele>324</ele>
        <time>2011-04-10T07:34:09Z</time>
      </trkpt>
      <trkpt lat="46.31572" lon="4.71169">
        <ele>323.2</ele>
        <time>2011-04-10T07:34:11Z</time>
      </trkpt>
      <trkpt lat="46.31569" lon="4.71159">
        <ele>321.8</ele>
        <time>2011-04-10T07:34:16Z</time>
      </trkpt>
      <trkpt lat="46.31569" lon="4.71148">
        <ele>321</ele>
        <time>2011-04-10T07:34:20Z</time>
      </trkpt>
      <trkpt lat="46.31568" lon="4.71115">
        <ele>320</ele>
        <time>2011-04-10T07:34:32Z</time>
      </trkpt>
      <trkpt lat="46.31567" lon="4.71101">
        <ele>320</ele>
        <time>2011-04-10T07:34:36Z</time>
      </trkpt>
      <trkpt lat="46.31566" lon="4.71077">
        <ele>320</ele>
        <time>2011-04-10T07:34:43Z</time>
      </trkpt>
      <trkpt lat="46.31566" lon="4.7107">
        <ele>320.4</ele>
        <time>2011-04-10T07:34:45Z</time>
      </trkpt>
      <trkpt lat="46.31566" lon="4.71064">
        <ele>320.6</ele>
        <time>2011-04-10T07:34:47Z</time>
      </trkpt>
      <trkpt lat="46.31566" lon="4.71058">
        <ele>320.8</ele>
        <time>2011-04-10T07:34:49Z</time>
      </trkpt>
      <trkpt lat="46.31567" lon="4.71052">
        <ele>321</ele>
        <time>2011-04-10T07:34:51Z</time>
      </trkpt>
      <trkpt lat="46.31567" lon="4.7105">
        <ele>321</ele>
        <time>2011-04-10T07:34:52Z</time>
      </trkpt>
      <trkpt lat="46.31565" lon="4.71038">
        <ele>321.4</ele>
        <time>2011-04-10T07:34:57Z</time>
      </trkpt>
      <trkpt lat="46.31565" lon="4.71034">
        <ele>321.4</ele>
        <time>2011-04-10T07:34:59Z</time>
      </trkpt>
      <trkpt lat="46.31565" lon="4.71029">
        <ele>321.8</ele>
        <time>2011-04-10T07:35:01Z</time>
      </trkpt>
      <trkpt lat="46.31565" lon="4.71024">
        <ele>322.2</ele>
        <time>2011-04-10T07:35:03Z</time>
      </trkpt>
      <trkpt lat="46.31565" lon="4.71022">
        <ele>322.2</ele>
        <time>2011-04-10T07:35:04Z</time>
      </trkpt>
      <trkpt lat="46.31565" lon="4.7102">
        <ele>322.4</ele>
        <time>2011-04-10T07:35:05Z</time>
      </trkpt>
      <trkpt lat="46.31565" lon="4.71016">
        <ele>322.6</ele>
        <time>2011-04-10T07:35:07Z</time>
      </trkpt>
      <trkpt lat="46.31565" lon="4.71012">
        <ele>323</ele>
        <time>2011-04-10T07:35:09Z</time>
      </trkpt>
      <trkpt lat="46.31566" lon="4.71001">
        <ele>323.2</ele>
        <time>2011-04-10T07:35:14Z</time>
      </trkpt>
      <trkpt lat="46.31566" lon="4.70998">
        <ele>323.6</ele>
        <time>2011-04-10T07:35:15Z</time>
      </trkpt>
      <trkpt lat="46.31566" lon="4.70993">
        <ele>324</ele>
        <time>2011-04-10T07:35:17Z</time>
      </trkpt>
      <trkpt lat="46.31567" lon="4.70988">
        <ele>324.4</ele>
        <time>2011-04-10T07:35:19Z</time>
      </trkpt>
      <trkpt lat="46.31567" lon="4.70984">
        <ele>324.8</ele>
        <time>2011-04-10T07:35:21Z</time>
      </trkpt>
      <trkpt lat="46.31566" lon="4.70979">
        <ele>325</ele>
        <time>2011-04-10T07:35:23Z</time>
      </trkpt>
      <trkpt lat="46.31566" lon="4.70976">
        <ele>325.2</ele>
        <time>2011-04-10T07:35:24Z</time>
      </trkpt>
      <trkpt lat="46.31567" lon="4.70972">
        <ele>325.6</ele>
        <time>2011-04-10T07:35:25Z</time>
      </trkpt>
      <trkpt lat="46.31565" lon="4.70963">
        <ele>326.4</ele>
        <time>2011-04-10T07:35:28Z</time>
      </trkpt>
      <trkpt lat="46.31565" lon="4.70959">
        <ele>326.6</ele>
        <time>2011-04-10T07:35:30Z</time>
      </trkpt>
      <trkpt lat="46.31565" lon="4.70956">
        <ele>326.8</ele>
        <time>2011-04-10T07:35:31Z</time>
      </trkpt>
      <trkpt lat="46.31565" lon="4.70947">
        <ele>327.6</ele>
        <time>2011-04-10T07:35:35Z</time>
      </trkpt>
      <trkpt lat="46.31565" lon="4.70942">
        <ele>328</ele>
        <time>2011-04-10T07:35:37Z</time>
      </trkpt>
      <trkpt lat="46.31565" lon="4.70937">
        <ele>328.4</ele>
        <time>2011-04-10T07:35:39Z</time>
      </trkpt>
      <trkpt lat="46.31565" lon="4.70933">
        <ele>328.8</ele>
        <time>2011-04-10T07:35:41Z</time>
      </trkpt>
      <trkpt lat="46.31565" lon="4.70928">
        <ele>329</ele>
        <time>2011-04-10T07:35:43Z</time>
      </trkpt>
      <trkpt lat="46.31564" lon="4.70915">
        <ele>329.8</ele>
        <time>2011-04-10T07:35:49Z</time>
      </trkpt>
      <trkpt lat="46.31563" lon="4.7091">
        <ele>330.4</ele>
        <time>2011-04-10T07:35:51Z</time>
      </trkpt>
      <trkpt lat="46.31562" lon="4.70905">
        <ele>330.8</ele>
        <time>2011-04-10T07:35:53Z</time>
      </trkpt>
      <trkpt lat="46.31561" lon="4.709">
        <ele>331</ele>
        <time>2011-04-10T07:35:55Z</time>
      </trkpt>
      <trkpt lat="46.3156" lon="4.70894">
        <ele>331.4</ele>
        <time>2011-04-10T07:35:57Z</time>
      </trkpt>
      <trkpt lat="46.31557" lon="4.70875">
        <ele>332</ele>
        <time>2011-04-10T07:36:04Z</time>
      </trkpt>
      <trkpt lat="46.31557" lon="4.70853">
        <ele>332.2</ele>
        <time>2011-04-10T07:36:09Z</time>
      </trkpt>
      <trkpt lat="46.31556" lon="4.70824">
        <ele>332.4</ele>
        <time>2011-04-10T07:36:18Z</time>
      </trkpt>
      <trkpt lat="46.3156" lon="4.70801">
        <ele>332.4</ele>
        <time>2011-04-10T07:36:25Z</time>
      </trkpt>
      <trkpt lat="46.31563" lon="4.70776">
        <ele>332.4</ele>
        <time>2011-04-10T07:36:32Z</time>
      </trkpt>
      <trkpt lat="46.31563" lon="4.70773">
        <ele>332.6</ele>
        <time>2011-04-10T07:36:33Z</time>
      </trkpt>
      <trkpt lat="46.31564" lon="4.70768">
        <ele>333</ele>
        <time>2011-04-10T07:36:35Z</time>
      </trkpt>
      <trkpt lat="46.31565" lon="4.70763">
        <ele>333.4</ele>
        <time>2011-04-10T07:36:37Z</time>
      </trkpt>
      <trkpt lat="46.31566" lon="4.70758">
        <ele>333.6</ele>
        <time>2011-04-10T07:36:39Z</time>
      </trkpt>
      <trkpt lat="46.31567" lon="4.70753">
        <ele>333.8</ele>
        <time>2011-04-10T07:36:41Z</time>
      </trkpt>
      <trkpt lat="46.31568" lon="4.7075">
        <ele>334.2</ele>
        <time>2011-04-10T07:36:42Z</time>
      </trkpt>
      <trkpt lat="46.31569" lon="4.70744">
        <ele>334.6</ele>
        <time>2011-04-10T07:36:44Z</time>
      </trkpt>
      <trkpt lat="46.31571" lon="4.70739">
        <ele>335</ele>
        <time>2011-04-10T07:36:46Z</time>
      </trkpt>
      <trkpt lat="46.31572" lon="4.70735">
        <ele>335.4</ele>
        <time>2011-04-10T07:36:48Z</time>
      </trkpt>
      <trkpt lat="46.31574" lon="4.7073">
        <ele>335.6</ele>
        <time>2011-04-10T07:36:50Z</time>
      </trkpt>
      <trkpt lat="46.31575" lon="4.70728">
        <ele>335.8</ele>
        <time>2011-04-10T07:36:51Z</time>
      </trkpt>
      <trkpt lat="46.31576" lon="4.70723">
        <ele>336.2</ele>
        <time>2011-04-10T07:36:53Z</time>
      </trkpt>
      <trkpt lat="46.31578" lon="4.70718">
        <ele>336.6</ele>
        <time>2011-04-10T07:36:55Z</time>
      </trkpt>
      <trkpt lat="46.31579" lon="4.70713">
        <ele>337</ele>
        <time>2011-04-10T07:36:57Z</time>
      </trkpt>
      <trkpt lat="46.31579" lon="4.70708">
        <ele>337.4</ele>
        <time>2011-04-10T07:36:59Z</time>
      </trkpt>
      <trkpt lat="46.31581" lon="4.70702">
        <ele>337.8</ele>
        <time>2011-04-10T07:37:01Z</time>
      </trkpt>
      <trkpt lat="46.31582" lon="4.707">
        <ele>338</ele>
        <time>2011-04-10T07:37:02Z</time>
      </trkpt>
      <trkpt lat="46.31583" lon="4.70695">
        <ele>338.6</ele>
        <time>2011-04-10T07:37:04Z</time>
      </trkpt>
      <trkpt lat="46.31584" lon="4.70689">
        <ele>339</ele>
        <time>2011-04-10T07:37:06Z</time>
      </trkpt>
      <trkpt lat="46.31584" lon="4.70684">
        <ele>339.4</ele>
        <time>2011-04-10T07:37:08Z</time>
      </trkpt>
      <trkpt lat="46.31583" lon="4.70678">
        <ele>340</ele>
        <time>2011-04-10T07:37:10Z</time>
      </trkpt>
      <trkpt lat="46.31581" lon="4.70673">
        <ele>340.4</ele>
        <time>2011-04-10T07:37:12Z</time>
      </trkpt>
      <trkpt lat="46.31579" lon="4.70668">
        <ele>341</ele>
        <time>2011-04-10T07:37:14Z</time>
      </trkpt>
      <trkpt lat="46.31576" lon="4.70664">
        <ele>341.4</ele>
        <time>2011-04-10T07:37:16Z</time>
      </trkpt>
      <trkpt lat="46.31573" lon="4.70661">
        <ele>341.8</ele>
        <time>2011-04-10T07:37:18Z</time>
      </trkpt>
      <trkpt lat="46.3157" lon="4.70658">
        <ele>342.6</ele>
        <time>2011-04-10T07:37:20Z</time>
      </trkpt>
      <trkpt lat="46.31567" lon="4.70655">
        <ele>343</ele>
        <time>2011-04-10T07:37:22Z</time>
      </trkpt>
      <trkpt lat="46.31564" lon="4.70651">
        <ele>343.4</ele>
        <time>2011-04-10T07:37:24Z</time>
      </trkpt>
      <trkpt lat="46.31561" lon="4.70647">
        <ele>343.8</ele>
        <time>2011-04-10T07:37:26Z</time>
      </trkpt>
      <trkpt lat="46.31559" lon="4.70641">
        <ele>344.4</ele>
        <time>2011-04-10T07:37:29Z</time>
      </trkpt>
      <trkpt lat="46.31557" lon="4.70636">
        <ele>344.8</ele>
        <time>2011-04-10T07:37:31Z</time>
      </trkpt>
      <trkpt lat="46.31555" lon="4.70631">
        <ele>345.4</ele>
        <time>2011-04-10T07:37:33Z</time>
      </trkpt>
      <trkpt lat="46.31554" lon="4.70625">
        <ele>345.8</ele>
        <time>2011-04-10T07:37:35Z</time>
      </trkpt>
      <trkpt lat="46.31553" lon="4.70623">
        <ele>345.8</ele>
        <time>2011-04-10T07:37:36Z</time>
      </trkpt>
      <trkpt lat="46.31553" lon="4.70621">
        <ele>346</ele>
        <time>2011-04-10T07:37:37Z</time>
      </trkpt>
      <trkpt lat="46.31553" lon="4.70618">
        <ele>346.4</ele>
        <time>2011-04-10T07:37:38Z</time>
      </trkpt>
      <trkpt lat="46.31553" lon="4.70615">
        <ele>347</ele>
        <time>2011-04-10T07:37:40Z</time>
      </trkpt>
      <trkpt lat="46.31554" lon="4.7061">
        <ele>347.4</ele>
        <time>2011-04-10T07:37:42Z</time>
      </trkpt>
      <trkpt lat="46.31554" lon="4.70605">
        <ele>347.8</ele>
        <time>2011-04-10T07:37:44Z</time>
      </trkpt>
      <trkpt lat="46.31555" lon="4.706">
        <ele>348.4</ele>
        <time>2011-04-10T07:37:46Z</time>
      </trkpt>
      <trkpt lat="46.31555" lon="4.70598">
        <ele>348.8</ele>
        <time>2011-04-10T07:37:47Z</time>
      </trkpt>
      <trkpt lat="46.31556" lon="4.70596">
        <ele>349</ele>
        <time>2011-04-10T07:37:48Z</time>
      </trkpt>
      <trkpt lat="46.31559" lon="4.70593">
        <ele>349.6</ele>
        <time>2011-04-10T07:37:50Z</time>
      </trkpt>
      <trkpt lat="46.31562" lon="4.70589">
        <ele>350</ele>
        <time>2011-04-10T07:37:52Z</time>
      </trkpt>
      <trkpt lat="46.31563" lon="4.70587">
        <ele>350.2</ele>
        <time>2011-04-10T07:37:53Z</time>
      </trkpt>
      <trkpt lat="46.31566" lon="4.7058">
        <ele>350.6</ele>
        <time>2011-04-10T07:37:57Z</time>
      </trkpt>
      <trkpt lat="46.31573" lon="4.70573">
        <ele>351.2</ele>
        <time>2011-04-10T07:38:01Z</time>
      </trkpt>
      <trkpt lat="46.31575" lon="4.7057">
        <ele>351.8</ele>
        <time>2011-04-10T07:38:03Z</time>
      </trkpt>
      <trkpt lat="46.31577" lon="4.70569">
        <ele>352</ele>
        <time>2011-04-10T07:38:04Z</time>
      </trkpt>
      <trkpt lat="46.31578" lon="4.70568">
        <ele>352.2</ele>
        <time>2011-04-10T07:38:05Z</time>
      </trkpt>
      <trkpt lat="46.31581" lon="4.70565">
        <ele>352.4</ele>
        <time>2011-04-10T07:38:07Z</time>
      </trkpt>
      <trkpt lat="46.31584" lon="4.70562">
        <ele>352.8</ele>
        <time>2011-04-10T07:38:09Z</time>
      </trkpt>
      <trkpt lat="46.31585" lon="4.7056">
        <ele>353</ele>
        <time>2011-04-10T07:38:10Z</time>
      </trkpt>
      <trkpt lat="46.31588" lon="4.70556">
        <ele>353.6</ele>
        <time>2011-04-10T07:38:12Z</time>
      </trkpt>
      <trkpt lat="46.31591" lon="4.70552">
        <ele>354</ele>
        <time>2011-04-10T07:38:14Z</time>
      </trkpt>
      <trkpt lat="46.31592" lon="4.7055">
        <ele>354.2</ele>
        <time>2011-04-10T07:38:15Z</time>
      </trkpt>
      <trkpt lat="46.31593" lon="4.70549">
        <ele>354.4</ele>
        <time>2011-04-10T07:38:16Z</time>
      </trkpt>
      <trkpt lat="46.31595" lon="4.70546">
        <ele>354.6</ele>
        <time>2011-04-10T07:38:18Z</time>
      </trkpt>
      <trkpt lat="46.31602" lon="4.70536">
        <ele>355.4</ele>
        <time>2011-04-10T07:38:23Z</time>
      </trkpt>
      <trkpt lat="46.31605" lon="4.70532">
        <ele>356</ele>
        <time>2011-04-10T07:38:25Z</time>
      </trkpt>
      <trkpt lat="46.31607" lon="4.70528">
        <ele>356.4</ele>
        <time>2011-04-10T07:38:27Z</time>
      </trkpt>
      <trkpt lat="46.31609" lon="4.70525">
        <ele>356.8</ele>
        <time>2011-04-10T07:38:29Z</time>
      </trkpt>
      <trkpt lat="46.3161" lon="4.70521">
        <ele>357</ele>
        <time>2011-04-10T07:38:31Z</time>
      </trkpt>
      <trkpt lat="46.31611" lon="4.70519">
        <ele>357.4</ele>
        <time>2011-04-10T07:38:32Z</time>
      </trkpt>
      <trkpt lat="46.31614" lon="4.70515">
        <ele>358</ele>
        <time>2011-04-10T07:38:34Z</time>
      </trkpt>
      <trkpt lat="46.31615" lon="4.70511">
        <ele>358.4</ele>
        <time>2011-04-10T07:38:36Z</time>
      </trkpt>
      <trkpt lat="46.31617" lon="4.7051">
        <ele>358.6</ele>
        <time>2011-04-10T07:38:37Z</time>
      </trkpt>
      <trkpt lat="46.31618" lon="4.70508">
        <ele>358.8</ele>
        <time>2011-04-10T07:38:38Z</time>
      </trkpt>
      <trkpt lat="46.3162" lon="4.70503">
        <ele>359.2</ele>
        <time>2011-04-10T07:38:40Z</time>
      </trkpt>
      <trkpt lat="46.31621" lon="4.70501">
        <ele>359.2</ele>
        <time>2011-04-10T07:38:41Z</time>
      </trkpt>
      <trkpt lat="46.31622" lon="4.70499">
        <ele>359.6</ele>
        <time>2011-04-10T07:38:42Z</time>
      </trkpt>
      <trkpt lat="46.31624" lon="4.70495">
        <ele>360</ele>
        <time>2011-04-10T07:38:44Z</time>
      </trkpt>
      <trkpt lat="46.31625" lon="4.70493">
        <ele>360.4</ele>
        <time>2011-04-10T07:38:45Z</time>
      </trkpt>
      <trkpt lat="46.31626" lon="4.70491">
        <ele>360.6</ele>
        <time>2011-04-10T07:38:46Z</time>
      </trkpt>
      <trkpt lat="46.31627" lon="4.70489">
        <ele>360.8</ele>
        <time>2011-04-10T07:38:47Z</time>
      </trkpt>
      <trkpt lat="46.31628" lon="4.70486">
        <ele>361.2</ele>
        <time>2011-04-10T07:38:49Z</time>
      </trkpt>
      <trkpt lat="46.31629" lon="4.70482">
        <ele>362</ele>
        <time>2011-04-10T07:38:51Z</time>
      </trkpt>
      <trkpt lat="46.3163" lon="4.70481">
        <ele>362.2</ele>
        <time>2011-04-10T07:38:52Z</time>
      </trkpt>
      <trkpt lat="46.31631" lon="4.70479">
        <ele>362.4</ele>
        <time>2011-04-10T07:38:53Z</time>
      </trkpt>
      <trkpt lat="46.31632" lon="4.70479">
        <ele>362.6</ele>
        <time>2011-04-10T07:38:54Z</time>
      </trkpt>
      <trkpt lat="46.31635" lon="4.70476">
        <ele>363.8</ele>
        <time>2011-04-10T07:38:57Z</time>
      </trkpt>
      <trkpt lat="46.31637" lon="4.70474">
        <ele>364.4</ele>
        <time>2011-04-10T07:38:59Z</time>
      </trkpt>
      <trkpt lat="46.31638" lon="4.70472">
        <ele>364.8</ele>
        <time>2011-04-10T07:39:01Z</time>
      </trkpt>
      <trkpt lat="46.31639" lon="4.7047">
        <ele>365.4</ele>
        <time>2011-04-10T07:39:03Z</time>
      </trkpt>
      <trkpt lat="46.31642" lon="4.70468">
        <ele>366.2</ele>
        <time>2011-04-10T07:39:05Z</time>
      </trkpt>
      <trkpt lat="46.31644" lon="4.70465">
        <ele>366.8</ele>
        <time>2011-04-10T07:39:07Z</time>
      </trkpt>
      <trkpt lat="46.31645" lon="4.70464">
        <ele>367.2</ele>
        <time>2011-04-10T07:39:08Z</time>
      </trkpt>
      <trkpt lat="46.31648" lon="4.70461">
        <ele>368</ele>
        <time>2011-04-10T07:39:10Z</time>
      </trkpt>
      <trkpt lat="46.3165" lon="4.70459">
        <ele>368.6</ele>
        <time>2011-04-10T07:39:12Z</time>
      </trkpt>
      <trkpt lat="46.3165" lon="4.70457">
        <ele>368.8</ele>
        <time>2011-04-10T07:39:13Z</time>
      </trkpt>
      <trkpt lat="46.31651" lon="4.70455">
        <ele>369</ele>
        <time>2011-04-10T07:39:14Z</time>
      </trkpt>
      <trkpt lat="46.31651" lon="4.70453">
        <ele>369.6</ele>
        <time>2011-04-10T07:39:15Z</time>
      </trkpt>
      <trkpt lat="46.31652" lon="4.70451">
        <ele>369.8</ele>
        <time>2011-04-10T07:39:16Z</time>
      </trkpt>
      <trkpt lat="46.31654" lon="4.70444">
        <ele>370.8</ele>
        <time>2011-04-10T07:39:19Z</time>
      </trkpt>
      <trkpt lat="46.31655" lon="4.70441">
        <ele>371.2</ele>
        <time>2011-04-10T07:39:21Z</time>
      </trkpt>
      <trkpt lat="46.31656" lon="4.70439">
        <ele>371.6</ele>
        <time>2011-04-10T07:39:22Z</time>
      </trkpt>
      <trkpt lat="46.31658" lon="4.70437">
        <ele>372.4</ele>
        <time>2011-04-10T07:39:24Z</time>
      </trkpt>
      <trkpt lat="46.31658" lon="4.70437">
        <ele>372.6</ele>
        <time>2011-04-10T07:39:25Z</time>
      </trkpt>
      <trkpt lat="46.3166" lon="4.70434">
        <ele>373.4</ele>
        <time>2011-04-10T07:39:28Z</time>
      </trkpt>
      <trkpt lat="46.31661" lon="4.70432">
        <ele>373.8</ele>
        <time>2011-04-10T07:39:29Z</time>
      </trkpt>
      <trkpt lat="46.31663" lon="4.70428">
        <ele>374.4</ele>
        <time>2011-04-10T07:39:31Z</time>
      </trkpt>
      <trkpt lat="46.31664" lon="4.70425">
        <ele>375</ele>
        <time>2011-04-10T07:39:33Z</time>
      </trkpt>
      <trkpt lat="46.31667" lon="4.70421">
        <ele>375.4</ele>
        <time>2011-04-10T07:39:35Z</time>
      </trkpt>
      <trkpt lat="46.31668" lon="4.7042">
        <ele>375.8</ele>
        <time>2011-04-10T07:39:36Z</time>
      </trkpt>
      <trkpt lat="46.3167" lon="4.70417">
        <ele>376.6</ele>
        <time>2011-04-10T07:39:38Z</time>
      </trkpt>
      <trkpt lat="46.31673" lon="4.70414">
        <ele>377.2</ele>
        <time>2011-04-10T07:39:40Z</time>
      </trkpt>
      <trkpt lat="46.31675" lon="4.70413">
        <ele>377.8</ele>
        <time>2011-04-10T07:39:42Z</time>
      </trkpt>
      <trkpt lat="46.31676" lon="4.70411">
        <ele>378.4</ele>
        <time>2011-04-10T07:39:44Z</time>
      </trkpt>
      <trkpt lat="46.31677" lon="4.70409">
        <ele>378.8</ele>
        <time>2011-04-10T07:39:45Z</time>
      </trkpt>
      <trkpt lat="46.31677" lon="4.70407">
        <ele>379</ele>
        <time>2011-04-10T07:39:46Z</time>
      </trkpt>
      <trkpt lat="46.31679" lon="4.70403">
        <ele>379.6</ele>
        <time>2011-04-10T07:39:48Z</time>
      </trkpt>
      <trkpt lat="46.31679" lon="4.704">
        <ele>380.2</ele>
        <time>2011-04-10T07:39:50Z</time>
      </trkpt>
      <trkpt lat="46.31679" lon="4.70398">
        <ele>380.8</ele>
        <time>2011-04-10T07:39:52Z</time>
      </trkpt>
      <trkpt lat="46.31679" lon="4.70396">
        <ele>381.4</ele>
        <time>2011-04-10T07:39:54Z</time>
      </trkpt>
      <trkpt lat="46.31679" lon="4.70392">
        <ele>381.8</ele>
        <time>2011-04-10T07:39:56Z</time>
      </trkpt>
      <trkpt lat="46.3168" lon="4.70391">
        <ele>382.2</ele>
        <time>2011-04-10T07:39:57Z</time>
      </trkpt>
      <trkpt lat="46.31681" lon="4.70389">
        <ele>382.8</ele>
        <time>2011-04-10T07:39:59Z</time>
      </trkpt>
      <trkpt lat="46.31684" lon="4.70387">
        <ele>383.4</ele>
        <time>2011-04-10T07:40:01Z</time>
      </trkpt>
      <trkpt lat="46.31687" lon="4.70385">
        <ele>383.8</ele>
        <time>2011-04-10T07:40:03Z</time>
      </trkpt>
      <trkpt lat="46.31689" lon="4.70385">
        <ele>384.2</ele>
        <time>2011-04-10T07:40:04Z</time>
      </trkpt>
      <trkpt lat="46.31692" lon="4.70383">
        <ele>385</ele>
        <time>2011-04-10T07:40:06Z</time>
      </trkpt>
      <trkpt lat="46.31694" lon="4.70382">
        <ele>385.6</ele>
        <time>2011-04-10T07:40:08Z</time>
      </trkpt>
      <trkpt lat="46.31696" lon="4.7038">
        <ele>386</ele>
        <time>2011-04-10T07:40:10Z</time>
      </trkpt>
      <trkpt lat="46.31698" lon="4.70378">
        <ele>386.4</ele>
        <time>2011-04-10T07:40:12Z</time>
      </trkpt>
      <trkpt lat="46.31699" lon="4.70377">
        <ele>386.8</ele>
        <time>2011-04-10T07:40:13Z</time>
      </trkpt>
      <trkpt lat="46.31701" lon="4.70376">
        <ele>387.4</ele>
        <time>2011-04-10T07:40:15Z</time>
      </trkpt>
      <trkpt lat="46.31705" lon="4.70374">
        <ele>388</ele>
        <time>2011-04-10T07:40:17Z</time>
      </trkpt>
      <trkpt lat="46.31711" lon="4.70372">
        <ele>388.4</ele>
        <time>2011-04-10T07:40:19Z</time>
      </trkpt>
      <trkpt lat="46.31713" lon="4.70371">
        <ele>388.8</ele>
        <time>2011-04-10T07:40:20Z</time>
      </trkpt>
      <trkpt lat="46.31715" lon="4.70371">
        <ele>389</ele>
        <time>2011-04-10T07:40:21Z</time>
      </trkpt>
      <trkpt lat="46.31717" lon="4.70371">
        <ele>389.4</ele>
        <time>2011-04-10T07:40:22Z</time>
      </trkpt>
      <trkpt lat="46.3172" lon="4.70371">
        <ele>390</ele>
        <time>2011-04-10T07:40:24Z</time>
      </trkpt>
      <trkpt lat="46.31723" lon="4.7037">
        <ele>390.4</ele>
        <time>2011-04-10T07:40:26Z</time>
      </trkpt>
      <trkpt lat="46.31725" lon="4.70368">
        <ele>390.8</ele>
        <time>2011-04-10T07:40:28Z</time>
      </trkpt>
      <trkpt lat="46.31726" lon="4.70368">
        <ele>391.2</ele>
        <time>2011-04-10T07:40:29Z</time>
      </trkpt>
      <trkpt lat="46.31728" lon="4.70367">
        <ele>391.8</ele>
        <time>2011-04-10T07:40:31Z</time>
      </trkpt>
      <trkpt lat="46.31729" lon="4.70367">
        <ele>392</ele>
        <time>2011-04-10T07:40:32Z</time>
      </trkpt>
      <trkpt lat="46.31733" lon="4.70364">
        <ele>392.6</ele>
        <time>2011-04-10T07:40:35Z</time>
      </trkpt>
      <trkpt lat="46.31734" lon="4.70364">
        <ele>392.8</ele>
        <time>2011-04-10T07:40:36Z</time>
      </trkpt>
      <trkpt lat="46.31738" lon="4.70362">
        <ele>393.2</ele>
        <time>2011-04-10T07:40:38Z</time>
      </trkpt>
      <trkpt lat="46.31743" lon="4.70361">
        <ele>393.8</ele>
        <time>2011-04-10T07:40:40Z</time>
      </trkpt>
      <trkpt lat="46.31747" lon="4.70359">
        <ele>394.4</ele>
        <time>2011-04-10T07:40:42Z</time>
      </trkpt>
      <trkpt lat="46.31749" lon="4.70358">
        <ele>394.6</ele>
        <time>2011-04-10T07:40:43Z</time>
      </trkpt>
      <trkpt lat="46.31754" lon="4.70356">
        <ele>395</ele>
        <time>2011-04-10T07:40:46Z</time>
      </trkpt>
      <trkpt lat="46.31756" lon="4.70356">
        <ele>395.6</ele>
        <time>2011-04-10T07:40:48Z</time>
      </trkpt>
      <trkpt lat="46.31758" lon="4.70356">
        <ele>395.8</ele>
        <time>2011-04-10T07:40:49Z</time>
      </trkpt>
      <trkpt lat="46.31759" lon="4.70355">
        <ele>396.2</ele>
        <time>2011-04-10T07:40:50Z</time>
      </trkpt>
      <trkpt lat="46.31762" lon="4.70355">
        <ele>396.6</ele>
        <time>2011-04-10T07:40:52Z</time>
      </trkpt>
      <trkpt lat="46.31765" lon="4.70354">
        <ele>397</ele>
        <time>2011-04-10T07:40:54Z</time>
      </trkpt>
      <trkpt lat="46.31767" lon="4.70353">
        <ele>397.4</ele>
        <time>2011-04-10T07:40:56Z</time>
      </trkpt>
      <trkpt lat="46.31768" lon="4.70352">
        <ele>397.8</ele>
        <time>2011-04-10T07:40:57Z</time>
      </trkpt>
      <trkpt lat="46.31771" lon="4.70351">
        <ele>398.2</ele>
        <time>2011-04-10T07:40:59Z</time>
      </trkpt>
      <trkpt lat="46.31774" lon="4.7035">
        <ele>398.8</ele>
        <time>2011-04-10T07:41:01Z</time>
      </trkpt>
      <trkpt lat="46.31777" lon="4.70348">
        <ele>399.2</ele>
        <time>2011-04-10T07:41:03Z</time>
      </trkpt>
      <trkpt lat="46.31781" lon="4.70346">
        <ele>399.4</ele>
        <time>2011-04-10T07:41:05Z</time>
      </trkpt>
      <trkpt lat="46.31782" lon="4.70345">
        <ele>399.8</ele>
        <time>2011-04-10T07:41:06Z</time>
      </trkpt>
      <trkpt lat="46.31785" lon="4.70342">
        <ele>400.4</ele>
        <time>2011-04-10T07:41:08Z</time>
      </trkpt>
      <trkpt lat="46.31788" lon="4.7034">
        <ele>400.8</ele>
        <time>2011-04-10T07:41:10Z</time>
      </trkpt>
      <trkpt lat="46.3179" lon="4.70336">
        <ele>401.2</ele>
        <time>2011-04-10T07:41:12Z</time>
      </trkpt>
      <trkpt lat="46.31792" lon="4.70333">
        <ele>401.8</ele>
        <time>2011-04-10T07:41:14Z</time>
      </trkpt>
      <trkpt lat="46.31795" lon="4.7033">
        <ele>402.4</ele>
        <time>2011-04-10T07:41:16Z</time>
      </trkpt>
      <trkpt lat="46.31796" lon="4.70329">
        <ele>402.6</ele>
        <time>2011-04-10T07:41:17Z</time>
      </trkpt>
      <trkpt lat="46.31797" lon="4.70328">
        <ele>402.8</ele>
        <time>2011-04-10T07:41:18Z</time>
      </trkpt>
      <trkpt lat="46.318" lon="4.70327">
        <ele>403.2</ele>
        <time>2011-04-10T07:41:20Z</time>
      </trkpt>
      <trkpt lat="46.31801" lon="4.70326">
        <ele>403.4</ele>
        <time>2011-04-10T07:41:21Z</time>
      </trkpt>
      <trkpt lat="46.31803" lon="4.70323">
        <ele>403.6</ele>
        <time>2011-04-10T07:41:22Z</time>
      </trkpt>
      <trkpt lat="46.31804" lon="4.70321">
        <ele>403.8</ele>
        <time>2011-04-10T07:41:23Z</time>
      </trkpt>
      <trkpt lat="46.31807" lon="4.70317">
        <ele>404.4</ele>
        <time>2011-04-10T07:41:25Z</time>
      </trkpt>
      <trkpt lat="46.31809" lon="4.70315">
        <ele>405</ele>
        <time>2011-04-10T07:41:27Z</time>
      </trkpt>
      <trkpt lat="46.31813" lon="4.70314">
        <ele>405.4</ele>
        <time>2011-04-10T07:41:29Z</time>
      </trkpt>
      <trkpt lat="46.31816" lon="4.70313">
        <ele>405.6</ele>
        <time>2011-04-10T07:41:31Z</time>
      </trkpt>
      <trkpt lat="46.31818" lon="4.70313">
        <ele>406</ele>
        <time>2011-04-10T07:41:32Z</time>
      </trkpt>
      <trkpt lat="46.3182" lon="4.7031">
        <ele>406.6</ele>
        <time>2011-04-10T07:41:34Z</time>
      </trkpt>
      <trkpt lat="46.31822" lon="4.70307">
        <ele>407</ele>
        <time>2011-04-10T07:41:36Z</time>
      </trkpt>
      <trkpt lat="46.31824" lon="4.70305">
        <ele>407.4</ele>
        <time>2011-04-10T07:41:37Z</time>
      </trkpt>
      <trkpt lat="46.31825" lon="4.70305">
        <ele>407.4</ele>
        <time>2011-04-10T07:41:38Z</time>
      </trkpt>
      <trkpt lat="46.31827" lon="4.70304">
        <ele>407.8</ele>
        <time>2011-04-10T07:41:40Z</time>
      </trkpt>
      <trkpt lat="46.31828" lon="4.70303">
        <ele>408.2</ele>
        <time>2011-04-10T07:41:41Z</time>
      </trkpt>
      <trkpt lat="46.31831" lon="4.70301">
        <ele>408.8</ele>
        <time>2011-04-10T07:41:43Z</time>
      </trkpt>
      <trkpt lat="46.31834" lon="4.703">
        <ele>409.2</ele>
        <time>2011-04-10T07:41:45Z</time>
      </trkpt>
      <trkpt lat="46.31838" lon="4.70299">
        <ele>409.6</ele>
        <time>2011-04-10T07:41:47Z</time>
      </trkpt>
      <trkpt lat="46.31842" lon="4.70297">
        <ele>410</ele>
        <time>2011-04-10T07:41:49Z</time>
      </trkpt>
      <trkpt lat="46.31846" lon="4.70294">
        <ele>410.6</ele>
        <time>2011-04-10T07:41:52Z</time>
      </trkpt>
      <trkpt lat="46.31849" lon="4.70291">
        <ele>411</ele>
        <time>2011-04-10T07:41:54Z</time>
      </trkpt>
      <trkpt lat="46.31853" lon="4.70289">
        <ele>411.4</ele>
        <time>2011-04-10T07:41:56Z</time>
      </trkpt>
      <trkpt lat="46.31857" lon="4.70286">
        <ele>411.8</ele>
        <time>2011-04-10T07:41:58Z</time>
      </trkpt>
      <trkpt lat="46.31861" lon="4.70283">
        <ele>412.2</ele>
        <time>2011-04-10T07:42:00Z</time>
      </trkpt>
      <trkpt lat="46.31866" lon="4.70278">
        <ele>412.8</ele>
        <time>2011-04-10T07:42:04Z</time>
      </trkpt>
      <trkpt lat="46.31868" lon="4.70275">
        <ele>413.2</ele>
        <time>2011-04-10T07:42:06Z</time>
      </trkpt>
      <trkpt lat="46.31869" lon="4.70274">
        <ele>413.4</ele>
        <time>2011-04-10T07:42:07Z</time>
      </trkpt>
      <trkpt lat="46.3187" lon="4.70273">
        <ele>413.6</ele>
        <time>2011-04-10T07:42:08Z</time>
      </trkpt>
      <trkpt lat="46.31873" lon="4.70273">
        <ele>414</ele>
        <time>2011-04-10T07:42:10Z</time>
      </trkpt>
      <trkpt lat="46.31875" lon="4.70272">
        <ele>414.2</ele>
        <time>2011-04-10T07:42:12Z</time>
      </trkpt>
      <trkpt lat="46.31883" lon="4.7027">
        <ele>414.8</ele>
        <time>2011-04-10T07:42:16Z</time>
      </trkpt>
      <trkpt lat="46.31886" lon="4.70266">
        <ele>415.4</ele>
        <time>2011-04-10T07:42:18Z</time>
      </trkpt>
      <trkpt lat="46.31887" lon="4.70262">
        <ele>415.8</ele>
        <time>2011-04-10T07:42:20Z</time>
      </trkpt>
      <trkpt lat="46.31889" lon="4.70259">
        <ele>416</ele>
        <time>2011-04-10T07:42:22Z</time>
      </trkpt>
      <trkpt lat="46.31891" lon="4.70257">
        <ele>416.2</ele>
        <time>2011-04-10T07:42:24Z</time>
      </trkpt>
      <trkpt lat="46.31896" lon="4.70255">
        <ele>416.8</ele>
        <time>2011-04-10T07:42:29Z</time>
      </trkpt>
      <trkpt lat="46.31896" lon="4.70253">
        <ele>417</ele>
        <time>2011-04-10T07:42:32Z</time>
      </trkpt>
      <trkpt lat="46.31896" lon="4.70246">
        <ele>417</ele>
        <time>2011-04-10T07:42:37Z</time>
      </trkpt>
      <trkpt lat="46.319" lon="4.70246">
        <ele>417.2</ele>
        <time>2011-04-10T07:42:44Z</time>
      </trkpt>
      <trkpt lat="46.31901" lon="4.70247">
        <ele>417.4</ele>
        <time>2011-04-10T07:42:47Z</time>
      </trkpt>
      <trkpt lat="46.31902" lon="4.70249">
        <ele>417.6</ele>
        <time>2011-04-10T07:42:48Z</time>
      </trkpt>
      <trkpt lat="46.31901" lon="4.70253">
        <ele>418.2</ele>
        <time>2011-04-10T07:42:51Z</time>
      </trkpt>
      <trkpt lat="46.31901" lon="4.70255">
        <ele>418.4</ele>
        <time>2011-04-10T07:42:53Z</time>
      </trkpt>
      <trkpt lat="46.31901" lon="4.70255">
        <ele>418.6</ele>
        <time>2011-04-10T07:42:55Z</time>
      </trkpt>
      <trkpt lat="46.31901" lon="4.70256">
        <ele>419</ele>
        <time>2011-04-10T07:43:02Z</time>
      </trkpt>
      <trkpt lat="46.319" lon="4.70257">
        <ele>419</ele>
        <time>2011-04-10T07:43:04Z</time>
      </trkpt>
      <trkpt lat="46.31895" lon="4.70256">
        <ele>419.2</ele>
        <time>2011-04-10T07:43:08Z</time>
      </trkpt>
      <trkpt lat="46.31894" lon="4.70251">
        <ele>419.4</ele>
        <time>2011-04-10T07:43:15Z</time>
      </trkpt>
      <trkpt lat="46.31897" lon="4.70246">
        <ele>419.4</ele>
        <time>2011-04-10T07:43:23Z</time>
      </trkpt>
      <trkpt lat="46.31899" lon="4.70232">
        <ele>419.4</ele>
        <time>2011-04-10T07:43:28Z</time>
      </trkpt>
      <trkpt lat="46.319" lon="4.70223">
        <ele>419.4</ele>
        <time>2011-04-10T07:43:32Z</time>
      </trkpt>
      <trkpt lat="46.31899" lon="4.7022">
        <ele>419.6</ele>
        <time>2011-04-10T07:43:36Z</time>
      </trkpt>
      <trkpt lat="46.31896" lon="4.70217">
        <ele>420</ele>
        <time>2011-04-10T07:43:38Z</time>
      </trkpt>
      <trkpt lat="46.31892" lon="4.70214">
        <ele>420.2</ele>
        <time>2011-04-10T07:43:40Z</time>
      </trkpt>
      <trkpt lat="46.3189" lon="4.70213">
        <ele>420.4</ele>
        <time>2011-04-10T07:43:41Z</time>
      </trkpt>
      <trkpt lat="46.31888" lon="4.70211">
        <ele>420.6</ele>
        <time>2011-04-10T07:43:42Z</time>
      </trkpt>
      <trkpt lat="46.31885" lon="4.70208">
        <ele>420.8</ele>
        <time>2011-04-10T07:43:44Z</time>
      </trkpt>
      <trkpt lat="46.31876" lon="4.702">
        <ele>421.4</ele>
        <time>2011-04-10T07:43:50Z</time>
      </trkpt>
      <trkpt lat="46.31873" lon="4.70199">
        <ele>421.8</ele>
        <time>2011-04-10T07:43:52Z</time>
      </trkpt>
      <trkpt lat="46.31871" lon="4.70197">
        <ele>422.2</ele>
        <time>2011-04-10T07:43:54Z</time>
      </trkpt>
      <trkpt lat="46.31868" lon="4.70195">
        <ele>422.4</ele>
        <time>2011-04-10T07:43:56Z</time>
      </trkpt>
      <trkpt lat="46.31865" lon="4.70193">
        <ele>422.6</ele>
        <time>2011-04-10T07:43:58Z</time>
      </trkpt>
      <trkpt lat="46.31857" lon="4.70188">
        <ele>423.2</ele>
        <time>2011-04-10T07:44:03Z</time>
      </trkpt>
      <trkpt lat="46.31854" lon="4.70186">
        <ele>423.8</ele>
        <time>2011-04-10T07:44:05Z</time>
      </trkpt>
      <trkpt lat="46.31851" lon="4.70184">
        <ele>424.2</ele>
        <time>2011-04-10T07:44:07Z</time>
      </trkpt>
      <trkpt lat="46.31848" lon="4.70182">
        <ele>424.4</ele>
        <time>2011-04-10T07:44:09Z</time>
      </trkpt>
      <trkpt lat="46.31846" lon="4.7018">
        <ele>424.8</ele>
        <time>2011-04-10T07:44:11Z</time>
      </trkpt>
      <trkpt lat="46.31838" lon="4.70175">
        <ele>425.4</ele>
        <time>2011-04-10T07:44:16Z</time>
      </trkpt>
      <trkpt lat="46.31833" lon="4.70172">
        <ele>425.8</ele>
        <time>2011-04-10T07:44:18Z</time>
      </trkpt>
      <trkpt lat="46.31828" lon="4.70171">
        <ele>426.2</ele>
        <time>2011-04-10T07:44:20Z</time>
      </trkpt>
      <trkpt lat="46.31823" lon="4.7017">
        <ele>426.6</ele>
        <time>2011-04-10T07:44:22Z</time>
      </trkpt>
      <trkpt lat="46.31818" lon="4.70169">
        <ele>426.8</ele>
        <time>2011-04-10T07:44:24Z</time>
      </trkpt>
      <trkpt lat="46.31816" lon="4.70168">
        <ele>427.2</ele>
        <time>2011-04-10T07:44:25Z</time>
      </trkpt>
      <trkpt lat="46.31812" lon="4.70166">
        <ele>427.6</ele>
        <time>2011-04-10T07:44:27Z</time>
      </trkpt>
      <trkpt lat="46.31809" lon="4.70165">
        <ele>428</ele>
        <time>2011-04-10T07:44:29Z</time>
      </trkpt>
      <trkpt lat="46.31806" lon="4.70163">
        <ele>428.4</ele>
        <time>2011-04-10T07:44:31Z</time>
      </trkpt>
      <trkpt lat="46.31802" lon="4.70161">
        <ele>428.8</ele>
        <time>2011-04-10T07:44:33Z</time>
      </trkpt>
      <trkpt lat="46.318" lon="4.7016">
        <ele>429</ele>
        <time>2011-04-10T07:44:34Z</time>
      </trkpt>
      <trkpt lat="46.31796" lon="4.70157">
        <ele>429.6</ele>
        <time>2011-04-10T07:44:36Z</time>
      </trkpt>
      <trkpt lat="46.31792" lon="4.70155">
        <ele>430.2</ele>
        <time>2011-04-10T07:44:38Z</time>
      </trkpt>
      <trkpt lat="46.31789" lon="4.70153">
        <ele>430.6</ele>
        <time>2011-04-10T07:44:40Z</time>
      </trkpt>
      <trkpt lat="46.31786" lon="4.7015">
        <ele>430.8</ele>
        <time>2011-04-10T07:44:42Z</time>
      </trkpt>
      <trkpt lat="46.31778" lon="4.70144">
        <ele>431.6</ele>
        <time>2011-04-10T07:44:47Z</time>
      </trkpt>
      <trkpt lat="46.31773" lon="4.70142">
        <ele>432</ele>
        <time>2011-04-10T07:44:49Z</time>
      </trkpt>
      <trkpt lat="46.31768" lon="4.7014">
        <ele>432.4</ele>
        <time>2011-04-10T07:44:51Z</time>
      </trkpt>
      <trkpt lat="46.31763" lon="4.70137">
        <ele>432.8</ele>
        <time>2011-04-10T07:44:53Z</time>
      </trkpt>
      <trkpt lat="46.31758" lon="4.70135">
        <ele>433</ele>
        <time>2011-04-10T07:44:55Z</time>
      </trkpt>
      <trkpt lat="46.31754" lon="4.70133">
        <ele>433.4</ele>
        <time>2011-04-10T07:44:57Z</time>
      </trkpt>
      <trkpt lat="46.3175" lon="4.7013">
        <ele>434</ele>
        <time>2011-04-10T07:44:59Z</time>
      </trkpt>
      <trkpt lat="46.31746" lon="4.70128">
        <ele>434.4</ele>
        <time>2011-04-10T07:45:01Z</time>
      </trkpt>
      <trkpt lat="46.31742" lon="4.70125">
        <ele>434.8</ele>
        <time>2011-04-10T07:45:03Z</time>
      </trkpt>
      <trkpt lat="46.31737" lon="4.70122">
        <ele>435.2</ele>
        <time>2011-04-10T07:45:05Z</time>
      </trkpt>
      <trkpt lat="46.31728" lon="4.70112">
        <ele>435.6</ele>
        <time>2011-04-10T07:45:11Z</time>
      </trkpt>
      <trkpt lat="46.31719" lon="4.70099">
        <ele>436</ele>
        <time>2011-04-10T07:45:16Z</time>
      </trkpt>
      <trkpt lat="46.31714" lon="4.70079">
        <ele>436.2</ele>
        <time>2011-04-10T07:45:22Z</time>
      </trkpt>
      <trkpt lat="46.31713" lon="4.70058">
        <ele>436.2</ele>
        <time>2011-04-10T07:45:27Z</time>
      </trkpt>
      <trkpt lat="46.31709" lon="4.70041">
        <ele>436.2</ele>
        <time>2011-04-10T07:45:31Z</time>
      </trkpt>
      <trkpt lat="46.31708" lon="4.70033">
        <ele>436.4</ele>
        <time>2011-04-10T07:45:33Z</time>
      </trkpt>
      <trkpt lat="46.31707" lon="4.70025">
        <ele>436.8</ele>
        <time>2011-04-10T07:45:35Z</time>
      </trkpt>
      <trkpt lat="46.31705" lon="4.70015">
        <ele>437.2</ele>
        <time>2011-04-10T07:45:37Z</time>
      </trkpt>
      <trkpt lat="46.31702" lon="4.70008">
        <ele>437.4</ele>
        <time>2011-04-10T07:45:39Z</time>
      </trkpt>
      <trkpt lat="46.317" lon="4.70005">
        <ele>437.4</ele>
        <time>2011-04-10T07:45:40Z</time>
      </trkpt>
      <trkpt lat="46.31687" lon="4.69992">
        <ele>438.2</ele>
        <time>2011-04-10T07:45:46Z</time>
      </trkpt>
      <trkpt lat="46.31684" lon="4.69987">
        <ele>438.6</ele>
        <time>2011-04-10T07:45:48Z</time>
      </trkpt>
      <trkpt lat="46.3168" lon="4.69982">
        <ele>439</ele>
        <time>2011-04-10T07:45:50Z</time>
      </trkpt>
      <trkpt lat="46.31678" lon="4.69977">
        <ele>439.4</ele>
        <time>2011-04-10T07:45:52Z</time>
      </trkpt>
      <trkpt lat="46.31675" lon="4.6997">
        <ele>439.6</ele>
        <time>2011-04-10T07:45:54Z</time>
      </trkpt>
      <trkpt lat="46.31675" lon="4.69968">
        <ele>439.8</ele>
        <time>2011-04-10T07:45:55Z</time>
      </trkpt>
      <trkpt lat="46.31672" lon="4.69961">
        <ele>440.4</ele>
        <time>2011-04-10T07:45:57Z</time>
      </trkpt>
      <trkpt lat="46.31671" lon="4.69955">
        <ele>440.8</ele>
        <time>2011-04-10T07:45:59Z</time>
      </trkpt>
      <trkpt lat="46.31669" lon="4.69947">
        <ele>441.2</ele>
        <time>2011-04-10T07:46:01Z</time>
      </trkpt>
      <trkpt lat="46.31666" lon="4.69938">
        <ele>441.6</ele>
        <time>2011-04-10T07:46:03Z</time>
      </trkpt>
      <trkpt lat="46.31655" lon="4.69913">
        <ele>442</ele>
        <time>2011-04-10T07:46:09Z</time>
      </trkpt>
      <trkpt lat="46.3165" lon="4.69903">
        <ele>442.2</ele>
        <time>2011-04-10T07:46:11Z</time>
      </trkpt>
      <trkpt lat="46.31636" lon="4.69888">
        <ele>442.4</ele>
        <time>2011-04-10T07:46:15Z</time>
      </trkpt>
      <trkpt lat="46.31618" lon="4.69881">
        <ele>442.6</ele>
        <time>2011-04-10T07:46:19Z</time>
      </trkpt>
      <trkpt lat="46.31591" lon="4.69878">
        <ele>442.6</ele>
        <time>2011-04-10T07:46:25Z</time>
      </trkpt>
      <trkpt lat="46.31561" lon="4.69885">
        <ele>442.6</ele>
        <time>2011-04-10T07:46:30Z</time>
      </trkpt>
      <trkpt lat="46.31539" lon="4.69891">
        <ele>442.8</ele>
        <time>2011-04-10T07:46:34Z</time>
      </trkpt>
      <trkpt lat="46.31511" lon="4.69897">
        <ele>442.8</ele>
        <time>2011-04-10T07:46:39Z</time>
      </trkpt>
      <trkpt lat="46.31499" lon="4.699">
        <ele>442.8</ele>
        <time>2011-04-10T07:46:42Z</time>
      </trkpt>
      <trkpt lat="46.31488" lon="4.69903">
        <ele>442.8</ele>
        <time>2011-04-10T07:46:44Z</time>
      </trkpt>
      <trkpt lat="46.31454" lon="4.69899">
        <ele>442.8</ele>
        <time>2011-04-10T07:46:50Z</time>
      </trkpt>
      <trkpt lat="46.31436" lon="4.69893">
        <ele>443</ele>
        <time>2011-04-10T07:46:54Z</time>
      </trkpt>
      <trkpt lat="46.31429" lon="4.69892">
        <ele>443.2</ele>
        <time>2011-04-10T07:46:56Z</time>
      </trkpt>
      <trkpt lat="46.31423" lon="4.6989">
        <ele>443.6</ele>
        <time>2011-04-10T07:46:58Z</time>
      </trkpt>
      <trkpt lat="46.31419" lon="4.69888">
        <ele>443.8</ele>
        <time>2011-04-10T07:47:00Z</time>
      </trkpt>
      <trkpt lat="46.31413" lon="4.69885">
        <ele>444</ele>
        <time>2011-04-10T07:47:02Z</time>
      </trkpt>
      <trkpt lat="46.31405" lon="4.6988">
        <ele>444.4</ele>
        <time>2011-04-10T07:47:05Z</time>
      </trkpt>
      <trkpt lat="46.31399" lon="4.69878">
        <ele>444.8</ele>
        <time>2011-04-10T07:47:07Z</time>
      </trkpt>
      <trkpt lat="46.31393" lon="4.69875">
        <ele>445.2</ele>
        <time>2011-04-10T07:47:09Z</time>
      </trkpt>
      <trkpt lat="46.31387" lon="4.69872">
        <ele>445.6</ele>
        <time>2011-04-10T07:47:11Z</time>
      </trkpt>
      <trkpt lat="46.31381" lon="4.69869">
        <ele>445.8</ele>
        <time>2011-04-10T07:47:13Z</time>
      </trkpt>
      <trkpt lat="46.31379" lon="4.69869">
        <ele>446.2</ele>
        <time>2011-04-10T07:47:14Z</time>
      </trkpt>
      <trkpt lat="46.31373" lon="4.69869">
        <ele>446.8</ele>
        <time>2011-04-10T07:47:16Z</time>
      </trkpt>
      <trkpt lat="46.31367" lon="4.6987">
        <ele>447.2</ele>
        <time>2011-04-10T07:47:18Z</time>
      </trkpt>
      <trkpt lat="46.31361" lon="4.6987">
        <ele>447.6</ele>
        <time>2011-04-10T07:47:20Z</time>
      </trkpt>
      <trkpt lat="46.31355" lon="4.69871">
        <ele>448.2</ele>
        <time>2011-04-10T07:47:22Z</time>
      </trkpt>
      <trkpt lat="46.31352" lon="4.69871">
        <ele>448.4</ele>
        <time>2011-04-10T07:47:23Z</time>
      </trkpt>
      <trkpt lat="46.31349" lon="4.6987">
        <ele>448.8</ele>
        <time>2011-04-10T07:47:24Z</time>
      </trkpt>
      <trkpt lat="46.31343" lon="4.69868">
        <ele>449.4</ele>
        <time>2011-04-10T07:47:26Z</time>
      </trkpt>
      <trkpt lat="46.31337" lon="4.69866">
        <ele>449.8</ele>
        <time>2011-04-10T07:47:28Z</time>
      </trkpt>
      <trkpt lat="46.31331" lon="4.69864">
        <ele>450.4</ele>
        <time>2011-04-10T07:47:30Z</time>
      </trkpt>
      <trkpt lat="46.31325" lon="4.69863">
        <ele>451</ele>
        <time>2011-04-10T07:47:32Z</time>
      </trkpt>
      <trkpt lat="46.31319" lon="4.69861">
        <ele>451.6</ele>
        <time>2011-04-10T07:47:34Z</time>
      </trkpt>
      <trkpt lat="46.31313" lon="4.6986">
        <ele>452</ele>
        <time>2011-04-10T07:47:36Z</time>
      </trkpt>
      <trkpt lat="46.31307" lon="4.69859">
        <ele>452.4</ele>
        <time>2011-04-10T07:47:38Z</time>
      </trkpt>
      <trkpt lat="46.31293" lon="4.69856">
        <ele>453.2</ele>
        <time>2011-04-10T07:47:43Z</time>
      </trkpt>
      <trkpt lat="46.31287" lon="4.69855">
        <ele>453.6</ele>
        <time>2011-04-10T07:47:45Z</time>
      </trkpt>
      <trkpt lat="46.31281" lon="4.69854">
        <ele>454</ele>
        <time>2011-04-10T07:47:47Z</time>
      </trkpt>
      <trkpt lat="46.31277" lon="4.69854">
        <ele>454.4</ele>
        <time>2011-04-10T07:47:49Z</time>
      </trkpt>
      <trkpt lat="46.31275" lon="4.69854">
        <ele>454.6</ele>
        <time>2011-04-10T07:47:50Z</time>
      </trkpt>
      <trkpt lat="46.31273" lon="4.69853">
        <ele>454.6</ele>
        <time>2011-04-10T07:47:51Z</time>
      </trkpt>
      <trkpt lat="46.31264" lon="4.6985">
        <ele>455.4</ele>
        <time>2011-04-10T07:47:56Z</time>
      </trkpt>
      <trkpt lat="46.31263" lon="4.69849">
        <ele>455.6</ele>
        <time>2011-04-10T07:47:57Z</time>
      </trkpt>
      <trkpt lat="46.31261" lon="4.69848">
        <ele>455.8</ele>
        <time>2011-04-10T07:47:58Z</time>
      </trkpt>
      <trkpt lat="46.31256" lon="4.69847">
        <ele>456.2</ele>
        <time>2011-04-10T07:48:00Z</time>
      </trkpt>
      <trkpt lat="46.31252" lon="4.69846">
        <ele>456.6</ele>
        <time>2011-04-10T07:48:02Z</time>
      </trkpt>
      <trkpt lat="46.31249" lon="4.69845">
        <ele>456.8</ele>
        <time>2011-04-10T07:48:04Z</time>
      </trkpt>
      <trkpt lat="46.31247" lon="4.69844">
        <ele>457</ele>
        <time>2011-04-10T07:48:05Z</time>
      </trkpt>
      <trkpt lat="46.31243" lon="4.69842">
        <ele>457.4</ele>
        <time>2011-04-10T07:48:08Z</time>
      </trkpt>
      <trkpt lat="46.3124" lon="4.69842">
        <ele>458</ele>
        <time>2011-04-10T07:48:10Z</time>
      </trkpt>
      <trkpt lat="46.31237" lon="4.69841">
        <ele>458.4</ele>
        <time>2011-04-10T07:48:12Z</time>
      </trkpt>
      <trkpt lat="46.31236" lon="4.6984">
        <ele>458.6</ele>
        <time>2011-04-10T07:48:13Z</time>
      </trkpt>
      <trkpt lat="46.31234" lon="4.6984">
        <ele>458.6</ele>
        <time>2011-04-10T07:48:14Z</time>
      </trkpt>
      <trkpt lat="46.31231" lon="4.6984">
        <ele>459</ele>
        <time>2011-04-10T07:48:16Z</time>
      </trkpt>
      <trkpt lat="46.31229" lon="4.69841">
        <ele>459</ele>
        <time>2011-04-10T07:48:17Z</time>
      </trkpt>
      <trkpt lat="46.31228" lon="4.69841">
        <ele>459.4</ele>
        <time>2011-04-10T07:48:18Z</time>
      </trkpt>
      <trkpt lat="46.31225" lon="4.69842">
        <ele>459.8</ele>
        <time>2011-04-10T07:48:20Z</time>
      </trkpt>
      <trkpt lat="46.31222" lon="4.69841">
        <ele>460.4</ele>
        <time>2011-04-10T07:48:22Z</time>
      </trkpt>
      <trkpt lat="46.3122" lon="4.69841">
        <ele>460.6</ele>
        <time>2011-04-10T07:48:24Z</time>
      </trkpt>
      <trkpt lat="46.31217" lon="4.69843">
        <ele>461</ele>
        <time>2011-04-10T07:48:26Z</time>
      </trkpt>
      <trkpt lat="46.31212" lon="4.69844">
        <ele>461.4</ele>
        <time>2011-04-10T07:48:28Z</time>
      </trkpt>
      <trkpt lat="46.31205" lon="4.69844">
        <ele>462</ele>
        <time>2011-04-10T07:48:30Z</time>
      </trkpt>
      <trkpt lat="46.31197" lon="4.69844">
        <ele>462.4</ele>
        <time>2011-04-10T07:48:32Z</time>
      </trkpt>
      <trkpt lat="46.31194" lon="4.69844">
        <ele>462.6</ele>
        <time>2011-04-10T07:48:33Z</time>
      </trkpt>
      <trkpt lat="46.31191" lon="4.69844">
        <ele>462.8</ele>
        <time>2011-04-10T07:48:34Z</time>
      </trkpt>
      <trkpt lat="46.31186" lon="4.69843">
        <ele>463</ele>
        <time>2011-04-10T07:48:36Z</time>
      </trkpt>
      <trkpt lat="46.31179" lon="4.6984">
        <ele>463.6</ele>
        <time>2011-04-10T07:48:39Z</time>
      </trkpt>
      <trkpt lat="46.31175" lon="4.69838">
        <ele>464.2</ele>
        <time>2011-04-10T07:48:41Z</time>
      </trkpt>
      <trkpt lat="46.31173" lon="4.69837">
        <ele>464.4</ele>
        <time>2011-04-10T07:48:42Z</time>
      </trkpt>
      <trkpt lat="46.31171" lon="4.69838">
        <ele>464.6</ele>
        <time>2011-04-10T07:48:43Z</time>
      </trkpt>
      <trkpt lat="46.31166" lon="4.69838">
        <ele>465</ele>
        <time>2011-04-10T07:48:45Z</time>
      </trkpt>
      <trkpt lat="46.31163" lon="4.69838">
        <ele>465</ele>
        <time>2011-04-10T07:48:46Z</time>
      </trkpt>
      <trkpt lat="46.31161" lon="4.69838">
        <ele>465.2</ele>
        <time>2011-04-10T07:48:47Z</time>
      </trkpt>
      <trkpt lat="46.31159" lon="4.69838">
        <ele>465.6</ele>
        <time>2011-04-10T07:48:48Z</time>
      </trkpt>
      <trkpt lat="46.31157" lon="4.69837">
        <ele>465.8</ele>
        <time>2011-04-10T07:48:49Z</time>
      </trkpt>
      <trkpt lat="46.31151" lon="4.69835">
        <ele>466.6</ele>
        <time>2011-04-10T07:48:52Z</time>
      </trkpt>
      <trkpt lat="46.31149" lon="4.69835">
        <ele>466.8</ele>
        <time>2011-04-10T07:48:53Z</time>
      </trkpt>
      <trkpt lat="46.31147" lon="4.69836">
        <ele>467</ele>
        <time>2011-04-10T07:48:54Z</time>
      </trkpt>
      <trkpt lat="46.31144" lon="4.69836">
        <ele>467.2</ele>
        <time>2011-04-10T07:48:56Z</time>
      </trkpt>
      <trkpt lat="46.31143" lon="4.69837">
        <ele>467.4</ele>
        <time>2011-04-10T07:48:57Z</time>
      </trkpt>
      <trkpt lat="46.31136" lon="4.69841">
        <ele>468</ele>
        <time>2011-04-10T07:49:02Z</time>
      </trkpt>
      <trkpt lat="46.31123" lon="4.69848">
        <ele>468.2</ele>
        <time>2011-04-10T07:49:07Z</time>
      </trkpt>
      <trkpt lat="46.31104" lon="4.69847">
        <ele>468.4</ele>
        <time>2011-04-10T07:49:13Z</time>
      </trkpt>
      <trkpt lat="46.3109" lon="4.69845">
        <ele>468.6</ele>
        <time>2011-04-10T07:49:19Z</time>
      </trkpt>
      <trkpt lat="46.31088" lon="4.69845">
        <ele>468.8</ele>
        <time>2011-04-10T07:49:20Z</time>
      </trkpt>
      <trkpt lat="46.31086" lon="4.69845">
        <ele>469</ele>
        <time>2011-04-10T07:49:21Z</time>
      </trkpt>
      <trkpt lat="46.31081" lon="4.69844">
        <ele>469.4</ele>
        <time>2011-04-10T07:49:23Z</time>
      </trkpt>
      <trkpt lat="46.31076" lon="4.69842">
        <ele>469.6</ele>
        <time>2011-04-10T07:49:25Z</time>
      </trkpt>
      <trkpt lat="46.31074" lon="4.69841">
        <ele>469.8</ele>
        <time>2011-04-10T07:49:26Z</time>
      </trkpt>
      <trkpt lat="46.31072" lon="4.6984">
        <ele>469.8</ele>
        <time>2011-04-10T07:49:27Z</time>
      </trkpt>
      <trkpt lat="46.31072" lon="4.69838">
        <ele>470</ele>
        <time>2011-04-10T07:49:28Z</time>
      </trkpt>
      <trkpt lat="46.31069" lon="4.69836">
        <ele>470.2</ele>
        <time>2011-04-10T07:49:30Z</time>
      </trkpt>
      <trkpt lat="46.31065" lon="4.69834">
        <ele>470.8</ele>
        <time>2011-04-10T07:49:32Z</time>
      </trkpt>
      <trkpt lat="46.31063" lon="4.69834">
        <ele>471</ele>
        <time>2011-04-10T07:49:33Z</time>
      </trkpt>
      <trkpt lat="46.31061" lon="4.69834">
        <ele>471.2</ele>
        <time>2011-04-10T07:49:34Z</time>
      </trkpt>
      <trkpt lat="46.3106" lon="4.69834">
        <ele>471.4</ele>
        <time>2011-04-10T07:49:35Z</time>
      </trkpt>
      <trkpt lat="46.31055" lon="4.69828">
        <ele>471.8</ele>
        <time>2011-04-10T07:49:38Z</time>
      </trkpt>
      <trkpt lat="46.31053" lon="4.69825">
        <ele>472</ele>
        <time>2011-04-10T07:49:39Z</time>
      </trkpt>
      <trkpt lat="46.31049" lon="4.69823">
        <ele>472.6</ele>
        <time>2011-04-10T07:49:41Z</time>
      </trkpt>
      <trkpt lat="46.31046" lon="4.69822">
        <ele>473</ele>
        <time>2011-04-10T07:49:43Z</time>
      </trkpt>
      <trkpt lat="46.31042" lon="4.69821">
        <ele>473.4</ele>
        <time>2011-04-10T07:49:45Z</time>
      </trkpt>
      <trkpt lat="46.31033" lon="4.69819">
        <ele>473.6</ele>
        <time>2011-04-10T07:49:47Z</time>
      </trkpt>
      <trkpt lat="46.31029" lon="4.69818">
        <ele>474</ele>
        <time>2011-04-10T07:49:48Z</time>
      </trkpt>
      <trkpt lat="46.31023" lon="4.69817">
        <ele>474.6</ele>
        <time>2011-04-10T07:49:50Z</time>
      </trkpt>
      <trkpt lat="46.31017" lon="4.69815">
        <ele>475</ele>
        <time>2011-04-10T07:49:52Z</time>
      </trkpt>
      <trkpt lat="46.31012" lon="4.69813">
        <ele>475.4</ele>
        <time>2011-04-10T07:49:54Z</time>
      </trkpt>
      <trkpt lat="46.31007" lon="4.6981">
        <ele>475.8</ele>
        <time>2011-04-10T07:49:56Z</time>
      </trkpt>
      <trkpt lat="46.30993" lon="4.69803">
        <ele>476.6</ele>
        <time>2011-04-10T07:50:01Z</time>
      </trkpt>
      <trkpt lat="46.30989" lon="4.69799">
        <ele>477</ele>
        <time>2011-04-10T07:50:03Z</time>
      </trkpt>
      <trkpt lat="46.30984" lon="4.69792">
        <ele>477.4</ele>
        <time>2011-04-10T07:50:05Z</time>
      </trkpt>
      <trkpt lat="46.30979" lon="4.69787">
        <ele>477.8</ele>
        <time>2011-04-10T07:50:07Z</time>
      </trkpt>
      <trkpt lat="46.30974" lon="4.69786">
        <ele>478</ele>
        <time>2011-04-10T07:50:09Z</time>
      </trkpt>
      <trkpt lat="46.30962" lon="4.69781">
        <ele>478.4</ele>
        <time>2011-04-10T07:50:14Z</time>
      </trkpt>
      <trkpt lat="46.3095" lon="4.69777">
        <ele>478.6</ele>
        <time>2011-04-10T07:50:19Z</time>
      </trkpt>
      <trkpt lat="46.30948" lon="4.69775">
        <ele>478.8</ele>
        <time>2011-04-10T07:50:20Z</time>
      </trkpt>
      <trkpt lat="46.30945" lon="4.69773">
        <ele>478.8</ele>
        <time>2011-04-10T07:50:22Z</time>
      </trkpt>
      <trkpt lat="46.30939" lon="4.69771">
        <ele>479.4</ele>
        <time>2011-04-10T07:50:25Z</time>
      </trkpt>
      <trkpt lat="46.30935" lon="4.69765">
        <ele>479.8</ele>
        <time>2011-04-10T07:50:27Z</time>
      </trkpt>
      <trkpt lat="46.3093" lon="4.69761">
        <ele>480</ele>
        <time>2011-04-10T07:50:29Z</time>
      </trkpt>
      <trkpt lat="46.30926" lon="4.69756">
        <ele>480.2</ele>
        <time>2011-04-10T07:50:31Z</time>
      </trkpt>
      <trkpt lat="46.3092" lon="4.69745">
        <ele>480.8</ele>
        <time>2011-04-10T07:50:34Z</time>
      </trkpt>
      <trkpt lat="46.30916" lon="4.69742">
        <ele>481.2</ele>
        <time>2011-04-10T07:50:36Z</time>
      </trkpt>
      <trkpt lat="46.30912" lon="4.69738">
        <ele>481.6</ele>
        <time>2011-04-10T07:50:38Z</time>
      </trkpt>
      <trkpt lat="46.30909" lon="4.69733">
        <ele>482</ele>
        <time>2011-04-10T07:50:40Z</time>
      </trkpt>
      <trkpt lat="46.30907" lon="4.69728">
        <ele>482.2</ele>
        <time>2011-04-10T07:50:42Z</time>
      </trkpt>
      <trkpt lat="46.30907" lon="4.69725">
        <ele>482.6</ele>
        <time>2011-04-10T07:50:43Z</time>
      </trkpt>
      <trkpt lat="46.30905" lon="4.69719">
        <ele>483.2</ele>
        <time>2011-04-10T07:50:45Z</time>
      </trkpt>
      <trkpt lat="46.30902" lon="4.69715">
        <ele>483.6</ele>
        <time>2011-04-10T07:50:47Z</time>
      </trkpt>
      <trkpt lat="46.309" lon="4.69711">
        <ele>484</ele>
        <time>2011-04-10T07:50:49Z</time>
      </trkpt>
      <trkpt lat="46.30899" lon="4.69709">
        <ele>484.4</ele>
        <time>2011-04-10T07:50:51Z</time>
      </trkpt>
      <trkpt lat="46.30897" lon="4.69707">
        <ele>484.6</ele>
        <time>2011-04-10T07:50:54Z</time>
      </trkpt>
      <trkpt lat="46.3089" lon="4.69703">
        <ele>485</ele>
        <time>2011-04-10T07:50:59Z</time>
      </trkpt>
      <trkpt lat="46.30875" lon="4.69698">
        <ele>485.4</ele>
        <time>2011-04-10T07:51:07Z</time>
      </trkpt>
      <trkpt lat="46.30854" lon="4.6969">
        <ele>485.6</ele>
        <time>2011-04-10T07:51:17Z</time>
      </trkpt>
      <trkpt lat="46.30831" lon="4.69685">
        <ele>485.6</ele>
        <time>2011-04-10T07:51:25Z</time>
      </trkpt>
      <trkpt lat="46.30809" lon="4.69677">
        <ele>485.6</ele>
        <time>2011-04-10T07:51:32Z</time>
      </trkpt>
      <trkpt lat="46.30802" lon="4.69673">
        <ele>485.6</ele>
        <time>2011-04-10T07:51:34Z</time>
      </trkpt>
      <trkpt lat="46.30764" lon="4.69649">
        <ele>485.6</ele>
        <time>2011-04-10T07:51:41Z</time>
      </trkpt>
      <trkpt lat="46.30731" lon="4.69626">
        <ele>485.6</ele>
        <time>2011-04-10T07:51:47Z</time>
      </trkpt>
      <trkpt lat="46.30695" lon="4.69596">
        <ele>485.6</ele>
        <time>2011-04-10T07:51:54Z</time>
      </trkpt>
      <trkpt lat="46.3068" lon="4.69586">
        <ele>485.6</ele>
        <time>2011-04-10T07:51:57Z</time>
      </trkpt>
      <trkpt lat="46.3066" lon="4.69579">
        <ele>485.6</ele>
        <time>2011-04-10T07:52:01Z</time>
      </trkpt>
      <trkpt lat="46.3065" lon="4.69576">
        <ele>485.6</ele>
        <time>2011-04-10T07:52:03Z</time>
      </trkpt>
      <trkpt lat="46.30615" lon="4.69566">
        <ele>485.6</ele>
        <time>2011-04-10T07:52:10Z</time>
      </trkpt>
      <trkpt lat="46.30598" lon="4.69561">
        <ele>485.6</ele>
        <time>2011-04-10T07:52:13Z</time>
      </trkpt>
      <trkpt lat="46.30564" lon="4.69549">
        <ele>485.8</ele>
        <time>2011-04-10T07:52:19Z</time>
      </trkpt>
      <trkpt lat="46.3056" lon="4.69548">
        <ele>486</ele>
        <time>2011-04-10T07:52:20Z</time>
      </trkpt>
      <trkpt lat="46.30556" lon="4.69547">
        <ele>486.2</ele>
        <time>2011-04-10T07:52:21Z</time>
      </trkpt>
      <trkpt lat="46.3055" lon="4.69544">
        <ele>486.4</ele>
        <time>2011-04-10T07:52:23Z</time>
      </trkpt>
      <trkpt lat="46.30543" lon="4.69543">
        <ele>487</ele>
        <time>2011-04-10T07:52:25Z</time>
      </trkpt>
      <trkpt lat="46.30537" lon="4.69542">
        <ele>487.4</ele>
        <time>2011-04-10T07:52:27Z</time>
      </trkpt>
      <trkpt lat="46.30531" lon="4.69542">
        <ele>488</ele>
        <time>2011-04-10T07:52:29Z</time>
      </trkpt>
      <trkpt lat="46.30526" lon="4.69541">
        <ele>488.6</ele>
        <time>2011-04-10T07:52:31Z</time>
      </trkpt>
      <trkpt lat="46.30524" lon="4.69541">
        <ele>488.8</ele>
        <time>2011-04-10T07:52:32Z</time>
      </trkpt>
      <trkpt lat="46.30515" lon="4.69536">
        <ele>489.6</ele>
        <time>2011-04-10T07:52:35Z</time>
      </trkpt>
      <trkpt lat="46.30509" lon="4.69533">
        <ele>490.4</ele>
        <time>2011-04-10T07:52:37Z</time>
      </trkpt>
      <trkpt lat="46.30506" lon="4.69532">
        <ele>490.8</ele>
        <time>2011-04-10T07:52:38Z</time>
      </trkpt>
      <trkpt lat="46.30504" lon="4.6953">
        <ele>491</ele>
        <time>2011-04-10T07:52:39Z</time>
      </trkpt>
      <trkpt lat="46.30498" lon="4.69527">
        <ele>491.6</ele>
        <time>2011-04-10T07:52:41Z</time>
      </trkpt>
      <trkpt lat="46.30492" lon="4.69525">
        <ele>492.4</ele>
        <time>2011-04-10T07:52:43Z</time>
      </trkpt>
      <trkpt lat="46.30487" lon="4.69523">
        <ele>493.2</ele>
        <time>2011-04-10T07:52:45Z</time>
      </trkpt>
      <trkpt lat="46.30481" lon="4.69519">
        <ele>493.8</ele>
        <time>2011-04-10T07:52:47Z</time>
      </trkpt>
      <trkpt lat="46.30478" lon="4.69517">
        <ele>494.2</ele>
        <time>2011-04-10T07:52:48Z</time>
      </trkpt>
      <trkpt lat="46.30472" lon="4.69512">
        <ele>495.2</ele>
        <time>2011-04-10T07:52:50Z</time>
      </trkpt>
      <trkpt lat="46.30467" lon="4.69507">
        <ele>495.8</ele>
        <time>2011-04-10T07:52:52Z</time>
      </trkpt>
      <trkpt lat="46.30462" lon="4.69501">
        <ele>496.4</ele>
        <time>2011-04-10T07:52:54Z</time>
      </trkpt>
      <trkpt lat="46.30458" lon="4.69496">
        <ele>497</ele>
        <time>2011-04-10T07:52:56Z</time>
      </trkpt>
      <trkpt lat="46.30453" lon="4.69491">
        <ele>497.8</ele>
        <time>2011-04-10T07:52:58Z</time>
      </trkpt>
      <trkpt lat="46.30448" lon="4.69486">
        <ele>498.4</ele>
        <time>2011-04-10T07:53:00Z</time>
      </trkpt>
      <trkpt lat="46.30443" lon="4.69481">
        <ele>498.8</ele>
        <time>2011-04-10T07:53:02Z</time>
      </trkpt>
      <trkpt lat="46.30438" lon="4.69475">
        <ele>499.2</ele>
        <time>2011-04-10T07:53:04Z</time>
      </trkpt>
      <trkpt lat="46.30424" lon="4.69466">
        <ele>499.8</ele>
        <time>2011-04-10T07:53:09Z</time>
      </trkpt>
      <trkpt lat="46.30419" lon="4.69463">
        <ele>500.2</ele>
        <time>2011-04-10T07:53:11Z</time>
      </trkpt>
      <trkpt lat="46.30413" lon="4.69459">
        <ele>500.8</ele>
        <time>2011-04-10T07:53:13Z</time>
      </trkpt>
      <trkpt lat="46.30406" lon="4.69454">
        <ele>501.2</ele>
        <time>2011-04-10T07:53:15Z</time>
      </trkpt>
      <trkpt lat="46.30401" lon="4.6945">
        <ele>501.6</ele>
        <time>2011-04-10T07:53:17Z</time>
      </trkpt>
      <trkpt lat="46.30396" lon="4.69446">
        <ele>501.8</ele>
        <time>2011-04-10T07:53:19Z</time>
      </trkpt>
      <trkpt lat="46.30394" lon="4.69444">
        <ele>502</ele>
        <time>2011-04-10T07:53:20Z</time>
      </trkpt>
      <trkpt lat="46.30382" lon="4.69435">
        <ele>502.4</ele>
        <time>2011-04-10T07:53:25Z</time>
      </trkpt>
      <trkpt lat="46.30379" lon="4.69434">
        <ele>502.4</ele>
        <time>2011-04-10T07:53:26Z</time>
      </trkpt>
      <trkpt lat="46.30367" lon="4.69427">
        <ele>502.8</ele>
        <time>2011-04-10T07:53:29Z</time>
      </trkpt>
      <trkpt lat="46.30361" lon="4.69423">
        <ele>503.2</ele>
        <time>2011-04-10T07:53:31Z</time>
      </trkpt>
      <trkpt lat="46.30353" lon="4.69419">
        <ele>503.6</ele>
        <time>2011-04-10T07:53:33Z</time>
      </trkpt>
      <trkpt lat="46.30346" lon="4.69416">
        <ele>503.8</ele>
        <time>2011-04-10T07:53:35Z</time>
      </trkpt>
      <trkpt lat="46.30339" lon="4.69412">
        <ele>504.4</ele>
        <time>2011-04-10T07:53:37Z</time>
      </trkpt>
      <trkpt lat="46.30333" lon="4.69409">
        <ele>504.8</ele>
        <time>2011-04-10T07:53:39Z</time>
      </trkpt>
      <trkpt lat="46.30327" lon="4.69404">
        <ele>505.2</ele>
        <time>2011-04-10T07:53:41Z</time>
      </trkpt>
      <trkpt lat="46.30319" lon="4.694">
        <ele>505.6</ele>
        <time>2011-04-10T07:53:43Z</time>
      </trkpt>
      <trkpt lat="46.30316" lon="4.69399">
        <ele>506</ele>
        <time>2011-04-10T07:53:44Z</time>
      </trkpt>
      <trkpt lat="46.3031" lon="4.69396">
        <ele>506.6</ele>
        <time>2011-04-10T07:53:46Z</time>
      </trkpt>
      <trkpt lat="46.30303" lon="4.69394">
        <ele>507.2</ele>
        <time>2011-04-10T07:53:48Z</time>
      </trkpt>
      <trkpt lat="46.30296" lon="4.6939">
        <ele>507.6</ele>
        <time>2011-04-10T07:53:50Z</time>
      </trkpt>
      <trkpt lat="46.3029" lon="4.69385">
        <ele>508</ele>
        <time>2011-04-10T07:53:52Z</time>
      </trkpt>
      <trkpt lat="46.30283" lon="4.69375">
        <ele>508.4</ele>
        <time>2011-04-10T07:53:56Z</time>
      </trkpt>
      <trkpt lat="46.30281" lon="4.69373">
        <ele>508.8</ele>
        <time>2011-04-10T07:53:57Z</time>
      </trkpt>
      <trkpt lat="46.30277" lon="4.69371">
        <ele>509.2</ele>
        <time>2011-04-10T07:53:59Z</time>
      </trkpt>
      <trkpt lat="46.3027" lon="4.6937">
        <ele>509.6</ele>
        <time>2011-04-10T07:54:01Z</time>
      </trkpt>
      <trkpt lat="46.30262" lon="4.69365">
        <ele>510</ele>
        <time>2011-04-10T07:54:03Z</time>
      </trkpt>
      <trkpt lat="46.30256" lon="4.69362">
        <ele>510.2</ele>
        <time>2011-04-10T07:54:04Z</time>
      </trkpt>
      <trkpt lat="46.30252" lon="4.69359">
        <ele>510</ele>
        <time>2011-04-10T07:54:05Z</time>
      </trkpt>
      <trkpt lat="46.30243" lon="4.69352">
        <ele>510</ele>
        <time>2011-04-10T07:54:07Z</time>
      </trkpt>
      <trkpt lat="46.30238" lon="4.69347">
        <ele>509.8</ele>
        <time>2011-04-10T07:54:09Z</time>
      </trkpt>
      <trkpt lat="46.30235" lon="4.69346">
        <ele>509.8</ele>
        <time>2011-04-10T07:54:10Z</time>
      </trkpt>
      <trkpt lat="46.30227" lon="4.69347">
        <ele>509.6</ele>
        <time>2011-04-10T07:54:13Z</time>
      </trkpt>
      <trkpt lat="46.30224" lon="4.69348">
        <ele>509.6</ele>
        <time>2011-04-10T07:54:14Z</time>
      </trkpt>
      <trkpt lat="46.30216" lon="4.69351">
        <ele>509.6</ele>
        <time>2011-04-10T07:54:17Z</time>
      </trkpt>
      <trkpt lat="46.302" lon="4.69348">
        <ele>509.4</ele>
        <time>2011-04-10T07:54:21Z</time>
      </trkpt>
      <trkpt lat="46.30195" lon="4.69349">
        <ele>509.4</ele>
        <time>2011-04-10T07:54:22Z</time>
      </trkpt>
      <trkpt lat="46.30187" lon="4.69352">
        <ele>509.2</ele>
        <time>2011-04-10T07:54:24Z</time>
      </trkpt>
      <trkpt lat="46.3018" lon="4.69355">
        <ele>508.8</ele>
        <time>2011-04-10T07:54:26Z</time>
      </trkpt>
      <trkpt lat="46.30177" lon="4.69356">
        <ele>508.8</ele>
        <time>2011-04-10T07:54:27Z</time>
      </trkpt>
      <trkpt lat="46.30167" lon="4.69353">
        <ele>508.4</ele>
        <time>2011-04-10T07:54:30Z</time>
      </trkpt>
      <trkpt lat="46.30164" lon="4.6935">
        <ele>508</ele>
        <time>2011-04-10T07:54:31Z</time>
      </trkpt>
      <trkpt lat="46.30161" lon="4.69349">
        <ele>507.6</ele>
        <time>2011-04-10T07:54:32Z</time>
      </trkpt>
      <trkpt lat="46.30158" lon="4.69346">
        <ele>507.4</ele>
        <time>2011-04-10T07:54:34Z</time>
      </trkpt>
      <trkpt lat="46.30154" lon="4.69344">
        <ele>507</ele>
        <time>2011-04-10T07:54:35Z</time>
      </trkpt>
      <trkpt lat="46.30149" lon="4.6934">
        <ele>506.6</ele>
        <time>2011-04-10T07:54:37Z</time>
      </trkpt>
      <trkpt lat="46.30142" lon="4.69337">
        <ele>506.2</ele>
        <time>2011-04-10T07:54:39Z</time>
      </trkpt>
      <trkpt lat="46.3014" lon="4.69337">
        <ele>506.2</ele>
        <time>2011-04-10T07:54:40Z</time>
      </trkpt>
      <trkpt lat="46.30131" lon="4.69337">
        <ele>505.2</ele>
        <time>2011-04-10T07:54:43Z</time>
      </trkpt>
      <trkpt lat="46.30124" lon="4.69333">
        <ele>504.8</ele>
        <time>2011-04-10T07:54:45Z</time>
      </trkpt>
      <trkpt lat="46.30119" lon="4.69324">
        <ele>504.4</ele>
        <time>2011-04-10T07:54:47Z</time>
      </trkpt>
      <trkpt lat="46.30116" lon="4.69315">
        <ele>504.2</ele>
        <time>2011-04-10T07:54:49Z</time>
      </trkpt>
      <trkpt lat="46.30119" lon="4.69304">
        <ele>503.6</ele>
        <time>2011-04-10T07:54:53Z</time>
      </trkpt>
      <trkpt lat="46.30117" lon="4.69297">
        <ele>503</ele>
        <time>2011-04-10T07:54:55Z</time>
      </trkpt>
      <trkpt lat="46.30111" lon="4.69296">
        <ele>502.6</ele>
        <time>2011-04-10T07:54:57Z</time>
      </trkpt>
      <trkpt lat="46.30108" lon="4.69296">
        <ele>502.4</ele>
        <time>2011-04-10T07:54:58Z</time>
      </trkpt>
      <trkpt lat="46.30106" lon="4.69297">
        <ele>502.4</ele>
        <time>2011-04-10T07:54:59Z</time>
      </trkpt>
      <trkpt lat="46.30103" lon="4.69298">
        <ele>502</ele>
        <time>2011-04-10T07:55:01Z</time>
      </trkpt>
      <trkpt lat="46.30092" lon="4.69301">
        <ele>501.6</ele>
        <time>2011-04-10T07:55:05Z</time>
      </trkpt>
      <trkpt lat="46.30086" lon="4.693">
        <ele>501.6</ele>
        <time>2011-04-10T07:55:08Z</time>
      </trkpt>
      <trkpt lat="46.30083" lon="4.69294">
        <ele>502</ele>
        <time>2011-04-10T07:55:10Z</time>
      </trkpt>
      <trkpt lat="46.30078" lon="4.69287">
        <ele>502.2</ele>
        <time>2011-04-10T07:55:12Z</time>
      </trkpt>
      <trkpt lat="46.30075" lon="4.69285">
        <ele>502.2</ele>
        <time>2011-04-10T07:55:13Z</time>
      </trkpt>
      <trkpt lat="46.30071" lon="4.69282">
        <ele>502.2</ele>
        <time>2011-04-10T07:55:14Z</time>
      </trkpt>
      <trkpt lat="46.30063" lon="4.69278">
        <ele>502.4</ele>
        <time>2011-04-10T07:55:16Z</time>
      </trkpt>
      <trkpt lat="46.30055" lon="4.69273">
        <ele>502.6</ele>
        <time>2011-04-10T07:55:18Z</time>
      </trkpt>
      <trkpt lat="46.3005" lon="4.69271">
        <ele>502.4</ele>
        <time>2011-04-10T07:55:20Z</time>
      </trkpt>
      <trkpt lat="46.30044" lon="4.69271">
        <ele>502</ele>
        <time>2011-04-10T07:55:22Z</time>
      </trkpt>
      <trkpt lat="46.30037" lon="4.69272">
        <ele>501.8</ele>
        <time>2011-04-10T07:55:24Z</time>
      </trkpt>
      <trkpt lat="46.30033" lon="4.69274">
        <ele>501.6</ele>
        <time>2011-04-10T07:55:25Z</time>
      </trkpt>
      <trkpt lat="46.30028" lon="4.69275">
        <ele>501.4</ele>
        <time>2011-04-10T07:55:26Z</time>
      </trkpt>
      <trkpt lat="46.30023" lon="4.69276">
        <ele>501</ele>
        <time>2011-04-10T07:55:27Z</time>
      </trkpt>
      <trkpt lat="46.30007" lon="4.69276">
        <ele>500.4</ele>
        <time>2011-04-10T07:55:30Z</time>
      </trkpt>
      <trkpt lat="46.30004" lon="4.69273">
        <ele>500</ele>
        <time>2011-04-10T07:55:31Z</time>
      </trkpt>
      <trkpt lat="46.3" lon="4.69272">
        <ele>499.6</ele>
        <time>2011-04-10T07:55:32Z</time>
      </trkpt>
      <trkpt lat="46.29995" lon="4.69272">
        <ele>499.4</ele>
        <time>2011-04-10T07:55:33Z</time>
      </trkpt>
      <trkpt lat="46.29982" lon="4.69271">
        <ele>498.6</ele>
        <time>2011-04-10T07:55:35Z</time>
      </trkpt>
      <trkpt lat="46.29968" lon="4.69272">
        <ele>497.8</ele>
        <time>2011-04-10T07:55:37Z</time>
      </trkpt>
      <trkpt lat="46.29956" lon="4.69271">
        <ele>497</ele>
        <time>2011-04-10T07:55:39Z</time>
      </trkpt>
      <trkpt lat="46.29951" lon="4.69271">
        <ele>496.8</ele>
        <time>2011-04-10T07:55:40Z</time>
      </trkpt>
      <trkpt lat="46.29937" lon="4.69271">
        <ele>496</ele>
        <time>2011-04-10T07:55:43Z</time>
      </trkpt>
      <trkpt lat="46.29933" lon="4.69271">
        <ele>495.6</ele>
        <time>2011-04-10T07:55:44Z</time>
      </trkpt>
      <trkpt lat="46.29926" lon="4.69269">
        <ele>495</ele>
        <time>2011-04-10T07:55:46Z</time>
      </trkpt>
      <trkpt lat="46.29919" lon="4.69269">
        <ele>494.4</ele>
        <time>2011-04-10T07:55:48Z</time>
      </trkpt>
      <trkpt lat="46.29913" lon="4.69269">
        <ele>494</ele>
        <time>2011-04-10T07:55:50Z</time>
      </trkpt>
      <trkpt lat="46.29907" lon="4.69267">
        <ele>493.6</ele>
        <time>2011-04-10T07:55:52Z</time>
      </trkpt>
      <trkpt lat="46.29887" lon="4.69266">
        <ele>493</ele>
        <time>2011-04-10T07:55:57Z</time>
      </trkpt>
      <trkpt lat="46.29883" lon="4.69265">
        <ele>493</ele>
        <time>2011-04-10T07:55:58Z</time>
      </trkpt>
      <trkpt lat="46.29863" lon="4.69265">
        <ele>492.6</ele>
        <time>2011-04-10T07:56:03Z</time>
      </trkpt>
      <trkpt lat="46.29843" lon="4.6927">
        <ele>492.4</ele>
        <time>2011-04-10T07:56:07Z</time>
      </trkpt>
      <trkpt lat="46.29821" lon="4.69277">
        <ele>492.2</ele>
        <time>2011-04-10T07:56:11Z</time>
      </trkpt>
      <trkpt lat="46.29805" lon="4.69279">
        <ele>492</ele>
        <time>2011-04-10T07:56:14Z</time>
      </trkpt>
      <trkpt lat="46.29795" lon="4.69278">
        <ele>491.6</ele>
        <time>2011-04-10T07:56:16Z</time>
      </trkpt>
      <trkpt lat="46.29786" lon="4.69278">
        <ele>491.2</ele>
        <time>2011-04-10T07:56:18Z</time>
      </trkpt>
      <trkpt lat="46.29781" lon="4.69279">
        <ele>491.2</ele>
        <time>2011-04-10T07:56:19Z</time>
      </trkpt>
      <trkpt lat="46.29769" lon="4.69281">
        <ele>490.8</ele>
        <time>2011-04-10T07:56:21Z</time>
      </trkpt>
      <trkpt lat="46.2975" lon="4.6928">
        <ele>490.6</ele>
        <time>2011-04-10T07:56:24Z</time>
      </trkpt>
      <trkpt lat="46.29721" lon="4.69285">
        <ele>490.2</ele>
        <time>2011-04-10T07:56:29Z</time>
      </trkpt>
      <trkpt lat="46.29711" lon="4.6929">
        <ele>489.6</ele>
        <time>2011-04-10T07:56:31Z</time>
      </trkpt>
      <trkpt lat="46.29701" lon="4.69293">
        <ele>489.2</ele>
        <time>2011-04-10T07:56:33Z</time>
      </trkpt>
      <trkpt lat="46.29691" lon="4.69296">
        <ele>489</ele>
        <time>2011-04-10T07:56:35Z</time>
      </trkpt>
      <trkpt lat="46.29686" lon="4.69299">
        <ele>488.8</ele>
        <time>2011-04-10T07:56:36Z</time>
      </trkpt>
      <trkpt lat="46.29681" lon="4.69302">
        <ele>488.8</ele>
        <time>2011-04-10T07:56:37Z</time>
      </trkpt>
      <trkpt lat="46.29675" lon="4.69304">
        <ele>488.4</ele>
        <time>2011-04-10T07:56:38Z</time>
      </trkpt>
      <trkpt lat="46.29668" lon="4.69307">
        <ele>488.2</ele>
        <time>2011-04-10T07:56:39Z</time>
      </trkpt>
      <trkpt lat="46.29661" lon="4.69309">
        <ele>488</ele>
        <time>2011-04-10T07:56:40Z</time>
      </trkpt>
      <trkpt lat="46.29654" lon="4.69311">
        <ele>487.6</ele>
        <time>2011-04-10T07:56:41Z</time>
      </trkpt>
      <trkpt lat="46.29637" lon="4.69312">
        <ele>486.6</ele>
        <time>2011-04-10T07:56:44Z</time>
      </trkpt>
      <trkpt lat="46.29626" lon="4.69313">
        <ele>485.8</ele>
        <time>2011-04-10T07:56:46Z</time>
      </trkpt>
      <trkpt lat="46.29616" lon="4.69318">
        <ele>484.8</ele>
        <time>2011-04-10T07:56:48Z</time>
      </trkpt>
      <trkpt lat="46.29611" lon="4.69319">
        <ele>484.2</ele>
        <time>2011-04-10T07:56:49Z</time>
      </trkpt>
      <trkpt lat="46.29602" lon="4.69321">
        <ele>483.2</ele>
        <time>2011-04-10T07:56:51Z</time>
      </trkpt>
      <trkpt lat="46.29597" lon="4.69323">
        <ele>482.6</ele>
        <time>2011-04-10T07:56:52Z</time>
      </trkpt>
      <trkpt lat="46.29593" lon="4.69324">
        <ele>482.2</ele>
        <time>2011-04-10T07:56:53Z</time>
      </trkpt>
      <trkpt lat="46.29589" lon="4.69326">
        <ele>481.6</ele>
        <time>2011-04-10T07:56:54Z</time>
      </trkpt>
      <trkpt lat="46.29583" lon="4.69329">
        <ele>480.6</ele>
        <time>2011-04-10T07:56:56Z</time>
      </trkpt>
      <trkpt lat="46.29579" lon="4.6933">
        <ele>480.2</ele>
        <time>2011-04-10T07:56:57Z</time>
      </trkpt>
      <trkpt lat="46.2957" lon="4.69337">
        <ele>479.2</ele>
        <time>2011-04-10T07:56:59Z</time>
      </trkpt>
      <trkpt lat="46.29564" lon="4.69342">
        <ele>478.8</ele>
        <time>2011-04-10T07:57:00Z</time>
      </trkpt>
      <trkpt lat="46.2955" lon="4.69351">
        <ele>477.6</ele>
        <time>2011-04-10T07:57:03Z</time>
      </trkpt>
      <trkpt lat="46.29546" lon="4.69352">
        <ele>477</ele>
        <time>2011-04-10T07:57:04Z</time>
      </trkpt>
      <trkpt lat="46.29538" lon="4.69355">
        <ele>476</ele>
        <time>2011-04-10T07:57:06Z</time>
      </trkpt>
      <trkpt lat="46.29533" lon="4.69357">
        <ele>475.4</ele>
        <time>2011-04-10T07:57:07Z</time>
      </trkpt>
      <trkpt lat="46.29529" lon="4.69359">
        <ele>474.8</ele>
        <time>2011-04-10T07:57:08Z</time>
      </trkpt>
      <trkpt lat="46.29514" lon="4.69368">
        <ele>473.4</ele>
        <time>2011-04-10T07:57:11Z</time>
      </trkpt>
      <trkpt lat="46.29509" lon="4.69372">
        <ele>472.8</ele>
        <time>2011-04-10T07:57:12Z</time>
      </trkpt>
      <trkpt lat="46.29504" lon="4.69376">
        <ele>472.2</ele>
        <time>2011-04-10T07:57:13Z</time>
      </trkpt>
      <trkpt lat="46.2949" lon="4.69383">
        <ele>471</ele>
        <time>2011-04-10T07:57:16Z</time>
      </trkpt>
      <trkpt lat="46.29485" lon="4.69385">
        <ele>470</ele>
        <time>2011-04-10T07:57:18Z</time>
      </trkpt>
      <trkpt lat="46.29485" lon="4.69387">
        <ele>469.2</ele>
        <time>2011-04-10T07:57:20Z</time>
      </trkpt>
      <trkpt lat="46.29484" lon="4.69387">
        <ele>468.4</ele>
        <time>2011-04-10T07:57:22Z</time>
      </trkpt>
      <trkpt lat="46.29484" lon="4.69386">
        <ele>467.8</ele>
        <time>2011-04-10T07:57:24Z</time>
      </trkpt>
      <trkpt lat="46.29484" lon="4.69386">
        <ele>467.4</ele>
        <time>2011-04-10T07:57:26Z</time>
      </trkpt>
      <trkpt lat="46.29485" lon="4.69386">
        <ele>466.4</ele>
        <time>2011-04-10T07:57:32Z</time>
      </trkpt>
      <trkpt lat="46.29485" lon="4.69387">
        <ele>465.4</ele>
        <time>2011-04-10T07:57:56Z</time>
      </trkpt>
      <trkpt lat="46.29485" lon="4.69387">
        <ele>465.4</ele>
        <time>2011-04-10T07:58:00Z</time>
      </trkpt>
      <trkpt lat="46.29485" lon="4.69388">
        <ele>465.4</ele>
        <time>2011-04-10T07:58:15Z</time>
      </trkpt>
      <trkpt lat="46.29486" lon="4.69387">
        <ele>465.4</ele>
        <time>2011-04-10T07:58:28Z</time>
      </trkpt>
      <trkpt lat="46.29486" lon="4.69387">
        <ele>465.4</ele>
        <time>2011-04-10T07:58:44Z</time>
      </trkpt>
      <trkpt lat="46.29486" lon="4.69388">
        <ele>465.4</ele>
        <time>2011-04-10T07:59:00Z</time>
      </trkpt>
      <trkpt lat="46.29486" lon="4.69388">
        <ele>465.4</ele>
        <time>2011-04-10T07:59:12Z</time>
      </trkpt>
      <trkpt lat="46.29486" lon="4.69388">
        <ele>465.4</ele>
        <time>2011-04-10T07:59:28Z</time>
      </trkpt>
      <trkpt lat="46.29486" lon="4.69387">
        <ele>465.4</ele>
        <time>2011-04-10T08:00:26Z</time>
      </trkpt>
      <trkpt lat="46.29485" lon="4.69387">
        <ele>465.4</ele>
        <time>2011-04-10T08:00:33Z</time>
      </trkpt>
      <trkpt lat="46.29485" lon="4.69387">
        <ele>465.4</ele>
        <time>2011-04-10T08:00:34Z</time>
      </trkpt>
      <trkpt lat="46.29485" lon="4.69387">
        <ele>465.4</ele>
        <time>2011-04-10T08:00:55Z</time>
      </trkpt>
      <trkpt lat="46.29477" lon="4.69386">
        <ele>465.4</ele>
        <time>2011-04-10T08:00:59Z</time>
      </trkpt>
      <trkpt lat="46.29454" lon="4.69387">
        <ele>465.4</ele>
        <time>2011-04-10T08:01:04Z</time>
      </trkpt>
      <trkpt lat="46.29449" lon="4.69387">
        <ele>465.4</ele>
        <time>2011-04-10T08:01:05Z</time>
      </trkpt>
      <trkpt lat="46.29439" lon="4.69389">
        <ele>465.2</ele>
        <time>2011-04-10T08:01:07Z</time>
      </trkpt>
      <trkpt lat="46.29429" lon="4.69392">
        <ele>464.8</ele>
        <time>2011-04-10T08:01:09Z</time>
      </trkpt>
      <trkpt lat="46.29423" lon="4.69393">
        <ele>464.6</ele>
        <time>2011-04-10T08:01:10Z</time>
      </trkpt>
      <trkpt lat="46.29418" lon="4.69393">
        <ele>464.4</ele>
        <time>2011-04-10T08:01:11Z</time>
      </trkpt>
      <trkpt lat="46.29408" lon="4.69394">
        <ele>464.2</ele>
        <time>2011-04-10T08:01:13Z</time>
      </trkpt>
      <trkpt lat="46.294" lon="4.69396">
        <ele>464</ele>
        <time>2011-04-10T08:01:15Z</time>
      </trkpt>
      <trkpt lat="46.29396" lon="4.69397">
        <ele>464</ele>
        <time>2011-04-10T08:01:16Z</time>
      </trkpt>
      <trkpt lat="46.29387" lon="4.694">
        <ele>463.8</ele>
        <time>2011-04-10T08:01:18Z</time>
      </trkpt>
      <trkpt lat="46.29374" lon="4.69405">
        <ele>463.8</ele>
        <time>2011-04-10T08:01:21Z</time>
      </trkpt>
      <trkpt lat="46.29359" lon="4.69411">
        <ele>463.6</ele>
        <time>2011-04-10T08:01:24Z</time>
      </trkpt>
      <trkpt lat="46.29321" lon="4.69439">
        <ele>463.4</ele>
        <time>2011-04-10T08:01:31Z</time>
      </trkpt>
      <trkpt lat="46.29316" lon="4.69443">
        <ele>463.4</ele>
        <time>2011-04-10T08:01:32Z</time>
      </trkpt>
      <trkpt lat="46.29306" lon="4.69449">
        <ele>463.2</ele>
        <time>2011-04-10T08:01:34Z</time>
      </trkpt>
      <trkpt lat="46.29296" lon="4.69453">
        <ele>462.8</ele>
        <time>2011-04-10T08:01:36Z</time>
      </trkpt>
      <trkpt lat="46.29287" lon="4.69455">
        <ele>462.4</ele>
        <time>2011-04-10T08:01:38Z</time>
      </trkpt>
      <trkpt lat="46.29283" lon="4.69456">
        <ele>462.4</ele>
        <time>2011-04-10T08:01:39Z</time>
      </trkpt>
      <trkpt lat="46.29278" lon="4.69458">
        <ele>462.2</ele>
        <time>2011-04-10T08:01:40Z</time>
      </trkpt>
      <trkpt lat="46.29271" lon="4.69463">
        <ele>462</ele>
        <time>2011-04-10T08:01:42Z</time>
      </trkpt>
      <trkpt lat="46.29259" lon="4.69473">
        <ele>461.8</ele>
        <time>2011-04-10T08:01:46Z</time>
      </trkpt>
      <trkpt lat="46.29256" lon="4.69475">
        <ele>461.6</ele>
        <time>2011-04-10T08:01:47Z</time>
      </trkpt>
      <trkpt lat="46.29246" lon="4.6948">
        <ele>461</ele>
        <time>2011-04-10T08:01:50Z</time>
      </trkpt>
      <trkpt lat="46.29239" lon="4.69482">
        <ele>460.6</ele>
        <time>2011-04-10T08:01:52Z</time>
      </trkpt>
      <trkpt lat="46.29232" lon="4.69481">
        <ele>460.2</ele>
        <time>2011-04-10T08:01:54Z</time>
      </trkpt>
      <trkpt lat="46.29225" lon="4.6948">
        <ele>460</ele>
        <time>2011-04-10T08:01:56Z</time>
      </trkpt>
      <trkpt lat="46.2922" lon="4.6948">
        <ele>459.6</ele>
        <time>2011-04-10T08:02:00Z</time>
      </trkpt>
      <trkpt lat="46.29221" lon="4.69478">
        <ele>459.2</ele>
        <time>2011-04-10T08:02:04Z</time>
      </trkpt>
      <trkpt lat="46.29221" lon="4.69478">
        <ele>458.8</ele>
        <time>2011-04-10T08:02:06Z</time>
      </trkpt>
      <trkpt lat="46.29221" lon="4.69478">
        <ele>458.4</ele>
        <time>2011-04-10T08:02:08Z</time>
      </trkpt>
      <trkpt lat="46.29221" lon="4.69478">
        <ele>458.2</ele>
        <time>2011-04-10T08:02:10Z</time>
      </trkpt>
      <trkpt lat="46.29221" lon="4.69478">
        <ele>458</ele>
        <time>2011-04-10T08:02:12Z</time>
      </trkpt>
      <trkpt lat="46.29221" lon="4.69478">
        <ele>457.2</ele>
        <time>2011-04-10T08:02:25Z</time>
      </trkpt>
      <trkpt lat="46.29221" lon="4.69478">
        <ele>457</ele>
        <time>2011-04-10T08:02:32Z</time>
      </trkpt>
      <trkpt lat="46.29221" lon="4.69478">
        <ele>457</ele>
        <time>2011-04-10T08:02:33Z</time>
      </trkpt>
      <trkpt lat="46.29221" lon="4.69478">
        <ele>457</ele>
        <time>2011-04-10T08:02:34Z</time>
      </trkpt>
      <trkpt lat="46.29221" lon="4.69478">
        <ele>457</ele>
        <time>2011-04-10T08:02:35Z</time>
      </trkpt>
      <trkpt lat="46.29228" lon="4.69483">
        <ele>457</ele>
        <time>2011-04-10T08:02:39Z</time>
      </trkpt>
      <trkpt lat="46.29233" lon="4.69483">
        <ele>457</ele>
        <time>2011-04-10T08:02:41Z</time>
      </trkpt>
      <trkpt lat="46.29248" lon="4.69478">
        <ele>457</ele>
        <time>2011-04-10T08:02:48Z</time>
      </trkpt>
      <trkpt lat="46.29251" lon="4.69477">
        <ele>457</ele>
        <time>2011-04-10T08:02:49Z</time>
      </trkpt>
      <trkpt lat="46.29265" lon="4.69466">
        <ele>457</ele>
        <time>2011-04-10T08:02:54Z</time>
      </trkpt>
      <trkpt lat="46.2927" lon="4.69462">
        <ele>457.2</ele>
        <time>2011-04-10T08:02:56Z</time>
      </trkpt>
      <trkpt lat="46.29273" lon="4.6946">
        <ele>457.4</ele>
        <time>2011-04-10T08:02:57Z</time>
      </trkpt>
      <trkpt lat="46.29283" lon="4.69455">
        <ele>457.8</ele>
        <time>2011-04-10T08:03:00Z</time>
      </trkpt>
      <trkpt lat="46.29287" lon="4.69454">
        <ele>458</ele>
        <time>2011-04-10T08:03:01Z</time>
      </trkpt>
      <trkpt lat="46.29292" lon="4.69453">
        <ele>458</ele>
        <time>2011-04-10T08:03:02Z</time>
      </trkpt>
      <trkpt lat="46.29302" lon="4.6945">
        <ele>458.2</ele>
        <time>2011-04-10T08:03:04Z</time>
      </trkpt>
      <trkpt lat="46.29321" lon="4.69437">
        <ele>458.6</ele>
        <time>2011-04-10T08:03:09Z</time>
      </trkpt>
      <trkpt lat="46.29329" lon="4.6943">
        <ele>459</ele>
        <time>2011-04-10T08:03:12Z</time>
      </trkpt>
      <trkpt lat="46.29335" lon="4.69425">
        <ele>459.4</ele>
        <time>2011-04-10T08:03:14Z</time>
      </trkpt>
      <trkpt lat="46.29341" lon="4.69421">
        <ele>459.8</ele>
        <time>2011-04-10T08:03:16Z</time>
      </trkpt>
      <trkpt lat="46.29348" lon="4.69416">
        <ele>460</ele>
        <time>2011-04-10T08:03:18Z</time>
      </trkpt>
      <trkpt lat="46.29356" lon="4.69412">
        <ele>460.2</ele>
        <time>2011-04-10T08:03:20Z</time>
      </trkpt>
      <trkpt lat="46.29367" lon="4.69406">
        <ele>460.4</ele>
        <time>2011-04-10T08:03:23Z</time>
      </trkpt>
      <trkpt lat="46.29402" lon="4.69397">
        <ele>460.8</ele>
        <time>2011-04-10T08:03:31Z</time>
      </trkpt>
      <trkpt lat="46.29423" lon="4.69394">
        <ele>461</ele>
        <time>2011-04-10T08:03:36Z</time>
      </trkpt>
      <trkpt lat="46.29444" lon="4.6939">
        <ele>461</ele>
        <time>2011-04-10T08:03:41Z</time>
      </trkpt>
      <trkpt lat="46.29455" lon="4.6938">
        <ele>461.4</ele>
        <time>2011-04-10T08:03:45Z</time>
      </trkpt>
      <trkpt lat="46.29459" lon="4.69372">
        <ele>461.8</ele>
        <time>2011-04-10T08:03:47Z</time>
      </trkpt>
      <trkpt lat="46.29462" lon="4.69368">
        <ele>462</ele>
        <time>2011-04-10T08:03:48Z</time>
      </trkpt>
      <trkpt lat="46.29466" lon="4.69363">
        <ele>462</ele>
        <time>2011-04-10T08:03:49Z</time>
      </trkpt>
      <trkpt lat="46.29475" lon="4.69354">
        <ele>462.4</ele>
        <time>2011-04-10T08:03:51Z</time>
      </trkpt>
      <trkpt lat="46.29482" lon="4.69346">
        <ele>462.6</ele>
        <time>2011-04-10T08:03:53Z</time>
      </trkpt>
      <trkpt lat="46.2949" lon="4.69335">
        <ele>462.8</ele>
        <time>2011-04-10T08:03:57Z</time>
      </trkpt>
      <trkpt lat="46.29492" lon="4.69332">
        <ele>463</ele>
        <time>2011-04-10T08:03:58Z</time>
      </trkpt>
      <trkpt lat="46.29499" lon="4.69322">
        <ele>462.8</ele>
        <time>2011-04-10T08:04:00Z</time>
      </trkpt>
      <trkpt lat="46.29502" lon="4.69317">
        <ele>462.6</ele>
        <time>2011-04-10T08:04:01Z</time>
      </trkpt>
      <trkpt lat="46.29505" lon="4.69313">
        <ele>462.6</ele>
        <time>2011-04-10T08:04:02Z</time>
      </trkpt>
      <trkpt lat="46.29513" lon="4.69304">
        <ele>462.4</ele>
        <time>2011-04-10T08:04:04Z</time>
      </trkpt>
      <trkpt lat="46.29522" lon="4.69295">
        <ele>462.2</ele>
        <time>2011-04-10T08:04:06Z</time>
      </trkpt>
      <trkpt lat="46.29529" lon="4.69286">
        <ele>462</ele>
        <time>2011-04-10T08:04:08Z</time>
      </trkpt>
      <trkpt lat="46.29537" lon="4.69274">
        <ele>461.8</ele>
        <time>2011-04-10T08:04:10Z</time>
      </trkpt>
      <trkpt lat="46.29545" lon="4.69262">
        <ele>461.8</ele>
        <time>2011-04-10T08:04:12Z</time>
      </trkpt>
      <trkpt lat="46.29552" lon="4.6925">
        <ele>461.6</ele>
        <time>2011-04-10T08:04:14Z</time>
      </trkpt>
      <trkpt lat="46.2956" lon="4.69241">
        <ele>461.4</ele>
        <time>2011-04-10T08:04:16Z</time>
      </trkpt>
      <trkpt lat="46.29568" lon="4.69231">
        <ele>461</ele>
        <time>2011-04-10T08:04:18Z</time>
      </trkpt>
      <trkpt lat="46.29573" lon="4.69225">
        <ele>460.8</ele>
        <time>2011-04-10T08:04:19Z</time>
      </trkpt>
      <trkpt lat="46.29578" lon="4.69219">
        <ele>460.6</ele>
        <time>2011-04-10T08:04:20Z</time>
      </trkpt>
      <trkpt lat="46.29588" lon="4.69208">
        <ele>460.2</ele>
        <time>2011-04-10T08:04:22Z</time>
      </trkpt>
      <trkpt lat="46.29598" lon="4.69197">
        <ele>459.4</ele>
        <time>2011-04-10T08:04:24Z</time>
      </trkpt>
      <trkpt lat="46.29603" lon="4.69191">
        <ele>459.2</ele>
        <time>2011-04-10T08:04:25Z</time>
      </trkpt>
      <trkpt lat="46.29608" lon="4.69186">
        <ele>459</ele>
        <time>2011-04-10T08:04:26Z</time>
      </trkpt>
      <trkpt lat="46.29612" lon="4.69183">
        <ele>458.6</ele>
        <time>2011-04-10T08:04:27Z</time>
      </trkpt>
      <trkpt lat="46.29618" lon="4.69177">
        <ele>458</ele>
        <time>2011-04-10T08:04:28Z</time>
      </trkpt>
      <trkpt lat="46.29624" lon="4.69172">
        <ele>457.6</ele>
        <time>2011-04-10T08:04:29Z</time>
      </trkpt>
      <trkpt lat="46.29637" lon="4.69158">
        <ele>457</ele>
        <time>2011-04-10T08:04:31Z</time>
      </trkpt>
      <trkpt lat="46.29647" lon="4.69148">
        <ele>456.4</ele>
        <time>2011-04-10T08:04:33Z</time>
      </trkpt>
      <trkpt lat="46.29653" lon="4.69142">
        <ele>456</ele>
        <time>2011-04-10T08:04:34Z</time>
      </trkpt>
      <trkpt lat="46.29658" lon="4.69136">
        <ele>455.6</ele>
        <time>2011-04-10T08:04:35Z</time>
      </trkpt>
      <trkpt lat="46.29662" lon="4.6913">
        <ele>455</ele>
        <time>2011-04-10T08:04:36Z</time>
      </trkpt>
      <trkpt lat="46.29667" lon="4.69114">
        <ele>453.8</ele>
        <time>2011-04-10T08:04:38Z</time>
      </trkpt>
      <trkpt lat="46.29668" lon="4.69104">
        <ele>453.2</ele>
        <time>2011-04-10T08:04:39Z</time>
      </trkpt>
      <trkpt lat="46.29668" lon="4.69086">
        <ele>451.6</ele>
        <time>2011-04-10T08:04:41Z</time>
      </trkpt>
      <trkpt lat="46.2967" lon="4.69077">
        <ele>450.8</ele>
        <time>2011-04-10T08:04:42Z</time>
      </trkpt>
      <trkpt lat="46.29673" lon="4.69068">
        <ele>450</ele>
        <time>2011-04-10T08:04:43Z</time>
      </trkpt>
      <trkpt lat="46.29677" lon="4.69061">
        <ele>449.4</ele>
        <time>2011-04-10T08:04:44Z</time>
      </trkpt>
      <trkpt lat="46.29682" lon="4.69055">
        <ele>448.4</ele>
        <time>2011-04-10T08:04:45Z</time>
      </trkpt>
      <trkpt lat="46.29687" lon="4.6905">
        <ele>447.8</ele>
        <time>2011-04-10T08:04:46Z</time>
      </trkpt>
      <trkpt lat="46.29696" lon="4.6904">
        <ele>446.2</ele>
        <time>2011-04-10T08:04:48Z</time>
      </trkpt>
      <trkpt lat="46.29706" lon="4.69029">
        <ele>444.8</ele>
        <time>2011-04-10T08:04:50Z</time>
      </trkpt>
      <trkpt lat="46.29717" lon="4.6902">
        <ele>443.4</ele>
        <time>2011-04-10T08:04:52Z</time>
      </trkpt>
      <trkpt lat="46.29721" lon="4.69016">
        <ele>442.6</ele>
        <time>2011-04-10T08:04:53Z</time>
      </trkpt>
      <trkpt lat="46.29726" lon="4.69014">
        <ele>442</ele>
        <time>2011-04-10T08:04:54Z</time>
      </trkpt>
      <trkpt lat="46.2973" lon="4.69012">
        <ele>441.4</ele>
        <time>2011-04-10T08:04:55Z</time>
      </trkpt>
      <trkpt lat="46.29735" lon="4.69011">
        <ele>440.6</ele>
        <time>2011-04-10T08:04:56Z</time>
      </trkpt>
      <trkpt lat="46.29745" lon="4.69008">
        <ele>439.4</ele>
        <time>2011-04-10T08:04:58Z</time>
      </trkpt>
      <trkpt lat="46.29751" lon="4.69007">
        <ele>438.8</ele>
        <time>2011-04-10T08:04:59Z</time>
      </trkpt>
      <trkpt lat="46.29757" lon="4.69004">
        <ele>438.2</ele>
        <time>2011-04-10T08:05:00Z</time>
      </trkpt>
      <trkpt lat="46.29763" lon="4.69001">
        <ele>437.6</ele>
        <time>2011-04-10T08:05:01Z</time>
      </trkpt>
      <trkpt lat="46.29768" lon="4.68998">
        <ele>437</ele>
        <time>2011-04-10T08:05:02Z</time>
      </trkpt>
      <trkpt lat="46.29773" lon="4.68994">
        <ele>436.4</ele>
        <time>2011-04-10T08:05:03Z</time>
      </trkpt>
      <trkpt lat="46.29784" lon="4.68975">
        <ele>435.4</ele>
        <time>2011-04-10T08:05:05Z</time>
      </trkpt>
      <trkpt lat="46.29791" lon="4.68963">
        <ele>434.8</ele>
        <time>2011-04-10T08:05:06Z</time>
      </trkpt>
      <trkpt lat="46.29806" lon="4.68939">
        <ele>433.6</ele>
        <time>2011-04-10T08:05:08Z</time>
      </trkpt>
      <trkpt lat="46.29813" lon="4.68928">
        <ele>433</ele>
        <time>2011-04-10T08:05:09Z</time>
      </trkpt>
      <trkpt lat="46.29825" lon="4.68909">
        <ele>431.6</ele>
        <time>2011-04-10T08:05:11Z</time>
      </trkpt>
      <trkpt lat="46.29829" lon="4.68899">
        <ele>430.8</ele>
        <time>2011-04-10T08:05:12Z</time>
      </trkpt>
      <trkpt lat="46.29834" lon="4.6889">
        <ele>430</ele>
        <time>2011-04-10T08:05:13Z</time>
      </trkpt>
      <trkpt lat="46.29843" lon="4.68873">
        <ele>428.4</ele>
        <time>2011-04-10T08:05:15Z</time>
      </trkpt>
      <trkpt lat="46.29848" lon="4.68867">
        <ele>427.4</ele>
        <time>2011-04-10T08:05:16Z</time>
      </trkpt>
      <trkpt lat="46.29852" lon="4.68862">
        <ele>426.4</ele>
        <time>2011-04-10T08:05:17Z</time>
      </trkpt>
      <trkpt lat="46.2986" lon="4.68854">
        <ele>424.6</ele>
        <time>2011-04-10T08:05:19Z</time>
      </trkpt>
      <trkpt lat="46.2987" lon="4.68847">
        <ele>422.8</ele>
        <time>2011-04-10T08:05:21Z</time>
      </trkpt>
      <trkpt lat="46.29876" lon="4.68845">
        <ele>421.8</ele>
        <time>2011-04-10T08:05:22Z</time>
      </trkpt>
      <trkpt lat="46.29884" lon="4.68843">
        <ele>420.8</ele>
        <time>2011-04-10T08:05:23Z</time>
      </trkpt>
      <trkpt lat="46.29892" lon="4.68842">
        <ele>420</ele>
        <time>2011-04-10T08:05:24Z</time>
      </trkpt>
      <trkpt lat="46.29898" lon="4.6884">
        <ele>419</ele>
        <time>2011-04-10T08:05:25Z</time>
      </trkpt>
      <trkpt lat="46.29907" lon="4.68839">
        <ele>417.2</ele>
        <time>2011-04-10T08:05:27Z</time>
      </trkpt>
      <trkpt lat="46.29911" lon="4.68838">
        <ele>416.2</ele>
        <time>2011-04-10T08:05:28Z</time>
      </trkpt>
      <trkpt lat="46.29914" lon="4.68836">
        <ele>415.4</ele>
        <time>2011-04-10T08:05:29Z</time>
      </trkpt>
      <trkpt lat="46.29933" lon="4.68826">
        <ele>413</ele>
        <time>2011-04-10T08:05:32Z</time>
      </trkpt>
      <trkpt lat="46.2994" lon="4.68823">
        <ele>412.2</ele>
        <time>2011-04-10T08:05:33Z</time>
      </trkpt>
      <trkpt lat="46.29947" lon="4.6882">
        <ele>411.4</ele>
        <time>2011-04-10T08:05:34Z</time>
      </trkpt>
      <trkpt lat="46.29953" lon="4.68818">
        <ele>410.8</ele>
        <time>2011-04-10T08:05:35Z</time>
      </trkpt>
      <trkpt lat="46.29959" lon="4.68818">
        <ele>410</ele>
        <time>2011-04-10T08:05:36Z</time>
      </trkpt>
      <trkpt lat="46.29965" lon="4.68819">
        <ele>409.2</ele>
        <time>2011-04-10T08:05:37Z</time>
      </trkpt>
      <trkpt lat="46.29979" lon="4.68824">
        <ele>407.4</ele>
        <time>2011-04-10T08:05:39Z</time>
      </trkpt>
      <trkpt lat="46.29986" lon="4.68824">
        <ele>406.6</ele>
        <time>2011-04-10T08:05:40Z</time>
      </trkpt>
      <trkpt lat="46.29993" lon="4.68824">
        <ele>406</ele>
        <time>2011-04-10T08:05:41Z</time>
      </trkpt>
      <trkpt lat="46.30009" lon="4.68823">
        <ele>404.4</ele>
        <time>2011-04-10T08:05:43Z</time>
      </trkpt>
      <trkpt lat="46.30027" lon="4.68822">
        <ele>402.8</ele>
        <time>2011-04-10T08:05:45Z</time>
      </trkpt>
      <trkpt lat="46.30035" lon="4.68822">
        <ele>402</ele>
        <time>2011-04-10T08:05:46Z</time>
      </trkpt>
      <trkpt lat="46.30049" lon="4.68822">
        <ele>400.6</ele>
        <time>2011-04-10T08:05:48Z</time>
      </trkpt>
      <trkpt lat="46.30057" lon="4.68821">
        <ele>399.8</ele>
        <time>2011-04-10T08:05:49Z</time>
      </trkpt>
      <trkpt lat="46.30077" lon="4.68816">
        <ele>398.2</ele>
        <time>2011-04-10T08:05:51Z</time>
      </trkpt>
      <trkpt lat="46.30092" lon="4.68815">
        <ele>397.4</ele>
        <time>2011-04-10T08:05:52Z</time>
      </trkpt>
      <trkpt lat="46.30103" lon="4.68816">
        <ele>396.6</ele>
        <time>2011-04-10T08:05:53Z</time>
      </trkpt>
      <trkpt lat="46.30114" lon="4.68817">
        <ele>396</ele>
        <time>2011-04-10T08:05:54Z</time>
      </trkpt>
      <trkpt lat="46.30124" lon="4.6882">
        <ele>395</ele>
        <time>2011-04-10T08:05:55Z</time>
      </trkpt>
      <trkpt lat="46.30146" lon="4.68823">
        <ele>393.4</ele>
        <time>2011-04-10T08:05:57Z</time>
      </trkpt>
      <trkpt lat="46.30167" lon="4.68827">
        <ele>391.8</ele>
        <time>2011-04-10T08:05:59Z</time>
      </trkpt>
      <trkpt lat="46.30176" lon="4.68829">
        <ele>390.8</ele>
        <time>2011-04-10T08:06:00Z</time>
      </trkpt>
      <trkpt lat="46.3019" lon="4.68831">
        <ele>389.4</ele>
        <time>2011-04-10T08:06:02Z</time>
      </trkpt>
      <trkpt lat="46.30203" lon="4.68832">
        <ele>388.2</ele>
        <time>2011-04-10T08:06:04Z</time>
      </trkpt>
      <trkpt lat="46.30209" lon="4.68831">
        <ele>387.6</ele>
        <time>2011-04-10T08:06:05Z</time>
      </trkpt>
      <trkpt lat="46.30221" lon="4.68828">
        <ele>386.8</ele>
        <time>2011-04-10T08:06:07Z</time>
      </trkpt>
      <trkpt lat="46.30245" lon="4.68794">
        <ele>385.2</ele>
        <time>2011-04-10T08:06:12Z</time>
      </trkpt>
      <trkpt lat="46.30269" lon="4.6877">
        <ele>384.6</ele>
        <time>2011-04-10T08:06:15Z</time>
      </trkpt>
      <trkpt lat="46.3029" lon="4.68747">
        <ele>384</ele>
        <time>2011-04-10T08:06:18Z</time>
      </trkpt>
      <trkpt lat="46.30297" lon="4.68741">
        <ele>383.6</ele>
        <time>2011-04-10T08:06:19Z</time>
      </trkpt>
      <trkpt lat="46.30321" lon="4.68737">
        <ele>382.6</ele>
        <time>2011-04-10T08:06:22Z</time>
      </trkpt>
      <trkpt lat="46.30328" lon="4.68734">
        <ele>382.2</ele>
        <time>2011-04-10T08:06:23Z</time>
      </trkpt>
      <trkpt lat="46.30343" lon="4.68722">
        <ele>381.4</ele>
        <time>2011-04-10T08:06:25Z</time>
      </trkpt>
      <trkpt lat="46.3036" lon="4.68702">
        <ele>380.8</ele>
        <time>2011-04-10T08:06:28Z</time>
      </trkpt>
      <trkpt lat="46.30364" lon="4.68693">
        <ele>380.4</ele>
        <time>2011-04-10T08:06:29Z</time>
      </trkpt>
      <trkpt lat="46.30368" lon="4.68685">
        <ele>380</ele>
        <time>2011-04-10T08:06:30Z</time>
      </trkpt>
      <trkpt lat="46.30376" lon="4.68667">
        <ele>379.4</ele>
        <time>2011-04-10T08:06:32Z</time>
      </trkpt>
      <trkpt lat="46.30378" lon="4.68655">
        <ele>378.8</ele>
        <time>2011-04-10T08:06:33Z</time>
      </trkpt>
      <trkpt lat="46.30384" lon="4.6862">
        <ele>377.6</ele>
        <time>2011-04-10T08:06:35Z</time>
      </trkpt>
      <trkpt lat="46.30389" lon="4.68605">
        <ele>377</ele>
        <time>2011-04-10T08:06:36Z</time>
      </trkpt>
      <trkpt lat="46.30411" lon="4.68575">
        <ele>375</ele>
        <time>2011-04-10T08:06:39Z</time>
      </trkpt>
      <trkpt lat="46.30419" lon="4.68569">
        <ele>374.2</ele>
        <time>2011-04-10T08:06:40Z</time>
      </trkpt>
      <trkpt lat="46.30427" lon="4.68561">
        <ele>373.4</ele>
        <time>2011-04-10T08:06:41Z</time>
      </trkpt>
      <trkpt lat="46.30437" lon="4.68558">
        <ele>372.8</ele>
        <time>2011-04-10T08:06:42Z</time>
      </trkpt>
      <trkpt lat="46.30446" lon="4.68556">
        <ele>372</ele>
        <time>2011-04-10T08:06:43Z</time>
      </trkpt>
      <trkpt lat="46.30467" lon="4.68557">
        <ele>370.6</ele>
        <time>2011-04-10T08:06:45Z</time>
      </trkpt>
      <trkpt lat="46.30478" lon="4.68556">
        <ele>369.8</ele>
        <time>2011-04-10T08:06:46Z</time>
      </trkpt>
      <trkpt lat="46.30502" lon="4.6855">
        <ele>368.4</ele>
        <time>2011-04-10T08:06:48Z</time>
      </trkpt>
      <trkpt lat="46.30513" lon="4.68545">
        <ele>367.4</ele>
        <time>2011-04-10T08:06:49Z</time>
      </trkpt>
      <trkpt lat="46.30535" lon="4.68535">
        <ele>366</ele>
        <time>2011-04-10T08:06:51Z</time>
      </trkpt>
      <trkpt lat="46.30555" lon="4.68525">
        <ele>364.6</ele>
        <time>2011-04-10T08:06:53Z</time>
      </trkpt>
      <trkpt lat="46.30575" lon="4.68513">
        <ele>363.2</ele>
        <time>2011-04-10T08:06:55Z</time>
      </trkpt>
      <trkpt lat="46.30594" lon="4.68503">
        <ele>361.8</ele>
        <time>2011-04-10T08:06:57Z</time>
      </trkpt>
      <trkpt lat="46.30614" lon="4.68496">
        <ele>360.6</ele>
        <time>2011-04-10T08:06:59Z</time>
      </trkpt>
      <trkpt lat="46.30624" lon="4.68493">
        <ele>359.8</ele>
        <time>2011-04-10T08:07:00Z</time>
      </trkpt>
      <trkpt lat="46.30643" lon="4.68491">
        <ele>358.4</ele>
        <time>2011-04-10T08:07:02Z</time>
      </trkpt>
      <trkpt lat="46.3065" lon="4.68491">
        <ele>357.6</ele>
        <time>2011-04-10T08:07:03Z</time>
      </trkpt>
      <trkpt lat="46.30654" lon="4.68493">
        <ele>356.8</ele>
        <time>2011-04-10T08:07:04Z</time>
      </trkpt>
      <trkpt lat="46.30657" lon="4.68494">
        <ele>356.2</ele>
        <time>2011-04-10T08:07:05Z</time>
      </trkpt>
      <trkpt lat="46.30659" lon="4.68495">
        <ele>355.4</ele>
        <time>2011-04-10T08:07:06Z</time>
      </trkpt>
      <trkpt lat="46.30663" lon="4.68497">
        <ele>354</ele>
        <time>2011-04-10T08:07:08Z</time>
      </trkpt>
      <trkpt lat="46.30666" lon="4.68498">
        <ele>352.8</ele>
        <time>2011-04-10T08:07:10Z</time>
      </trkpt>
      <trkpt lat="46.3067" lon="4.68499">
        <ele>351.8</ele>
        <time>2011-04-10T08:07:12Z</time>
      </trkpt>
      <trkpt lat="46.30671" lon="4.68501">
        <ele>351.2</ele>
        <time>2011-04-10T08:07:14Z</time>
      </trkpt>
      <trkpt lat="46.30671" lon="4.68502">
        <ele>350.6</ele>
        <time>2011-04-10T08:07:16Z</time>
      </trkpt>
      <trkpt lat="46.30672" lon="4.68502">
        <ele>349</ele>
        <time>2011-04-10T08:07:24Z</time>
      </trkpt>
      <trkpt lat="46.30672" lon="4.68502">
        <ele>348.8</ele>
        <time>2011-04-10T08:07:27Z</time>
      </trkpt>
      <trkpt lat="46.30672" lon="4.68502">
        <ele>348.4</ele>
        <time>2011-04-10T08:07:34Z</time>
      </trkpt>
      <trkpt lat="46.30674" lon="4.68502">
        <ele>348</ele>
        <time>2011-04-10T08:07:44Z</time>
      </trkpt>
      <trkpt lat="46.30674" lon="4.68502">
        <ele>348</ele>
        <time>2011-04-10T08:07:53Z</time>
      </trkpt>
      <trkpt lat="46.30674" lon="4.68502">
        <ele>348</ele>
        <time>2011-04-10T08:08:03Z</time>
      </trkpt>
      <trkpt lat="46.30674" lon="4.68503">
        <ele>348</ele>
        <time>2011-04-10T08:08:25Z</time>
      </trkpt>
      <trkpt lat="46.30674" lon="4.68503">
        <ele>348</ele>
        <time>2011-04-10T08:08:30Z</time>
      </trkpt>
      <trkpt lat="46.30674" lon="4.68503">
        <ele>348</ele>
        <time>2011-04-10T08:08:38Z</time>
      </trkpt>
      <trkpt lat="46.30674" lon="4.68503">
        <ele>348</ele>
        <time>2011-04-10T08:08:48Z</time>
      </trkpt>
      <trkpt lat="46.30674" lon="4.68503">
        <ele>348</ele>
        <time>2011-04-10T08:09:02Z</time>
      </trkpt>
      <trkpt lat="46.30674" lon="4.68503">
        <ele>348</ele>
        <time>2011-04-10T08:09:21Z</time>
      </trkpt>
      <trkpt lat="46.30674" lon="4.68503">
        <ele>348</ele>
        <time>2011-04-10T08:09:25Z</time>
      </trkpt>
      <trkpt lat="46.30674" lon="4.68503">
        <ele>348</ele>
        <time>2011-04-10T08:09:30Z</time>
      </trkpt>
      <trkpt lat="46.30674" lon="4.68503">
        <ele>348</ele>
        <time>2011-04-10T08:09:34Z</time>
      </trkpt>
      <trkpt lat="46.30674" lon="4.68502">
        <ele>348</ele>
        <time>2011-04-10T08:10:00Z</time>
      </trkpt>
      <trkpt lat="46.30675" lon="4.68502">
        <ele>348</ele>
        <time>2011-04-10T08:10:01Z</time>
      </trkpt>
      <trkpt lat="46.30671" lon="4.685">
        <ele>348</ele>
        <time>2011-04-10T08:10:03Z</time>
      </trkpt>
      <trkpt lat="46.30669" lon="4.68499">
        <ele>348</ele>
        <time>2011-04-10T08:10:04Z</time>
      </trkpt>
      <trkpt lat="46.30649" lon="4.68492">
        <ele>348.2</ele>
        <time>2011-04-10T08:10:11Z</time>
      </trkpt>
      <trkpt lat="46.30644" lon="4.68492">
        <ele>348.6</ele>
        <time>2011-04-10T08:10:13Z</time>
      </trkpt>
      <trkpt lat="46.30639" lon="4.68493">
        <ele>348.8</ele>
        <time>2011-04-10T08:10:15Z</time>
      </trkpt>
      <trkpt lat="46.30633" lon="4.68494">
        <ele>349</ele>
        <time>2011-04-10T08:10:17Z</time>
      </trkpt>
      <trkpt lat="46.30628" lon="4.68495">
        <ele>349.2</ele>
        <time>2011-04-10T08:10:19Z</time>
      </trkpt>
      <trkpt lat="46.30618" lon="4.68501">
        <ele>349.8</ele>
        <time>2011-04-10T08:10:23Z</time>
      </trkpt>
      <trkpt lat="46.30614" lon="4.68505">
        <ele>350.2</ele>
        <time>2011-04-10T08:10:25Z</time>
      </trkpt>
      <trkpt lat="46.30608" lon="4.68507">
        <ele>350.6</ele>
        <time>2011-04-10T08:10:27Z</time>
      </trkpt>
      <trkpt lat="46.30603" lon="4.68511">
        <ele>350.8</ele>
        <time>2011-04-10T08:10:29Z</time>
      </trkpt>
      <trkpt lat="46.30598" lon="4.68515">
        <ele>351.2</ele>
        <time>2011-04-10T08:10:31Z</time>
      </trkpt>
      <trkpt lat="46.30591" lon="4.6852">
        <ele>351.6</ele>
        <time>2011-04-10T08:10:34Z</time>
      </trkpt>
      <trkpt lat="46.30589" lon="4.68521">
        <ele>351.8</ele>
        <time>2011-04-10T08:10:35Z</time>
      </trkpt>
      <trkpt lat="46.30582" lon="4.68527">
        <ele>352.6</ele>
        <time>2011-04-10T08:10:38Z</time>
      </trkpt>
      <trkpt lat="46.30577" lon="4.68532">
        <ele>352.8</ele>
        <time>2011-04-10T08:10:40Z</time>
      </trkpt>
      <trkpt lat="46.30571" lon="4.68536">
        <ele>353</ele>
        <time>2011-04-10T08:10:42Z</time>
      </trkpt>
      <trkpt lat="46.30567" lon="4.68539">
        <ele>353.6</ele>
        <time>2011-04-10T08:10:44Z</time>
      </trkpt>
      <trkpt lat="46.30562" lon="4.68541">
        <ele>354</ele>
        <time>2011-04-10T08:10:46Z</time>
      </trkpt>
      <trkpt lat="46.30557" lon="4.68543">
        <ele>354.4</ele>
        <time>2011-04-10T08:10:48Z</time>
      </trkpt>
      <trkpt lat="46.30552" lon="4.68546">
        <ele>354.8</ele>
        <time>2011-04-10T08:10:50Z</time>
      </trkpt>
      <trkpt lat="46.30547" lon="4.68549">
        <ele>355.2</ele>
        <time>2011-04-10T08:10:52Z</time>
      </trkpt>
      <trkpt lat="46.30533" lon="4.68556">
        <ele>355.6</ele>
        <time>2011-04-10T08:10:57Z</time>
      </trkpt>
      <trkpt lat="46.30522" lon="4.68558">
        <ele>356</ele>
        <time>2011-04-10T08:11:02Z</time>
      </trkpt>
      <trkpt lat="46.3052" lon="4.68559">
        <ele>356.2</ele>
        <time>2011-04-10T08:11:04Z</time>
      </trkpt>
      <trkpt lat="46.3052" lon="4.68559">
        <ele>356.6</ele>
        <time>2011-04-10T08:11:06Z</time>
      </trkpt>
      <trkpt lat="46.30521" lon="4.6856">
        <ele>357</ele>
        <time>2011-04-10T08:11:08Z</time>
      </trkpt>
      <trkpt lat="46.30521" lon="4.6856">
        <ele>357.2</ele>
        <time>2011-04-10T08:11:10Z</time>
      </trkpt>
      <trkpt lat="46.30521" lon="4.6856">
        <ele>357.4</ele>
        <time>2011-04-10T08:11:12Z</time>
      </trkpt>
      <trkpt lat="46.3052" lon="4.68559">
        <ele>357.6</ele>
        <time>2011-04-10T08:11:15Z</time>
      </trkpt>
      <trkpt lat="46.3052" lon="4.68559">
        <ele>358</ele>
        <time>2011-04-10T08:11:20Z</time>
      </trkpt>
      <trkpt lat="46.3052" lon="4.68559">
        <ele>358.2</ele>
        <time>2011-04-10T08:11:34Z</time>
      </trkpt>
      <trkpt lat="46.30524" lon="4.68563">
        <ele>358.4</ele>
        <time>2011-04-10T08:11:44Z</time>
      </trkpt>
      <trkpt lat="46.30528" lon="4.68567">
        <ele>358.4</ele>
        <time>2011-04-10T08:11:51Z</time>
      </trkpt>
      <trkpt lat="46.30532" lon="4.68571">
        <ele>358.4</ele>
        <time>2011-04-10T08:11:59Z</time>
      </trkpt>
      <trkpt lat="46.30535" lon="4.68573">
        <ele>358.4</ele>
        <time>2011-04-10T08:12:05Z</time>
      </trkpt>
      <trkpt lat="46.30537" lon="4.68576">
        <ele>358.4</ele>
        <time>2011-04-10T08:12:26Z</time>
      </trkpt>
      <trkpt lat="46.30537" lon="4.68576">
        <ele>358.4</ele>
        <time>2011-04-10T08:12:27Z</time>
      </trkpt>
      <trkpt lat="46.30537" lon="4.68576">
        <ele>358.4</ele>
        <time>2011-04-10T08:12:28Z</time>
      </trkpt>
      <trkpt lat="46.30537" lon="4.68575">
        <ele>358.4</ele>
        <time>2011-04-10T08:12:36Z</time>
      </trkpt>
      <trkpt lat="46.30537" lon="4.68575">
        <ele>358.4</ele>
        <time>2011-04-10T08:12:39Z</time>
      </trkpt>
      <trkpt lat="46.30538" lon="4.68576">
        <ele>358.4</ele>
        <time>2011-04-10T08:12:46Z</time>
      </trkpt>
      <trkpt lat="46.30537" lon="4.68575">
        <ele>358.4</ele>
        <time>2011-04-10T08:12:55Z</time>
      </trkpt>
      <trkpt lat="46.30537" lon="4.68575">
        <ele>358.4</ele>
        <time>2011-04-10T08:13:02Z</time>
      </trkpt>
      <trkpt lat="46.30537" lon="4.68575">
        <ele>358.4</ele>
        <time>2011-04-10T08:13:15Z</time>
      </trkpt>
      <trkpt lat="46.30535" lon="4.68573">
        <ele>358.4</ele>
        <time>2011-04-10T08:14:03Z</time>
      </trkpt>
      <trkpt lat="46.30529" lon="4.68571">
        <ele>358.4</ele>
        <time>2011-04-10T08:14:27Z</time>
      </trkpt>
      <trkpt lat="46.30527" lon="4.68568">
        <ele>358.4</ele>
        <time>2011-04-10T08:15:05Z</time>
      </trkpt>
      <trkpt lat="46.30526" lon="4.68568">
        <ele>358.4</ele>
        <time>2011-04-10T08:15:06Z</time>
      </trkpt>
      <trkpt lat="46.30526" lon="4.68568">
        <ele>358.4</ele>
        <time>2011-04-10T08:15:11Z</time>
      </trkpt>
      <trkpt lat="46.30526" lon="4.68568">
        <ele>358.4</ele>
        <time>2011-04-10T08:15:12Z</time>
      </trkpt>
      <trkpt lat="46.30525" lon="4.68567">
        <ele>358.4</ele>
        <time>2011-04-10T08:15:34Z</time>
      </trkpt>
      <trkpt lat="46.30522" lon="4.68564">
        <ele>358.4</ele>
        <time>2011-04-10T08:16:11Z</time>
      </trkpt>
      <trkpt lat="46.30521" lon="4.68564">
        <ele>358.4</ele>
        <time>2011-04-10T08:16:34Z</time>
      </trkpt>
      <trkpt lat="46.30521" lon="4.68563">
        <ele>358.4</ele>
        <time>2011-04-10T08:17:01Z</time>
      </trkpt>
      <trkpt lat="46.30521" lon="4.68563">
        <ele>358.4</ele>
        <time>2011-04-10T08:17:08Z</time>
      </trkpt>
      <trkpt lat="46.30521" lon="4.68563">
        <ele>358.4</ele>
        <time>2011-04-10T08:17:32Z</time>
      </trkpt>
      <trkpt lat="46.30521" lon="4.68563">
        <ele>358.4</ele>
        <time>2011-04-10T08:17:44Z</time>
      </trkpt>
      <trkpt lat="46.30521" lon="4.68563">
        <ele>358.4</ele>
        <time>2011-04-10T08:17:55Z</time>
      </trkpt>
      <trkpt lat="46.30521" lon="4.68563">
        <ele>358.4</ele>
        <time>2011-04-10T08:18:01Z</time>
      </trkpt>
      <trkpt lat="46.30521" lon="4.68563">
        <ele>358.4</ele>
        <time>2011-04-10T08:18:24Z</time>
      </trkpt>
      <trkpt lat="46.3052" lon="4.68563">
        <ele>358.4</ele>
        <time>2011-04-10T08:18:40Z</time>
      </trkpt>
      <trkpt lat="46.3052" lon="4.68563">
        <ele>358.4</ele>
        <time>2011-04-10T08:18:45Z</time>
      </trkpt>
      <trkpt lat="46.3052" lon="4.68562">
        <ele>358.4</ele>
        <time>2011-04-10T08:19:34Z</time>
      </trkpt>
      <trkpt lat="46.3052" lon="4.68562">
        <ele>358.4</ele>
        <time>2011-04-10T08:19:38Z</time>
      </trkpt>
      <trkpt lat="46.3052" lon="4.68562">
        <ele>358.4</ele>
        <time>2011-04-10T08:19:41Z</time>
      </trkpt>
      <trkpt lat="46.3052" lon="4.68562">
        <ele>358.6</ele>
        <time>2011-04-10T08:19:42Z</time>
      </trkpt>
      <trkpt lat="46.3052" lon="4.68562">
        <ele>359</ele>
        <time>2011-04-10T08:19:44Z</time>
      </trkpt>
      <trkpt lat="46.3052" lon="4.68562">
        <ele>359.2</ele>
        <time>2011-04-10T08:19:46Z</time>
      </trkpt>
      <trkpt lat="46.3052" lon="4.68562">
        <ele>359.4</ele>
        <time>2011-04-10T08:19:48Z</time>
      </trkpt>
      <trkpt lat="46.3052" lon="4.68562">
        <ele>359.6</ele>
        <time>2011-04-10T08:19:50Z</time>
      </trkpt>
      <trkpt lat="46.3052" lon="4.68562">
        <ele>360.2</ele>
        <time>2011-04-10T08:20:06Z</time>
      </trkpt>
      <trkpt lat="46.3052" lon="4.68562">
        <ele>360.4</ele>
        <time>2011-04-10T08:20:27Z</time>
      </trkpt>
      <trkpt lat="46.3052" lon="4.68562">
        <ele>360.4</ele>
        <time>2011-04-10T08:20:31Z</time>
      </trkpt>
      <trkpt lat="46.30528" lon="4.68556">
        <ele>360.4</ele>
        <time>2011-04-10T08:20:35Z</time>
      </trkpt>
      <trkpt lat="46.30545" lon="4.68546">
        <ele>360.4</ele>
        <time>2011-04-10T08:20:40Z</time>
      </trkpt>
      <trkpt lat="46.30558" lon="4.68538">
        <ele>360.4</ele>
        <time>2011-04-10T08:20:44Z</time>
      </trkpt>
      <trkpt lat="46.3058" lon="4.6852">
        <ele>360.2</ele>
        <time>2011-04-10T08:20:49Z</time>
      </trkpt>
      <trkpt lat="46.30594" lon="4.68512">
        <ele>359.8</ele>
        <time>2011-04-10T08:20:51Z</time>
      </trkpt>
      <trkpt lat="46.30602" lon="4.68508">
        <ele>359.6</ele>
        <time>2011-04-10T08:20:52Z</time>
      </trkpt>
      <trkpt lat="46.3061" lon="4.68504">
        <ele>359.6</ele>
        <time>2011-04-10T08:20:53Z</time>
      </trkpt>
      <trkpt lat="46.30616" lon="4.68501">
        <ele>359.2</ele>
        <time>2011-04-10T08:20:54Z</time>
      </trkpt>
      <trkpt lat="46.30627" lon="4.68497">
        <ele>358.6</ele>
        <time>2011-04-10T08:20:56Z</time>
      </trkpt>
      <trkpt lat="46.30633" lon="4.68494">
        <ele>358.4</ele>
        <time>2011-04-10T08:20:57Z</time>
      </trkpt>
      <trkpt lat="46.3064" lon="4.68493">
        <ele>358.2</ele>
        <time>2011-04-10T08:20:58Z</time>
      </trkpt>
      <trkpt lat="46.30647" lon="4.68493">
        <ele>357.8</ele>
        <time>2011-04-10T08:20:59Z</time>
      </trkpt>
      <trkpt lat="46.30662" lon="4.68497">
        <ele>357.2</ele>
        <time>2011-04-10T08:21:01Z</time>
      </trkpt>
      <trkpt lat="46.30678" lon="4.68506">
        <ele>356.4</ele>
        <time>2011-04-10T08:21:03Z</time>
      </trkpt>
      <trkpt lat="46.30685" lon="4.68512">
        <ele>356</ele>
        <time>2011-04-10T08:21:04Z</time>
      </trkpt>
      <trkpt lat="46.30693" lon="4.68519">
        <ele>355.6</ele>
        <time>2011-04-10T08:21:05Z</time>
      </trkpt>
      <trkpt lat="46.3071" lon="4.68531">
        <ele>354.6</ele>
        <time>2011-04-10T08:21:07Z</time>
      </trkpt>
      <trkpt lat="46.30731" lon="4.68545">
        <ele>353.6</ele>
        <time>2011-04-10T08:21:09Z</time>
      </trkpt>
      <trkpt lat="46.30741" lon="4.68553">
        <ele>353</ele>
        <time>2011-04-10T08:21:10Z</time>
      </trkpt>
      <trkpt lat="46.30768" lon="4.6857">
        <ele>351.4</ele>
        <time>2011-04-10T08:21:12Z</time>
      </trkpt>
      <trkpt lat="46.30795" lon="4.68588">
        <ele>349.8</ele>
        <time>2011-04-10T08:21:14Z</time>
      </trkpt>
      <trkpt lat="46.30809" lon="4.68597">
        <ele>349</ele>
        <time>2011-04-10T08:21:15Z</time>
      </trkpt>
      <trkpt lat="46.30833" lon="4.68619">
        <ele>346.6</ele>
        <time>2011-04-10T08:21:17Z</time>
      </trkpt>
      <trkpt lat="46.30844" lon="4.68628">
        <ele>345.4</ele>
        <time>2011-04-10T08:21:18Z</time>
      </trkpt>
      <trkpt lat="46.30856" lon="4.68642">
        <ele>343.8</ele>
        <time>2011-04-10T08:21:19Z</time>
      </trkpt>
      <trkpt lat="46.30869" lon="4.68657">
        <ele>342.6</ele>
        <time>2011-04-10T08:21:20Z</time>
      </trkpt>
      <trkpt lat="46.30906" lon="4.68691">
        <ele>338</ele>
        <time>2011-04-10T08:21:23Z</time>
      </trkpt>
      <trkpt lat="46.30928" lon="4.6871">
        <ele>335.4</ele>
        <time>2011-04-10T08:21:25Z</time>
      </trkpt>
      <trkpt lat="46.30937" lon="4.68718">
        <ele>334</ele>
        <time>2011-04-10T08:21:26Z</time>
      </trkpt>
      <trkpt lat="46.30945" lon="4.68727">
        <ele>332.8</ele>
        <time>2011-04-10T08:21:27Z</time>
      </trkpt>
      <trkpt lat="46.30952" lon="4.68737">
        <ele>331.8</ele>
        <time>2011-04-10T08:21:28Z</time>
      </trkpt>
      <trkpt lat="46.30958" lon="4.68749">
        <ele>330.6</ele>
        <time>2011-04-10T08:21:29Z</time>
      </trkpt>
      <trkpt lat="46.30972" lon="4.68772">
        <ele>328.6</ele>
        <time>2011-04-10T08:21:31Z</time>
      </trkpt>
      <trkpt lat="46.30977" lon="4.68786">
        <ele>327.6</ele>
        <time>2011-04-10T08:21:32Z</time>
      </trkpt>
      <trkpt lat="46.30982" lon="4.688">
        <ele>326.6</ele>
        <time>2011-04-10T08:21:33Z</time>
      </trkpt>
      <trkpt lat="46.30991" lon="4.68829">
        <ele>324.8</ele>
        <time>2011-04-10T08:21:35Z</time>
      </trkpt>
      <trkpt lat="46.30999" lon="4.68857">
        <ele>323.2</ele>
        <time>2011-04-10T08:21:37Z</time>
      </trkpt>
      <trkpt lat="46.31004" lon="4.68879">
        <ele>321.6</ele>
        <time>2011-04-10T08:21:39Z</time>
      </trkpt>
      <trkpt lat="46.31006" lon="4.68888">
        <ele>320.6</ele>
        <time>2011-04-10T08:21:40Z</time>
      </trkpt>
      <trkpt lat="46.31009" lon="4.68903">
        <ele>319.2</ele>
        <time>2011-04-10T08:21:43Z</time>
      </trkpt>
      <trkpt lat="46.31011" lon="4.68909">
        <ele>317.8</ele>
        <time>2011-04-10T08:21:44Z</time>
      </trkpt>
      <trkpt lat="46.31014" lon="4.68912">
        <ele>316.8</ele>
        <time>2011-04-10T08:21:46Z</time>
      </trkpt>
      <trkpt lat="46.31016" lon="4.68913">
        <ele>316.4</ele>
        <time>2011-04-10T08:21:47Z</time>
      </trkpt>
      <trkpt lat="46.31019" lon="4.68914">
        <ele>316</ele>
        <time>2011-04-10T08:21:48Z</time>
      </trkpt>
      <trkpt lat="46.31036" lon="4.68911">
        <ele>314.4</ele>
        <time>2011-04-10T08:21:53Z</time>
      </trkpt>
      <trkpt lat="46.31052" lon="4.6891">
        <ele>313.8</ele>
        <time>2011-04-10T08:21:57Z</time>
      </trkpt>
      <trkpt lat="46.31056" lon="4.68909">
        <ele>313.6</ele>
        <time>2011-04-10T08:21:58Z</time>
      </trkpt>
      <trkpt lat="46.31079" lon="4.68902">
        <ele>313.2</ele>
        <time>2011-04-10T08:22:02Z</time>
      </trkpt>
      <trkpt lat="46.31103" lon="4.68888">
        <ele>312.6</ele>
        <time>2011-04-10T08:22:07Z</time>
      </trkpt>
      <trkpt lat="46.31109" lon="4.68886">
        <ele>312.4</ele>
        <time>2011-04-10T08:22:08Z</time>
      </trkpt>
      <trkpt lat="46.31124" lon="4.68884">
        <ele>311.8</ele>
        <time>2011-04-10T08:22:11Z</time>
      </trkpt>
      <trkpt lat="46.31137" lon="4.68885">
        <ele>311.6</ele>
        <time>2011-04-10T08:22:13Z</time>
      </trkpt>
      <trkpt lat="46.31143" lon="4.68885">
        <ele>311.4</ele>
        <time>2011-04-10T08:22:14Z</time>
      </trkpt>
      <trkpt lat="46.31149" lon="4.68882">
        <ele>311</ele>
        <time>2011-04-10T08:22:15Z</time>
      </trkpt>
      <trkpt lat="46.31152" lon="4.68869">
        <ele>310.4</ele>
        <time>2011-04-10T08:22:17Z</time>
      </trkpt>
      <trkpt lat="46.3115" lon="4.68859">
        <ele>310.2</ele>
        <time>2011-04-10T08:22:18Z</time>
      </trkpt>
      <trkpt lat="46.31139" lon="4.6883">
        <ele>309.6</ele>
        <time>2011-04-10T08:22:21Z</time>
      </trkpt>
      <trkpt lat="46.31135" lon="4.68821">
        <ele>309.2</ele>
        <time>2011-04-10T08:22:22Z</time>
      </trkpt>
      <trkpt lat="46.31128" lon="4.68799">
        <ele>308.6</ele>
        <time>2011-04-10T08:22:24Z</time>
      </trkpt>
      <trkpt lat="46.31124" lon="4.68788">
        <ele>308.2</ele>
        <time>2011-04-10T08:22:25Z</time>
      </trkpt>
      <trkpt lat="46.31119" lon="4.68764">
        <ele>307.6</ele>
        <time>2011-04-10T08:22:27Z</time>
      </trkpt>
      <trkpt lat="46.31118" lon="4.68739">
        <ele>306.8</ele>
        <time>2011-04-10T08:22:29Z</time>
      </trkpt>
      <trkpt lat="46.31124" lon="4.68714">
        <ele>305.8</ele>
        <time>2011-04-10T08:22:31Z</time>
      </trkpt>
      <trkpt lat="46.31136" lon="4.68694">
        <ele>305</ele>
        <time>2011-04-10T08:22:33Z</time>
      </trkpt>
      <trkpt lat="46.31153" lon="4.6868">
        <ele>304</ele>
        <time>2011-04-10T08:22:35Z</time>
      </trkpt>
      <trkpt lat="46.31173" lon="4.68673">
        <ele>302.8</ele>
        <time>2011-04-10T08:22:37Z</time>
      </trkpt>
      <trkpt lat="46.31183" lon="4.68674">
        <ele>302.4</ele>
        <time>2011-04-10T08:22:38Z</time>
      </trkpt>
      <trkpt lat="46.31213" lon="4.6868">
        <ele>301.2</ele>
        <time>2011-04-10T08:22:41Z</time>
      </trkpt>
      <trkpt lat="46.31233" lon="4.68686">
        <ele>300.2</ele>
        <time>2011-04-10T08:22:43Z</time>
      </trkpt>
      <trkpt lat="46.31253" lon="4.6869">
        <ele>299.2</ele>
        <time>2011-04-10T08:22:45Z</time>
      </trkpt>
      <trkpt lat="46.31274" lon="4.68694">
        <ele>298.2</ele>
        <time>2011-04-10T08:22:47Z</time>
      </trkpt>
      <trkpt lat="46.31285" lon="4.68694">
        <ele>297.4</ele>
        <time>2011-04-10T08:22:48Z</time>
      </trkpt>
      <trkpt lat="46.31304" lon="4.68692">
        <ele>296.4</ele>
        <time>2011-04-10T08:22:50Z</time>
      </trkpt>
      <trkpt lat="46.31312" lon="4.68687">
        <ele>295.6</ele>
        <time>2011-04-10T08:22:51Z</time>
      </trkpt>
      <trkpt lat="46.31319" lon="4.68681">
        <ele>295</ele>
        <time>2011-04-10T08:22:52Z</time>
      </trkpt>
      <trkpt lat="46.31329" lon="4.68669">
        <ele>293.4</ele>
        <time>2011-04-10T08:22:54Z</time>
      </trkpt>
      <trkpt lat="46.31342" lon="4.68661">
        <ele>290.6</ele>
        <time>2011-04-10T08:22:57Z</time>
      </trkpt>
      <trkpt lat="46.31349" lon="4.68661">
        <ele>289</ele>
        <time>2011-04-10T08:22:59Z</time>
      </trkpt>
      <trkpt lat="46.31352" lon="4.68661">
        <ele>288.2</ele>
        <time>2011-04-10T08:23:00Z</time>
      </trkpt>
      <trkpt lat="46.31358" lon="4.68667">
        <ele>285.8</ele>
        <time>2011-04-10T08:23:03Z</time>
      </trkpt>
      <trkpt lat="46.31357" lon="4.68674">
        <ele>284.6</ele>
        <time>2011-04-10T08:23:05Z</time>
      </trkpt>
      <trkpt lat="46.31357" lon="4.68677">
        <ele>284.2</ele>
        <time>2011-04-10T08:23:06Z</time>
      </trkpt>
      <trkpt lat="46.31358" lon="4.6869">
        <ele>282.8</ele>
        <time>2011-04-10T08:23:09Z</time>
      </trkpt>
      <trkpt lat="46.31359" lon="4.68712">
        <ele>281.8</ele>
        <time>2011-04-10T08:23:13Z</time>
      </trkpt>
      <trkpt lat="46.31355" lon="4.68751">
        <ele>280.8</ele>
        <time>2011-04-10T08:23:18Z</time>
      </trkpt>
      <trkpt lat="46.31358" lon="4.68786">
        <ele>280.4</ele>
        <time>2011-04-10T08:23:22Z</time>
      </trkpt>
      <trkpt lat="46.31362" lon="4.68794">
        <ele>280</ele>
        <time>2011-04-10T08:23:23Z</time>
      </trkpt>
      <trkpt lat="46.31368" lon="4.688">
        <ele>279.8</ele>
        <time>2011-04-10T08:23:24Z</time>
      </trkpt>
      <trkpt lat="46.31387" lon="4.68815">
        <ele>279.2</ele>
        <time>2011-04-10T08:23:27Z</time>
      </trkpt>
      <trkpt lat="46.31399" lon="4.68823">
        <ele>278.8</ele>
        <time>2011-04-10T08:23:29Z</time>
      </trkpt>
      <trkpt lat="46.3141" lon="4.68831">
        <ele>278.6</ele>
        <time>2011-04-10T08:23:31Z</time>
      </trkpt>
      <trkpt lat="46.31414" lon="4.68834">
        <ele>278.4</ele>
        <time>2011-04-10T08:23:32Z</time>
      </trkpt>
      <trkpt lat="46.31432" lon="4.68843">
        <ele>278</ele>
        <time>2011-04-10T08:23:36Z</time>
      </trkpt>
      <trkpt lat="46.31436" lon="4.68846">
        <ele>278</ele>
        <time>2011-04-10T08:23:37Z</time>
      </trkpt>
      <trkpt lat="46.31448" lon="4.68854">
        <ele>277.8</ele>
        <time>2011-04-10T08:23:40Z</time>
      </trkpt>
      <trkpt lat="46.31474" lon="4.68864">
        <ele>277.6</ele>
        <time>2011-04-10T08:23:46Z</time>
      </trkpt>
      <trkpt lat="46.31484" lon="4.68865">
        <ele>277.6</ele>
        <time>2011-04-10T08:23:52Z</time>
      </trkpt>
      <trkpt lat="46.31499" lon="4.68866">
        <ele>277.6</ele>
        <time>2011-04-10T08:23:57Z</time>
      </trkpt>
      <trkpt lat="46.31507" lon="4.68867">
        <ele>278</ele>
        <time>2011-04-10T08:23:59Z</time>
      </trkpt>
      <trkpt lat="46.31512" lon="4.68867">
        <ele>278.2</ele>
        <time>2011-04-10T08:24:00Z</time>
      </trkpt>
      <trkpt lat="46.31525" lon="4.68859">
        <ele>278.6</ele>
        <time>2011-04-10T08:24:03Z</time>
      </trkpt>
      <trkpt lat="46.31531" lon="4.68849">
        <ele>278.8</ele>
        <time>2011-04-10T08:24:05Z</time>
      </trkpt>
      <trkpt lat="46.31533" lon="4.68844">
        <ele>278.8</ele>
        <time>2011-04-10T08:24:06Z</time>
      </trkpt>
      <trkpt lat="46.31545" lon="4.68825">
        <ele>279</ele>
        <time>2011-04-10T08:24:12Z</time>
      </trkpt>
      <trkpt lat="46.3156" lon="4.6882">
        <ele>279.2</ele>
        <time>2011-04-10T08:24:16Z</time>
      </trkpt>
      <trkpt lat="46.31563" lon="4.68821">
        <ele>279</ele>
        <time>2011-04-10T08:24:17Z</time>
      </trkpt>
      <trkpt lat="46.31566" lon="4.68822">
        <ele>278.8</ele>
        <time>2011-04-10T08:24:18Z</time>
      </trkpt>
      <trkpt lat="46.31569" lon="4.68823">
        <ele>278.8</ele>
        <time>2011-04-10T08:24:19Z</time>
      </trkpt>
      <trkpt lat="46.31575" lon="4.68824">
        <ele>278.4</ele>
        <time>2011-04-10T08:24:21Z</time>
      </trkpt>
      <trkpt lat="46.31581" lon="4.68821">
        <ele>278.2</ele>
        <time>2011-04-10T08:24:23Z</time>
      </trkpt>
      <trkpt lat="46.31583" lon="4.6882">
        <ele>278.2</ele>
        <time>2011-04-10T08:24:24Z</time>
      </trkpt>
      <trkpt lat="46.31596" lon="4.6883">
        <ele>277.8</ele>
        <time>2011-04-10T08:24:31Z</time>
      </trkpt>
      <trkpt lat="46.31603" lon="4.68834">
        <ele>277.6</ele>
        <time>2011-04-10T08:24:37Z</time>
      </trkpt>
      <trkpt lat="46.31603" lon="4.68833">
        <ele>277.6</ele>
        <time>2011-04-10T08:24:43Z</time>
      </trkpt>
      <trkpt lat="46.31603" lon="4.68834">
        <ele>277.6</ele>
        <time>2011-04-10T08:24:46Z</time>
      </trkpt>
      <trkpt lat="46.31618" lon="4.68853">
        <ele>277.4</ele>
        <time>2011-04-10T08:24:54Z</time>
      </trkpt>
      <trkpt lat="46.31627" lon="4.68867">
        <ele>277.4</ele>
        <time>2011-04-10T08:24:59Z</time>
      </trkpt>
      <trkpt lat="46.31635" lon="4.68879">
        <ele>277.4</ele>
        <time>2011-04-10T08:25:04Z</time>
      </trkpt>
      <trkpt lat="46.31637" lon="4.68882">
        <ele>277.6</ele>
        <time>2011-04-10T08:25:05Z</time>
      </trkpt>
      <trkpt lat="46.31641" lon="4.68887">
        <ele>278</ele>
        <time>2011-04-10T08:25:07Z</time>
      </trkpt>
      <trkpt lat="46.31644" lon="4.68892">
        <ele>278.4</ele>
        <time>2011-04-10T08:25:09Z</time>
      </trkpt>
      <trkpt lat="46.31648" lon="4.68897">
        <ele>278.6</ele>
        <time>2011-04-10T08:25:11Z</time>
      </trkpt>
      <trkpt lat="46.31651" lon="4.68902">
        <ele>278.8</ele>
        <time>2011-04-10T08:25:13Z</time>
      </trkpt>
      <trkpt lat="46.31656" lon="4.6891">
        <ele>279.2</ele>
        <time>2011-04-10T08:25:16Z</time>
      </trkpt>
      <trkpt lat="46.3166" lon="4.68917">
        <ele>279.8</ele>
        <time>2011-04-10T08:25:18Z</time>
      </trkpt>
      <trkpt lat="46.31665" lon="4.68923">
        <ele>280.2</ele>
        <time>2011-04-10T08:25:20Z</time>
      </trkpt>
      <trkpt lat="46.3167" lon="4.68929">
        <ele>280.4</ele>
        <time>2011-04-10T08:25:22Z</time>
      </trkpt>
      <trkpt lat="46.31675" lon="4.68936">
        <ele>280.8</ele>
        <time>2011-04-10T08:25:24Z</time>
      </trkpt>
      <trkpt lat="46.3169" lon="4.68956">
        <ele>281.2</ele>
        <time>2011-04-10T08:25:29Z</time>
      </trkpt>
      <trkpt lat="46.31699" lon="4.68981">
        <ele>281.4</ele>
        <time>2011-04-10T08:25:33Z</time>
      </trkpt>
      <trkpt lat="46.31706" lon="4.6902">
        <ele>281.6</ele>
        <time>2011-04-10T08:25:39Z</time>
      </trkpt>
      <trkpt lat="46.31707" lon="4.69027">
        <ele>281.8</ele>
        <time>2011-04-10T08:25:40Z</time>
      </trkpt>
      <trkpt lat="46.31708" lon="4.69034">
        <ele>281.8</ele>
        <time>2011-04-10T08:25:41Z</time>
      </trkpt>
      <trkpt lat="46.31722" lon="4.69067">
        <ele>281.8</ele>
        <time>2011-04-10T08:25:46Z</time>
      </trkpt>
      <trkpt lat="46.31725" lon="4.69073">
        <ele>281.8</ele>
        <time>2011-04-10T08:25:47Z</time>
      </trkpt>
      <trkpt lat="46.31746" lon="4.69108">
        <ele>281.8</ele>
        <time>2011-04-10T08:25:53Z</time>
      </trkpt>
      <trkpt lat="46.31763" lon="4.69133">
        <ele>281.8</ele>
        <time>2011-04-10T08:25:58Z</time>
      </trkpt>
      <trkpt lat="46.3178" lon="4.69146">
        <ele>282</ele>
        <time>2011-04-10T08:26:02Z</time>
      </trkpt>
      <trkpt lat="46.31793" lon="4.6915">
        <ele>282.2</ele>
        <time>2011-04-10T08:26:05Z</time>
      </trkpt>
      <trkpt lat="46.31802" lon="4.69151">
        <ele>282.6</ele>
        <time>2011-04-10T08:26:07Z</time>
      </trkpt>
      <trkpt lat="46.31809" lon="4.69151">
        <ele>282.8</ele>
        <time>2011-04-10T08:26:09Z</time>
      </trkpt>
      <trkpt lat="46.31816" lon="4.6915">
        <ele>283</ele>
        <time>2011-04-10T08:26:11Z</time>
      </trkpt>
      <trkpt lat="46.31824" lon="4.69146">
        <ele>283.4</ele>
        <time>2011-04-10T08:26:13Z</time>
      </trkpt>
      <trkpt lat="46.31854" lon="4.69136">
        <ele>283.8</ele>
        <time>2011-04-10T08:26:20Z</time>
      </trkpt>
      <trkpt lat="46.31877" lon="4.69124">
        <ele>284</ele>
        <time>2011-04-10T08:26:25Z</time>
      </trkpt>
      <trkpt lat="46.31882" lon="4.69122">
        <ele>284.2</ele>
        <time>2011-04-10T08:26:26Z</time>
      </trkpt>
      <trkpt lat="46.31889" lon="4.6912">
        <ele>284.6</ele>
        <time>2011-04-10T08:26:28Z</time>
      </trkpt>
      <trkpt lat="46.31893" lon="4.69119">
        <ele>284.8</ele>
        <time>2011-04-10T08:26:29Z</time>
      </trkpt>
      <trkpt lat="46.31898" lon="4.69119">
        <ele>285</ele>
        <time>2011-04-10T08:26:30Z</time>
      </trkpt>
      <trkpt lat="46.31906" lon="4.6912">
        <ele>285.2</ele>
        <time>2011-04-10T08:26:32Z</time>
      </trkpt>
      <trkpt lat="46.31914" lon="4.69122">
        <ele>285.4</ele>
        <time>2011-04-10T08:26:34Z</time>
      </trkpt>
      <trkpt lat="46.31917" lon="4.69123">
        <ele>285.8</ele>
        <time>2011-04-10T08:26:35Z</time>
      </trkpt>
      <trkpt lat="46.31923" lon="4.69126">
        <ele>286.2</ele>
        <time>2011-04-10T08:26:37Z</time>
      </trkpt>
      <trkpt lat="46.31929" lon="4.69131">
        <ele>286.6</ele>
        <time>2011-04-10T08:26:39Z</time>
      </trkpt>
      <trkpt lat="46.31934" lon="4.69136">
        <ele>287</ele>
        <time>2011-04-10T08:26:41Z</time>
      </trkpt>
      <trkpt lat="46.31939" lon="4.69141">
        <ele>287.4</ele>
        <time>2011-04-10T08:26:43Z</time>
      </trkpt>
      <trkpt lat="46.31945" lon="4.69146">
        <ele>288</ele>
        <time>2011-04-10T08:26:45Z</time>
      </trkpt>
      <trkpt lat="46.31951" lon="4.69152">
        <ele>288.6</ele>
        <time>2011-04-10T08:26:47Z</time>
      </trkpt>
      <trkpt lat="46.31958" lon="4.69159">
        <ele>289</ele>
        <time>2011-04-10T08:26:49Z</time>
      </trkpt>
      <trkpt lat="46.31963" lon="4.69167">
        <ele>289.2</ele>
        <time>2011-04-10T08:26:51Z</time>
      </trkpt>
      <trkpt lat="46.31975" lon="4.69191">
        <ele>289.8</ele>
        <time>2011-04-10T08:26:56Z</time>
      </trkpt>
      <trkpt lat="46.31985" lon="4.69212">
        <ele>290.2</ele>
        <time>2011-04-10T08:27:01Z</time>
      </trkpt>
      <trkpt lat="46.31997" lon="4.69231">
        <ele>290.4</ele>
        <time>2011-04-10T08:27:06Z</time>
      </trkpt>
      <trkpt lat="46.31999" lon="4.69235">
        <ele>290.6</ele>
        <time>2011-04-10T08:27:07Z</time>
      </trkpt>
      <trkpt lat="46.32005" lon="4.69242">
        <ele>291</ele>
        <time>2011-04-10T08:27:09Z</time>
      </trkpt>
      <trkpt lat="46.3201" lon="4.6925">
        <ele>291.4</ele>
        <time>2011-04-10T08:27:11Z</time>
      </trkpt>
      <trkpt lat="46.32015" lon="4.69258">
        <ele>291.6</ele>
        <time>2011-04-10T08:27:13Z</time>
      </trkpt>
      <trkpt lat="46.32018" lon="4.69262">
        <ele>291.8</ele>
        <time>2011-04-10T08:27:14Z</time>
      </trkpt>
      <trkpt lat="46.32021" lon="4.69266">
        <ele>292</ele>
        <time>2011-04-10T08:27:15Z</time>
      </trkpt>
      <trkpt lat="46.32027" lon="4.69278">
        <ele>292.2</ele>
        <time>2011-04-10T08:27:18Z</time>
      </trkpt>
      <trkpt lat="46.32033" lon="4.6929">
        <ele>292.6</ele>
        <time>2011-04-10T08:27:21Z</time>
      </trkpt>
      <trkpt lat="46.32035" lon="4.69296">
        <ele>293</ele>
        <time>2011-04-10T08:27:23Z</time>
      </trkpt>
      <trkpt lat="46.32038" lon="4.69303">
        <ele>293.4</ele>
        <time>2011-04-10T08:27:25Z</time>
      </trkpt>
      <trkpt lat="46.3204" lon="4.69311">
        <ele>293.8</ele>
        <time>2011-04-10T08:27:27Z</time>
      </trkpt>
      <trkpt lat="46.32044" lon="4.6932">
        <ele>294</ele>
        <time>2011-04-10T08:27:29Z</time>
      </trkpt>
      <trkpt lat="46.32047" lon="4.69328">
        <ele>294.4</ele>
        <time>2011-04-10T08:27:31Z</time>
      </trkpt>
      <trkpt lat="46.32049" lon="4.69336">
        <ele>295</ele>
        <time>2011-04-10T08:27:33Z</time>
      </trkpt>
      <trkpt lat="46.32052" lon="4.69343">
        <ele>295.4</ele>
        <time>2011-04-10T08:27:35Z</time>
      </trkpt>
      <trkpt lat="46.32054" lon="4.69349">
        <ele>295.8</ele>
        <time>2011-04-10T08:27:37Z</time>
      </trkpt>
      <trkpt lat="46.32056" lon="4.69354">
        <ele>296</ele>
        <time>2011-04-10T08:27:39Z</time>
      </trkpt>
      <trkpt lat="46.32057" lon="4.69357">
        <ele>296.4</ele>
        <time>2011-04-10T08:27:40Z</time>
      </trkpt>
      <trkpt lat="46.3206" lon="4.69365">
        <ele>297</ele>
        <time>2011-04-10T08:27:42Z</time>
      </trkpt>
      <trkpt lat="46.32063" lon="4.69372">
        <ele>297.4</ele>
        <time>2011-04-10T08:27:44Z</time>
      </trkpt>
      <trkpt lat="46.32065" lon="4.69377">
        <ele>297.8</ele>
        <time>2011-04-10T08:27:46Z</time>
      </trkpt>
      <trkpt lat="46.32066" lon="4.69381">
        <ele>298.2</ele>
        <time>2011-04-10T08:27:48Z</time>
      </trkpt>
      <trkpt lat="46.32067" lon="4.69384">
        <ele>298.2</ele>
        <time>2011-04-10T08:27:49Z</time>
      </trkpt>
      <trkpt lat="46.32069" lon="4.6939">
        <ele>298.6</ele>
        <time>2011-04-10T08:27:51Z</time>
      </trkpt>
      <trkpt lat="46.32072" lon="4.69396">
        <ele>299.2</ele>
        <time>2011-04-10T08:27:53Z</time>
      </trkpt>
      <trkpt lat="46.32074" lon="4.69398">
        <ele>299.4</ele>
        <time>2011-04-10T08:27:54Z</time>
      </trkpt>
      <trkpt lat="46.32075" lon="4.69401">
        <ele>299.8</ele>
        <time>2011-04-10T08:27:55Z</time>
      </trkpt>
      <trkpt lat="46.32079" lon="4.69407">
        <ele>300</ele>
        <time>2011-04-10T08:27:57Z</time>
      </trkpt>
      <trkpt lat="46.32082" lon="4.69411">
        <ele>300.4</ele>
        <time>2011-04-10T08:27:59Z</time>
      </trkpt>
      <trkpt lat="46.32084" lon="4.69414">
        <ele>300.6</ele>
        <time>2011-04-10T08:28:00Z</time>
      </trkpt>
      <trkpt lat="46.32088" lon="4.69417">
        <ele>301</ele>
        <time>2011-04-10T08:28:02Z</time>
      </trkpt>
      <trkpt lat="46.32095" lon="4.6942">
        <ele>301.4</ele>
        <time>2011-04-10T08:28:04Z</time>
      </trkpt>
      <trkpt lat="46.32098" lon="4.69421">
        <ele>301.6</ele>
        <time>2011-04-10T08:28:05Z</time>
      </trkpt>
      <trkpt lat="46.32111" lon="4.69423">
        <ele>302.2</ele>
        <time>2011-04-10T08:28:08Z</time>
      </trkpt>
      <trkpt lat="46.32119" lon="4.69423">
        <ele>302.6</ele>
        <time>2011-04-10T08:28:10Z</time>
      </trkpt>
      <trkpt lat="46.32127" lon="4.69422">
        <ele>303</ele>
        <time>2011-04-10T08:28:12Z</time>
      </trkpt>
      <trkpt lat="46.32133" lon="4.69422">
        <ele>303.6</ele>
        <time>2011-04-10T08:28:14Z</time>
      </trkpt>
      <trkpt lat="46.32137" lon="4.69423">
        <ele>304</ele>
        <time>2011-04-10T08:28:16Z</time>
      </trkpt>
      <trkpt lat="46.32141" lon="4.69423">
        <ele>304.4</ele>
        <time>2011-04-10T08:28:18Z</time>
      </trkpt>
      <trkpt lat="46.32144" lon="4.69424">
        <ele>304.8</ele>
        <time>2011-04-10T08:28:20Z</time>
      </trkpt>
      <trkpt lat="46.32147" lon="4.69425">
        <ele>305.2</ele>
        <time>2011-04-10T08:28:25Z</time>
      </trkpt>
      <trkpt lat="46.32146" lon="4.69425">
        <ele>305.6</ele>
        <time>2011-04-10T08:28:31Z</time>
      </trkpt>
      <trkpt lat="46.32146" lon="4.69425">
        <ele>305.8</ele>
        <time>2011-04-10T08:28:39Z</time>
      </trkpt>
      <trkpt lat="46.32147" lon="4.69425">
        <ele>306</ele>
        <time>2011-04-10T08:28:48Z</time>
      </trkpt>
      <trkpt lat="46.32161" lon="4.69418">
        <ele>306</ele>
        <time>2011-04-10T08:28:53Z</time>
      </trkpt>
      <trkpt lat="46.32173" lon="4.69416">
        <ele>306</ele>
        <time>2011-04-10T08:28:59Z</time>
      </trkpt>
      <trkpt lat="46.32175" lon="4.69415">
        <ele>305.8</ele>
        <time>2011-04-10T08:29:00Z</time>
      </trkpt>
      <trkpt lat="46.32178" lon="4.69415">
        <ele>305.4</ele>
        <time>2011-04-10T08:29:02Z</time>
      </trkpt>
      <trkpt lat="46.3218" lon="4.69415">
        <ele>305.2</ele>
        <time>2011-04-10T08:29:04Z</time>
      </trkpt>
      <trkpt lat="46.32183" lon="4.69414">
        <ele>305</ele>
        <time>2011-04-10T08:29:06Z</time>
      </trkpt>
      <trkpt lat="46.32187" lon="4.69414">
        <ele>304.6</ele>
        <time>2011-04-10T08:29:08Z</time>
      </trkpt>
      <trkpt lat="46.3219" lon="4.69413">
        <ele>304</ele>
        <time>2011-04-10T08:29:10Z</time>
      </trkpt>
      <trkpt lat="46.32193" lon="4.69412">
        <ele>303.6</ele>
        <time>2011-04-10T08:29:12Z</time>
      </trkpt>
      <trkpt lat="46.32196" lon="4.6941">
        <ele>303.2</ele>
        <time>2011-04-10T08:29:14Z</time>
      </trkpt>
      <trkpt lat="46.32199" lon="4.69407">
        <ele>303</ele>
        <time>2011-04-10T08:29:16Z</time>
      </trkpt>
      <trkpt lat="46.32204" lon="4.69397">
        <ele>302.4</ele>
        <time>2011-04-10T08:29:20Z</time>
      </trkpt>
      <trkpt lat="46.32205" lon="4.69391">
        <ele>301.8</ele>
        <time>2011-04-10T08:29:22Z</time>
      </trkpt>
      <trkpt lat="46.32207" lon="4.69386">
        <ele>301.4</ele>
        <time>2011-04-10T08:29:24Z</time>
      </trkpt>
      <trkpt lat="46.32208" lon="4.6938">
        <ele>301</ele>
        <time>2011-04-10T08:29:26Z</time>
      </trkpt>
      <trkpt lat="46.3221" lon="4.69372">
        <ele>300.8</ele>
        <time>2011-04-10T08:29:28Z</time>
      </trkpt>
      <trkpt lat="46.32213" lon="4.69352">
        <ele>300</ele>
        <time>2011-04-10T08:29:32Z</time>
      </trkpt>
      <trkpt lat="46.32214" lon="4.69339">
        <ele>299.6</ele>
        <time>2011-04-10T08:29:34Z</time>
      </trkpt>
      <trkpt lat="46.32215" lon="4.69333">
        <ele>299.4</ele>
        <time>2011-04-10T08:29:35Z</time>
      </trkpt>
      <trkpt lat="46.32216" lon="4.69315">
        <ele>298.8</ele>
        <time>2011-04-10T08:29:38Z</time>
      </trkpt>
      <trkpt lat="46.32224" lon="4.69305">
        <ele>298.6</ele>
        <time>2011-04-10T08:29:40Z</time>
      </trkpt>
      <trkpt lat="46.32229" lon="4.69299">
        <ele>298.4</ele>
        <time>2011-04-10T08:29:41Z</time>
      </trkpt>
      <trkpt lat="46.32251" lon="4.69282">
        <ele>298</ele>
        <time>2011-04-10T08:29:45Z</time>
      </trkpt>
      <trkpt lat="46.32266" lon="4.69272">
        <ele>297.2</ele>
        <time>2011-04-10T08:29:48Z</time>
      </trkpt>
      <trkpt lat="46.32271" lon="4.69271">
        <ele>297</ele>
        <time>2011-04-10T08:29:49Z</time>
      </trkpt>
      <trkpt lat="46.32287" lon="4.69272">
        <ele>296.6</ele>
        <time>2011-04-10T08:29:52Z</time>
      </trkpt>
      <trkpt lat="46.32299" lon="4.69271">
        <ele>296.2</ele>
        <time>2011-04-10T08:29:54Z</time>
      </trkpt>
      <trkpt lat="46.32314" lon="4.69269">
        <ele>295.8</ele>
        <time>2011-04-10T08:29:57Z</time>
      </trkpt>
      <trkpt lat="46.32325" lon="4.69268">
        <ele>295.2</ele>
        <time>2011-04-10T08:29:59Z</time>
      </trkpt>
      <trkpt lat="46.32331" lon="4.69267">
        <ele>295</ele>
        <time>2011-04-10T08:30:00Z</time>
      </trkpt>
      <trkpt lat="46.32336" lon="4.69266">
        <ele>294.8</ele>
        <time>2011-04-10T08:30:01Z</time>
      </trkpt>
      <trkpt lat="46.32342" lon="4.69265">
        <ele>294.6</ele>
        <time>2011-04-10T08:30:02Z</time>
      </trkpt>
      <trkpt lat="46.32353" lon="4.69265">
        <ele>294.4</ele>
        <time>2011-04-10T08:30:04Z</time>
      </trkpt>
      <trkpt lat="46.32358" lon="4.69266">
        <ele>294.2</ele>
        <time>2011-04-10T08:30:05Z</time>
      </trkpt>
      <trkpt lat="46.3237" lon="4.69268">
        <ele>293.8</ele>
        <time>2011-04-10T08:30:07Z</time>
      </trkpt>
      <trkpt lat="46.32382" lon="4.69271">
        <ele>293.4</ele>
        <time>2011-04-10T08:30:09Z</time>
      </trkpt>
      <trkpt lat="46.32394" lon="4.69274">
        <ele>293</ele>
        <time>2011-04-10T08:30:11Z</time>
      </trkpt>
      <trkpt lat="46.32406" lon="4.69278">
        <ele>292.6</ele>
        <time>2011-04-10T08:30:13Z</time>
      </trkpt>
      <trkpt lat="46.32419" lon="4.69282">
        <ele>292.2</ele>
        <time>2011-04-10T08:30:15Z</time>
      </trkpt>
      <trkpt lat="46.32433" lon="4.69287">
        <ele>291.6</ele>
        <time>2011-04-10T08:30:17Z</time>
      </trkpt>
      <trkpt lat="46.32448" lon="4.69291">
        <ele>291</ele>
        <time>2011-04-10T08:30:19Z</time>
      </trkpt>
      <trkpt lat="46.32456" lon="4.69293">
        <ele>290.6</ele>
        <time>2011-04-10T08:30:20Z</time>
      </trkpt>
      <trkpt lat="46.32471" lon="4.69296">
        <ele>290</ele>
        <time>2011-04-10T08:30:22Z</time>
      </trkpt>
      <trkpt lat="46.32486" lon="4.69298">
        <ele>289.4</ele>
        <time>2011-04-10T08:30:24Z</time>
      </trkpt>
      <trkpt lat="46.32493" lon="4.69299">
        <ele>288.8</ele>
        <time>2011-04-10T08:30:25Z</time>
      </trkpt>
      <trkpt lat="46.32501" lon="4.693">
        <ele>288.4</ele>
        <time>2011-04-10T08:30:26Z</time>
      </trkpt>
      <trkpt lat="46.32508" lon="4.69301">
        <ele>288</ele>
        <time>2011-04-10T08:30:27Z</time>
      </trkpt>
      <trkpt lat="46.32516" lon="4.69303">
        <ele>287.6</ele>
        <time>2011-04-10T08:30:28Z</time>
      </trkpt>
      <trkpt lat="46.32538" lon="4.69313">
        <ele>286.2</ele>
        <time>2011-04-10T08:30:31Z</time>
      </trkpt>
      <trkpt lat="46.32549" lon="4.69322">
        <ele>285.2</ele>
        <time>2011-04-10T08:30:33Z</time>
      </trkpt>
      <trkpt lat="46.32554" lon="4.69327">
        <ele>284.6</ele>
        <time>2011-04-10T08:30:34Z</time>
      </trkpt>
      <trkpt lat="46.3256" lon="4.69335">
        <ele>283.4</ele>
        <time>2011-04-10T08:30:36Z</time>
      </trkpt>
      <trkpt lat="46.32562" lon="4.69338">
        <ele>282.2</ele>
        <time>2011-04-10T08:30:38Z</time>
      </trkpt>
      <trkpt lat="46.32561" lon="4.69339">
        <ele>281.2</ele>
        <time>2011-04-10T08:30:40Z</time>
      </trkpt>
      <trkpt lat="46.3256" lon="4.69338">
        <ele>280.4</ele>
        <time>2011-04-10T08:30:42Z</time>
      </trkpt>
      <trkpt lat="46.3256" lon="4.69338">
        <ele>279.8</ele>
        <time>2011-04-10T08:30:44Z</time>
      </trkpt>
      <trkpt lat="46.3256" lon="4.69337">
        <ele>278.8</ele>
        <time>2011-04-10T08:30:47Z</time>
      </trkpt>
      <trkpt lat="46.32561" lon="4.69336">
        <ele>278.6</ele>
        <time>2011-04-10T08:30:48Z</time>
      </trkpt>
      <trkpt lat="46.32562" lon="4.69334">
        <ele>278.2</ele>
        <time>2011-04-10T08:30:49Z</time>
      </trkpt>
      <trkpt lat="46.32563" lon="4.69327">
        <ele>277.6</ele>
        <time>2011-04-10T08:30:51Z</time>
      </trkpt>
      <trkpt lat="46.32561" lon="4.69317">
        <ele>277.2</ele>
        <time>2011-04-10T08:30:53Z</time>
      </trkpt>
      <trkpt lat="46.32557" lon="4.69307">
        <ele>276.8</ele>
        <time>2011-04-10T08:30:55Z</time>
      </trkpt>
      <trkpt lat="46.32545" lon="4.6929">
        <ele>276</ele>
        <time>2011-04-10T08:30:59Z</time>
      </trkpt>
      <trkpt lat="46.32537" lon="4.69278">
        <ele>275.4</ele>
        <time>2011-04-10T08:31:01Z</time>
      </trkpt>
      <trkpt lat="46.32533" lon="4.69272">
        <ele>274.8</ele>
        <time>2011-04-10T08:31:02Z</time>
      </trkpt>
      <trkpt lat="46.32528" lon="4.69265">
        <ele>274</ele>
        <time>2011-04-10T08:31:04Z</time>
      </trkpt>
      <trkpt lat="46.32529" lon="4.69262">
        <ele>273.4</ele>
        <time>2011-04-10T08:31:05Z</time>
      </trkpt>
      <trkpt lat="46.32536" lon="4.69261">
        <ele>272.4</ele>
        <time>2011-04-10T08:31:07Z</time>
      </trkpt>
      <trkpt lat="46.32541" lon="4.69261">
        <ele>271.8</ele>
        <time>2011-04-10T08:31:08Z</time>
      </trkpt>
      <trkpt lat="46.32546" lon="4.69262">
        <ele>271.2</ele>
        <time>2011-04-10T08:31:09Z</time>
      </trkpt>
      <trkpt lat="46.3255" lon="4.69264">
        <ele>270.6</ele>
        <time>2011-04-10T08:31:10Z</time>
      </trkpt>
      <trkpt lat="46.32555" lon="4.69265">
        <ele>270</ele>
        <time>2011-04-10T08:31:11Z</time>
      </trkpt>
      <trkpt lat="46.32568" lon="4.69269">
        <ele>269</ele>
        <time>2011-04-10T08:31:13Z</time>
      </trkpt>
      <trkpt lat="46.32583" lon="4.69273">
        <ele>267.8</ele>
        <time>2011-04-10T08:31:15Z</time>
      </trkpt>
      <trkpt lat="46.3259" lon="4.69276">
        <ele>267.2</ele>
        <time>2011-04-10T08:31:16Z</time>
      </trkpt>
      <trkpt lat="46.32596" lon="4.6928">
        <ele>266.4</ele>
        <time>2011-04-10T08:31:17Z</time>
      </trkpt>
      <trkpt lat="46.326" lon="4.6928">
        <ele>265.6</ele>
        <time>2011-04-10T08:31:18Z</time>
      </trkpt>
      <trkpt lat="46.32601" lon="4.69273">
        <ele>263.8</ele>
        <time>2011-04-10T08:31:20Z</time>
      </trkpt>
      <trkpt lat="46.32598" lon="4.69266">
        <ele>263</ele>
        <time>2011-04-10T08:31:21Z</time>
      </trkpt>
      <trkpt lat="46.32583" lon="4.69235">
        <ele>260.6</ele>
        <time>2011-04-10T08:31:24Z</time>
      </trkpt>
      <trkpt lat="46.32573" lon="4.69215">
        <ele>259.2</ele>
        <time>2011-04-10T08:31:26Z</time>
      </trkpt>
      <trkpt lat="46.32569" lon="4.69207">
        <ele>258.2</ele>
        <time>2011-04-10T08:31:27Z</time>
      </trkpt>
      <trkpt lat="46.3256" lon="4.69193">
        <ele>256.6</ele>
        <time>2011-04-10T08:31:29Z</time>
      </trkpt>
      <trkpt lat="46.32558" lon="4.69186">
        <ele>255.6</ele>
        <time>2011-04-10T08:31:30Z</time>
      </trkpt>
      <trkpt lat="46.32558" lon="4.69178">
        <ele>254.6</ele>
        <time>2011-04-10T08:31:31Z</time>
      </trkpt>
      <trkpt lat="46.32561" lon="4.69159">
        <ele>252.6</ele>
        <time>2011-04-10T08:31:33Z</time>
      </trkpt>
      <trkpt lat="46.32564" lon="4.69149">
        <ele>251.6</ele>
        <time>2011-04-10T08:31:34Z</time>
      </trkpt>
      <trkpt lat="46.32572" lon="4.6912">
        <ele>248.4</ele>
        <time>2011-04-10T08:31:37Z</time>
      </trkpt>
      <trkpt lat="46.32577" lon="4.69102">
        <ele>246</ele>
        <time>2011-04-10T08:31:39Z</time>
      </trkpt>
      <trkpt lat="46.32581" lon="4.69093">
        <ele>244.8</ele>
        <time>2011-04-10T08:31:40Z</time>
      </trkpt>
      <trkpt lat="46.32584" lon="4.69084">
        <ele>243.6</ele>
        <time>2011-04-10T08:31:41Z</time>
      </trkpt>
      <trkpt lat="46.3259" lon="4.69067">
        <ele>241.2</ele>
        <time>2011-04-10T08:31:43Z</time>
      </trkpt>
      <trkpt lat="46.32595" lon="4.6905">
        <ele>239</ele>
        <time>2011-04-10T08:31:45Z</time>
      </trkpt>
      <trkpt lat="46.32598" lon="4.69041">
        <ele>238</ele>
        <time>2011-04-10T08:31:46Z</time>
      </trkpt>
      <trkpt lat="46.32601" lon="4.69033">
        <ele>237</ele>
        <time>2011-04-10T08:31:47Z</time>
      </trkpt>
      <trkpt lat="46.32604" lon="4.69026">
        <ele>235.8</ele>
        <time>2011-04-10T08:31:48Z</time>
      </trkpt>
      <trkpt lat="46.32608" lon="4.69016">
        <ele>233.6</ele>
        <time>2011-04-10T08:31:50Z</time>
      </trkpt>
      <trkpt lat="46.3261" lon="4.69011">
        <ele>231.6</ele>
        <time>2011-04-10T08:31:52Z</time>
      </trkpt>
      <trkpt lat="46.3261" lon="4.69009">
        <ele>230.4</ele>
        <time>2011-04-10T08:31:53Z</time>
      </trkpt>
      <trkpt lat="46.32611" lon="4.69007">
        <ele>228.6</ele>
        <time>2011-04-10T08:31:55Z</time>
      </trkpt>
      <trkpt lat="46.32611" lon="4.69007">
        <ele>227.8</ele>
        <time>2011-04-10T08:31:56Z</time>
      </trkpt>
      <trkpt lat="46.32611" lon="4.69007">
        <ele>227</ele>
        <time>2011-04-10T08:31:57Z</time>
      </trkpt>
      <trkpt lat="46.32612" lon="4.69006">
        <ele>225.8</ele>
        <time>2011-04-10T08:31:59Z</time>
      </trkpt>
      <trkpt lat="46.32611" lon="4.69007">
        <ele>224.8</ele>
        <time>2011-04-10T08:32:01Z</time>
      </trkpt>
      <trkpt lat="46.32611" lon="4.69007">
        <ele>224.4</ele>
        <time>2011-04-10T08:32:02Z</time>
      </trkpt>
      <trkpt lat="46.32613" lon="4.69001">
        <ele>223.2</ele>
        <time>2011-04-10T08:32:05Z</time>
      </trkpt>
      <trkpt lat="46.32618" lon="4.68986">
        <ele>222.4</ele>
        <time>2011-04-10T08:32:08Z</time>
      </trkpt>
      <trkpt lat="46.32622" lon="4.68976">
        <ele>221.6</ele>
        <time>2011-04-10T08:32:10Z</time>
      </trkpt>
      <trkpt lat="46.32626" lon="4.68965">
        <ele>220.6</ele>
        <time>2011-04-10T08:32:12Z</time>
      </trkpt>
      <trkpt lat="46.32629" lon="4.68954">
        <ele>219.8</ele>
        <time>2011-04-10T08:32:14Z</time>
      </trkpt>
      <trkpt lat="46.32631" lon="4.68947">
        <ele>219</ele>
        <time>2011-04-10T08:32:16Z</time>
      </trkpt>
      <trkpt lat="46.32633" lon="4.68946">
        <ele>218.4</ele>
        <time>2011-04-10T08:32:17Z</time>
      </trkpt>
      <trkpt lat="46.32634" lon="4.68944">
        <ele>218</ele>
        <time>2011-04-10T08:32:18Z</time>
      </trkpt>
      <trkpt lat="46.32637" lon="4.68943">
        <ele>217.4</ele>
        <time>2011-04-10T08:32:19Z</time>
      </trkpt>
      <trkpt lat="46.32642" lon="4.68944">
        <ele>216.8</ele>
        <time>2011-04-10T08:32:21Z</time>
      </trkpt>
      <trkpt lat="46.32645" lon="4.68946">
        <ele>216.4</ele>
        <time>2011-04-10T08:32:22Z</time>
      </trkpt>
      <trkpt lat="46.32652" lon="4.6895">
        <ele>215.8</ele>
        <time>2011-04-10T08:32:24Z</time>
      </trkpt>
      <trkpt lat="46.32658" lon="4.68938">
        <ele>215</ele>
        <time>2011-04-10T08:32:28Z</time>
      </trkpt>
      <trkpt lat="46.32659" lon="4.68931">
        <ele>214.8</ele>
        <time>2011-04-10T08:32:29Z</time>
      </trkpt>
      <trkpt lat="46.32668" lon="4.68913">
        <ele>214.4</ele>
        <time>2011-04-10T08:32:32Z</time>
      </trkpt>
      <trkpt lat="46.32682" lon="4.68895">
        <ele>213.6</ele>
        <time>2011-04-10T08:32:35Z</time>
      </trkpt>
      <trkpt lat="46.3269" lon="4.68881">
        <ele>213</ele>
        <time>2011-04-10T08:32:37Z</time>
      </trkpt>
      <trkpt lat="46.32694" lon="4.68875">
        <ele>212.8</ele>
        <time>2011-04-10T08:32:38Z</time>
      </trkpt>
      <trkpt lat="46.32701" lon="4.68866">
        <ele>212.4</ele>
        <time>2011-04-10T08:32:40Z</time>
      </trkpt>
      <trkpt lat="46.32708" lon="4.68867">
        <ele>211.6</ele>
        <time>2011-04-10T08:32:42Z</time>
      </trkpt>
      <trkpt lat="46.32714" lon="4.68875">
        <ele>211.2</ele>
        <time>2011-04-10T08:32:44Z</time>
      </trkpt>
      <trkpt lat="46.32717" lon="4.6888">
        <ele>210.8</ele>
        <time>2011-04-10T08:32:45Z</time>
      </trkpt>
      <trkpt lat="46.32719" lon="4.68885">
        <ele>210.6</ele>
        <time>2011-04-10T08:32:46Z</time>
      </trkpt>
      <trkpt lat="46.32724" lon="4.68892">
        <ele>210.4</ele>
        <time>2011-04-10T08:32:48Z</time>
      </trkpt>
      <trkpt lat="46.32732" lon="4.68902">
        <ele>209.6</ele>
        <time>2011-04-10T08:32:51Z</time>
      </trkpt>
      <trkpt lat="46.32735" lon="4.68907">
        <ele>209.4</ele>
        <time>2011-04-10T08:32:52Z</time>
      </trkpt>
      <trkpt lat="46.32738" lon="4.68911">
        <ele>209.2</ele>
        <time>2011-04-10T08:32:53Z</time>
      </trkpt>
      <trkpt lat="46.32746" lon="4.68922">
        <ele>208.6</ele>
        <time>2011-04-10T08:32:55Z</time>
      </trkpt>
      <trkpt lat="46.32754" lon="4.68932">
        <ele>208.4</ele>
        <time>2011-04-10T08:32:57Z</time>
      </trkpt>
      <trkpt lat="46.32761" lon="4.68943">
        <ele>208</ele>
        <time>2011-04-10T08:32:59Z</time>
      </trkpt>
      <trkpt lat="46.32785" lon="4.68976">
        <ele>207.4</ele>
        <time>2011-04-10T08:33:05Z</time>
      </trkpt>
      <trkpt lat="46.32789" lon="4.68981">
        <ele>207.4</ele>
        <time>2011-04-10T08:33:06Z</time>
      </trkpt>
      <trkpt lat="46.32803" lon="4.68995">
        <ele>207</ele>
        <time>2011-04-10T08:33:09Z</time>
      </trkpt>
      <trkpt lat="46.3281" lon="4.69005">
        <ele>206.6</ele>
        <time>2011-04-10T08:33:11Z</time>
      </trkpt>
      <trkpt lat="46.32815" lon="4.69011">
        <ele>206.2</ele>
        <time>2011-04-10T08:33:13Z</time>
      </trkpt>
      <trkpt lat="46.32817" lon="4.69012">
        <ele>206</ele>
        <time>2011-04-10T08:33:14Z</time>
      </trkpt>
      <trkpt lat="46.32817" lon="4.69012">
        <ele>205.8</ele>
        <time>2011-04-10T08:33:15Z</time>
      </trkpt>
      <trkpt lat="46.32817" lon="4.6901">
        <ele>205.8</ele>
        <time>2011-04-10T08:33:16Z</time>
      </trkpt>
      <trkpt lat="46.32818" lon="4.69007">
        <ele>205.6</ele>
        <time>2011-04-10T08:33:17Z</time>
      </trkpt>
      <trkpt lat="46.32821" lon="4.68999">
        <ele>205.4</ele>
        <time>2011-04-10T08:33:19Z</time>
      </trkpt>
      <trkpt lat="46.32833" lon="4.6898">
        <ele>205.2</ele>
        <time>2011-04-10T08:33:23Z</time>
      </trkpt>
      <trkpt lat="46.32845" lon="4.68955">
        <ele>204.8</ele>
        <time>2011-04-10T08:33:27Z</time>
      </trkpt>
      <trkpt lat="46.32853" lon="4.68942">
        <ele>204.4</ele>
        <time>2011-04-10T08:33:29Z</time>
      </trkpt>
      <trkpt lat="46.3286" lon="4.68928">
        <ele>204</ele>
        <time>2011-04-10T08:33:31Z</time>
      </trkpt>
      <trkpt lat="46.32867" lon="4.68914">
        <ele>203.6</ele>
        <time>2011-04-10T08:33:33Z</time>
      </trkpt>
      <trkpt lat="46.32873" lon="4.68902">
        <ele>203.4</ele>
        <time>2011-04-10T08:33:35Z</time>
      </trkpt>
      <trkpt lat="46.32899" lon="4.6885">
        <ele>203</ele>
        <time>2011-04-10T08:33:43Z</time>
      </trkpt>
      <trkpt lat="46.32905" lon="4.68837">
        <ele>202.6</ele>
        <time>2011-04-10T08:33:45Z</time>
      </trkpt>
      <trkpt lat="46.32911" lon="4.68825">
        <ele>202.2</ele>
        <time>2011-04-10T08:33:47Z</time>
      </trkpt>
      <trkpt lat="46.32917" lon="4.68814">
        <ele>201.8</ele>
        <time>2011-04-10T08:33:49Z</time>
      </trkpt>
      <trkpt lat="46.32922" lon="4.68805">
        <ele>201.6</ele>
        <time>2011-04-10T08:33:51Z</time>
      </trkpt>
      <trkpt lat="46.32926" lon="4.68796">
        <ele>201.4</ele>
        <time>2011-04-10T08:33:53Z</time>
      </trkpt>
      <trkpt lat="46.3293" lon="4.68788">
        <ele>201.2</ele>
        <time>2011-04-10T08:33:55Z</time>
      </trkpt>
      <trkpt lat="46.32926" lon="4.68759">
        <ele>201</ele>
        <time>2011-04-10T08:34:00Z</time>
      </trkpt>
      <trkpt lat="46.32925" lon="4.68753">
        <ele>200.8</ele>
        <time>2011-04-10T08:34:01Z</time>
      </trkpt>
      <trkpt lat="46.3292" lon="4.68738">
        <ele>201</ele>
        <time>2011-04-10T08:34:04Z</time>
      </trkpt>
      <trkpt lat="46.32917" lon="4.68733">
        <ele>201.2</ele>
        <time>2011-04-10T08:34:06Z</time>
      </trkpt>
      <trkpt lat="46.32918" lon="4.68726">
        <ele>201.6</ele>
        <time>2011-04-10T08:34:08Z</time>
      </trkpt>
      <trkpt lat="46.32919" lon="4.68723">
        <ele>201.8</ele>
        <time>2011-04-10T08:34:09Z</time>
      </trkpt>
      <trkpt lat="46.32922" lon="4.68718">
        <ele>202.4</ele>
        <time>2011-04-10T08:34:11Z</time>
      </trkpt>
      <trkpt lat="46.32924" lon="4.68715">
        <ele>203</ele>
        <time>2011-04-10T08:34:13Z</time>
      </trkpt>
      <trkpt lat="46.32923" lon="4.68714">
        <ele>203.6</ele>
        <time>2011-04-10T08:34:15Z</time>
      </trkpt>
      <trkpt lat="46.32922" lon="4.68714">
        <ele>204.2</ele>
        <time>2011-04-10T08:34:17Z</time>
      </trkpt>
      <trkpt lat="46.32921" lon="4.68715">
        <ele>204.8</ele>
        <time>2011-04-10T08:34:19Z</time>
      </trkpt>
      <trkpt lat="46.32921" lon="4.68716">
        <ele>205</ele>
        <time>2011-04-10T08:34:21Z</time>
      </trkpt>
      <trkpt lat="46.32921" lon="4.68715">
        <ele>205.6</ele>
        <time>2011-04-10T08:34:25Z</time>
      </trkpt>
      <trkpt lat="46.3292" lon="4.68716">
        <ele>205.8</ele>
        <time>2011-04-10T08:34:26Z</time>
      </trkpt>
      <trkpt lat="46.3292" lon="4.68727">
        <ele>206</ele>
        <time>2011-04-10T08:34:30Z</time>
      </trkpt>
      <trkpt lat="46.32924" lon="4.68741">
        <ele>206.2</ele>
        <time>2011-04-10T08:34:32Z</time>
      </trkpt>
      <trkpt lat="46.32929" lon="4.68758">
        <ele>205.6</ele>
        <time>2011-04-10T08:34:35Z</time>
      </trkpt>
      <trkpt lat="46.3293" lon="4.68761">
        <ele>205.4</ele>
        <time>2011-04-10T08:34:37Z</time>
      </trkpt>
      <trkpt lat="46.3293" lon="4.6876">
        <ele>205</ele>
        <time>2011-04-10T08:34:38Z</time>
      </trkpt>
      <trkpt lat="46.32929" lon="4.68759">
        <ele>204.4</ele>
        <time>2011-04-10T08:34:40Z</time>
      </trkpt>
      <trkpt lat="46.32929" lon="4.68758">
        <ele>204</ele>
        <time>2011-04-10T08:34:42Z</time>
      </trkpt>
      <trkpt lat="46.32929" lon="4.68758">
        <ele>203.6</ele>
        <time>2011-04-10T08:34:44Z</time>
      </trkpt>
      <trkpt lat="46.32929" lon="4.68758">
        <ele>203.4</ele>
        <time>2011-04-10T08:34:46Z</time>
      </trkpt>
      <trkpt lat="46.32929" lon="4.68758">
        <ele>202.6</ele>
        <time>2011-04-10T08:34:57Z</time>
      </trkpt>
      <trkpt lat="46.32929" lon="4.68758">
        <ele>202.4</ele>
        <time>2011-04-10T08:34:58Z</time>
      </trkpt>
      <trkpt lat="46.32929" lon="4.6876">
        <ele>202.4</ele>
        <time>2011-04-10T08:35:02Z</time>
      </trkpt>
      <trkpt lat="46.32926" lon="4.68765">
        <ele>202.2</ele>
        <time>2011-04-10T08:35:07Z</time>
      </trkpt>
      <trkpt lat="46.32919" lon="4.68755">
        <ele>202.2</ele>
        <time>2011-04-10T08:35:11Z</time>
      </trkpt>
      <trkpt lat="46.32915" lon="4.68745">
        <ele>202.2</ele>
        <time>2011-04-10T08:35:14Z</time>
      </trkpt>
      <trkpt lat="46.32912" lon="4.68737">
        <ele>202.2</ele>
        <time>2011-04-10T08:35:17Z</time>
      </trkpt>
      <trkpt lat="46.32904" lon="4.6872">
        <ele>202.2</ele>
        <time>2011-04-10T08:35:22Z</time>
      </trkpt>
      <trkpt lat="46.32894" lon="4.68703">
        <ele>202.2</ele>
        <time>2011-04-10T08:35:27Z</time>
      </trkpt>
      <trkpt lat="46.32888" lon="4.68673">
        <ele>202.2</ele>
        <time>2011-04-10T08:35:33Z</time>
      </trkpt>
      <trkpt lat="46.32887" lon="4.68652">
        <ele>202.2</ele>
        <time>2011-04-10T08:35:38Z</time>
      </trkpt>
      <trkpt lat="46.32887" lon="4.68626">
        <ele>202.2</ele>
        <time>2011-04-10T08:35:44Z</time>
      </trkpt>
      <trkpt lat="46.3289" lon="4.68602">
        <ele>202.2</ele>
        <time>2011-04-10T08:35:50Z</time>
      </trkpt>
      <trkpt lat="46.32893" lon="4.68587">
        <ele>202.4</ele>
        <time>2011-04-10T08:35:54Z</time>
      </trkpt>
      <trkpt lat="46.32894" lon="4.68579">
        <ele>202.6</ele>
        <time>2011-04-10T08:35:56Z</time>
      </trkpt>
      <trkpt lat="46.32895" lon="4.6857">
        <ele>203</ele>
        <time>2011-04-10T08:35:58Z</time>
      </trkpt>
      <trkpt lat="46.32896" lon="4.68563">
        <ele>203.2</ele>
        <time>2011-04-10T08:36:00Z</time>
      </trkpt>
      <trkpt lat="46.32898" lon="4.68555">
        <ele>203.4</ele>
        <time>2011-04-10T08:36:02Z</time>
      </trkpt>
      <trkpt lat="46.32904" lon="4.68529">
        <ele>203.8</ele>
        <time>2011-04-10T08:36:09Z</time>
      </trkpt>
      <trkpt lat="46.32908" lon="4.68514">
        <ele>204.2</ele>
        <time>2011-04-10T08:36:14Z</time>
      </trkpt>
      <trkpt lat="46.32909" lon="4.68512">
        <ele>204.4</ele>
        <time>2011-04-10T08:36:15Z</time>
      </trkpt>
      <trkpt lat="46.32911" lon="4.68512">
        <ele>204.6</ele>
        <time>2011-04-10T08:36:16Z</time>
      </trkpt>
      <trkpt lat="46.32915" lon="4.68514">
        <ele>205</ele>
        <time>2011-04-10T08:36:18Z</time>
      </trkpt>
      <trkpt lat="46.32917" lon="4.68515">
        <ele>205</ele>
        <time>2011-04-10T08:36:19Z</time>
      </trkpt>
      <trkpt lat="46.32923" lon="4.68517">
        <ele>205.4</ele>
        <time>2011-04-10T08:36:22Z</time>
      </trkpt>
      <trkpt lat="46.32927" lon="4.68519">
        <ele>205.8</ele>
        <time>2011-04-10T08:36:24Z</time>
      </trkpt>
      <trkpt lat="46.32932" lon="4.68519">
        <ele>206.2</ele>
        <time>2011-04-10T08:36:26Z</time>
      </trkpt>
      <trkpt lat="46.32936" lon="4.6852">
        <ele>206.6</ele>
        <time>2011-04-10T08:36:28Z</time>
      </trkpt>
      <trkpt lat="46.32939" lon="4.68521">
        <ele>207.2</ele>
        <time>2011-04-10T08:36:30Z</time>
      </trkpt>
      <trkpt lat="46.32943" lon="4.68522">
        <ele>207.8</ele>
        <time>2011-04-10T08:36:32Z</time>
      </trkpt>
      <trkpt lat="46.32946" lon="4.68524">
        <ele>208.4</ele>
        <time>2011-04-10T08:36:34Z</time>
      </trkpt>
      <trkpt lat="46.32949" lon="4.68526">
        <ele>209</ele>
        <time>2011-04-10T08:36:36Z</time>
      </trkpt>
      <trkpt lat="46.32952" lon="4.68528">
        <ele>209.8</ele>
        <time>2011-04-10T08:36:38Z</time>
      </trkpt>
      <trkpt lat="46.32954" lon="4.68529">
        <ele>210.4</ele>
        <time>2011-04-10T08:36:40Z</time>
      </trkpt>
      <trkpt lat="46.32955" lon="4.6853">
        <ele>210.8</ele>
        <time>2011-04-10T08:36:41Z</time>
      </trkpt>
      <trkpt lat="46.32958" lon="4.6853">
        <ele>211.6</ele>
        <time>2011-04-10T08:36:43Z</time>
      </trkpt>
      <trkpt lat="46.32961" lon="4.68531">
        <ele>212.4</ele>
        <time>2011-04-10T08:36:45Z</time>
      </trkpt>
      <trkpt lat="46.32962" lon="4.68531">
        <ele>212.6</ele>
        <time>2011-04-10T08:36:46Z</time>
      </trkpt>
      <trkpt lat="46.32964" lon="4.68532">
        <ele>213.4</ele>
        <time>2011-04-10T08:36:48Z</time>
      </trkpt>
      <trkpt lat="46.32967" lon="4.68533">
        <ele>214</ele>
        <time>2011-04-10T08:36:50Z</time>
      </trkpt>
      <trkpt lat="46.32968" lon="4.68533">
        <ele>214.4</ele>
        <time>2011-04-10T08:36:51Z</time>
      </trkpt>
      <trkpt lat="46.3297" lon="4.68533">
        <ele>214.8</ele>
        <time>2011-04-10T08:36:52Z</time>
      </trkpt>
      <trkpt lat="46.32971" lon="4.68533">
        <ele>215.2</ele>
        <time>2011-04-10T08:36:53Z</time>
      </trkpt>
      <trkpt lat="46.32974" lon="4.68532">
        <ele>216</ele>
        <time>2011-04-10T08:36:55Z</time>
      </trkpt>
      <trkpt lat="46.32977" lon="4.6853">
        <ele>216.6</ele>
        <time>2011-04-10T08:36:57Z</time>
      </trkpt>
      <trkpt lat="46.32978" lon="4.68529">
        <ele>217</ele>
        <time>2011-04-10T08:36:58Z</time>
      </trkpt>
      <trkpt lat="46.3298" lon="4.68527">
        <ele>217.4</ele>
        <time>2011-04-10T08:37:00Z</time>
      </trkpt>
      <trkpt lat="46.32989" lon="4.68526">
        <ele>218.6</ele>
        <time>2011-04-10T08:37:07Z</time>
      </trkpt>
      <trkpt lat="46.32991" lon="4.68526">
        <ele>218.6</ele>
        <time>2011-04-10T08:37:08Z</time>
      </trkpt>
      <trkpt lat="46.33004" lon="4.68525">
        <ele>219.4</ele>
        <time>2011-04-10T08:37:16Z</time>
      </trkpt>
      <trkpt lat="46.33006" lon="4.68525">
        <ele>219.6</ele>
        <time>2011-04-10T08:37:17Z</time>
      </trkpt>
      <trkpt lat="46.33007" lon="4.68526">
        <ele>219.8</ele>
        <time>2011-04-10T08:37:18Z</time>
      </trkpt>
      <trkpt lat="46.3301" lon="4.68527">
        <ele>220.2</ele>
        <time>2011-04-10T08:37:20Z</time>
      </trkpt>
      <trkpt lat="46.33013" lon="4.68528">
        <ele>220.4</ele>
        <time>2011-04-10T08:37:22Z</time>
      </trkpt>
      <trkpt lat="46.33017" lon="4.68527">
        <ele>220.6</ele>
        <time>2011-04-10T08:37:24Z</time>
      </trkpt>
      <trkpt lat="46.33023" lon="4.68528">
        <ele>221</ele>
        <time>2011-04-10T08:37:29Z</time>
      </trkpt>
      <trkpt lat="46.33023" lon="4.68512">
        <ele>221.4</ele>
        <time>2011-04-10T08:37:35Z</time>
      </trkpt>
      <trkpt lat="46.33024" lon="4.68494">
        <ele>221.4</ele>
        <time>2011-04-10T08:37:39Z</time>
      </trkpt>
      <trkpt lat="46.33025" lon="4.68476">
        <ele>221.2</ele>
        <time>2011-04-10T08:37:42Z</time>
      </trkpt>
      <trkpt lat="46.33026" lon="4.68461">
        <ele>221</ele>
        <time>2011-04-10T08:37:44Z</time>
      </trkpt>
      <trkpt lat="46.33027" lon="4.68447">
        <ele>220.6</ele>
        <time>2011-04-10T08:37:46Z</time>
      </trkpt>
      <trkpt lat="46.3303" lon="4.68439">
        <ele>220.4</ele>
        <time>2011-04-10T08:37:48Z</time>
      </trkpt>
      <trkpt lat="46.33032" lon="4.68437">
        <ele>220.2</ele>
        <time>2011-04-10T08:37:50Z</time>
      </trkpt>
      <trkpt lat="46.33032" lon="4.68437">
        <ele>220.2</ele>
        <time>2011-04-10T08:37:51Z</time>
      </trkpt>
      <trkpt lat="46.33036" lon="4.68431">
        <ele>219.8</ele>
        <time>2011-04-10T08:37:56Z</time>
      </trkpt>
      <trkpt lat="46.33036" lon="4.68426">
        <ele>219.8</ele>
        <time>2011-04-10T08:37:58Z</time>
      </trkpt>
      <trkpt lat="46.33034" lon="4.6842">
        <ele>219.6</ele>
        <time>2011-04-10T08:38:01Z</time>
      </trkpt>
      <trkpt lat="46.33036" lon="4.68413">
        <ele>219.6</ele>
        <time>2011-04-10T08:38:05Z</time>
      </trkpt>
      <trkpt lat="46.3304" lon="4.68402">
        <ele>219.4</ele>
        <time>2011-04-10T08:38:15Z</time>
      </trkpt>
      <trkpt lat="46.33039" lon="4.68401">
        <ele>219.4</ele>
        <time>2011-04-10T08:38:16Z</time>
      </trkpt>
      <trkpt lat="46.33036" lon="4.68402">
        <ele>219.4</ele>
        <time>2011-04-10T08:38:19Z</time>
      </trkpt>
      <trkpt lat="46.33036" lon="4.68404">
        <ele>219.4</ele>
        <time>2011-04-10T08:38:20Z</time>
      </trkpt>
      <trkpt lat="46.3304" lon="4.68409">
        <ele>219.4</ele>
        <time>2011-04-10T08:38:24Z</time>
      </trkpt>
      <trkpt lat="46.33041" lon="4.68405">
        <ele>219.4</ele>
        <time>2011-04-10T08:38:28Z</time>
      </trkpt>
      <trkpt lat="46.33042" lon="4.68401">
        <ele>219.4</ele>
        <time>2011-04-10T08:38:34Z</time>
      </trkpt>
      <trkpt lat="46.33042" lon="4.68398">
        <ele>219.4</ele>
        <time>2011-04-10T08:38:39Z</time>
      </trkpt>
      <trkpt lat="46.33042" lon="4.68396">
        <ele>219.4</ele>
        <time>2011-04-10T08:38:41Z</time>
      </trkpt>
      <trkpt lat="46.33049" lon="4.68395">
        <ele>219.4</ele>
        <time>2011-04-10T08:38:46Z</time>
      </trkpt>
      <trkpt lat="46.33074" lon="4.68398">
        <ele>219.4</ele>
        <time>2011-04-10T08:38:55Z</time>
      </trkpt>
      <trkpt lat="46.331" lon="4.684">
        <ele>219.4</ele>
        <time>2011-04-10T08:39:03Z</time>
      </trkpt>
      <trkpt lat="46.33106" lon="4.68401">
        <ele>219.4</ele>
        <time>2011-04-10T08:39:05Z</time>
      </trkpt>
      <trkpt lat="46.33116" lon="4.68401">
        <ele>219.6</ele>
        <time>2011-04-10T08:39:08Z</time>
      </trkpt>
      <trkpt lat="46.33123" lon="4.68402">
        <ele>220</ele>
        <time>2011-04-10T08:39:10Z</time>
      </trkpt>
      <trkpt lat="46.33129" lon="4.68402">
        <ele>220.2</ele>
        <time>2011-04-10T08:39:12Z</time>
      </trkpt>
      <trkpt lat="46.33135" lon="4.68401">
        <ele>220.6</ele>
        <time>2011-04-10T08:39:14Z</time>
      </trkpt>
      <trkpt lat="46.33139" lon="4.68401">
        <ele>220.8</ele>
        <time>2011-04-10T08:39:16Z</time>
      </trkpt>
      <trkpt lat="46.33152" lon="4.68398">
        <ele>221.4</ele>
        <time>2011-04-10T08:39:21Z</time>
      </trkpt>
      <trkpt lat="46.33158" lon="4.68397">
        <ele>221.8</ele>
        <time>2011-04-10T08:39:23Z</time>
      </trkpt>
      <trkpt lat="46.33164" lon="4.68398">
        <ele>222.2</ele>
        <time>2011-04-10T08:39:25Z</time>
      </trkpt>
      <trkpt lat="46.3317" lon="4.68399">
        <ele>222.6</ele>
        <time>2011-04-10T08:39:27Z</time>
      </trkpt>
      <trkpt lat="46.33176" lon="4.684">
        <ele>222.8</ele>
        <time>2011-04-10T08:39:29Z</time>
      </trkpt>
      <trkpt lat="46.33198" lon="4.68408">
        <ele>223.4</ele>
        <time>2011-04-10T08:39:35Z</time>
      </trkpt>
      <trkpt lat="46.33202" lon="4.68409">
        <ele>223.4</ele>
        <time>2011-04-10T08:39:36Z</time>
      </trkpt>
      <trkpt lat="46.33214" lon="4.68414">
        <ele>223.6</ele>
        <time>2011-04-10T08:39:39Z</time>
      </trkpt>
      <trkpt lat="46.33227" lon="4.68421">
        <ele>223.4</ele>
        <time>2011-04-10T08:39:42Z</time>
      </trkpt>
      <trkpt lat="46.33234" lon="4.68425">
        <ele>223.2</ele>
        <time>2011-04-10T08:39:44Z</time>
      </trkpt>
      <trkpt lat="46.3324" lon="4.6843">
        <ele>222.8</ele>
        <time>2011-04-10T08:39:46Z</time>
      </trkpt>
      <trkpt lat="46.33244" lon="4.68435">
        <ele>222.4</ele>
        <time>2011-04-10T08:39:48Z</time>
      </trkpt>
      <trkpt lat="46.33248" lon="4.68439">
        <ele>221.8</ele>
        <time>2011-04-10T08:39:50Z</time>
      </trkpt>
      <trkpt lat="46.33252" lon="4.68445">
        <ele>221.4</ele>
        <time>2011-04-10T08:39:52Z</time>
      </trkpt>
      <trkpt lat="46.33254" lon="4.68451">
        <ele>221</ele>
        <time>2011-04-10T08:39:54Z</time>
      </trkpt>
      <trkpt lat="46.33256" lon="4.68452">
        <ele>220.8</ele>
        <time>2011-04-10T08:39:55Z</time>
      </trkpt>
      <trkpt lat="46.33259" lon="4.68454">
        <ele>220.4</ele>
        <time>2011-04-10T08:39:57Z</time>
      </trkpt>
      <trkpt lat="46.33265" lon="4.68451">
        <ele>219.8</ele>
        <time>2011-04-10T08:39:59Z</time>
      </trkpt>
      <trkpt lat="46.33273" lon="4.68447">
        <ele>219.4</ele>
        <time>2011-04-10T08:40:01Z</time>
      </trkpt>
      <trkpt lat="46.33277" lon="4.68446">
        <ele>219.2</ele>
        <time>2011-04-10T08:40:02Z</time>
      </trkpt>
      <trkpt lat="46.33281" lon="4.68447">
        <ele>219</ele>
        <time>2011-04-10T08:40:03Z</time>
      </trkpt>
      <trkpt lat="46.33285" lon="4.68448">
        <ele>218.8</ele>
        <time>2011-04-10T08:40:04Z</time>
      </trkpt>
      <trkpt lat="46.33298" lon="4.68452">
        <ele>218.4</ele>
        <time>2011-04-10T08:40:07Z</time>
      </trkpt>
      <trkpt lat="46.33306" lon="4.68456">
        <ele>218.2</ele>
        <time>2011-04-10T08:40:09Z</time>
      </trkpt>
      <trkpt lat="46.33327" lon="4.68456">
        <ele>218</ele>
        <time>2011-04-10T08:40:14Z</time>
      </trkpt>
      <trkpt lat="46.33335" lon="4.68444">
        <ele>217.8</ele>
        <time>2011-04-10T08:40:17Z</time>
      </trkpt>
      <trkpt lat="46.33349" lon="4.68419">
        <ele>217.6</ele>
        <time>2011-04-10T08:40:23Z</time>
      </trkpt>
      <trkpt lat="46.33359" lon="4.68408">
        <ele>217.6</ele>
        <time>2011-04-10T08:40:26Z</time>
      </trkpt>
      <trkpt lat="46.33384" lon="4.68395">
        <ele>217.6</ele>
        <time>2011-04-10T08:40:32Z</time>
      </trkpt>
      <trkpt lat="46.33406" lon="4.68388">
        <ele>217.6</ele>
        <time>2011-04-10T08:40:37Z</time>
      </trkpt>
      <trkpt lat="46.33432" lon="4.68384">
        <ele>217.4</ele>
        <time>2011-04-10T08:40:43Z</time>
      </trkpt>
      <trkpt lat="46.33454" lon="4.68381">
        <ele>217.4</ele>
        <time>2011-04-10T08:40:48Z</time>
      </trkpt>
      <trkpt lat="46.33468" lon="4.68377">
        <ele>217.4</ele>
        <time>2011-04-10T08:40:51Z</time>
      </trkpt>
      <trkpt lat="46.33485" lon="4.68376">
        <ele>217.6</ele>
        <time>2011-04-10T08:40:55Z</time>
      </trkpt>
      <trkpt lat="46.33494" lon="4.68375">
        <ele>218</ele>
        <time>2011-04-10T08:40:57Z</time>
      </trkpt>
      <trkpt lat="46.33503" lon="4.68372">
        <ele>218.4</ele>
        <time>2011-04-10T08:40:59Z</time>
      </trkpt>
      <trkpt lat="46.33507" lon="4.6837">
        <ele>218.4</ele>
        <time>2011-04-10T08:41:00Z</time>
      </trkpt>
      <trkpt lat="46.33518" lon="4.68363">
        <ele>218.8</ele>
        <time>2011-04-10T08:41:03Z</time>
      </trkpt>
      <trkpt lat="46.33536" lon="4.68346">
        <ele>219.2</ele>
        <time>2011-04-10T08:41:08Z</time>
      </trkpt>
      <trkpt lat="46.3354" lon="4.68342">
        <ele>219.6</ele>
        <time>2011-04-10T08:41:09Z</time>
      </trkpt>
      <trkpt lat="46.33551" lon="4.68334">
        <ele>220.2</ele>
        <time>2011-04-10T08:41:12Z</time>
      </trkpt>
      <trkpt lat="46.33558" lon="4.68332">
        <ele>220.4</ele>
        <time>2011-04-10T08:41:14Z</time>
      </trkpt>
      <trkpt lat="46.33562" lon="4.68332">
        <ele>220.6</ele>
        <time>2011-04-10T08:41:15Z</time>
      </trkpt>
      <trkpt lat="46.33582" lon="4.68349">
        <ele>221.2</ele>
        <time>2011-04-10T08:41:21Z</time>
      </trkpt>
      <trkpt lat="46.3359" lon="4.68354">
        <ele>221.8</ele>
        <time>2011-04-10T08:41:23Z</time>
      </trkpt>
      <trkpt lat="46.33597" lon="4.68358">
        <ele>222.2</ele>
        <time>2011-04-10T08:41:25Z</time>
      </trkpt>
      <trkpt lat="46.33603" lon="4.68363">
        <ele>222.4</ele>
        <time>2011-04-10T08:41:27Z</time>
      </trkpt>
      <trkpt lat="46.33609" lon="4.68368">
        <ele>222.8</ele>
        <time>2011-04-10T08:41:29Z</time>
      </trkpt>
      <trkpt lat="46.33615" lon="4.68377">
        <ele>223</ele>
        <time>2011-04-10T08:41:32Z</time>
      </trkpt>
      <trkpt lat="46.3361" lon="4.68396">
        <ele>223.4</ele>
        <time>2011-04-10T08:41:37Z</time>
      </trkpt>
      <trkpt lat="46.33607" lon="4.68401">
        <ele>223.4</ele>
        <time>2011-04-10T08:41:38Z</time>
      </trkpt>
      <trkpt lat="46.33604" lon="4.68405">
        <ele>223.4</ele>
        <time>2011-04-10T08:41:39Z</time>
      </trkpt>
      <trkpt lat="46.33601" lon="4.68428">
        <ele>223.6</ele>
        <time>2011-04-10T08:41:43Z</time>
      </trkpt>
      <trkpt lat="46.33605" lon="4.68431">
        <ele>223.6</ele>
        <time>2011-04-10T08:41:44Z</time>
      </trkpt>
      <trkpt lat="46.3362" lon="4.68436">
        <ele>224</ele>
        <time>2011-04-10T08:41:49Z</time>
      </trkpt>
      <trkpt lat="46.33625" lon="4.68438">
        <ele>224.4</ele>
        <time>2011-04-10T08:41:51Z</time>
      </trkpt>
      <trkpt lat="46.33628" lon="4.6844">
        <ele>224.6</ele>
        <time>2011-04-10T08:41:53Z</time>
      </trkpt>
      <trkpt lat="46.33632" lon="4.68442">
        <ele>225</ele>
        <time>2011-04-10T08:41:55Z</time>
      </trkpt>
      <trkpt lat="46.33634" lon="4.68443">
        <ele>225.2</ele>
        <time>2011-04-10T08:41:56Z</time>
      </trkpt>
      <trkpt lat="46.33639" lon="4.68446">
        <ele>225.8</ele>
        <time>2011-04-10T08:41:58Z</time>
      </trkpt>
      <trkpt lat="46.33643" lon="4.68447">
        <ele>226.4</ele>
        <time>2011-04-10T08:42:00Z</time>
      </trkpt>
      <trkpt lat="46.33647" lon="4.68449">
        <ele>226.6</ele>
        <time>2011-04-10T08:42:02Z</time>
      </trkpt>
      <trkpt lat="46.33651" lon="4.68451">
        <ele>227</ele>
        <time>2011-04-10T08:42:04Z</time>
      </trkpt>
      <trkpt lat="46.33656" lon="4.68453">
        <ele>227.4</ele>
        <time>2011-04-10T08:42:06Z</time>
      </trkpt>
      <trkpt lat="46.33661" lon="4.68455">
        <ele>228</ele>
        <time>2011-04-10T08:42:08Z</time>
      </trkpt>
      <trkpt lat="46.33666" lon="4.68457">
        <ele>228.4</ele>
        <time>2011-04-10T08:42:10Z</time>
      </trkpt>
      <trkpt lat="46.3367" lon="4.68459">
        <ele>228.8</ele>
        <time>2011-04-10T08:42:12Z</time>
      </trkpt>
      <trkpt lat="46.33674" lon="4.68461">
        <ele>229.2</ele>
        <time>2011-04-10T08:42:14Z</time>
      </trkpt>
      <trkpt lat="46.33676" lon="4.68462">
        <ele>229.4</ele>
        <time>2011-04-10T08:42:15Z</time>
      </trkpt>
      <trkpt lat="46.3368" lon="4.68465">
        <ele>230</ele>
        <time>2011-04-10T08:42:17Z</time>
      </trkpt>
      <trkpt lat="46.33684" lon="4.68468">
        <ele>230.6</ele>
        <time>2011-04-10T08:42:19Z</time>
      </trkpt>
      <trkpt lat="46.33688" lon="4.68471">
        <ele>231</ele>
        <time>2011-04-10T08:42:21Z</time>
      </trkpt>
      <trkpt lat="46.33692" lon="4.68473">
        <ele>231.4</ele>
        <time>2011-04-10T08:42:23Z</time>
      </trkpt>
      <trkpt lat="46.33696" lon="4.68474">
        <ele>232.2</ele>
        <time>2011-04-10T08:42:25Z</time>
      </trkpt>
      <trkpt lat="46.33699" lon="4.68474">
        <ele>232.6</ele>
        <time>2011-04-10T08:42:27Z</time>
      </trkpt>
      <trkpt lat="46.337" lon="4.68475">
        <ele>233</ele>
        <time>2011-04-10T08:42:29Z</time>
      </trkpt>
      <trkpt lat="46.33701" lon="4.68476">
        <ele>233.2</ele>
        <time>2011-04-10T08:42:30Z</time>
      </trkpt>
      <trkpt lat="46.33706" lon="4.68474">
        <ele>234.2</ele>
        <time>2011-04-10T08:42:34Z</time>
      </trkpt>
      <trkpt lat="46.33708" lon="4.6847">
        <ele>234.8</ele>
        <time>2011-04-10T08:42:35Z</time>
      </trkpt>
      <trkpt lat="46.33709" lon="4.68467">
        <ele>235</ele>
        <time>2011-04-10T08:42:36Z</time>
      </trkpt>
      <trkpt lat="46.33711" lon="4.68456">
        <ele>235.6</ele>
        <time>2011-04-10T08:42:39Z</time>
      </trkpt>
      <trkpt lat="46.33715" lon="4.68435">
        <ele>236.2</ele>
        <time>2011-04-10T08:42:45Z</time>
      </trkpt>
      <trkpt lat="46.33722" lon="4.68422">
        <ele>236.6</ele>
        <time>2011-04-10T08:42:50Z</time>
      </trkpt>
      <trkpt lat="46.33729" lon="4.6842">
        <ele>237.4</ele>
        <time>2011-04-10T08:42:53Z</time>
      </trkpt>
      <trkpt lat="46.33732" lon="4.6842">
        <ele>237.6</ele>
        <time>2011-04-10T08:42:55Z</time>
      </trkpt>
      <trkpt lat="46.33735" lon="4.68419">
        <ele>238</ele>
        <time>2011-04-10T08:42:57Z</time>
      </trkpt>
      <trkpt lat="46.3374" lon="4.68417">
        <ele>238.2</ele>
        <time>2011-04-10T08:42:59Z</time>
      </trkpt>
      <trkpt lat="46.33742" lon="4.68416">
        <ele>238.6</ele>
        <time>2011-04-10T08:43:00Z</time>
      </trkpt>
      <trkpt lat="46.33744" lon="4.68417">
        <ele>239</ele>
        <time>2011-04-10T08:43:02Z</time>
      </trkpt>
      <trkpt lat="46.33746" lon="4.6842">
        <ele>239.4</ele>
        <time>2011-04-10T08:43:04Z</time>
      </trkpt>
      <trkpt lat="46.3375" lon="4.68417">
        <ele>239.8</ele>
        <time>2011-04-10T08:43:06Z</time>
      </trkpt>
      <trkpt lat="46.33752" lon="4.68414">
        <ele>240</ele>
        <time>2011-04-10T08:43:07Z</time>
      </trkpt>
      <trkpt lat="46.33754" lon="4.68413">
        <ele>240.2</ele>
        <time>2011-04-10T08:43:08Z</time>
      </trkpt>
      <trkpt lat="46.33756" lon="4.68413">
        <ele>240.2</ele>
        <time>2011-04-10T08:43:09Z</time>
      </trkpt>
      <trkpt lat="46.3376" lon="4.68411">
        <ele>240.6</ele>
        <time>2011-04-10T08:43:11Z</time>
      </trkpt>
      <trkpt lat="46.33765" lon="4.68409">
        <ele>241.2</ele>
        <time>2011-04-10T08:43:13Z</time>
      </trkpt>
      <trkpt lat="46.33769" lon="4.68405">
        <ele>241.6</ele>
        <time>2011-04-10T08:43:15Z</time>
      </trkpt>
      <trkpt lat="46.33772" lon="4.68403">
        <ele>242</ele>
        <time>2011-04-10T08:43:17Z</time>
      </trkpt>
      <trkpt lat="46.33775" lon="4.68401">
        <ele>242.2</ele>
        <time>2011-04-10T08:43:19Z</time>
      </trkpt>
      <trkpt lat="46.33782" lon="4.68394">
        <ele>242.8</ele>
        <time>2011-04-10T08:43:22Z</time>
      </trkpt>
      <trkpt lat="46.33788" lon="4.68392">
        <ele>243.4</ele>
        <time>2011-04-10T08:43:24Z</time>
      </trkpt>
      <trkpt lat="46.33793" lon="4.68389">
        <ele>243.8</ele>
        <time>2011-04-10T08:43:26Z</time>
      </trkpt>
      <trkpt lat="46.33798" lon="4.68387">
        <ele>244.2</ele>
        <time>2011-04-10T08:43:28Z</time>
      </trkpt>
      <trkpt lat="46.33803" lon="4.68385">
        <ele>244.4</ele>
        <time>2011-04-10T08:43:30Z</time>
      </trkpt>
      <trkpt lat="46.33814" lon="4.68379">
        <ele>245.2</ele>
        <time>2011-04-10T08:43:35Z</time>
      </trkpt>
      <trkpt lat="46.33818" lon="4.68378">
        <ele>245.8</ele>
        <time>2011-04-10T08:43:37Z</time>
      </trkpt>
      <trkpt lat="46.33823" lon="4.68374">
        <ele>246.2</ele>
        <time>2011-04-10T08:43:39Z</time>
      </trkpt>
      <trkpt lat="46.33828" lon="4.68371">
        <ele>246.4</ele>
        <time>2011-04-10T08:43:41Z</time>
      </trkpt>
      <trkpt lat="46.33833" lon="4.68367">
        <ele>246.8</ele>
        <time>2011-04-10T08:43:43Z</time>
      </trkpt>
      <trkpt lat="46.3385" lon="4.68354">
        <ele>247.2</ele>
        <time>2011-04-10T08:43:50Z</time>
      </trkpt>
      <trkpt lat="46.33859" lon="4.6835">
        <ele>247.6</ele>
        <time>2011-04-10T08:43:53Z</time>
      </trkpt>
      <trkpt lat="46.33864" lon="4.68346">
        <ele>248</ele>
        <time>2011-04-10T08:43:55Z</time>
      </trkpt>
      <trkpt lat="46.3387" lon="4.68342">
        <ele>248.4</ele>
        <time>2011-04-10T08:43:57Z</time>
      </trkpt>
      <trkpt lat="46.33875" lon="4.68339">
        <ele>248.8</ele>
        <time>2011-04-10T08:43:59Z</time>
      </trkpt>
      <trkpt lat="46.33879" lon="4.68336">
        <ele>249</ele>
        <time>2011-04-10T08:44:01Z</time>
      </trkpt>
      <trkpt lat="46.33887" lon="4.68332">
        <ele>249.4</ele>
        <time>2011-04-10T08:44:04Z</time>
      </trkpt>
      <trkpt lat="46.33892" lon="4.68329">
        <ele>250</ele>
        <time>2011-04-10T08:44:06Z</time>
      </trkpt>
      <trkpt lat="46.33896" lon="4.68326">
        <ele>250.4</ele>
        <time>2011-04-10T08:44:08Z</time>
      </trkpt>
      <trkpt lat="46.33901" lon="4.68324">
        <ele>250.6</ele>
        <time>2011-04-10T08:44:10Z</time>
      </trkpt>
      <trkpt lat="46.33905" lon="4.68322">
        <ele>251</ele>
        <time>2011-04-10T08:44:12Z</time>
      </trkpt>
      <trkpt lat="46.33912" lon="4.68319">
        <ele>251.4</ele>
        <time>2011-04-10T08:44:15Z</time>
      </trkpt>
      <trkpt lat="46.33916" lon="4.68317">
        <ele>252</ele>
        <time>2011-04-10T08:44:17Z</time>
      </trkpt>
      <trkpt lat="46.33921" lon="4.68315">
        <ele>252.4</ele>
        <time>2011-04-10T08:44:19Z</time>
      </trkpt>
      <trkpt lat="46.33924" lon="4.68313">
        <ele>252.8</ele>
        <time>2011-04-10T08:44:21Z</time>
      </trkpt>
      <trkpt lat="46.33929" lon="4.68311">
        <ele>253.2</ele>
        <time>2011-04-10T08:44:23Z</time>
      </trkpt>
      <trkpt lat="46.33933" lon="4.6831">
        <ele>253.6</ele>
        <time>2011-04-10T08:44:25Z</time>
      </trkpt>
      <trkpt lat="46.33937" lon="4.68308">
        <ele>254.2</ele>
        <time>2011-04-10T08:44:27Z</time>
      </trkpt>
      <trkpt lat="46.33942" lon="4.68306">
        <ele>254.6</ele>
        <time>2011-04-10T08:44:29Z</time>
      </trkpt>
      <trkpt lat="46.33946" lon="4.68304">
        <ele>255</ele>
        <time>2011-04-10T08:44:31Z</time>
      </trkpt>
      <trkpt lat="46.33951" lon="4.68302">
        <ele>255.2</ele>
        <time>2011-04-10T08:44:33Z</time>
      </trkpt>
      <trkpt lat="46.33959" lon="4.68298">
        <ele>255.8</ele>
        <time>2011-04-10T08:44:37Z</time>
      </trkpt>
      <trkpt lat="46.33964" lon="4.68296">
        <ele>256.4</ele>
        <time>2011-04-10T08:44:40Z</time>
      </trkpt>
      <trkpt lat="46.33968" lon="4.68294">
        <ele>256.8</ele>
        <time>2011-04-10T08:44:41Z</time>
      </trkpt>
      <trkpt lat="46.33972" lon="4.68293">
        <ele>257.2</ele>
        <time>2011-04-10T08:44:43Z</time>
      </trkpt>
      <trkpt lat="46.33976" lon="4.68291">
        <ele>257.4</ele>
        <time>2011-04-10T08:44:45Z</time>
      </trkpt>
      <trkpt lat="46.33982" lon="4.68288">
        <ele>258</ele>
        <time>2011-04-10T08:44:48Z</time>
      </trkpt>
      <trkpt lat="46.33986" lon="4.68285">
        <ele>258.6</ele>
        <time>2011-04-10T08:44:50Z</time>
      </trkpt>
      <trkpt lat="46.3399" lon="4.68283">
        <ele>259</ele>
        <time>2011-04-10T08:44:52Z</time>
      </trkpt>
      <trkpt lat="46.33994" lon="4.68281">
        <ele>259.4</ele>
        <time>2011-04-10T08:44:54Z</time>
      </trkpt>
      <trkpt lat="46.33998" lon="4.68279">
        <ele>259.6</ele>
        <time>2011-04-10T08:44:56Z</time>
      </trkpt>
      <trkpt lat="46.34001" lon="4.68277">
        <ele>260</ele>
        <time>2011-04-10T08:44:58Z</time>
      </trkpt>
      <trkpt lat="46.34006" lon="4.68275">
        <ele>260.6</ele>
        <time>2011-04-10T08:45:00Z</time>
      </trkpt>
      <trkpt lat="46.34009" lon="4.68273">
        <ele>261</ele>
        <time>2011-04-10T08:45:02Z</time>
      </trkpt>
      <trkpt lat="46.34013" lon="4.68271">
        <ele>261.4</ele>
        <time>2011-04-10T08:45:04Z</time>
      </trkpt>
      <trkpt lat="46.34017" lon="4.6827">
        <ele>261.6</ele>
        <time>2011-04-10T08:45:06Z</time>
      </trkpt>
      <trkpt lat="46.3402" lon="4.68268">
        <ele>262.2</ele>
        <time>2011-04-10T08:45:08Z</time>
      </trkpt>
      <trkpt lat="46.34023" lon="4.68266">
        <ele>262.6</ele>
        <time>2011-04-10T08:45:10Z</time>
      </trkpt>
      <trkpt lat="46.34027" lon="4.68265">
        <ele>263.2</ele>
        <time>2011-04-10T08:45:12Z</time>
      </trkpt>
      <trkpt lat="46.34031" lon="4.68263">
        <ele>263.6</ele>
        <time>2011-04-10T08:45:14Z</time>
      </trkpt>
      <trkpt lat="46.34035" lon="4.68261">
        <ele>263.8</ele>
        <time>2011-04-10T08:45:16Z</time>
      </trkpt>
      <trkpt lat="46.34042" lon="4.68258">
        <ele>264.6</ele>
        <time>2011-04-10T08:45:20Z</time>
      </trkpt>
      <trkpt lat="46.34046" lon="4.68256">
        <ele>265</ele>
        <time>2011-04-10T08:45:22Z</time>
      </trkpt>
      <trkpt lat="46.3405" lon="4.68255">
        <ele>265.6</ele>
        <time>2011-04-10T08:45:24Z</time>
      </trkpt>
      <trkpt lat="46.34054" lon="4.68253">
        <ele>265.8</ele>
        <time>2011-04-10T08:45:26Z</time>
      </trkpt>
      <trkpt lat="46.34057" lon="4.68251">
        <ele>266.2</ele>
        <time>2011-04-10T08:45:28Z</time>
      </trkpt>
      <trkpt lat="46.34061" lon="4.6825">
        <ele>266.6</ele>
        <time>2011-04-10T08:45:30Z</time>
      </trkpt>
      <trkpt lat="46.34064" lon="4.68248">
        <ele>267.2</ele>
        <time>2011-04-10T08:45:32Z</time>
      </trkpt>
      <trkpt lat="46.34068" lon="4.68246">
        <ele>267.6</ele>
        <time>2011-04-10T08:45:34Z</time>
      </trkpt>
      <trkpt lat="46.34072" lon="4.68244">
        <ele>268</ele>
        <time>2011-04-10T08:45:36Z</time>
      </trkpt>
      <trkpt lat="46.34075" lon="4.68242">
        <ele>268.4</ele>
        <time>2011-04-10T08:45:38Z</time>
      </trkpt>
      <trkpt lat="46.34079" lon="4.68241">
        <ele>269</ele>
        <time>2011-04-10T08:45:40Z</time>
      </trkpt>
      <trkpt lat="46.34083" lon="4.68239">
        <ele>269.4</ele>
        <time>2011-04-10T08:45:42Z</time>
      </trkpt>
      <trkpt lat="46.34087" lon="4.68237">
        <ele>269.8</ele>
        <time>2011-04-10T08:45:44Z</time>
      </trkpt>
      <trkpt lat="46.34091" lon="4.68234">
        <ele>270.2</ele>
        <time>2011-04-10T08:45:47Z</time>
      </trkpt>
      <trkpt lat="46.34093" lon="4.68232">
        <ele>270.6</ele>
        <time>2011-04-10T08:45:48Z</time>
      </trkpt>
      <trkpt lat="46.34096" lon="4.68231">
        <ele>271.2</ele>
        <time>2011-04-10T08:45:50Z</time>
      </trkpt>
      <trkpt lat="46.34099" lon="4.6823">
        <ele>271.6</ele>
        <time>2011-04-10T08:45:52Z</time>
      </trkpt>
      <trkpt lat="46.34102" lon="4.68228">
        <ele>272</ele>
        <time>2011-04-10T08:45:54Z</time>
      </trkpt>
      <trkpt lat="46.34105" lon="4.68227">
        <ele>272.2</ele>
        <time>2011-04-10T08:45:56Z</time>
      </trkpt>
      <trkpt lat="46.34107" lon="4.68225">
        <ele>272.6</ele>
        <time>2011-04-10T08:45:57Z</time>
      </trkpt>
      <trkpt lat="46.34111" lon="4.68224">
        <ele>273.2</ele>
        <time>2011-04-10T08:45:59Z</time>
      </trkpt>
      <trkpt lat="46.34115" lon="4.68222">
        <ele>273.6</ele>
        <time>2011-04-10T08:46:01Z</time>
      </trkpt>
      <trkpt lat="46.34119" lon="4.68221">
        <ele>274</ele>
        <time>2011-04-10T08:46:03Z</time>
      </trkpt>
      <trkpt lat="46.34122" lon="4.68219">
        <ele>274.4</ele>
        <time>2011-04-10T08:46:05Z</time>
      </trkpt>
      <trkpt lat="46.34124" lon="4.68218">
        <ele>274.6</ele>
        <time>2011-04-10T08:46:06Z</time>
      </trkpt>
      <trkpt lat="46.34128" lon="4.68216">
        <ele>275.2</ele>
        <time>2011-04-10T08:46:08Z</time>
      </trkpt>
      <trkpt lat="46.34132" lon="4.68215">
        <ele>275.8</ele>
        <time>2011-04-10T08:46:10Z</time>
      </trkpt>
      <trkpt lat="46.34136" lon="4.68213">
        <ele>276.2</ele>
        <time>2011-04-10T08:46:12Z</time>
      </trkpt>
      <trkpt lat="46.3414" lon="4.68212">
        <ele>276.4</ele>
        <time>2011-04-10T08:46:14Z</time>
      </trkpt>
      <trkpt lat="46.34142" lon="4.68211">
        <ele>276.8</ele>
        <time>2011-04-10T08:46:15Z</time>
      </trkpt>
      <trkpt lat="46.34145" lon="4.68209">
        <ele>277.4</ele>
        <time>2011-04-10T08:46:17Z</time>
      </trkpt>
      <trkpt lat="46.34149" lon="4.68206">
        <ele>278</ele>
        <time>2011-04-10T08:46:19Z</time>
      </trkpt>
      <trkpt lat="46.34152" lon="4.68204">
        <ele>278.4</ele>
        <time>2011-04-10T08:46:21Z</time>
      </trkpt>
      <trkpt lat="46.34156" lon="4.68202">
        <ele>278.8</ele>
        <time>2011-04-10T08:46:23Z</time>
      </trkpt>
      <trkpt lat="46.3416" lon="4.68201">
        <ele>279.4</ele>
        <time>2011-04-10T08:46:25Z</time>
      </trkpt>
      <trkpt lat="46.34164" lon="4.682">
        <ele>280</ele>
        <time>2011-04-10T08:46:27Z</time>
      </trkpt>
      <trkpt lat="46.34167" lon="4.682">
        <ele>280.4</ele>
        <time>2011-04-10T08:46:29Z</time>
      </trkpt>
      <trkpt lat="46.34171" lon="4.68199">
        <ele>281</ele>
        <time>2011-04-10T08:46:31Z</time>
      </trkpt>
      <trkpt lat="46.34175" lon="4.68198">
        <ele>281.6</ele>
        <time>2011-04-10T08:46:33Z</time>
      </trkpt>
      <trkpt lat="46.34178" lon="4.68197">
        <ele>282.2</ele>
        <time>2011-04-10T08:46:35Z</time>
      </trkpt>
      <trkpt lat="46.34182" lon="4.68196">
        <ele>282.6</ele>
        <time>2011-04-10T08:46:37Z</time>
      </trkpt>
      <trkpt lat="46.34185" lon="4.68195">
        <ele>283.2</ele>
        <time>2011-04-10T08:46:39Z</time>
      </trkpt>
      <trkpt lat="46.34188" lon="4.68194">
        <ele>283.8</ele>
        <time>2011-04-10T08:46:41Z</time>
      </trkpt>
      <trkpt lat="46.34192" lon="4.68193">
        <ele>284.4</ele>
        <time>2011-04-10T08:46:43Z</time>
      </trkpt>
      <trkpt lat="46.34195" lon="4.68193">
        <ele>284.8</ele>
        <time>2011-04-10T08:46:45Z</time>
      </trkpt>
      <trkpt lat="46.34199" lon="4.68194">
        <ele>285.2</ele>
        <time>2011-04-10T08:46:47Z</time>
      </trkpt>
      <trkpt lat="46.34201" lon="4.68194">
        <ele>285.6</ele>
        <time>2011-04-10T08:46:48Z</time>
      </trkpt>
      <trkpt lat="46.34205" lon="4.68194">
        <ele>286.2</ele>
        <time>2011-04-10T08:46:50Z</time>
      </trkpt>
      <trkpt lat="46.34209" lon="4.68194">
        <ele>286.8</ele>
        <time>2011-04-10T08:46:52Z</time>
      </trkpt>
      <trkpt lat="46.34212" lon="4.68194">
        <ele>287.2</ele>
        <time>2011-04-10T08:46:54Z</time>
      </trkpt>
      <trkpt lat="46.34216" lon="4.68195">
        <ele>287.6</ele>
        <time>2011-04-10T08:46:56Z</time>
      </trkpt>
      <trkpt lat="46.34219" lon="4.68196">
        <ele>288</ele>
        <time>2011-04-10T08:46:58Z</time>
      </trkpt>
      <trkpt lat="46.34223" lon="4.68196">
        <ele>288.6</ele>
        <time>2011-04-10T08:47:00Z</time>
      </trkpt>
      <trkpt lat="46.34226" lon="4.68195">
        <ele>289</ele>
        <time>2011-04-10T08:47:02Z</time>
      </trkpt>
      <trkpt lat="46.3423" lon="4.68194">
        <ele>289.4</ele>
        <time>2011-04-10T08:47:04Z</time>
      </trkpt>
      <trkpt lat="46.34233" lon="4.68193">
        <ele>289.8</ele>
        <time>2011-04-10T08:47:06Z</time>
      </trkpt>
      <trkpt lat="46.34236" lon="4.68191">
        <ele>290.2</ele>
        <time>2011-04-10T08:47:08Z</time>
      </trkpt>
      <trkpt lat="46.34239" lon="4.68188">
        <ele>290.8</ele>
        <time>2011-04-10T08:47:10Z</time>
      </trkpt>
      <trkpt lat="46.34242" lon="4.68185">
        <ele>291.2</ele>
        <time>2011-04-10T08:47:12Z</time>
      </trkpt>
      <trkpt lat="46.34245" lon="4.68183">
        <ele>291.6</ele>
        <time>2011-04-10T08:47:14Z</time>
      </trkpt>
      <trkpt lat="46.34248" lon="4.68182">
        <ele>291.8</ele>
        <time>2011-04-10T08:47:16Z</time>
      </trkpt>
      <trkpt lat="46.3425" lon="4.68181">
        <ele>292.2</ele>
        <time>2011-04-10T08:47:17Z</time>
      </trkpt>
      <trkpt lat="46.34253" lon="4.6818">
        <ele>292.8</ele>
        <time>2011-04-10T08:47:19Z</time>
      </trkpt>
      <trkpt lat="46.34257" lon="4.68179">
        <ele>293.2</ele>
        <time>2011-04-10T08:47:21Z</time>
      </trkpt>
      <trkpt lat="46.3426" lon="4.68178">
        <ele>293.6</ele>
        <time>2011-04-10T08:47:23Z</time>
      </trkpt>
      <trkpt lat="46.34264" lon="4.68178">
        <ele>294</ele>
        <time>2011-04-10T08:47:25Z</time>
      </trkpt>
      <trkpt lat="46.34267" lon="4.68177">
        <ele>294.6</ele>
        <time>2011-04-10T08:47:27Z</time>
      </trkpt>
      <trkpt lat="46.34269" lon="4.68177">
        <ele>295</ele>
        <time>2011-04-10T08:47:29Z</time>
      </trkpt>
      <trkpt lat="46.34272" lon="4.68176">
        <ele>295.4</ele>
        <time>2011-04-10T08:47:31Z</time>
      </trkpt>
      <trkpt lat="46.34273" lon="4.68176">
        <ele>295.8</ele>
        <time>2011-04-10T08:47:32Z</time>
      </trkpt>
      <trkpt lat="46.34276" lon="4.68175">
        <ele>296.4</ele>
        <time>2011-04-10T08:47:34Z</time>
      </trkpt>
      <trkpt lat="46.34279" lon="4.68174">
        <ele>297</ele>
        <time>2011-04-10T08:47:36Z</time>
      </trkpt>
      <trkpt lat="46.34281" lon="4.68174">
        <ele>297.6</ele>
        <time>2011-04-10T08:47:38Z</time>
      </trkpt>
      <trkpt lat="46.34284" lon="4.68173">
        <ele>298.2</ele>
        <time>2011-04-10T08:47:40Z</time>
      </trkpt>
      <trkpt lat="46.34287" lon="4.68172">
        <ele>298.8</ele>
        <time>2011-04-10T08:47:42Z</time>
      </trkpt>
      <trkpt lat="46.3429" lon="4.68171">
        <ele>299.6</ele>
        <time>2011-04-10T08:47:44Z</time>
      </trkpt>
      <trkpt lat="46.34292" lon="4.68169">
        <ele>300.2</ele>
        <time>2011-04-10T08:47:46Z</time>
      </trkpt>
      <trkpt lat="46.34295" lon="4.68167">
        <ele>300.8</ele>
        <time>2011-04-10T08:47:48Z</time>
      </trkpt>
      <trkpt lat="46.34298" lon="4.68166">
        <ele>301.4</ele>
        <time>2011-04-10T08:47:50Z</time>
      </trkpt>
      <trkpt lat="46.34301" lon="4.68164">
        <ele>301.8</ele>
        <time>2011-04-10T08:47:52Z</time>
      </trkpt>
      <trkpt lat="46.34302" lon="4.68163">
        <ele>301.8</ele>
        <time>2011-04-10T08:47:53Z</time>
      </trkpt>
      <trkpt lat="46.34304" lon="4.68163">
        <ele>302.2</ele>
        <time>2011-04-10T08:47:54Z</time>
      </trkpt>
      <trkpt lat="46.34307" lon="4.68161">
        <ele>302.8</ele>
        <time>2011-04-10T08:47:56Z</time>
      </trkpt>
      <trkpt lat="46.3431" lon="4.6816">
        <ele>303.4</ele>
        <time>2011-04-10T08:47:58Z</time>
      </trkpt>
      <trkpt lat="46.34312" lon="4.68159">
        <ele>303.8</ele>
        <time>2011-04-10T08:48:00Z</time>
      </trkpt>
      <trkpt lat="46.34314" lon="4.68158">
        <ele>304.2</ele>
        <time>2011-04-10T08:48:01Z</time>
      </trkpt>
      <trkpt lat="46.34316" lon="4.68157">
        <ele>304.8</ele>
        <time>2011-04-10T08:48:03Z</time>
      </trkpt>
      <trkpt lat="46.34319" lon="4.68156">
        <ele>305.4</ele>
        <time>2011-04-10T08:48:05Z</time>
      </trkpt>
      <trkpt lat="46.34322" lon="4.68155">
        <ele>305.8</ele>
        <time>2011-04-10T08:48:07Z</time>
      </trkpt>
      <trkpt lat="46.34327" lon="4.68154">
        <ele>306.4</ele>
        <time>2011-04-10T08:48:11Z</time>
      </trkpt>
      <trkpt lat="46.34329" lon="4.68154">
        <ele>307</ele>
        <time>2011-04-10T08:48:12Z</time>
      </trkpt>
      <trkpt lat="46.34331" lon="4.68154">
        <ele>307.6</ele>
        <time>2011-04-10T08:48:14Z</time>
      </trkpt>
      <trkpt lat="46.34334" lon="4.68153">
        <ele>308.2</ele>
        <time>2011-04-10T08:48:16Z</time>
      </trkpt>
      <trkpt lat="46.34337" lon="4.68153">
        <ele>309</ele>
        <time>2011-04-10T08:48:18Z</time>
      </trkpt>
      <trkpt lat="46.3434" lon="4.68152">
        <ele>309.6</ele>
        <time>2011-04-10T08:48:20Z</time>
      </trkpt>
      <trkpt lat="46.34343" lon="4.68152">
        <ele>310.2</ele>
        <time>2011-04-10T08:48:22Z</time>
      </trkpt>
      <trkpt lat="46.34345" lon="4.68152">
        <ele>311</ele>
        <time>2011-04-10T08:48:24Z</time>
      </trkpt>
      <trkpt lat="46.34348" lon="4.68152">
        <ele>311.6</ele>
        <time>2011-04-10T08:48:26Z</time>
      </trkpt>
      <trkpt lat="46.34351" lon="4.68151">
        <ele>312.2</ele>
        <time>2011-04-10T08:48:28Z</time>
      </trkpt>
      <trkpt lat="46.34353" lon="4.68151">
        <ele>312.6</ele>
        <time>2011-04-10T08:48:30Z</time>
      </trkpt>
      <trkpt lat="46.34355" lon="4.68151">
        <ele>312.8</ele>
        <time>2011-04-10T08:48:31Z</time>
      </trkpt>
      <trkpt lat="46.34358" lon="4.6815">
        <ele>313.6</ele>
        <time>2011-04-10T08:48:33Z</time>
      </trkpt>
      <trkpt lat="46.34361" lon="4.6815">
        <ele>314</ele>
        <time>2011-04-10T08:48:35Z</time>
      </trkpt>
      <trkpt lat="46.34364" lon="4.6815">
        <ele>314.4</ele>
        <time>2011-04-10T08:48:37Z</time>
      </trkpt>
      <trkpt lat="46.34367" lon="4.6815">
        <ele>314.8</ele>
        <time>2011-04-10T08:48:39Z</time>
      </trkpt>
      <trkpt lat="46.34375" lon="4.6815">
        <ele>315.8</ele>
        <time>2011-04-10T08:48:45Z</time>
      </trkpt>
      <trkpt lat="46.34378" lon="4.6815">
        <ele>316.2</ele>
        <time>2011-04-10T08:48:47Z</time>
      </trkpt>
      <trkpt lat="46.3438" lon="4.6815">
        <ele>316.6</ele>
        <time>2011-04-10T08:48:49Z</time>
      </trkpt>
      <trkpt lat="46.34383" lon="4.68149">
        <ele>317</ele>
        <time>2011-04-10T08:48:51Z</time>
      </trkpt>
      <trkpt lat="46.34386" lon="4.68148">
        <ele>317.2</ele>
        <time>2011-04-10T08:48:53Z</time>
      </trkpt>
      <trkpt lat="46.34388" lon="4.68147">
        <ele>317.8</ele>
        <time>2011-04-10T08:48:55Z</time>
      </trkpt>
      <trkpt lat="46.34391" lon="4.68146">
        <ele>318.2</ele>
        <time>2011-04-10T08:48:57Z</time>
      </trkpt>
      <trkpt lat="46.34394" lon="4.68145">
        <ele>318.6</ele>
        <time>2011-04-10T08:48:59Z</time>
      </trkpt>
      <trkpt lat="46.34397" lon="4.68144">
        <ele>319</ele>
        <time>2011-04-10T08:49:01Z</time>
      </trkpt>
      <trkpt lat="46.34398" lon="4.68144">
        <ele>319.4</ele>
        <time>2011-04-10T08:49:02Z</time>
      </trkpt>
      <trkpt lat="46.34401" lon="4.68143">
        <ele>320</ele>
        <time>2011-04-10T08:49:04Z</time>
      </trkpt>
      <trkpt lat="46.34404" lon="4.68142">
        <ele>320.4</ele>
        <time>2011-04-10T08:49:06Z</time>
      </trkpt>
      <trkpt lat="46.34406" lon="4.6814">
        <ele>320.8</ele>
        <time>2011-04-10T08:49:08Z</time>
      </trkpt>
      <trkpt lat="46.34409" lon="4.68138">
        <ele>321.4</ele>
        <time>2011-04-10T08:49:10Z</time>
      </trkpt>
      <trkpt lat="46.34411" lon="4.68136">
        <ele>322</ele>
        <time>2011-04-10T08:49:12Z</time>
      </trkpt>
      <trkpt lat="46.34413" lon="4.68134">
        <ele>322.4</ele>
        <time>2011-04-10T08:49:14Z</time>
      </trkpt>
      <trkpt lat="46.34416" lon="4.68133">
        <ele>322.8</ele>
        <time>2011-04-10T08:49:16Z</time>
      </trkpt>
      <trkpt lat="46.34418" lon="4.68131">
        <ele>323.4</ele>
        <time>2011-04-10T08:49:18Z</time>
      </trkpt>
      <trkpt lat="46.34421" lon="4.6813">
        <ele>324</ele>
        <time>2011-04-10T08:49:20Z</time>
      </trkpt>
      <trkpt lat="46.34423" lon="4.68128">
        <ele>324.6</ele>
        <time>2011-04-10T08:49:22Z</time>
      </trkpt>
      <trkpt lat="46.34425" lon="4.68127">
        <ele>325</ele>
        <time>2011-04-10T08:49:24Z</time>
      </trkpt>
      <trkpt lat="46.34427" lon="4.68126">
        <ele>325.4</ele>
        <time>2011-04-10T08:49:25Z</time>
      </trkpt>
      <trkpt lat="46.34429" lon="4.68125">
        <ele>326.2</ele>
        <time>2011-04-10T08:49:27Z</time>
      </trkpt>
      <trkpt lat="46.34431" lon="4.68124">
        <ele>326.8</ele>
        <time>2011-04-10T08:49:29Z</time>
      </trkpt>
      <trkpt lat="46.34434" lon="4.68123">
        <ele>327.2</ele>
        <time>2011-04-10T08:49:31Z</time>
      </trkpt>
      <trkpt lat="46.34435" lon="4.68123">
        <ele>327.6</ele>
        <time>2011-04-10T08:49:32Z</time>
      </trkpt>
      <trkpt lat="46.34437" lon="4.68122">
        <ele>328.4</ele>
        <time>2011-04-10T08:49:34Z</time>
      </trkpt>
      <trkpt lat="46.3444" lon="4.68121">
        <ele>328.8</ele>
        <time>2011-04-10T08:49:36Z</time>
      </trkpt>
      <trkpt lat="46.34442" lon="4.6812">
        <ele>329.4</ele>
        <time>2011-04-10T08:49:38Z</time>
      </trkpt>
      <trkpt lat="46.34444" lon="4.6812">
        <ele>329.8</ele>
        <time>2011-04-10T08:49:40Z</time>
      </trkpt>
      <trkpt lat="46.34447" lon="4.68119">
        <ele>330.2</ele>
        <time>2011-04-10T08:49:42Z</time>
      </trkpt>
      <trkpt lat="46.34449" lon="4.68119">
        <ele>330.8</ele>
        <time>2011-04-10T08:49:44Z</time>
      </trkpt>
      <trkpt lat="46.34452" lon="4.68119">
        <ele>331.4</ele>
        <time>2011-04-10T08:49:46Z</time>
      </trkpt>
      <trkpt lat="46.34454" lon="4.68118">
        <ele>331.8</ele>
        <time>2011-04-10T08:49:48Z</time>
      </trkpt>
      <trkpt lat="46.34457" lon="4.68118">
        <ele>332.2</ele>
        <time>2011-04-10T08:49:50Z</time>
      </trkpt>
      <trkpt lat="46.34458" lon="4.68118">
        <ele>332.6</ele>
        <time>2011-04-10T08:49:51Z</time>
      </trkpt>
      <trkpt lat="46.3446" lon="4.68117">
        <ele>333.2</ele>
        <time>2011-04-10T08:49:53Z</time>
      </trkpt>
      <trkpt lat="46.34462" lon="4.68116">
        <ele>333.6</ele>
        <time>2011-04-10T08:49:55Z</time>
      </trkpt>
      <trkpt lat="46.34464" lon="4.68115">
        <ele>334</ele>
        <time>2011-04-10T08:49:57Z</time>
      </trkpt>
      <trkpt lat="46.34466" lon="4.68112">
        <ele>334.4</ele>
        <time>2011-04-10T08:49:59Z</time>
      </trkpt>
      <trkpt lat="46.34468" lon="4.68109">
        <ele>334.8</ele>
        <time>2011-04-10T08:50:01Z</time>
      </trkpt>
      <trkpt lat="46.34468" lon="4.68106">
        <ele>335.4</ele>
        <time>2011-04-10T08:50:03Z</time>
      </trkpt>
      <trkpt lat="46.34468" lon="4.681">
        <ele>335.8</ele>
        <time>2011-04-10T08:50:05Z</time>
      </trkpt>
      <trkpt lat="46.34468" lon="4.68094">
        <ele>336.2</ele>
        <time>2011-04-10T08:50:07Z</time>
      </trkpt>
      <trkpt lat="46.34468" lon="4.68086">
        <ele>336.4</ele>
        <time>2011-04-10T08:50:09Z</time>
      </trkpt>
      <trkpt lat="46.34466" lon="4.68061">
        <ele>337.2</ele>
        <time>2011-04-10T08:50:16Z</time>
      </trkpt>
      <trkpt lat="46.34463" lon="4.68032">
        <ele>337.8</ele>
        <time>2011-04-10T08:50:26Z</time>
      </trkpt>
      <trkpt lat="46.34461" lon="4.68026">
        <ele>338.2</ele>
        <time>2011-04-10T08:50:28Z</time>
      </trkpt>
      <trkpt lat="46.3446" lon="4.68022">
        <ele>338.6</ele>
        <time>2011-04-10T08:50:30Z</time>
      </trkpt>
      <trkpt lat="46.34458" lon="4.68018">
        <ele>338.8</ele>
        <time>2011-04-10T08:50:32Z</time>
      </trkpt>
      <trkpt lat="46.34457" lon="4.68016">
        <ele>339.2</ele>
        <time>2011-04-10T08:50:33Z</time>
      </trkpt>
      <trkpt lat="46.34455" lon="4.68013">
        <ele>339.6</ele>
        <time>2011-04-10T08:50:35Z</time>
      </trkpt>
      <trkpt lat="46.34454" lon="4.6801">
        <ele>340.2</ele>
        <time>2011-04-10T08:50:37Z</time>
      </trkpt>
      <trkpt lat="46.34452" lon="4.68008">
        <ele>340.6</ele>
        <time>2011-04-10T08:50:39Z</time>
      </trkpt>
      <trkpt lat="46.34451" lon="4.68007">
        <ele>340.8</ele>
        <time>2011-04-10T08:50:40Z</time>
      </trkpt>
      <trkpt lat="46.34449" lon="4.68004">
        <ele>341.6</ele>
        <time>2011-04-10T08:50:42Z</time>
      </trkpt>
      <trkpt lat="46.34447" lon="4.68002">
        <ele>342</ele>
        <time>2011-04-10T08:50:44Z</time>
      </trkpt>
      <trkpt lat="46.34445" lon="4.67998">
        <ele>342.6</ele>
        <time>2011-04-10T08:50:46Z</time>
      </trkpt>
      <trkpt lat="46.34444" lon="4.67997">
        <ele>342.8</ele>
        <time>2011-04-10T08:50:47Z</time>
      </trkpt>
      <trkpt lat="46.34442" lon="4.67993">
        <ele>343.6</ele>
        <time>2011-04-10T08:50:49Z</time>
      </trkpt>
      <trkpt lat="46.3444" lon="4.6799">
        <ele>344.2</ele>
        <time>2011-04-10T08:50:51Z</time>
      </trkpt>
      <trkpt lat="46.34439" lon="4.67987">
        <ele>344.6</ele>
        <time>2011-04-10T08:50:53Z</time>
      </trkpt>
      <trkpt lat="46.34439" lon="4.67984">
        <ele>345.2</ele>
        <time>2011-04-10T08:50:55Z</time>
      </trkpt>
      <trkpt lat="46.34439" lon="4.6798">
        <ele>345.8</ele>
        <time>2011-04-10T08:50:57Z</time>
      </trkpt>
      <trkpt lat="46.3444" lon="4.67977">
        <ele>346.4</ele>
        <time>2011-04-10T08:50:59Z</time>
      </trkpt>
      <trkpt lat="46.34441" lon="4.67974">
        <ele>346.8</ele>
        <time>2011-04-10T08:51:01Z</time>
      </trkpt>
      <trkpt lat="46.34442" lon="4.67971">
        <ele>347.4</ele>
        <time>2011-04-10T08:51:03Z</time>
      </trkpt>
      <trkpt lat="46.34443" lon="4.67968">
        <ele>348</ele>
        <time>2011-04-10T08:51:05Z</time>
      </trkpt>
      <trkpt lat="46.34444" lon="4.67964">
        <ele>348.6</ele>
        <time>2011-04-10T08:51:07Z</time>
      </trkpt>
      <trkpt lat="46.34445" lon="4.67961">
        <ele>349</ele>
        <time>2011-04-10T08:51:09Z</time>
      </trkpt>
      <trkpt lat="46.34445" lon="4.67959">
        <ele>349.4</ele>
        <time>2011-04-10T08:51:10Z</time>
      </trkpt>
      <trkpt lat="46.34445" lon="4.67957">
        <ele>349.6</ele>
        <time>2011-04-10T08:51:11Z</time>
      </trkpt>
      <trkpt lat="46.34445" lon="4.67956">
        <ele>350</ele>
        <time>2011-04-10T08:51:12Z</time>
      </trkpt>
      <trkpt lat="46.34445" lon="4.67952">
        <ele>350.6</ele>
        <time>2011-04-10T08:51:14Z</time>
      </trkpt>
      <trkpt lat="46.34444" lon="4.67949">
        <ele>351</ele>
        <time>2011-04-10T08:51:16Z</time>
      </trkpt>
      <trkpt lat="46.34445" lon="4.67947">
        <ele>351.4</ele>
        <time>2011-04-10T08:51:17Z</time>
      </trkpt>
      <trkpt lat="46.34446" lon="4.67944">
        <ele>352</ele>
        <time>2011-04-10T08:51:19Z</time>
      </trkpt>
      <trkpt lat="46.34446" lon="4.67943">
        <ele>352.4</ele>
        <time>2011-04-10T08:51:20Z</time>
      </trkpt>
      <trkpt lat="46.34447" lon="4.67941">
        <ele>352.6</ele>
        <time>2011-04-10T08:51:21Z</time>
      </trkpt>
      <trkpt lat="46.3445" lon="4.6794">
        <ele>353</ele>
        <time>2011-04-10T08:51:23Z</time>
      </trkpt>
      <trkpt lat="46.34453" lon="4.67941">
        <ele>353.4</ele>
        <time>2011-04-10T08:51:25Z</time>
      </trkpt>
      <trkpt lat="46.34454" lon="4.67941">
        <ele>353.8</ele>
        <time>2011-04-10T08:51:26Z</time>
      </trkpt>
      <trkpt lat="46.34457" lon="4.67942">
        <ele>354.4</ele>
        <time>2011-04-10T08:51:28Z</time>
      </trkpt>
      <trkpt lat="46.3446" lon="4.67943">
        <ele>354.8</ele>
        <time>2011-04-10T08:51:30Z</time>
      </trkpt>
      <trkpt lat="46.34464" lon="4.67943">
        <ele>355.2</ele>
        <time>2011-04-10T08:51:32Z</time>
      </trkpt>
      <trkpt lat="46.34467" lon="4.67943">
        <ele>355.6</ele>
        <time>2011-04-10T08:51:34Z</time>
      </trkpt>
      <trkpt lat="46.34473" lon="4.67942">
        <ele>356.2</ele>
        <time>2011-04-10T08:51:37Z</time>
      </trkpt>
      <trkpt lat="46.34477" lon="4.67942">
        <ele>356.8</ele>
        <time>2011-04-10T08:51:39Z</time>
      </trkpt>
      <trkpt lat="46.34481" lon="4.67941">
        <ele>357.2</ele>
        <time>2011-04-10T08:51:41Z</time>
      </trkpt>
      <trkpt lat="46.34484" lon="4.67941">
        <ele>357.6</ele>
        <time>2011-04-10T08:51:43Z</time>
      </trkpt>
      <trkpt lat="46.34487" lon="4.67942">
        <ele>357.8</ele>
        <time>2011-04-10T08:51:45Z</time>
      </trkpt>
      <trkpt lat="46.345" lon="4.67948">
        <ele>358.6</ele>
        <time>2011-04-10T08:51:54Z</time>
      </trkpt>
      <trkpt lat="46.34511" lon="4.6795">
        <ele>359.2</ele>
        <time>2011-04-10T08:52:01Z</time>
      </trkpt>
      <trkpt lat="46.34514" lon="4.67951">
        <ele>359.6</ele>
        <time>2011-04-10T08:52:03Z</time>
      </trkpt>
      <trkpt lat="46.34517" lon="4.67951">
        <ele>359.8</ele>
        <time>2011-04-10T08:52:05Z</time>
      </trkpt>
      <trkpt lat="46.3452" lon="4.67951">
        <ele>360.2</ele>
        <time>2011-04-10T08:52:07Z</time>
      </trkpt>
      <trkpt lat="46.34523" lon="4.67951">
        <ele>360.4</ele>
        <time>2011-04-10T08:52:09Z</time>
      </trkpt>
      <trkpt lat="46.34541" lon="4.67953">
        <ele>361</ele>
        <time>2011-04-10T08:52:20Z</time>
      </trkpt>
      <trkpt lat="46.34546" lon="4.67954">
        <ele>361.2</ele>
        <time>2011-04-10T08:52:23Z</time>
      </trkpt>
      <trkpt lat="46.34549" lon="4.67954">
        <ele>361.6</ele>
        <time>2011-04-10T08:52:25Z</time>
      </trkpt>
      <trkpt lat="46.34552" lon="4.67955">
        <ele>362</ele>
        <time>2011-04-10T08:52:27Z</time>
      </trkpt>
      <trkpt lat="46.34555" lon="4.67955">
        <ele>362.2</ele>
        <time>2011-04-10T08:52:29Z</time>
      </trkpt>
      <trkpt lat="46.34559" lon="4.67956">
        <ele>362.4</ele>
        <time>2011-04-10T08:52:31Z</time>
      </trkpt>
      <trkpt lat="46.34575" lon="4.67958">
        <ele>363</ele>
        <time>2011-04-10T08:52:41Z</time>
      </trkpt>
      <trkpt lat="46.34577" lon="4.67958">
        <ele>363.2</ele>
        <time>2011-04-10T08:52:42Z</time>
      </trkpt>
      <trkpt lat="46.3458" lon="4.67958">
        <ele>363.6</ele>
        <time>2011-04-10T08:52:44Z</time>
      </trkpt>
      <trkpt lat="46.34583" lon="4.67959">
        <ele>364</ele>
        <time>2011-04-10T08:52:46Z</time>
      </trkpt>
      <trkpt lat="46.34588" lon="4.67959">
        <ele>364.2</ele>
        <time>2011-04-10T08:52:49Z</time>
      </trkpt>
      <trkpt lat="46.3459" lon="4.67959">
        <ele>364.4</ele>
        <time>2011-04-10T08:52:50Z</time>
      </trkpt>
      <trkpt lat="46.34601" lon="4.67961">
        <ele>365.2</ele>
        <time>2011-04-10T08:52:56Z</time>
      </trkpt>
      <trkpt lat="46.34605" lon="4.67961">
        <ele>365.6</ele>
        <time>2011-04-10T08:52:58Z</time>
      </trkpt>
      <trkpt lat="46.34609" lon="4.67962">
        <ele>366</ele>
        <time>2011-04-10T08:53:00Z</time>
      </trkpt>
      <trkpt lat="46.34613" lon="4.67962">
        <ele>366.2</ele>
        <time>2011-04-10T08:53:02Z</time>
      </trkpt>
      <trkpt lat="46.34616" lon="4.67963">
        <ele>366.4</ele>
        <time>2011-04-10T08:53:04Z</time>
      </trkpt>
      <trkpt lat="46.34618" lon="4.67963">
        <ele>366.6</ele>
        <time>2011-04-10T08:53:05Z</time>
      </trkpt>
      <trkpt lat="46.34625" lon="4.67963">
        <ele>367</ele>
        <time>2011-04-10T08:53:09Z</time>
      </trkpt>
      <trkpt lat="46.34628" lon="4.67964">
        <ele>367.6</ele>
        <time>2011-04-10T08:53:11Z</time>
      </trkpt>
      <trkpt lat="46.34632" lon="4.67964">
        <ele>368</ele>
        <time>2011-04-10T08:53:13Z</time>
      </trkpt>
      <trkpt lat="46.34635" lon="4.67965">
        <ele>368.2</ele>
        <time>2011-04-10T08:53:15Z</time>
      </trkpt>
      <trkpt lat="46.34638" lon="4.67966">
        <ele>368.4</ele>
        <time>2011-04-10T08:53:17Z</time>
      </trkpt>
      <trkpt lat="46.34647" lon="4.67967">
        <ele>369.2</ele>
        <time>2011-04-10T08:53:22Z</time>
      </trkpt>
      <trkpt lat="46.3465" lon="4.67967">
        <ele>369.6</ele>
        <time>2011-04-10T08:53:24Z</time>
      </trkpt>
      <trkpt lat="46.34653" lon="4.67967">
        <ele>370</ele>
        <time>2011-04-10T08:53:26Z</time>
      </trkpt>
      <trkpt lat="46.34657" lon="4.67968">
        <ele>370.4</ele>
        <time>2011-04-10T08:53:28Z</time>
      </trkpt>
      <trkpt lat="46.3466" lon="4.67968">
        <ele>370.6</ele>
        <time>2011-04-10T08:53:30Z</time>
      </trkpt>
      <trkpt lat="46.34665" lon="4.6797">
        <ele>371.2</ele>
        <time>2011-04-10T08:53:33Z</time>
      </trkpt>
      <trkpt lat="46.34669" lon="4.67971">
        <ele>371.6</ele>
        <time>2011-04-10T08:53:35Z</time>
      </trkpt>
      <trkpt lat="46.34674" lon="4.67972">
        <ele>372</ele>
        <time>2011-04-10T08:53:37Z</time>
      </trkpt>
      <trkpt lat="46.34678" lon="4.67973">
        <ele>372.4</ele>
        <time>2011-04-10T08:53:39Z</time>
      </trkpt>
      <trkpt lat="46.34682" lon="4.67974">
        <ele>372.6</ele>
        <time>2011-04-10T08:53:41Z</time>
      </trkpt>
      <trkpt lat="46.34684" lon="4.67975">
        <ele>373</ele>
        <time>2011-04-10T08:53:42Z</time>
      </trkpt>
      <trkpt lat="46.34688" lon="4.67977">
        <ele>373.6</ele>
        <time>2011-04-10T08:53:44Z</time>
      </trkpt>
      <trkpt lat="46.34692" lon="4.67979">
        <ele>374.2</ele>
        <time>2011-04-10T08:53:46Z</time>
      </trkpt>
      <trkpt lat="46.34695" lon="4.67981">
        <ele>374.4</ele>
        <time>2011-04-10T08:53:48Z</time>
      </trkpt>
      <trkpt lat="46.34698" lon="4.67983">
        <ele>374.8</ele>
        <time>2011-04-10T08:53:50Z</time>
      </trkpt>
      <trkpt lat="46.34702" lon="4.67986">
        <ele>375.2</ele>
        <time>2011-04-10T08:53:53Z</time>
      </trkpt>
      <trkpt lat="46.34711" lon="4.67989">
        <ele>375.6</ele>
        <time>2011-04-10T08:53:59Z</time>
      </trkpt>
      <trkpt lat="46.34715" lon="4.6799">
        <ele>375.8</ele>
        <time>2011-04-10T08:54:06Z</time>
      </trkpt>
      <trkpt lat="46.34714" lon="4.6799">
        <ele>376</ele>
        <time>2011-04-10T08:54:11Z</time>
      </trkpt>
      <trkpt lat="46.34714" lon="4.6799">
        <ele>376</ele>
        <time>2011-04-10T08:54:15Z</time>
      </trkpt>
      <trkpt lat="46.34714" lon="4.6799">
        <ele>376</ele>
        <time>2011-04-10T08:54:18Z</time>
      </trkpt>
      <trkpt lat="46.34714" lon="4.6799">
        <ele>376.2</ele>
        <time>2011-04-10T08:54:25Z</time>
      </trkpt>
      <trkpt lat="46.34714" lon="4.6799">
        <ele>376.2</ele>
        <time>2011-04-10T08:54:29Z</time>
      </trkpt>
      <trkpt lat="46.34714" lon="4.6799">
        <ele>376.2</ele>
        <time>2011-04-10T08:54:30Z</time>
      </trkpt>
      <trkpt lat="46.34714" lon="4.6799">
        <ele>376.2</ele>
        <time>2011-04-10T08:54:32Z</time>
      </trkpt>
      <trkpt lat="46.3473" lon="4.67992">
        <ele>376.2</ele>
        <time>2011-04-10T08:54:40Z</time>
      </trkpt>
      <trkpt lat="46.34744" lon="4.67995">
        <ele>376.2</ele>
        <time>2011-04-10T08:54:46Z</time>
      </trkpt>
      <trkpt lat="46.34763" lon="4.67999">
        <ele>376.2</ele>
        <time>2011-04-10T08:54:53Z</time>
      </trkpt>
      <trkpt lat="46.34785" lon="4.68008">
        <ele>376.2</ele>
        <time>2011-04-10T08:54:59Z</time>
      </trkpt>
      <trkpt lat="46.34797" lon="4.68008">
        <ele>375.6</ele>
        <time>2011-04-10T08:55:02Z</time>
      </trkpt>
      <trkpt lat="46.34804" lon="4.68005">
        <ele>375.2</ele>
        <time>2011-04-10T08:55:04Z</time>
      </trkpt>
      <trkpt lat="46.3481" lon="4.67999">
        <ele>375</ele>
        <time>2011-04-10T08:55:06Z</time>
      </trkpt>
      <trkpt lat="46.34813" lon="4.67996">
        <ele>375</ele>
        <time>2011-04-10T08:55:07Z</time>
      </trkpt>
      <trkpt lat="46.34825" lon="4.67969">
        <ele>374.4</ele>
        <time>2011-04-10T08:55:15Z</time>
      </trkpt>
      <trkpt lat="46.34834" lon="4.67952">
        <ele>374.2</ele>
        <time>2011-04-10T08:55:21Z</time>
      </trkpt>
      <trkpt lat="46.3484" lon="4.67943">
        <ele>374.2</ele>
        <time>2011-04-10T08:55:24Z</time>
      </trkpt>
      <trkpt lat="46.34857" lon="4.6795">
        <ele>373.8</ele>
        <time>2011-04-10T08:55:30Z</time>
      </trkpt>
      <trkpt lat="46.34863" lon="4.67957">
        <ele>373.4</ele>
        <time>2011-04-10T08:55:32Z</time>
      </trkpt>
      <trkpt lat="46.3487" lon="4.67965">
        <ele>373</ele>
        <time>2011-04-10T08:55:34Z</time>
      </trkpt>
      <trkpt lat="46.34879" lon="4.67974">
        <ele>372.4</ele>
        <time>2011-04-10T08:55:36Z</time>
      </trkpt>
      <trkpt lat="46.34883" lon="4.67978">
        <ele>371.8</ele>
        <time>2011-04-10T08:55:37Z</time>
      </trkpt>
      <trkpt lat="46.34891" lon="4.67987">
        <ele>370.4</ele>
        <time>2011-04-10T08:55:39Z</time>
      </trkpt>
      <trkpt lat="46.34895" lon="4.67993">
        <ele>369</ele>
        <time>2011-04-10T08:55:41Z</time>
      </trkpt>
      <trkpt lat="46.34897" lon="4.67997">
        <ele>367.4</ele>
        <time>2011-04-10T08:55:43Z</time>
      </trkpt>
      <trkpt lat="46.34897" lon="4.67999">
        <ele>366.4</ele>
        <time>2011-04-10T08:55:45Z</time>
      </trkpt>
      <trkpt lat="46.34897" lon="4.67999">
        <ele>365.4</ele>
        <time>2011-04-10T08:55:47Z</time>
      </trkpt>
      <trkpt lat="46.34896" lon="4.67999">
        <ele>364.6</ele>
        <time>2011-04-10T08:55:49Z</time>
      </trkpt>
      <trkpt lat="46.34896" lon="4.67999">
        <ele>364</ele>
        <time>2011-04-10T08:55:51Z</time>
      </trkpt>
      <trkpt lat="46.34896" lon="4.68003">
        <ele>363.2</ele>
        <time>2011-04-10T08:55:53Z</time>
      </trkpt>
      <trkpt lat="46.34899" lon="4.68025">
        <ele>362.2</ele>
        <time>2011-04-10T08:55:56Z</time>
      </trkpt>
      <trkpt lat="46.34902" lon="4.68038">
        <ele>361.6</ele>
        <time>2011-04-10T08:55:57Z</time>
      </trkpt>
      <trkpt lat="46.34906" lon="4.6805">
        <ele>361.2</ele>
        <time>2011-04-10T08:55:58Z</time>
      </trkpt>
      <trkpt lat="46.34917" lon="4.68069">
        <ele>360</ele>
        <time>2011-04-10T08:56:00Z</time>
      </trkpt>
      <trkpt lat="46.34927" lon="4.68082">
        <ele>358.8</ele>
        <time>2011-04-10T08:56:02Z</time>
      </trkpt>
      <trkpt lat="46.34937" lon="4.68095">
        <ele>357.4</ele>
        <time>2011-04-10T08:56:04Z</time>
      </trkpt>
      <trkpt lat="46.34941" lon="4.68101">
        <ele>356.6</ele>
        <time>2011-04-10T08:56:05Z</time>
      </trkpt>
      <trkpt lat="46.34954" lon="4.68116">
        <ele>354</ele>
        <time>2011-04-10T08:56:08Z</time>
      </trkpt>
      <trkpt lat="46.34957" lon="4.68121">
        <ele>353</ele>
        <time>2011-04-10T08:56:09Z</time>
      </trkpt>
      <trkpt lat="46.34961" lon="4.68126">
        <ele>352.4</ele>
        <time>2011-04-10T08:56:10Z</time>
      </trkpt>
      <trkpt lat="46.34964" lon="4.68133">
        <ele>351.4</ele>
        <time>2011-04-10T08:56:11Z</time>
      </trkpt>
      <trkpt lat="46.34968" lon="4.68139">
        <ele>350.4</ele>
        <time>2011-04-10T08:56:12Z</time>
      </trkpt>
      <trkpt lat="46.34973" lon="4.68146">
        <ele>349.8</ele>
        <time>2011-04-10T08:56:13Z</time>
      </trkpt>
      <trkpt lat="46.34982" lon="4.68161">
        <ele>348.2</ele>
        <time>2011-04-10T08:56:15Z</time>
      </trkpt>
      <trkpt lat="46.34991" lon="4.68176">
        <ele>346.6</ele>
        <time>2011-04-10T08:56:17Z</time>
      </trkpt>
      <trkpt lat="46.34995" lon="4.68184">
        <ele>345.8</ele>
        <time>2011-04-10T08:56:18Z</time>
      </trkpt>
      <trkpt lat="46.35003" lon="4.68198">
        <ele>344.4</ele>
        <time>2011-04-10T08:56:20Z</time>
      </trkpt>
      <trkpt lat="46.35007" lon="4.68204">
        <ele>343.6</ele>
        <time>2011-04-10T08:56:21Z</time>
      </trkpt>
      <trkpt lat="46.35012" lon="4.68215">
        <ele>342.2</ele>
        <time>2011-04-10T08:56:23Z</time>
      </trkpt>
      <trkpt lat="46.35017" lon="4.68225">
        <ele>341</ele>
        <time>2011-04-10T08:56:25Z</time>
      </trkpt>
      <trkpt lat="46.3502" lon="4.68231">
        <ele>340.6</ele>
        <time>2011-04-10T08:56:26Z</time>
      </trkpt>
      <trkpt lat="46.35024" lon="4.68236">
        <ele>339.8</ele>
        <time>2011-04-10T08:56:27Z</time>
      </trkpt>
      <trkpt lat="46.35028" lon="4.68243">
        <ele>339.2</ele>
        <time>2011-04-10T08:56:28Z</time>
      </trkpt>
      <trkpt lat="46.35033" lon="4.6825">
        <ele>338.6</ele>
        <time>2011-04-10T08:56:29Z</time>
      </trkpt>
      <trkpt lat="46.35042" lon="4.68266">
        <ele>337.8</ele>
        <time>2011-04-10T08:56:31Z</time>
      </trkpt>
      <trkpt lat="46.35047" lon="4.68274">
        <ele>337.2</ele>
        <time>2011-04-10T08:56:32Z</time>
      </trkpt>
      <trkpt lat="46.35058" lon="4.68291">
        <ele>336.2</ele>
        <time>2011-04-10T08:56:34Z</time>
      </trkpt>
      <trkpt lat="46.35068" lon="4.6831">
        <ele>335.2</ele>
        <time>2011-04-10T08:56:36Z</time>
      </trkpt>
      <trkpt lat="46.35079" lon="4.68326">
        <ele>334.6</ele>
        <time>2011-04-10T08:56:38Z</time>
      </trkpt>
      <trkpt lat="46.35089" lon="4.6834">
        <ele>333.8</ele>
        <time>2011-04-10T08:56:40Z</time>
      </trkpt>
      <trkpt lat="46.35099" lon="4.68355">
        <ele>333</ele>
        <time>2011-04-10T08:56:42Z</time>
      </trkpt>
      <trkpt lat="46.35104" lon="4.68363">
        <ele>332.6</ele>
        <time>2011-04-10T08:56:43Z</time>
      </trkpt>
      <trkpt lat="46.35109" lon="4.68372">
        <ele>332.2</ele>
        <time>2011-04-10T08:56:44Z</time>
      </trkpt>
      <trkpt lat="46.35113" lon="4.68381">
        <ele>332</ele>
        <time>2011-04-10T08:56:45Z</time>
      </trkpt>
      <trkpt lat="46.35127" lon="4.68405">
        <ele>331.2</ele>
        <time>2011-04-10T08:56:48Z</time>
      </trkpt>
      <trkpt lat="46.35131" lon="4.68412">
        <ele>331</ele>
        <time>2011-04-10T08:56:49Z</time>
      </trkpt>
      <trkpt lat="46.35143" lon="4.68451">
        <ele>330.4</ele>
        <time>2011-04-10T08:56:54Z</time>
      </trkpt>
      <trkpt lat="46.35145" lon="4.68458">
        <ele>330.2</ele>
        <time>2011-04-10T08:56:55Z</time>
      </trkpt>
      <trkpt lat="46.35153" lon="4.68486">
        <ele>329.8</ele>
        <time>2011-04-10T08:56:59Z</time>
      </trkpt>
      <trkpt lat="46.35161" lon="4.68499">
        <ele>329.8</ele>
        <time>2011-04-10T08:57:01Z</time>
      </trkpt>
      <trkpt lat="46.35178" lon="4.68525">
        <ele>329.6</ele>
        <time>2011-04-10T08:57:05Z</time>
      </trkpt>
      <trkpt lat="46.352" lon="4.68552">
        <ele>329.4</ele>
        <time>2011-04-10T08:57:09Z</time>
      </trkpt>
      <trkpt lat="46.35212" lon="4.68564">
        <ele>329.2</ele>
        <time>2011-04-10T08:57:11Z</time>
      </trkpt>
      <trkpt lat="46.35222" lon="4.68577">
        <ele>328.8</ele>
        <time>2011-04-10T08:57:13Z</time>
      </trkpt>
      <trkpt lat="46.35233" lon="4.68591">
        <ele>328.6</ele>
        <time>2011-04-10T08:57:15Z</time>
      </trkpt>
      <trkpt lat="46.35239" lon="4.68597">
        <ele>328.4</ele>
        <time>2011-04-10T08:57:16Z</time>
      </trkpt>
      <trkpt lat="46.35245" lon="4.68603">
        <ele>328.2</ele>
        <time>2011-04-10T08:57:17Z</time>
      </trkpt>
      <trkpt lat="46.35255" lon="4.68616">
        <ele>327.6</ele>
        <time>2011-04-10T08:57:19Z</time>
      </trkpt>
      <trkpt lat="46.35265" lon="4.68629">
        <ele>327</ele>
        <time>2011-04-10T08:57:21Z</time>
      </trkpt>
      <trkpt lat="46.35275" lon="4.68643">
        <ele>326.6</ele>
        <time>2011-04-10T08:57:23Z</time>
      </trkpt>
      <trkpt lat="46.35285" lon="4.68656">
        <ele>326.4</ele>
        <time>2011-04-10T08:57:25Z</time>
      </trkpt>
      <trkpt lat="46.35293" lon="4.68667">
        <ele>326.2</ele>
        <time>2011-04-10T08:57:27Z</time>
      </trkpt>
      <trkpt lat="46.35299" lon="4.68689">
        <ele>325.8</ele>
        <time>2011-04-10T08:57:31Z</time>
      </trkpt>
      <trkpt lat="46.35297" lon="4.68695">
        <ele>325.8</ele>
        <time>2011-04-10T08:57:32Z</time>
      </trkpt>
      <trkpt lat="46.35283" lon="4.6872">
        <ele>325.4</ele>
        <time>2011-04-10T08:57:38Z</time>
      </trkpt>
      <trkpt lat="46.35267" lon="4.68747">
        <ele>325.2</ele>
        <time>2011-04-10T08:57:44Z</time>
      </trkpt>
      <trkpt lat="46.35259" lon="4.68763">
        <ele>325.2</ele>
        <time>2011-04-10T08:57:48Z</time>
      </trkpt>
      <trkpt lat="46.35257" lon="4.68767">
        <ele>325.2</ele>
        <time>2011-04-10T08:57:49Z</time>
      </trkpt>
      <trkpt lat="46.35233" lon="4.68787">
        <ele>325.2</ele>
        <time>2011-04-10T08:57:55Z</time>
      </trkpt>
      <trkpt lat="46.35223" lon="4.68795">
        <ele>325.2</ele>
        <time>2011-04-10T08:57:57Z</time>
      </trkpt>
      <trkpt lat="46.35215" lon="4.68804">
        <ele>325</ele>
        <time>2011-04-10T08:57:59Z</time>
      </trkpt>
      <trkpt lat="46.35209" lon="4.68814">
        <ele>324.6</ele>
        <time>2011-04-10T08:58:01Z</time>
      </trkpt>
      <trkpt lat="46.35206" lon="4.68819">
        <ele>324.4</ele>
        <time>2011-04-10T08:58:02Z</time>
      </trkpt>
      <trkpt lat="46.35196" lon="4.68838">
        <ele>323.8</ele>
        <time>2011-04-10T08:58:05Z</time>
      </trkpt>
      <trkpt lat="46.35188" lon="4.68853">
        <ele>323.2</ele>
        <time>2011-04-10T08:58:07Z</time>
      </trkpt>
      <trkpt lat="46.35185" lon="4.68861">
        <ele>323</ele>
        <time>2011-04-10T08:58:08Z</time>
      </trkpt>
      <trkpt lat="46.35172" lon="4.6888">
        <ele>321.8</ele>
        <time>2011-04-10T08:58:11Z</time>
      </trkpt>
      <trkpt lat="46.35167" lon="4.68885">
        <ele>321.2</ele>
        <time>2011-04-10T08:58:12Z</time>
      </trkpt>
      <trkpt lat="46.35157" lon="4.68892">
        <ele>320.2</ele>
        <time>2011-04-10T08:58:14Z</time>
      </trkpt>
      <trkpt lat="46.35152" lon="4.68896">
        <ele>319.8</ele>
        <time>2011-04-10T08:58:15Z</time>
      </trkpt>
      <trkpt lat="46.3514" lon="4.68915">
        <ele>317.8</ele>
        <time>2011-04-10T08:58:18Z</time>
      </trkpt>
      <trkpt lat="46.35135" lon="4.68921">
        <ele>317</ele>
        <time>2011-04-10T08:58:19Z</time>
      </trkpt>
      <trkpt lat="46.35121" lon="4.68935">
        <ele>314.4</ele>
        <time>2011-04-10T08:58:22Z</time>
      </trkpt>
      <trkpt lat="46.35117" lon="4.6894">
        <ele>313.6</ele>
        <time>2011-04-10T08:58:23Z</time>
      </trkpt>
      <trkpt lat="46.35114" lon="4.68945">
        <ele>312.6</ele>
        <time>2011-04-10T08:58:24Z</time>
      </trkpt>
      <trkpt lat="46.35111" lon="4.68952">
        <ele>311.6</ele>
        <time>2011-04-10T08:58:25Z</time>
      </trkpt>
      <trkpt lat="46.35104" lon="4.68975">
        <ele>308.6</ele>
        <time>2011-04-10T08:58:28Z</time>
      </trkpt>
      <trkpt lat="46.351" lon="4.68991">
        <ele>306.4</ele>
        <time>2011-04-10T08:58:30Z</time>
      </trkpt>
      <trkpt lat="46.35098" lon="4.68999">
        <ele>305.4</ele>
        <time>2011-04-10T08:58:31Z</time>
      </trkpt>
      <trkpt lat="46.35097" lon="4.69007">
        <ele>304.2</ele>
        <time>2011-04-10T08:58:32Z</time>
      </trkpt>
      <trkpt lat="46.35097" lon="4.6902">
        <ele>301.8</ele>
        <time>2011-04-10T08:58:34Z</time>
      </trkpt>
      <trkpt lat="46.35095" lon="4.69032">
        <ele>299.6</ele>
        <time>2011-04-10T08:58:36Z</time>
      </trkpt>
      <trkpt lat="46.35094" lon="4.69036">
        <ele>298.4</ele>
        <time>2011-04-10T08:58:37Z</time>
      </trkpt>
      <trkpt lat="46.35092" lon="4.69042">
        <ele>296.4</ele>
        <time>2011-04-10T08:58:39Z</time>
      </trkpt>
      <trkpt lat="46.35091" lon="4.69052">
        <ele>294.6</ele>
        <time>2011-04-10T08:58:41Z</time>
      </trkpt>
      <trkpt lat="46.35089" lon="4.69071">
        <ele>293</ele>
        <time>2011-04-10T08:58:43Z</time>
      </trkpt>
      <trkpt lat="46.35088" lon="4.69082">
        <ele>292.2</ele>
        <time>2011-04-10T08:58:44Z</time>
      </trkpt>
      <trkpt lat="46.35084" lon="4.69108">
        <ele>290.4</ele>
        <time>2011-04-10T08:58:46Z</time>
      </trkpt>
      <trkpt lat="46.3508" lon="4.69134">
        <ele>288.4</ele>
        <time>2011-04-10T08:58:48Z</time>
      </trkpt>
      <trkpt lat="46.35079" lon="4.69144">
        <ele>287.4</ele>
        <time>2011-04-10T08:58:49Z</time>
      </trkpt>
      <trkpt lat="46.35069" lon="4.69156">
        <ele>284.2</ele>
        <time>2011-04-10T08:58:52Z</time>
      </trkpt>
      <trkpt lat="46.35064" lon="4.69155">
        <ele>283.4</ele>
        <time>2011-04-10T08:58:53Z</time>
      </trkpt>
      <trkpt lat="46.35055" lon="4.69152">
        <ele>281.6</ele>
        <time>2011-04-10T08:58:55Z</time>
      </trkpt>
      <trkpt lat="46.35048" lon="4.69152">
        <ele>280</ele>
        <time>2011-04-10T08:58:57Z</time>
      </trkpt>
      <trkpt lat="46.35041" lon="4.69153">
        <ele>278.8</ele>
        <time>2011-04-10T08:58:59Z</time>
      </trkpt>
      <trkpt lat="46.35036" lon="4.69153">
        <ele>277.8</ele>
        <time>2011-04-10T08:59:01Z</time>
      </trkpt>
      <trkpt lat="46.35034" lon="4.69152">
        <ele>277</ele>
        <time>2011-04-10T08:59:03Z</time>
      </trkpt>
      <trkpt lat="46.35036" lon="4.69152">
        <ele>274.4</ele>
        <time>2011-04-10T08:59:16Z</time>
      </trkpt>
      <trkpt lat="46.35036" lon="4.69152">
        <ele>274</ele>
        <time>2011-04-10T08:59:20Z</time>
      </trkpt>
      <trkpt lat="46.3503" lon="4.69162">
        <ele>273.8</ele>
        <time>2011-04-10T08:59:24Z</time>
      </trkpt>
      <trkpt lat="46.35017" lon="4.69189">
        <ele>273.6</ele>
        <time>2011-04-10T08:59:27Z</time>
      </trkpt>
      <trkpt lat="46.35014" lon="4.69202">
        <ele>273.2</ele>
        <time>2011-04-10T08:59:28Z</time>
      </trkpt>
      <trkpt lat="46.35008" lon="4.69251">
        <ele>271.6</ele>
        <time>2011-04-10T08:59:31Z</time>
      </trkpt>
      <trkpt lat="46.35004" lon="4.69289">
        <ele>270</ele>
        <time>2011-04-10T08:59:33Z</time>
      </trkpt>
      <trkpt lat="46.35002" lon="4.69327">
        <ele>268.2</ele>
        <time>2011-04-10T08:59:35Z</time>
      </trkpt>
      <trkpt lat="46.34999" lon="4.69365">
        <ele>265.8</ele>
        <time>2011-04-10T08:59:37Z</time>
      </trkpt>
      <trkpt lat="46.34993" lon="4.69405">
        <ele>263.2</ele>
        <time>2011-04-10T08:59:39Z</time>
      </trkpt>
      <trkpt lat="46.34989" lon="4.69425">
        <ele>261.8</ele>
        <time>2011-04-10T08:59:40Z</time>
      </trkpt>
      <trkpt lat="46.34986" lon="4.69445">
        <ele>260.2</ele>
        <time>2011-04-10T08:59:41Z</time>
      </trkpt>
      <trkpt lat="46.3498" lon="4.69485">
        <ele>257.4</ele>
        <time>2011-04-10T08:59:43Z</time>
      </trkpt>
      <trkpt lat="46.34974" lon="4.69523">
        <ele>254.4</ele>
        <time>2011-04-10T08:59:45Z</time>
      </trkpt>
      <trkpt lat="46.34967" lon="4.69557">
        <ele>251.8</ele>
        <time>2011-04-10T08:59:47Z</time>
      </trkpt>
      <trkpt lat="46.34964" lon="4.69574">
        <ele>250.4</ele>
        <time>2011-04-10T08:59:48Z</time>
      </trkpt>
      <trkpt lat="46.34958" lon="4.69607">
        <ele>248.2</ele>
        <time>2011-04-10T08:59:50Z</time>
      </trkpt>
      <trkpt lat="46.34956" lon="4.69623">
        <ele>247.2</ele>
        <time>2011-04-10T08:59:51Z</time>
      </trkpt>
      <trkpt lat="46.34955" lon="4.69663">
        <ele>244.8</ele>
        <time>2011-04-10T08:59:54Z</time>
      </trkpt>
      <trkpt lat="46.34955" lon="4.69676">
        <ele>244.2</ele>
        <time>2011-04-10T08:59:55Z</time>
      </trkpt>
      <trkpt lat="46.34955" lon="4.69687">
        <ele>243.6</ele>
        <time>2011-04-10T08:59:56Z</time>
      </trkpt>
      <trkpt lat="46.34957" lon="4.69717">
        <ele>242.2</ele>
        <time>2011-04-10T08:59:59Z</time>
      </trkpt>
      <trkpt lat="46.34949" lon="4.69747">
        <ele>240.8</ele>
        <time>2011-04-10T09:00:03Z</time>
      </trkpt>
      <trkpt lat="46.34945" lon="4.69752">
        <ele>240.8</ele>
        <time>2011-04-10T09:00:04Z</time>
      </trkpt>
      <trkpt lat="46.34941" lon="4.69757">
        <ele>240.8</ele>
        <time>2011-04-10T09:00:05Z</time>
      </trkpt>
      <trkpt lat="46.34938" lon="4.69762">
        <ele>240.8</ele>
        <time>2011-04-10T09:00:06Z</time>
      </trkpt>
      <trkpt lat="46.34934" lon="4.69765">
        <ele>240.8</ele>
        <time>2011-04-10T09:00:07Z</time>
      </trkpt>
      <trkpt lat="46.3493" lon="4.69767">
        <ele>240.8</ele>
        <time>2011-04-10T09:00:08Z</time>
      </trkpt>
      <trkpt lat="46.34925" lon="4.69769">
        <ele>241</ele>
        <time>2011-04-10T09:00:10Z</time>
      </trkpt>
      <trkpt lat="46.34924" lon="4.6977">
        <ele>241.2</ele>
        <time>2011-04-10T09:00:11Z</time>
      </trkpt>
      <trkpt lat="46.34923" lon="4.69771">
        <ele>241.4</ele>
        <time>2011-04-10T09:00:12Z</time>
      </trkpt>
      <trkpt lat="46.34924" lon="4.69773">
        <ele>241.6</ele>
        <time>2011-04-10T09:00:14Z</time>
      </trkpt>
      <trkpt lat="46.34925" lon="4.69774">
        <ele>241.8</ele>
        <time>2011-04-10T09:00:16Z</time>
      </trkpt>
      <trkpt lat="46.34926" lon="4.69773">
        <ele>242</ele>
        <time>2011-04-10T09:00:18Z</time>
      </trkpt>
      <trkpt lat="46.34928" lon="4.6977">
        <ele>242.4</ele>
        <time>2011-04-10T09:00:23Z</time>
      </trkpt>
      <trkpt lat="46.34927" lon="4.69768">
        <ele>242.4</ele>
        <time>2011-04-10T09:00:25Z</time>
      </trkpt>
      <trkpt lat="46.34917" lon="4.69767">
        <ele>242.6</ele>
        <time>2011-04-10T09:00:29Z</time>
      </trkpt>
      <trkpt lat="46.34902" lon="4.69767">
        <ele>242.6</ele>
        <time>2011-04-10T09:00:34Z</time>
      </trkpt>
      <trkpt lat="46.34897" lon="4.69775">
        <ele>243</ele>
        <time>2011-04-10T09:00:37Z</time>
      </trkpt>
      <trkpt lat="46.34897" lon="4.69782">
        <ele>243.2</ele>
        <time>2011-04-10T09:00:39Z</time>
      </trkpt>
      <trkpt lat="46.34898" lon="4.69789">
        <ele>243.6</ele>
        <time>2011-04-10T09:00:41Z</time>
      </trkpt>
      <trkpt lat="46.34898" lon="4.69792">
        <ele>243.6</ele>
        <time>2011-04-10T09:00:42Z</time>
      </trkpt>
      <trkpt lat="46.34898" lon="4.69799">
        <ele>244</ele>
        <time>2011-04-10T09:00:45Z</time>
      </trkpt>
      <trkpt lat="46.34897" lon="4.698">
        <ele>244.2</ele>
        <time>2011-04-10T09:00:47Z</time>
      </trkpt>
      <trkpt lat="46.34892" lon="4.6981">
        <ele>244.4</ele>
        <time>2011-04-10T09:00:51Z</time>
      </trkpt>
      <trkpt lat="46.34879" lon="4.69832">
        <ele>244.6</ele>
        <time>2011-04-10T09:00:56Z</time>
      </trkpt>
      <trkpt lat="46.34871" lon="4.69836">
        <ele>244.6</ele>
        <time>2011-04-10T09:00:59Z</time>
      </trkpt>
      <trkpt lat="46.34867" lon="4.69837">
        <ele>244.8</ele>
        <time>2011-04-10T09:01:03Z</time>
      </trkpt>
      <trkpt lat="46.34858" lon="4.69837">
        <ele>244.8</ele>
        <time>2011-04-10T09:01:07Z</time>
      </trkpt>
      <trkpt lat="46.34856" lon="4.69838">
        <ele>244.8</ele>
        <time>2011-04-10T09:01:08Z</time>
      </trkpt>
      <trkpt lat="46.34855" lon="4.69841">
        <ele>244.8</ele>
        <time>2011-04-10T09:01:11Z</time>
      </trkpt>
      <trkpt lat="46.3486" lon="4.69841">
        <ele>244.8</ele>
        <time>2011-04-10T09:01:14Z</time>
      </trkpt>
      <trkpt lat="46.34871" lon="4.69841">
        <ele>244.8</ele>
        <time>2011-04-10T09:01:19Z</time>
      </trkpt>
      <trkpt lat="46.34874" lon="4.6984">
        <ele>244.8</ele>
        <time>2011-04-10T09:01:20Z</time>
      </trkpt>
      <trkpt lat="46.34877" lon="4.69838">
        <ele>244.8</ele>
        <time>2011-04-10T09:01:21Z</time>
      </trkpt>
      <trkpt lat="46.34894" lon="4.69836">
        <ele>244.8</ele>
        <time>2011-04-10T09:01:25Z</time>
      </trkpt>
      <trkpt lat="46.34908" lon="4.6984">
        <ele>244.6</ele>
        <time>2011-04-10T09:01:28Z</time>
      </trkpt>
      <trkpt lat="46.34913" lon="4.69845">
        <ele>244.2</ele>
        <time>2011-04-10T09:01:30Z</time>
      </trkpt>
      <trkpt lat="46.34913" lon="4.6985">
        <ele>244</ele>
        <time>2011-04-10T09:01:31Z</time>
      </trkpt>
      <trkpt lat="46.34913" lon="4.69856">
        <ele>243.8</ele>
        <time>2011-04-10T09:01:32Z</time>
      </trkpt>
      <trkpt lat="46.34913" lon="4.69872">
        <ele>243.2</ele>
        <time>2011-04-10T09:01:34Z</time>
      </trkpt>
      <trkpt lat="46.34914" lon="4.69881">
        <ele>242.8</ele>
        <time>2011-04-10T09:01:35Z</time>
      </trkpt>
      <trkpt lat="46.34915" lon="4.69889">
        <ele>242.4</ele>
        <time>2011-04-10T09:01:36Z</time>
      </trkpt>
      <trkpt lat="46.34919" lon="4.699">
        <ele>241.6</ele>
        <time>2011-04-10T09:01:38Z</time>
      </trkpt>
      <trkpt lat="46.34922" lon="4.69906">
        <ele>241.2</ele>
        <time>2011-04-10T09:01:39Z</time>
      </trkpt>
      <trkpt lat="46.34926" lon="4.69916">
        <ele>240.2</ele>
        <time>2011-04-10T09:01:41Z</time>
      </trkpt>
      <trkpt lat="46.34928" lon="4.69923">
        <ele>239.8</ele>
        <time>2011-04-10T09:01:42Z</time>
      </trkpt>
      <trkpt lat="46.34928" lon="4.69931">
        <ele>239.4</ele>
        <time>2011-04-10T09:01:43Z</time>
      </trkpt>
      <trkpt lat="46.34928" lon="4.6994">
        <ele>239</ele>
        <time>2011-04-10T09:01:44Z</time>
      </trkpt>
      <trkpt lat="46.34928" lon="4.6995">
        <ele>238.6</ele>
        <time>2011-04-10T09:01:45Z</time>
      </trkpt>
      <trkpt lat="46.3493" lon="4.69974">
        <ele>237.6</ele>
        <time>2011-04-10T09:01:47Z</time>
      </trkpt>
      <trkpt lat="46.34931" lon="4.69985">
        <ele>237.2</ele>
        <time>2011-04-10T09:01:48Z</time>
      </trkpt>
      <trkpt lat="46.34932" lon="4.69999">
        <ele>236.6</ele>
        <time>2011-04-10T09:01:49Z</time>
      </trkpt>
      <trkpt lat="46.3493" lon="4.7003">
        <ele>235.2</ele>
        <time>2011-04-10T09:01:51Z</time>
      </trkpt>
      <trkpt lat="46.34928" lon="4.70064">
        <ele>233.8</ele>
        <time>2011-04-10T09:01:53Z</time>
      </trkpt>
      <trkpt lat="46.34929" lon="4.70104">
        <ele>232</ele>
        <time>2011-04-10T09:01:55Z</time>
      </trkpt>
      <trkpt lat="46.34927" lon="4.70141">
        <ele>230</ele>
        <time>2011-04-10T09:01:57Z</time>
      </trkpt>
      <trkpt lat="46.34926" lon="4.70156">
        <ele>228.6</ele>
        <time>2011-04-10T09:01:58Z</time>
      </trkpt>
      <trkpt lat="46.34925" lon="4.70168">
        <ele>227.2</ele>
        <time>2011-04-10T09:01:59Z</time>
      </trkpt>
      <trkpt lat="46.34924" lon="4.70181">
        <ele>225.6</ele>
        <time>2011-04-10T09:02:00Z</time>
      </trkpt>
      <trkpt lat="46.34924" lon="4.7019">
        <ele>224.2</ele>
        <time>2011-04-10T09:02:01Z</time>
      </trkpt>
      <trkpt lat="46.34925" lon="4.70195">
        <ele>222.8</ele>
        <time>2011-04-10T09:02:02Z</time>
      </trkpt>
      <trkpt lat="46.34926" lon="4.70199">
        <ele>220.2</ele>
        <time>2011-04-10T09:02:04Z</time>
      </trkpt>
      <trkpt lat="46.34926" lon="4.70199">
        <ele>218</ele>
        <time>2011-04-10T09:02:06Z</time>
      </trkpt>
      <trkpt lat="46.34927" lon="4.70198">
        <ele>217</ele>
        <time>2011-04-10T09:02:07Z</time>
      </trkpt>
      <trkpt lat="46.34928" lon="4.70201">
        <ele>215</ele>
        <time>2011-04-10T09:02:09Z</time>
      </trkpt>
      <trkpt lat="46.34929" lon="4.70204">
        <ele>214.2</ele>
        <time>2011-04-10T09:02:10Z</time>
      </trkpt>
      <trkpt lat="46.34932" lon="4.70216">
        <ele>212.8</ele>
        <time>2011-04-10T09:02:12Z</time>
      </trkpt>
      <trkpt lat="46.34933" lon="4.70224">
        <ele>212.2</ele>
        <time>2011-04-10T09:02:13Z</time>
      </trkpt>
      <trkpt lat="46.34934" lon="4.70233">
        <ele>211.4</ele>
        <time>2011-04-10T09:02:14Z</time>
      </trkpt>
      <trkpt lat="46.34935" lon="4.70243">
        <ele>210.8</ele>
        <time>2011-04-10T09:02:15Z</time>
      </trkpt>
      <trkpt lat="46.34934" lon="4.70274">
        <ele>208.8</ele>
        <time>2011-04-10T09:02:18Z</time>
      </trkpt>
      <trkpt lat="46.34932" lon="4.70296">
        <ele>207.6</ele>
        <time>2011-04-10T09:02:20Z</time>
      </trkpt>
      <trkpt lat="46.34931" lon="4.70318">
        <ele>206.6</ele>
        <time>2011-04-10T09:02:22Z</time>
      </trkpt>
      <trkpt lat="46.34931" lon="4.7033">
        <ele>206</ele>
        <time>2011-04-10T09:02:23Z</time>
      </trkpt>
      <trkpt lat="46.3493" lon="4.70355">
        <ele>205</ele>
        <time>2011-04-10T09:02:25Z</time>
      </trkpt>
      <trkpt lat="46.34929" lon="4.70379">
        <ele>203.8</ele>
        <time>2011-04-10T09:02:27Z</time>
      </trkpt>
      <trkpt lat="46.34931" lon="4.70392">
        <ele>203.2</ele>
        <time>2011-04-10T09:02:28Z</time>
      </trkpt>
      <trkpt lat="46.34933" lon="4.70404">
        <ele>202.8</ele>
        <time>2011-04-10T09:02:29Z</time>
      </trkpt>
      <trkpt lat="46.34937" lon="4.70417">
        <ele>202.2</ele>
        <time>2011-04-10T09:02:30Z</time>
      </trkpt>
      <trkpt lat="46.34945" lon="4.70442">
        <ele>200.8</ele>
        <time>2011-04-10T09:02:32Z</time>
      </trkpt>
      <trkpt lat="46.34953" lon="4.70469">
        <ele>199.6</ele>
        <time>2011-04-10T09:02:34Z</time>
      </trkpt>
      <trkpt lat="46.3496" lon="4.70496">
        <ele>198.4</ele>
        <time>2011-04-10T09:02:36Z</time>
      </trkpt>
      <trkpt lat="46.34964" lon="4.70509">
        <ele>198</ele>
        <time>2011-04-10T09:02:37Z</time>
      </trkpt>
      <trkpt lat="46.3497" lon="4.70544">
        <ele>196.4</ele>
        <time>2011-04-10T09:02:40Z</time>
      </trkpt>
      <trkpt lat="46.34979" lon="4.70559">
        <ele>195.2</ele>
        <time>2011-04-10T09:02:42Z</time>
      </trkpt>
      <trkpt lat="46.34987" lon="4.70565">
        <ele>194.6</ele>
        <time>2011-04-10T09:02:43Z</time>
      </trkpt>
      <trkpt lat="46.34995" lon="4.70568">
        <ele>194.2</ele>
        <time>2011-04-10T09:02:44Z</time>
      </trkpt>
      <trkpt lat="46.35001" lon="4.70571">
        <ele>193.4</ele>
        <time>2011-04-10T09:02:45Z</time>
      </trkpt>
      <trkpt lat="46.35007" lon="4.70573">
        <ele>192.8</ele>
        <time>2011-04-10T09:02:46Z</time>
      </trkpt>
      <trkpt lat="46.35011" lon="4.70573">
        <ele>192.2</ele>
        <time>2011-04-10T09:02:47Z</time>
      </trkpt>
      <trkpt lat="46.35015" lon="4.70568">
        <ele>191</ele>
        <time>2011-04-10T09:02:49Z</time>
      </trkpt>
      <trkpt lat="46.35015" lon="4.70565">
        <ele>190.4</ele>
        <time>2011-04-10T09:02:50Z</time>
      </trkpt>
      <trkpt lat="46.35016" lon="4.70562">
        <ele>189.8</ele>
        <time>2011-04-10T09:02:51Z</time>
      </trkpt>
      <trkpt lat="46.35016" lon="4.70561">
        <ele>188.8</ele>
        <time>2011-04-10T09:02:53Z</time>
      </trkpt>
      <trkpt lat="46.3501" lon="4.70572">
        <ele>187.6</ele>
        <time>2011-04-10T09:02:56Z</time>
      </trkpt>
      <trkpt lat="46.35004" lon="4.70584">
        <ele>187</ele>
        <time>2011-04-10T09:02:58Z</time>
      </trkpt>
      <trkpt lat="46.34997" lon="4.70598">
        <ele>186.6</ele>
        <time>2011-04-10T09:03:00Z</time>
      </trkpt>
      <trkpt lat="46.34984" lon="4.70643">
        <ele>185.6</ele>
        <time>2011-04-10T09:03:08Z</time>
      </trkpt>
      <trkpt lat="46.34975" lon="4.70673">
        <ele>185</ele>
        <time>2011-04-10T09:03:13Z</time>
      </trkpt>
      <trkpt lat="46.34974" lon="4.70679">
        <ele>185</ele>
        <time>2011-04-10T09:03:14Z</time>
      </trkpt>
      <trkpt lat="46.34965" lon="4.70724">
        <ele>184.8</ele>
        <time>2011-04-10T09:03:21Z</time>
      </trkpt>
      <trkpt lat="46.34964" lon="4.70731">
        <ele>184.8</ele>
        <time>2011-04-10T09:03:22Z</time>
      </trkpt>
      <trkpt lat="46.34957" lon="4.70772">
        <ele>184.6</ele>
        <time>2011-04-10T09:03:28Z</time>
      </trkpt>
      <trkpt lat="46.34954" lon="4.70778">
        <ele>184.8</ele>
        <time>2011-04-10T09:03:29Z</time>
      </trkpt>
      <trkpt lat="46.34949" lon="4.70789">
        <ele>185.2</ele>
        <time>2011-04-10T09:03:31Z</time>
      </trkpt>
      <trkpt lat="46.34946" lon="4.70794">
        <ele>185.4</ele>
        <time>2011-04-10T09:03:32Z</time>
      </trkpt>
      <trkpt lat="46.34938" lon="4.70809">
        <ele>185.8</ele>
        <time>2011-04-10T09:03:35Z</time>
      </trkpt>
      <trkpt lat="46.34936" lon="4.70814">
        <ele>186</ele>
        <time>2011-04-10T09:03:36Z</time>
      </trkpt>
      <trkpt lat="46.34931" lon="4.70827">
        <ele>186.6</ele>
        <time>2011-04-10T09:03:38Z</time>
      </trkpt>
      <trkpt lat="46.34926" lon="4.70839">
        <ele>187.2</ele>
        <time>2011-04-10T09:03:40Z</time>
      </trkpt>
      <trkpt lat="46.34923" lon="4.70845">
        <ele>187.4</ele>
        <time>2011-04-10T09:03:41Z</time>
      </trkpt>
      <trkpt lat="46.3492" lon="4.7085">
        <ele>187.4</ele>
        <time>2011-04-10T09:03:42Z</time>
      </trkpt>
      <trkpt lat="46.34914" lon="4.70861">
        <ele>187.8</ele>
        <time>2011-04-10T09:03:44Z</time>
      </trkpt>
      <trkpt lat="46.34898" lon="4.70889">
        <ele>188.6</ele>
        <time>2011-04-10T09:03:50Z</time>
      </trkpt>
      <trkpt lat="46.34894" lon="4.70897">
        <ele>189.2</ele>
        <time>2011-04-10T09:03:52Z</time>
      </trkpt>
      <trkpt lat="46.3489" lon="4.70903">
        <ele>189.6</ele>
        <time>2011-04-10T09:03:54Z</time>
      </trkpt>
      <trkpt lat="46.34886" lon="4.70911">
        <ele>189.8</ele>
        <time>2011-04-10T09:03:56Z</time>
      </trkpt>
      <trkpt lat="46.34882" lon="4.70919">
        <ele>190.2</ele>
        <time>2011-04-10T09:03:58Z</time>
      </trkpt>
      <trkpt lat="46.34878" lon="4.70926">
        <ele>190.6</ele>
        <time>2011-04-10T09:04:00Z</time>
      </trkpt>
      <trkpt lat="46.34874" lon="4.70934">
        <ele>191</ele>
        <time>2011-04-10T09:04:02Z</time>
      </trkpt>
      <trkpt lat="46.3487" lon="4.70941">
        <ele>191.4</ele>
        <time>2011-04-10T09:04:04Z</time>
      </trkpt>
      <trkpt lat="46.34866" lon="4.70947">
        <ele>191.8</ele>
        <time>2011-04-10T09:04:06Z</time>
      </trkpt>
      <trkpt lat="46.34861" lon="4.70953">
        <ele>192</ele>
        <time>2011-04-10T09:04:08Z</time>
      </trkpt>
      <trkpt lat="46.34853" lon="4.70962">
        <ele>192.6</ele>
        <time>2011-04-10T09:04:12Z</time>
      </trkpt>
      <trkpt lat="46.34848" lon="4.70967">
        <ele>193.2</ele>
        <time>2011-04-10T09:04:13Z</time>
      </trkpt>
      <trkpt lat="46.34843" lon="4.70972">
        <ele>193.6</ele>
        <time>2011-04-10T09:04:15Z</time>
      </trkpt>
      <trkpt lat="46.34837" lon="4.70976">
        <ele>194</ele>
        <time>2011-04-10T09:04:17Z</time>
      </trkpt>
      <trkpt lat="46.34832" lon="4.70979">
        <ele>194.2</ele>
        <time>2011-04-10T09:04:19Z</time>
      </trkpt>
      <trkpt lat="46.34824" lon="4.70985">
        <ele>195</ele>
        <time>2011-04-10T09:04:23Z</time>
      </trkpt>
      <trkpt lat="46.3482" lon="4.70988">
        <ele>195.4</ele>
        <time>2011-04-10T09:04:25Z</time>
      </trkpt>
      <trkpt lat="46.34816" lon="4.7099">
        <ele>195.8</ele>
        <time>2011-04-10T09:04:27Z</time>
      </trkpt>
      <trkpt lat="46.34811" lon="4.70992">
        <ele>196.2</ele>
        <time>2011-04-10T09:04:29Z</time>
      </trkpt>
      <trkpt lat="46.34807" lon="4.70993">
        <ele>196.4</ele>
        <time>2011-04-10T09:04:31Z</time>
      </trkpt>
      <trkpt lat="46.34798" lon="4.70989">
        <ele>197.2</ele>
        <time>2011-04-10T09:04:36Z</time>
      </trkpt>
      <trkpt lat="46.34795" lon="4.70987">
        <ele>197.6</ele>
        <time>2011-04-10T09:04:38Z</time>
      </trkpt>
      <trkpt lat="46.34791" lon="4.70986">
        <ele>198</ele>
        <time>2011-04-10T09:04:40Z</time>
      </trkpt>
      <trkpt lat="46.34788" lon="4.70985">
        <ele>198.4</ele>
        <time>2011-04-10T09:04:42Z</time>
      </trkpt>
      <trkpt lat="46.34784" lon="4.70983">
        <ele>198.6</ele>
        <time>2011-04-10T09:04:44Z</time>
      </trkpt>
      <trkpt lat="46.34778" lon="4.7098">
        <ele>199.2</ele>
        <time>2011-04-10T09:04:47Z</time>
      </trkpt>
      <trkpt lat="46.34774" lon="4.70978">
        <ele>199.6</ele>
        <time>2011-04-10T09:04:49Z</time>
      </trkpt>
      <trkpt lat="46.3477" lon="4.70977">
        <ele>200</ele>
        <time>2011-04-10T09:04:51Z</time>
      </trkpt>
      <trkpt lat="46.34767" lon="4.70976">
        <ele>200.4</ele>
        <time>2011-04-10T09:04:53Z</time>
      </trkpt>
      <trkpt lat="46.34763" lon="4.70974">
        <ele>200.6</ele>
        <time>2011-04-10T09:04:55Z</time>
      </trkpt>
      <trkpt lat="46.34757" lon="4.70971">
        <ele>201.2</ele>
        <time>2011-04-10T09:04:59Z</time>
      </trkpt>
      <trkpt lat="46.34753" lon="4.70969">
        <ele>201.8</ele>
        <time>2011-04-10T09:05:01Z</time>
      </trkpt>
      <trkpt lat="46.34749" lon="4.70967">
        <ele>202.2</ele>
        <time>2011-04-10T09:05:03Z</time>
      </trkpt>
      <trkpt lat="46.34745" lon="4.70965">
        <ele>202.4</ele>
        <time>2011-04-10T09:05:05Z</time>
      </trkpt>
      <trkpt lat="46.34742" lon="4.70964">
        <ele>202.8</ele>
        <time>2011-04-10T09:05:07Z</time>
      </trkpt>
      <trkpt lat="46.34739" lon="4.70963">
        <ele>203</ele>
        <time>2011-04-10T09:05:09Z</time>
      </trkpt>
      <trkpt lat="46.34736" lon="4.70962">
        <ele>203.4</ele>
        <time>2011-04-10T09:05:11Z</time>
      </trkpt>
      <trkpt lat="46.34734" lon="4.70961">
        <ele>203.8</ele>
        <time>2011-04-10T09:05:13Z</time>
      </trkpt>
      <trkpt lat="46.34731" lon="4.7096">
        <ele>204.4</ele>
        <time>2011-04-10T09:05:15Z</time>
      </trkpt>
      <trkpt lat="46.3473" lon="4.70958">
        <ele>204.6</ele>
        <time>2011-04-10T09:05:16Z</time>
      </trkpt>
      <trkpt lat="46.34729" lon="4.70954">
        <ele>205</ele>
        <time>2011-04-10T09:05:19Z</time>
      </trkpt>
      <trkpt lat="46.34727" lon="4.70953">
        <ele>205.2</ele>
        <time>2011-04-10T09:05:22Z</time>
      </trkpt>
      <trkpt lat="46.34727" lon="4.70957">
        <ele>205.6</ele>
        <time>2011-04-10T09:05:28Z</time>
      </trkpt>
      <trkpt lat="46.34727" lon="4.70957">
        <ele>206</ele>
        <time>2011-04-10T09:05:29Z</time>
      </trkpt>
      <trkpt lat="46.34727" lon="4.70957">
        <ele>206.4</ele>
        <time>2011-04-10T09:05:31Z</time>
      </trkpt>
      <trkpt lat="46.34727" lon="4.70957">
        <ele>206.6</ele>
        <time>2011-04-10T09:05:33Z</time>
      </trkpt>
      <trkpt lat="46.34727" lon="4.70957">
        <ele>207</ele>
        <time>2011-04-10T09:05:35Z</time>
      </trkpt>
      <trkpt lat="46.34727" lon="4.70957">
        <ele>207.2</ele>
        <time>2011-04-10T09:05:37Z</time>
      </trkpt>
      <trkpt lat="46.34728" lon="4.70959">
        <ele>207.6</ele>
        <time>2011-04-10T09:05:42Z</time>
      </trkpt>
      <trkpt lat="46.34727" lon="4.70959">
        <ele>208</ele>
        <time>2011-04-10T09:05:52Z</time>
      </trkpt>
      <trkpt lat="46.34727" lon="4.70959">
        <ele>208</ele>
        <time>2011-04-10T09:05:54Z</time>
      </trkpt>
      <trkpt lat="46.34727" lon="4.70959">
        <ele>208</ele>
        <time>2011-04-10T09:05:57Z</time>
      </trkpt>
      <trkpt lat="46.34727" lon="4.70959">
        <ele>208</ele>
        <time>2011-04-10T09:05:59Z</time>
      </trkpt>
      <trkpt lat="46.34738" lon="4.70964">
        <ele>208</ele>
        <time>2011-04-10T09:06:03Z</time>
      </trkpt>
      <trkpt lat="46.34758" lon="4.70972">
        <ele>207.8</ele>
        <time>2011-04-10T09:06:06Z</time>
      </trkpt>
      <trkpt lat="46.34773" lon="4.70977">
        <ele>207.4</ele>
        <time>2011-04-10T09:06:08Z</time>
      </trkpt>
      <trkpt lat="46.34788" lon="4.70984">
        <ele>207.2</ele>
        <time>2011-04-10T09:06:10Z</time>
      </trkpt>
      <trkpt lat="46.34796" lon="4.70987">
        <ele>206.8</ele>
        <time>2011-04-10T09:06:11Z</time>
      </trkpt>
      <trkpt lat="46.34804" lon="4.7099">
        <ele>206.4</ele>
        <time>2011-04-10T09:06:12Z</time>
      </trkpt>
      <trkpt lat="46.34819" lon="4.7099">
        <ele>205.6</ele>
        <time>2011-04-10T09:06:14Z</time>
      </trkpt>
      <trkpt lat="46.34834" lon="4.7098">
        <ele>204.8</ele>
        <time>2011-04-10T09:06:16Z</time>
      </trkpt>
      <trkpt lat="46.34848" lon="4.70966">
        <ele>204</ele>
        <time>2011-04-10T09:06:18Z</time>
      </trkpt>
      <trkpt lat="46.34855" lon="4.70958">
        <ele>203.6</ele>
        <time>2011-04-10T09:06:19Z</time>
      </trkpt>
      <trkpt lat="46.34861" lon="4.70951">
        <ele>203</ele>
        <time>2011-04-10T09:06:20Z</time>
      </trkpt>
      <trkpt lat="46.34877" lon="4.70926">
        <ele>202</ele>
        <time>2011-04-10T09:06:23Z</time>
      </trkpt>
      <trkpt lat="46.34887" lon="4.70908">
        <ele>201.2</ele>
        <time>2011-04-10T09:06:25Z</time>
      </trkpt>
      <trkpt lat="46.34897" lon="4.70889">
        <ele>200.4</ele>
        <time>2011-04-10T09:06:27Z</time>
      </trkpt>
      <trkpt lat="46.34908" lon="4.70871">
        <ele>199.8</ele>
        <time>2011-04-10T09:06:29Z</time>
      </trkpt>
      <trkpt lat="46.34913" lon="4.70861">
        <ele>199.2</ele>
        <time>2011-04-10T09:06:30Z</time>
      </trkpt>
      <trkpt lat="46.34924" lon="4.70842">
        <ele>198.4</ele>
        <time>2011-04-10T09:06:32Z</time>
      </trkpt>
      <trkpt lat="46.34933" lon="4.70823">
        <ele>197.4</ele>
        <time>2011-04-10T09:06:34Z</time>
      </trkpt>
      <trkpt lat="46.34937" lon="4.70813">
        <ele>197</ele>
        <time>2011-04-10T09:06:35Z</time>
      </trkpt>
      <trkpt lat="46.34948" lon="4.70788">
        <ele>195.8</ele>
        <time>2011-04-10T09:06:38Z</time>
      </trkpt>
      <trkpt lat="46.34955" lon="4.70773">
        <ele>195.2</ele>
        <time>2011-04-10T09:06:40Z</time>
      </trkpt>
      <trkpt lat="46.34958" lon="4.70764">
        <ele>194.8</ele>
        <time>2011-04-10T09:06:41Z</time>
      </trkpt>
      <trkpt lat="46.34965" lon="4.70733">
        <ele>193.6</ele>
        <time>2011-04-10T09:06:44Z</time>
      </trkpt>
      <trkpt lat="46.34966" lon="4.70722">
        <ele>193</ele>
        <time>2011-04-10T09:06:45Z</time>
      </trkpt>
      <trkpt lat="46.3497" lon="4.70701">
        <ele>192</ele>
        <time>2011-04-10T09:06:47Z</time>
      </trkpt>
      <trkpt lat="46.34974" lon="4.7068">
        <ele>191.2</ele>
        <time>2011-04-10T09:06:49Z</time>
      </trkpt>
      <trkpt lat="46.34976" lon="4.70668">
        <ele>190.8</ele>
        <time>2011-04-10T09:06:50Z</time>
      </trkpt>
      <trkpt lat="46.34986" lon="4.70635">
        <ele>190</ele>
        <time>2011-04-10T09:06:53Z</time>
      </trkpt>
      <trkpt lat="46.34989" lon="4.70624">
        <ele>189.8</ele>
        <time>2011-04-10T09:06:54Z</time>
      </trkpt>
      <trkpt lat="46.35001" lon="4.70596">
        <ele>189.2</ele>
        <time>2011-04-10T09:06:57Z</time>
      </trkpt>
      <trkpt lat="46.35023" lon="4.70543">
        <ele>188.6</ele>
        <time>2011-04-10T09:07:03Z</time>
      </trkpt>
      <trkpt lat="46.35036" lon="4.70512">
        <ele>188.4</ele>
        <time>2011-04-10T09:07:07Z</time>
      </trkpt>
      <trkpt lat="46.35046" lon="4.70519">
        <ele>187.6</ele>
        <time>2011-04-10T09:07:10Z</time>
      </trkpt>
      <trkpt lat="46.35047" lon="4.7052">
        <ele>187.4</ele>
        <time>2011-04-10T09:07:11Z</time>
      </trkpt>
      <trkpt lat="46.35045" lon="4.70553">
        <ele>186.8</ele>
        <time>2011-04-10T09:07:14Z</time>
      </trkpt>
      <trkpt lat="46.35044" lon="4.70572">
        <ele>186.2</ele>
        <time>2011-04-10T09:07:16Z</time>
      </trkpt>
      <trkpt lat="46.35044" lon="4.70591">
        <ele>185.8</ele>
        <time>2011-04-10T09:07:18Z</time>
      </trkpt>
      <trkpt lat="46.35044" lon="4.70611">
        <ele>185.4</ele>
        <time>2011-04-10T09:07:20Z</time>
      </trkpt>
      <trkpt lat="46.35045" lon="4.7063">
        <ele>185</ele>
        <time>2011-04-10T09:07:22Z</time>
      </trkpt>
      <trkpt lat="46.35046" lon="4.7064">
        <ele>184.8</ele>
        <time>2011-04-10T09:07:23Z</time>
      </trkpt>
      <trkpt lat="46.35056" lon="4.70676">
        <ele>184.4</ele>
        <time>2011-04-10T09:07:27Z</time>
      </trkpt>
      <trkpt lat="46.35074" lon="4.70707">
        <ele>184</ele>
        <time>2011-04-10T09:07:31Z</time>
      </trkpt>
      <trkpt lat="46.35077" lon="4.70717">
        <ele>183.8</ele>
        <time>2011-04-10T09:07:32Z</time>
      </trkpt>
      <trkpt lat="46.3508" lon="4.70727">
        <ele>183.4</ele>
        <time>2011-04-10T09:07:33Z</time>
      </trkpt>
      <trkpt lat="46.35085" lon="4.70751">
        <ele>183.2</ele>
        <time>2011-04-10T09:07:35Z</time>
      </trkpt>
      <trkpt lat="46.35091" lon="4.7076">
        <ele>183</ele>
        <time>2011-04-10T09:07:36Z</time>
      </trkpt>
      <trkpt lat="46.35096" lon="4.70768">
        <ele>182.8</ele>
        <time>2011-04-10T09:07:37Z</time>
      </trkpt>
      <trkpt lat="46.35107" lon="4.70783">
        <ele>182.6</ele>
        <time>2011-04-10T09:07:39Z</time>
      </trkpt>
      <trkpt lat="46.3511" lon="4.7079">
        <ele>182.4</ele>
        <time>2011-04-10T09:07:40Z</time>
      </trkpt>
      <trkpt lat="46.35117" lon="4.70817">
        <ele>182.2</ele>
        <time>2011-04-10T09:07:43Z</time>
      </trkpt>
      <trkpt lat="46.35121" lon="4.70877">
        <ele>181.8</ele>
        <time>2011-04-10T09:07:50Z</time>
      </trkpt>
      <trkpt lat="46.35118" lon="4.70945">
        <ele>181.6</ele>
        <time>2011-04-10T09:07:58Z</time>
      </trkpt>
      <trkpt lat="46.35117" lon="4.70952">
        <ele>181.6</ele>
        <time>2011-04-10T09:07:59Z</time>
      </trkpt>
      <trkpt lat="46.35108" lon="4.70985">
        <ele>181.6</ele>
        <time>2011-04-10T09:08:04Z</time>
      </trkpt>
      <trkpt lat="46.3511" lon="4.71019">
        <ele>181.6</ele>
        <time>2011-04-10T09:08:09Z</time>
      </trkpt>
      <trkpt lat="46.35112" lon="4.71025">
        <ele>181.6</ele>
        <time>2011-04-10T09:08:10Z</time>
      </trkpt>
      <trkpt lat="46.35133" lon="4.71055">
        <ele>181.6</ele>
        <time>2011-04-10T09:08:16Z</time>
      </trkpt>
      <trkpt lat="46.35152" lon="4.7108">
        <ele>181.8</ele>
        <time>2011-04-10T09:08:22Z</time>
      </trkpt>
      <trkpt lat="46.35156" lon="4.71088">
        <ele>182.2</ele>
        <time>2011-04-10T09:08:24Z</time>
      </trkpt>
      <trkpt lat="46.35159" lon="4.71098">
        <ele>182.4</ele>
        <time>2011-04-10T09:08:26Z</time>
      </trkpt>
      <trkpt lat="46.35162" lon="4.71107">
        <ele>182.6</ele>
        <time>2011-04-10T09:08:28Z</time>
      </trkpt>
      <trkpt lat="46.35165" lon="4.71117">
        <ele>182.8</ele>
        <time>2011-04-10T09:08:30Z</time>
      </trkpt>
      <trkpt lat="46.35168" lon="4.71125">
        <ele>183.2</ele>
        <time>2011-04-10T09:08:32Z</time>
      </trkpt>
      <trkpt lat="46.35172" lon="4.71133">
        <ele>183.8</ele>
        <time>2011-04-10T09:08:34Z</time>
      </trkpt>
      <trkpt lat="46.35175" lon="4.71141">
        <ele>184.2</ele>
        <time>2011-04-10T09:08:36Z</time>
      </trkpt>
      <trkpt lat="46.35177" lon="4.71144">
        <ele>184.6</ele>
        <time>2011-04-10T09:08:37Z</time>
      </trkpt>
      <trkpt lat="46.3518" lon="4.7115">
        <ele>185.2</ele>
        <time>2011-04-10T09:08:39Z</time>
      </trkpt>
      <trkpt lat="46.35183" lon="4.71155">
        <ele>185.8</ele>
        <time>2011-04-10T09:08:41Z</time>
      </trkpt>
      <trkpt lat="46.35186" lon="4.7116">
        <ele>186.2</ele>
        <time>2011-04-10T09:08:43Z</time>
      </trkpt>
      <trkpt lat="46.35187" lon="4.71163">
        <ele>186.6</ele>
        <time>2011-04-10T09:08:44Z</time>
      </trkpt>
      <trkpt lat="46.3519" lon="4.71167">
        <ele>187.4</ele>
        <time>2011-04-10T09:08:46Z</time>
      </trkpt>
      <trkpt lat="46.35192" lon="4.71173">
        <ele>188</ele>
        <time>2011-04-10T09:08:48Z</time>
      </trkpt>
      <trkpt lat="46.35194" lon="4.71178">
        <ele>188.6</ele>
        <time>2011-04-10T09:08:50Z</time>
      </trkpt>
      <trkpt lat="46.35195" lon="4.71183">
        <ele>189.4</ele>
        <time>2011-04-10T09:08:52Z</time>
      </trkpt>
      <trkpt lat="46.35197" lon="4.71189">
        <ele>190</ele>
        <time>2011-04-10T09:08:54Z</time>
      </trkpt>
      <trkpt lat="46.35198" lon="4.71195">
        <ele>190.4</ele>
        <time>2011-04-10T09:08:56Z</time>
      </trkpt>
      <trkpt lat="46.35199" lon="4.71202">
        <ele>190.8</ele>
        <time>2011-04-10T09:08:58Z</time>
      </trkpt>
      <trkpt lat="46.35199" lon="4.71209">
        <ele>191.4</ele>
        <time>2011-04-10T09:09:00Z</time>
      </trkpt>
      <trkpt lat="46.35199" lon="4.71215">
        <ele>192</ele>
        <time>2011-04-10T09:09:02Z</time>
      </trkpt>
      <trkpt lat="46.35199" lon="4.71222">
        <ele>192.6</ele>
        <time>2011-04-10T09:09:04Z</time>
      </trkpt>
      <trkpt lat="46.352" lon="4.71228">
        <ele>193</ele>
        <time>2011-04-10T09:09:06Z</time>
      </trkpt>
      <trkpt lat="46.352" lon="4.71235">
        <ele>193.2</ele>
        <time>2011-04-10T09:09:08Z</time>
      </trkpt>
      <trkpt lat="46.35199" lon="4.71245">
        <ele>193.8</ele>
        <time>2011-04-10T09:09:11Z</time>
      </trkpt>
      <trkpt lat="46.35198" lon="4.71252">
        <ele>194.4</ele>
        <time>2011-04-10T09:09:13Z</time>
      </trkpt>
      <trkpt lat="46.35197" lon="4.71258">
        <ele>194.8</ele>
        <time>2011-04-10T09:09:15Z</time>
      </trkpt>
      <trkpt lat="46.35196" lon="4.71264">
        <ele>195.2</ele>
        <time>2011-04-10T09:09:17Z</time>
      </trkpt>
      <trkpt lat="46.35193" lon="4.71274">
        <ele>195.6</ele>
        <time>2011-04-10T09:09:21Z</time>
      </trkpt>
      <trkpt lat="46.35192" lon="4.71279">
        <ele>196.2</ele>
        <time>2011-04-10T09:09:22Z</time>
      </trkpt>
      <trkpt lat="46.3519" lon="4.71285">
        <ele>196.8</ele>
        <time>2011-04-10T09:09:24Z</time>
      </trkpt>
      <trkpt lat="46.35189" lon="4.71288">
        <ele>197</ele>
        <time>2011-04-10T09:09:25Z</time>
      </trkpt>
      <trkpt lat="46.35187" lon="4.71291">
        <ele>197.2</ele>
        <time>2011-04-10T09:09:27Z</time>
      </trkpt>
      <trkpt lat="46.35185" lon="4.71295">
        <ele>197.6</ele>
        <time>2011-04-10T09:09:28Z</time>
      </trkpt>
      <trkpt lat="46.35183" lon="4.713">
        <ele>198.2</ele>
        <time>2011-04-10T09:09:30Z</time>
      </trkpt>
      <trkpt lat="46.3518" lon="4.71304">
        <ele>198.8</ele>
        <time>2011-04-10T09:09:32Z</time>
      </trkpt>
      <trkpt lat="46.35177" lon="4.71308">
        <ele>199.4</ele>
        <time>2011-04-10T09:09:34Z</time>
      </trkpt>
      <trkpt lat="46.35174" lon="4.71312">
        <ele>200</ele>
        <time>2011-04-10T09:09:36Z</time>
      </trkpt>
      <trkpt lat="46.35171" lon="4.71317">
        <ele>200.6</ele>
        <time>2011-04-10T09:09:38Z</time>
      </trkpt>
      <trkpt lat="46.35168" lon="4.71321">
        <ele>201</ele>
        <time>2011-04-10T09:09:40Z</time>
      </trkpt>
      <trkpt lat="46.35166" lon="4.71323">
        <ele>201.4</ele>
        <time>2011-04-10T09:09:41Z</time>
      </trkpt>
      <trkpt lat="46.35163" lon="4.71328">
        <ele>202.2</ele>
        <time>2011-04-10T09:09:43Z</time>
      </trkpt>
      <trkpt lat="46.3516" lon="4.71333">
        <ele>202.6</ele>
        <time>2011-04-10T09:09:45Z</time>
      </trkpt>
      <trkpt lat="46.35157" lon="4.71337">
        <ele>203.2</ele>
        <time>2011-04-10T09:09:47Z</time>
      </trkpt>
      <trkpt lat="46.35156" lon="4.7134">
        <ele>203.6</ele>
        <time>2011-04-10T09:09:48Z</time>
      </trkpt>
      <trkpt lat="46.35154" lon="4.71346">
        <ele>204.2</ele>
        <time>2011-04-10T09:09:50Z</time>
      </trkpt>
      <trkpt lat="46.35151" lon="4.71351">
        <ele>204.8</ele>
        <time>2011-04-10T09:09:52Z</time>
      </trkpt>
      <trkpt lat="46.35149" lon="4.71356">
        <ele>205.2</ele>
        <time>2011-04-10T09:09:54Z</time>
      </trkpt>
      <trkpt lat="46.35148" lon="4.71358">
        <ele>205.6</ele>
        <time>2011-04-10T09:09:55Z</time>
      </trkpt>
      <trkpt lat="46.35145" lon="4.71364">
        <ele>206.4</ele>
        <time>2011-04-10T09:09:57Z</time>
      </trkpt>
      <trkpt lat="46.35144" lon="4.71369">
        <ele>207</ele>
        <time>2011-04-10T09:09:59Z</time>
      </trkpt>
      <trkpt lat="46.35143" lon="4.71374">
        <ele>207.4</ele>
        <time>2011-04-10T09:10:01Z</time>
      </trkpt>
      <trkpt lat="46.35141" lon="4.7138">
        <ele>207.8</ele>
        <time>2011-04-10T09:10:03Z</time>
      </trkpt>
      <trkpt lat="46.35141" lon="4.71382">
        <ele>208.2</ele>
        <time>2011-04-10T09:10:04Z</time>
      </trkpt>
      <trkpt lat="46.3514" lon="4.71388">
        <ele>208.8</ele>
        <time>2011-04-10T09:10:06Z</time>
      </trkpt>
      <trkpt lat="46.35138" lon="4.71393">
        <ele>209.4</ele>
        <time>2011-04-10T09:10:08Z</time>
      </trkpt>
      <trkpt lat="46.35137" lon="4.71399">
        <ele>209.8</ele>
        <time>2011-04-10T09:10:10Z</time>
      </trkpt>
      <trkpt lat="46.35135" lon="4.71406">
        <ele>210.2</ele>
        <time>2011-04-10T09:10:12Z</time>
      </trkpt>
      <trkpt lat="46.35134" lon="4.71409">
        <ele>210.6</ele>
        <time>2011-04-10T09:10:13Z</time>
      </trkpt>
      <trkpt lat="46.35133" lon="4.71415">
        <ele>211.2</ele>
        <time>2011-04-10T09:10:15Z</time>
      </trkpt>
      <trkpt lat="46.35132" lon="4.71422">
        <ele>211.6</ele>
        <time>2011-04-10T09:10:17Z</time>
      </trkpt>
      <trkpt lat="46.35132" lon="4.71428">
        <ele>212</ele>
        <time>2011-04-10T09:10:19Z</time>
      </trkpt>
      <trkpt lat="46.35131" lon="4.71435">
        <ele>212.4</ele>
        <time>2011-04-10T09:10:21Z</time>
      </trkpt>
      <trkpt lat="46.35131" lon="4.71438">
        <ele>212.8</ele>
        <time>2011-04-10T09:10:22Z</time>
      </trkpt>
      <trkpt lat="46.35131" lon="4.71445">
        <ele>213.2</ele>
        <time>2011-04-10T09:10:24Z</time>
      </trkpt>
      <trkpt lat="46.3513" lon="4.71452">
        <ele>213.8</ele>
        <time>2011-04-10T09:10:26Z</time>
      </trkpt>
      <trkpt lat="46.35129" lon="4.71459">
        <ele>214.2</ele>
        <time>2011-04-10T09:10:28Z</time>
      </trkpt>
      <trkpt lat="46.35128" lon="4.71466">
        <ele>214.4</ele>
        <time>2011-04-10T09:10:30Z</time>
      </trkpt>
      <trkpt lat="46.35128" lon="4.71469">
        <ele>214.8</ele>
        <time>2011-04-10T09:10:31Z</time>
      </trkpt>
      <trkpt lat="46.35127" lon="4.71476">
        <ele>215.4</ele>
        <time>2011-04-10T09:10:33Z</time>
      </trkpt>
      <trkpt lat="46.35127" lon="4.71482">
        <ele>215.8</ele>
        <time>2011-04-10T09:10:35Z</time>
      </trkpt>
      <trkpt lat="46.35126" lon="4.7149">
        <ele>216.2</ele>
        <time>2011-04-10T09:10:37Z</time>
      </trkpt>
      <trkpt lat="46.35125" lon="4.71497">
        <ele>216.6</ele>
        <time>2011-04-10T09:10:39Z</time>
      </trkpt>
      <trkpt lat="46.35124" lon="4.71508">
        <ele>217.2</ele>
        <time>2011-04-10T09:10:42Z</time>
      </trkpt>
      <trkpt lat="46.35124" lon="4.71515">
        <ele>217.6</ele>
        <time>2011-04-10T09:10:44Z</time>
      </trkpt>
      <trkpt lat="46.35123" lon="4.71522">
        <ele>218.2</ele>
        <time>2011-04-10T09:10:46Z</time>
      </trkpt>
      <trkpt lat="46.35123" lon="4.71529">
        <ele>218.6</ele>
        <time>2011-04-10T09:10:48Z</time>
      </trkpt>
      <trkpt lat="46.35122" lon="4.71536">
        <ele>218.8</ele>
        <time>2011-04-10T09:10:50Z</time>
      </trkpt>
      <trkpt lat="46.35122" lon="4.71539">
        <ele>219.2</ele>
        <time>2011-04-10T09:10:51Z</time>
      </trkpt>
      <trkpt lat="46.35122" lon="4.71546">
        <ele>219.8</ele>
        <time>2011-04-10T09:10:53Z</time>
      </trkpt>
      <trkpt lat="46.35121" lon="4.71553">
        <ele>220.2</ele>
        <time>2011-04-10T09:10:55Z</time>
      </trkpt>
      <trkpt lat="46.35121" lon="4.7156">
        <ele>220.6</ele>
        <time>2011-04-10T09:10:57Z</time>
      </trkpt>
      <trkpt lat="46.3512" lon="4.71566">
        <ele>220.8</ele>
        <time>2011-04-10T09:10:59Z</time>
      </trkpt>
      <trkpt lat="46.3512" lon="4.71569">
        <ele>221.2</ele>
        <time>2011-04-10T09:11:00Z</time>
      </trkpt>
      <trkpt lat="46.35119" lon="4.71576">
        <ele>221.8</ele>
        <time>2011-04-10T09:11:02Z</time>
      </trkpt>
      <trkpt lat="46.35118" lon="4.71581">
        <ele>222.4</ele>
        <time>2011-04-10T09:11:04Z</time>
      </trkpt>
      <trkpt lat="46.35118" lon="4.71585">
        <ele>222.8</ele>
        <time>2011-04-10T09:11:06Z</time>
      </trkpt>
      <trkpt lat="46.35118" lon="4.7159">
        <ele>223</ele>
        <time>2011-04-10T09:11:08Z</time>
      </trkpt>
      <trkpt lat="46.35119" lon="4.71593">
        <ele>223.2</ele>
        <time>2011-04-10T09:11:09Z</time>
      </trkpt>
      <trkpt lat="46.35121" lon="4.71596">
        <ele>223.6</ele>
        <time>2011-04-10T09:11:11Z</time>
      </trkpt>
      <trkpt lat="46.35125" lon="4.71598">
        <ele>224.2</ele>
        <time>2011-04-10T09:11:13Z</time>
      </trkpt>
      <trkpt lat="46.35128" lon="4.71597">
        <ele>224.4</ele>
        <time>2011-04-10T09:11:14Z</time>
      </trkpt>
      <trkpt lat="46.35135" lon="4.71597">
        <ele>225.2</ele>
        <time>2011-04-10T09:11:17Z</time>
      </trkpt>
      <trkpt lat="46.3514" lon="4.71597">
        <ele>225.4</ele>
        <time>2011-04-10T09:11:19Z</time>
      </trkpt>
      <trkpt lat="46.35142" lon="4.71597">
        <ele>225.8</ele>
        <time>2011-04-10T09:11:20Z</time>
      </trkpt>
      <trkpt lat="46.35146" lon="4.71597">
        <ele>226.4</ele>
        <time>2011-04-10T09:11:22Z</time>
      </trkpt>
      <trkpt lat="46.3515" lon="4.71597">
        <ele>226.8</ele>
        <time>2011-04-10T09:11:24Z</time>
      </trkpt>
      <trkpt lat="46.35154" lon="4.71597">
        <ele>227.2</ele>
        <time>2011-04-10T09:11:26Z</time>
      </trkpt>
      <trkpt lat="46.35156" lon="4.71598">
        <ele>227.4</ele>
        <time>2011-04-10T09:11:27Z</time>
      </trkpt>
      <trkpt lat="46.35158" lon="4.71599">
        <ele>227.6</ele>
        <time>2011-04-10T09:11:28Z</time>
      </trkpt>
      <trkpt lat="46.35161" lon="4.71602">
        <ele>228</ele>
        <time>2011-04-10T09:11:30Z</time>
      </trkpt>
      <trkpt lat="46.35164" lon="4.71606">
        <ele>228.6</ele>
        <time>2011-04-10T09:11:33Z</time>
      </trkpt>
      <trkpt lat="46.35168" lon="4.71608">
        <ele>229.2</ele>
        <time>2011-04-10T09:11:34Z</time>
      </trkpt>
      <trkpt lat="46.35172" lon="4.71612">
        <ele>229.4</ele>
        <time>2011-04-10T09:11:36Z</time>
      </trkpt>
      <trkpt lat="46.35176" lon="4.71615">
        <ele>229.8</ele>
        <time>2011-04-10T09:11:38Z</time>
      </trkpt>
      <trkpt lat="46.35181" lon="4.7162">
        <ele>230.4</ele>
        <time>2011-04-10T09:11:41Z</time>
      </trkpt>
      <trkpt lat="46.35184" lon="4.71624">
        <ele>230.8</ele>
        <time>2011-04-10T09:11:43Z</time>
      </trkpt>
      <trkpt lat="46.35189" lon="4.71627">
        <ele>231.4</ele>
        <time>2011-04-10T09:11:45Z</time>
      </trkpt>
      <trkpt lat="46.35193" lon="4.71629">
        <ele>231.6</ele>
        <time>2011-04-10T09:11:47Z</time>
      </trkpt>
      <trkpt lat="46.35196" lon="4.71633">
        <ele>232</ele>
        <time>2011-04-10T09:11:49Z</time>
      </trkpt>
      <trkpt lat="46.352" lon="4.71636">
        <ele>232.4</ele>
        <time>2011-04-10T09:11:51Z</time>
      </trkpt>
      <trkpt lat="46.35203" lon="4.71639">
        <ele>233</ele>
        <time>2011-04-10T09:11:53Z</time>
      </trkpt>
      <trkpt lat="46.35206" lon="4.71642">
        <ele>233.4</ele>
        <time>2011-04-10T09:11:55Z</time>
      </trkpt>
      <trkpt lat="46.35209" lon="4.71646">
        <ele>233.8</ele>
        <time>2011-04-10T09:11:57Z</time>
      </trkpt>
      <trkpt lat="46.35213" lon="4.7165">
        <ele>234</ele>
        <time>2011-04-10T09:11:59Z</time>
      </trkpt>
      <trkpt lat="46.35214" lon="4.71652">
        <ele>234.2</ele>
        <time>2011-04-10T09:12:00Z</time>
      </trkpt>
      <trkpt lat="46.3522" lon="4.71654">
        <ele>234.4</ele>
        <time>2011-04-10T09:12:03Z</time>
      </trkpt>
      <trkpt lat="46.35223" lon="4.71657">
        <ele>234.8</ele>
        <time>2011-04-10T09:12:05Z</time>
      </trkpt>
      <trkpt lat="46.35226" lon="4.71661">
        <ele>235.4</ele>
        <time>2011-04-10T09:12:07Z</time>
      </trkpt>
      <trkpt lat="46.35229" lon="4.71664">
        <ele>235.8</ele>
        <time>2011-04-10T09:12:09Z</time>
      </trkpt>
      <trkpt lat="46.35231" lon="4.71666">
        <ele>236</ele>
        <time>2011-04-10T09:12:10Z</time>
      </trkpt>
      <trkpt lat="46.35233" lon="4.71667">
        <ele>236</ele>
        <time>2011-04-10T09:12:11Z</time>
      </trkpt>
      <trkpt lat="46.35236" lon="4.71669">
        <ele>236.4</ele>
        <time>2011-04-10T09:12:13Z</time>
      </trkpt>
      <trkpt lat="46.35238" lon="4.7167">
        <ele>236.4</ele>
        <time>2011-04-10T09:12:14Z</time>
      </trkpt>
      <trkpt lat="46.35244" lon="4.71675">
        <ele>237</ele>
        <time>2011-04-10T09:12:17Z</time>
      </trkpt>
      <trkpt lat="46.35249" lon="4.71679">
        <ele>237.4</ele>
        <time>2011-04-10T09:12:19Z</time>
      </trkpt>
      <trkpt lat="46.35253" lon="4.71684">
        <ele>237.8</ele>
        <time>2011-04-10T09:12:21Z</time>
      </trkpt>
      <trkpt lat="46.35257" lon="4.71688">
        <ele>238.2</ele>
        <time>2011-04-10T09:12:23Z</time>
      </trkpt>
      <trkpt lat="46.3526" lon="4.71693">
        <ele>238.4</ele>
        <time>2011-04-10T09:12:25Z</time>
      </trkpt>
      <trkpt lat="46.35267" lon="4.71701">
        <ele>239</ele>
        <time>2011-04-10T09:12:28Z</time>
      </trkpt>
      <trkpt lat="46.3527" lon="4.71705">
        <ele>239.4</ele>
        <time>2011-04-10T09:12:30Z</time>
      </trkpt>
      <trkpt lat="46.35274" lon="4.7171">
        <ele>239.8</ele>
        <time>2011-04-10T09:12:32Z</time>
      </trkpt>
      <trkpt lat="46.35278" lon="4.71715">
        <ele>240.2</ele>
        <time>2011-04-10T09:12:34Z</time>
      </trkpt>
      <trkpt lat="46.35281" lon="4.71719">
        <ele>240.4</ele>
        <time>2011-04-10T09:12:36Z</time>
      </trkpt>
      <trkpt lat="46.35297" lon="4.71737">
        <ele>241.4</ele>
        <time>2011-04-10T09:12:44Z</time>
      </trkpt>
      <trkpt lat="46.35301" lon="4.71742">
        <ele>241.8</ele>
        <time>2011-04-10T09:12:46Z</time>
      </trkpt>
      <trkpt lat="46.35304" lon="4.71745">
        <ele>242.2</ele>
        <time>2011-04-10T09:12:48Z</time>
      </trkpt>
      <trkpt lat="46.35308" lon="4.71749">
        <ele>242.4</ele>
        <time>2011-04-10T09:12:50Z</time>
      </trkpt>
      <trkpt lat="46.35312" lon="4.71753">
        <ele>242.6</ele>
        <time>2011-04-10T09:12:52Z</time>
      </trkpt>
      <trkpt lat="46.35323" lon="4.71765">
        <ele>243.2</ele>
        <time>2011-04-10T09:12:59Z</time>
      </trkpt>
      <trkpt lat="46.35329" lon="4.71771">
        <ele>243.6</ele>
        <time>2011-04-10T09:13:02Z</time>
      </trkpt>
      <trkpt lat="46.35334" lon="4.71775">
        <ele>244</ele>
        <time>2011-04-10T09:13:04Z</time>
      </trkpt>
      <trkpt lat="46.35339" lon="4.71778">
        <ele>244.4</ele>
        <time>2011-04-10T09:13:06Z</time>
      </trkpt>
      <trkpt lat="46.35345" lon="4.71782">
        <ele>244.6</ele>
        <time>2011-04-10T09:13:08Z</time>
      </trkpt>
      <trkpt lat="46.3535" lon="4.71786">
        <ele>244.8</ele>
        <time>2011-04-10T09:13:10Z</time>
      </trkpt>
      <trkpt lat="46.35358" lon="4.71793">
        <ele>245.4</ele>
        <time>2011-04-10T09:13:13Z</time>
      </trkpt>
      <trkpt lat="46.35362" lon="4.71798">
        <ele>245.8</ele>
        <time>2011-04-10T09:13:15Z</time>
      </trkpt>
      <trkpt lat="46.35366" lon="4.71804">
        <ele>246.2</ele>
        <time>2011-04-10T09:13:17Z</time>
      </trkpt>
      <trkpt lat="46.35371" lon="4.71809">
        <ele>246.4</ele>
        <time>2011-04-10T09:13:19Z</time>
      </trkpt>
      <trkpt lat="46.35376" lon="4.71814">
        <ele>246.8</ele>
        <time>2011-04-10T09:13:21Z</time>
      </trkpt>
      <trkpt lat="46.35387" lon="4.71822">
        <ele>247.4</ele>
        <time>2011-04-10T09:13:25Z</time>
      </trkpt>
      <trkpt lat="46.35392" lon="4.71827">
        <ele>247.8</ele>
        <time>2011-04-10T09:13:27Z</time>
      </trkpt>
      <trkpt lat="46.35397" lon="4.71831">
        <ele>248.2</ele>
        <time>2011-04-10T09:13:29Z</time>
      </trkpt>
      <trkpt lat="46.35401" lon="4.71835">
        <ele>248.6</ele>
        <time>2011-04-10T09:13:31Z</time>
      </trkpt>
      <trkpt lat="46.35407" lon="4.71839">
        <ele>248.8</ele>
        <time>2011-04-10T09:13:33Z</time>
      </trkpt>
      <trkpt lat="46.35428" lon="4.71856">
        <ele>249.4</ele>
        <time>2011-04-10T09:13:41Z</time>
      </trkpt>
      <trkpt lat="46.3543" lon="4.71858">
        <ele>249.8</ele>
        <time>2011-04-10T09:13:42Z</time>
      </trkpt>
      <trkpt lat="46.35436" lon="4.71862">
        <ele>250.2</ele>
        <time>2011-04-10T09:13:44Z</time>
      </trkpt>
      <trkpt lat="46.35441" lon="4.71866">
        <ele>250.6</ele>
        <time>2011-04-10T09:13:46Z</time>
      </trkpt>
      <trkpt lat="46.35446" lon="4.7187">
        <ele>250.8</ele>
        <time>2011-04-10T09:13:48Z</time>
      </trkpt>
      <trkpt lat="46.35452" lon="4.71874">
        <ele>251</ele>
        <time>2011-04-10T09:13:50Z</time>
      </trkpt>
      <trkpt lat="46.35463" lon="4.71882">
        <ele>251.6</ele>
        <time>2011-04-10T09:13:54Z</time>
      </trkpt>
      <trkpt lat="46.35469" lon="4.71887">
        <ele>252.2</ele>
        <time>2011-04-10T09:13:56Z</time>
      </trkpt>
      <trkpt lat="46.35475" lon="4.71892">
        <ele>252.6</ele>
        <time>2011-04-10T09:13:58Z</time>
      </trkpt>
      <trkpt lat="46.35481" lon="4.71898">
        <ele>253</ele>
        <time>2011-04-10T09:14:00Z</time>
      </trkpt>
      <trkpt lat="46.35487" lon="4.71903">
        <ele>253.2</ele>
        <time>2011-04-10T09:14:02Z</time>
      </trkpt>
      <trkpt lat="46.35514" lon="4.71929">
        <ele>253.8</ele>
        <time>2011-04-10T09:14:11Z</time>
      </trkpt>
      <trkpt lat="46.35536" lon="4.71946">
        <ele>254.2</ele>
        <time>2011-04-10T09:14:18Z</time>
      </trkpt>
      <trkpt lat="46.35539" lon="4.71948">
        <ele>254.4</ele>
        <time>2011-04-10T09:14:19Z</time>
      </trkpt>
      <trkpt lat="46.35546" lon="4.71951">
        <ele>254.8</ele>
        <time>2011-04-10T09:14:21Z</time>
      </trkpt>
      <trkpt lat="46.35552" lon="4.71954">
        <ele>255</ele>
        <time>2011-04-10T09:14:23Z</time>
      </trkpt>
      <trkpt lat="46.35559" lon="4.71956">
        <ele>255.2</ele>
        <time>2011-04-10T09:14:25Z</time>
      </trkpt>
      <trkpt lat="46.35565" lon="4.71958">
        <ele>255.4</ele>
        <time>2011-04-10T09:14:27Z</time>
      </trkpt>
      <trkpt lat="46.35584" lon="4.71966">
        <ele>256.2</ele>
        <time>2011-04-10T09:14:34Z</time>
      </trkpt>
      <trkpt lat="46.35587" lon="4.71967">
        <ele>256.6</ele>
        <time>2011-04-10T09:14:36Z</time>
      </trkpt>
      <trkpt lat="46.35588" lon="4.71968">
        <ele>257</ele>
        <time>2011-04-10T09:14:38Z</time>
      </trkpt>
      <trkpt lat="46.35588" lon="4.71968">
        <ele>257.2</ele>
        <time>2011-04-10T09:14:40Z</time>
      </trkpt>
      <trkpt lat="46.35587" lon="4.71968">
        <ele>257.6</ele>
        <time>2011-04-10T09:14:42Z</time>
      </trkpt>
      <trkpt lat="46.35587" lon="4.71968">
        <ele>258.4</ele>
        <time>2011-04-10T09:14:58Z</time>
      </trkpt>
      <trkpt lat="46.35587" lon="4.71968">
        <ele>258.4</ele>
        <time>2011-04-10T09:15:13Z</time>
      </trkpt>
      <trkpt lat="46.35587" lon="4.71968">
        <ele>258.4</ele>
        <time>2011-04-10T09:15:17Z</time>
      </trkpt>
      <trkpt lat="46.35591" lon="4.71972">
        <ele>258.6</ele>
        <time>2011-04-10T09:15:28Z</time>
      </trkpt>
      <trkpt lat="46.35616" lon="4.71991">
        <ele>258.6</ele>
        <time>2011-04-10T09:15:35Z</time>
      </trkpt>
      <trkpt lat="46.35619" lon="4.71993">
        <ele>258.6</ele>
        <time>2011-04-10T09:15:36Z</time>
      </trkpt>
      <trkpt lat="46.35646" lon="4.72013">
        <ele>258.6</ele>
        <time>2011-04-10T09:15:43Z</time>
      </trkpt>
      <trkpt lat="46.35674" lon="4.72029">
        <ele>258.6</ele>
        <time>2011-04-10T09:15:50Z</time>
      </trkpt>
      <trkpt lat="46.35708" lon="4.72052">
        <ele>258.6</ele>
        <time>2011-04-10T09:15:59Z</time>
      </trkpt>
      <trkpt lat="46.35716" lon="4.72059">
        <ele>258.8</ele>
        <time>2011-04-10T09:16:01Z</time>
      </trkpt>
      <trkpt lat="46.35723" lon="4.72067">
        <ele>259</ele>
        <time>2011-04-10T09:16:03Z</time>
      </trkpt>
      <trkpt lat="46.35732" lon="4.72077">
        <ele>259.4</ele>
        <time>2011-04-10T09:16:05Z</time>
      </trkpt>
      <trkpt lat="46.35742" lon="4.72088">
        <ele>259.6</ele>
        <time>2011-04-10T09:16:07Z</time>
      </trkpt>
      <trkpt lat="46.35754" lon="4.721">
        <ele>259.8</ele>
        <time>2011-04-10T09:16:09Z</time>
      </trkpt>
      <trkpt lat="46.35774" lon="4.72124">
        <ele>259.8</ele>
        <time>2011-04-10T09:16:14Z</time>
      </trkpt>
      <trkpt lat="46.35784" lon="4.72134">
        <ele>259.6</ele>
        <time>2011-04-10T09:16:16Z</time>
      </trkpt>
      <trkpt lat="46.35793" lon="4.72144">
        <ele>259.4</ele>
        <time>2011-04-10T09:16:18Z</time>
      </trkpt>
      <trkpt lat="46.35803" lon="4.72154">
        <ele>259.2</ele>
        <time>2011-04-10T09:16:20Z</time>
      </trkpt>
      <trkpt lat="46.35814" lon="4.72163">
        <ele>259</ele>
        <time>2011-04-10T09:16:22Z</time>
      </trkpt>
      <trkpt lat="46.3583" lon="4.72174">
        <ele>258.8</ele>
        <time>2011-04-10T09:16:25Z</time>
      </trkpt>
      <trkpt lat="46.3584" lon="4.72183">
        <ele>258.4</ele>
        <time>2011-04-10T09:16:27Z</time>
      </trkpt>
      <trkpt lat="46.35849" lon="4.72195">
        <ele>258</ele>
        <time>2011-04-10T09:16:29Z</time>
      </trkpt>
      <trkpt lat="46.35853" lon="4.722">
        <ele>257.8</ele>
        <time>2011-04-10T09:16:30Z</time>
      </trkpt>
      <trkpt lat="46.3587" lon="4.72216">
        <ele>257.4</ele>
        <time>2011-04-10T09:16:33Z</time>
      </trkpt>
      <trkpt lat="46.35876" lon="4.72221">
        <ele>257</ele>
        <time>2011-04-10T09:16:34Z</time>
      </trkpt>
      <trkpt lat="46.35889" lon="4.7223">
        <ele>256.6</ele>
        <time>2011-04-10T09:16:36Z</time>
      </trkpt>
      <trkpt lat="46.359" lon="4.72237">
        <ele>256</ele>
        <time>2011-04-10T09:16:38Z</time>
      </trkpt>
      <trkpt lat="46.35909" lon="4.72243">
        <ele>255.6</ele>
        <time>2011-04-10T09:16:40Z</time>
      </trkpt>
      <trkpt lat="46.35915" lon="4.72246">
        <ele>255.4</ele>
        <time>2011-04-10T09:16:42Z</time>
      </trkpt>
      <trkpt lat="46.35921" lon="4.7225">
        <ele>255</ele>
        <time>2011-04-10T09:16:45Z</time>
      </trkpt>
      <trkpt lat="46.35941" lon="4.7226">
        <ele>254.8</ele>
        <time>2011-04-10T09:16:49Z</time>
      </trkpt>
      <trkpt lat="46.35965" lon="4.72269">
        <ele>254.4</ele>
        <time>2011-04-10T09:16:54Z</time>
      </trkpt>
      <trkpt lat="46.35968" lon="4.72271">
        <ele>254.4</ele>
        <time>2011-04-10T09:16:55Z</time>
      </trkpt>
      <trkpt lat="46.3599" lon="4.72278">
        <ele>254.2</ele>
        <time>2011-04-10T09:17:00Z</time>
      </trkpt>
      <trkpt lat="46.36024" lon="4.72291">
        <ele>254.2</ele>
        <time>2011-04-10T09:17:06Z</time>
      </trkpt>
      <trkpt lat="46.36031" lon="4.72295">
        <ele>254</ele>
        <time>2011-04-10T09:17:07Z</time>
      </trkpt>
      <trkpt lat="46.36037" lon="4.723">
        <ele>253.8</ele>
        <time>2011-04-10T09:17:08Z</time>
      </trkpt>
      <trkpt lat="46.36044" lon="4.72305">
        <ele>253.6</ele>
        <time>2011-04-10T09:17:09Z</time>
      </trkpt>
      <trkpt lat="46.3605" lon="4.72311">
        <ele>253.4</ele>
        <time>2011-04-10T09:17:10Z</time>
      </trkpt>
      <trkpt lat="46.36071" lon="4.72328">
        <ele>252.8</ele>
        <time>2011-04-10T09:17:13Z</time>
      </trkpt>
      <trkpt lat="46.36086" lon="4.72338">
        <ele>252.2</ele>
        <time>2011-04-10T09:17:15Z</time>
      </trkpt>
      <trkpt lat="46.361" lon="4.72349">
        <ele>251.8</ele>
        <time>2011-04-10T09:17:17Z</time>
      </trkpt>
      <trkpt lat="46.36114" lon="4.72361">
        <ele>251.4</ele>
        <time>2011-04-10T09:17:19Z</time>
      </trkpt>
      <trkpt lat="46.36129" lon="4.72374">
        <ele>251.2</ele>
        <time>2011-04-10T09:17:21Z</time>
      </trkpt>
      <trkpt lat="46.36143" lon="4.72387">
        <ele>250.6</ele>
        <time>2011-04-10T09:17:23Z</time>
      </trkpt>
      <trkpt lat="46.36158" lon="4.72401">
        <ele>250.2</ele>
        <time>2011-04-10T09:17:25Z</time>
      </trkpt>
      <trkpt lat="46.36172" lon="4.72415">
        <ele>249.6</ele>
        <time>2011-04-10T09:17:27Z</time>
      </trkpt>
      <trkpt lat="46.36186" lon="4.72427">
        <ele>249.4</ele>
        <time>2011-04-10T09:17:29Z</time>
      </trkpt>
      <trkpt lat="46.36202" lon="4.72438">
        <ele>249</ele>
        <time>2011-04-10T09:17:31Z</time>
      </trkpt>
      <trkpt lat="46.36231" lon="4.72464">
        <ele>248.4</ele>
        <time>2011-04-10T09:17:35Z</time>
      </trkpt>
      <trkpt lat="46.36245" lon="4.72478">
        <ele>247.8</ele>
        <time>2011-04-10T09:17:37Z</time>
      </trkpt>
      <trkpt lat="46.36259" lon="4.72492">
        <ele>247.4</ele>
        <time>2011-04-10T09:17:39Z</time>
      </trkpt>
      <trkpt lat="46.36266" lon="4.72499">
        <ele>247.2</ele>
        <time>2011-04-10T09:17:40Z</time>
      </trkpt>
      <trkpt lat="46.36291" lon="4.72531">
        <ele>245.4</ele>
        <time>2011-04-10T09:17:44Z</time>
      </trkpt>
      <trkpt lat="46.36295" lon="4.72538">
        <ele>245</ele>
        <time>2011-04-10T09:17:45Z</time>
      </trkpt>
      <trkpt lat="46.36296" lon="4.72543">
        <ele>244.4</ele>
        <time>2011-04-10T09:17:46Z</time>
      </trkpt>
      <trkpt lat="46.36287" lon="4.72547">
        <ele>243</ele>
        <time>2011-04-10T09:17:48Z</time>
      </trkpt>
      <trkpt lat="46.3628" lon="4.72547">
        <ele>242.2</ele>
        <time>2011-04-10T09:17:49Z</time>
      </trkpt>
      <trkpt lat="46.36273" lon="4.72548">
        <ele>241.6</ele>
        <time>2011-04-10T09:17:50Z</time>
      </trkpt>
      <trkpt lat="46.36264" lon="4.7256">
        <ele>240.4</ele>
        <time>2011-04-10T09:17:52Z</time>
      </trkpt>
      <trkpt lat="46.36262" lon="4.72573">
        <ele>239.6</ele>
        <time>2011-04-10T09:17:53Z</time>
      </trkpt>
      <trkpt lat="46.36263" lon="4.7261">
        <ele>238.2</ele>
        <time>2011-04-10T09:17:55Z</time>
      </trkpt>
      <trkpt lat="46.36259" lon="4.72646">
        <ele>236.4</ele>
        <time>2011-04-10T09:17:57Z</time>
      </trkpt>
      <trkpt lat="46.36255" lon="4.72685">
        <ele>234.4</ele>
        <time>2011-04-10T09:17:59Z</time>
      </trkpt>
      <trkpt lat="46.36253" lon="4.72705">
        <ele>233.2</ele>
        <time>2011-04-10T09:18:00Z</time>
      </trkpt>
      <trkpt lat="46.36249" lon="4.72745">
        <ele>230.6</ele>
        <time>2011-04-10T09:18:02Z</time>
      </trkpt>
      <trkpt lat="46.36245" lon="4.72784">
        <ele>227.8</ele>
        <time>2011-04-10T09:18:04Z</time>
      </trkpt>
      <trkpt lat="46.36239" lon="4.72823">
        <ele>225.2</ele>
        <time>2011-04-10T09:18:06Z</time>
      </trkpt>
      <trkpt lat="46.36233" lon="4.72858">
        <ele>222.6</ele>
        <time>2011-04-10T09:18:08Z</time>
      </trkpt>
      <trkpt lat="46.36227" lon="4.72892">
        <ele>220.2</ele>
        <time>2011-04-10T09:18:10Z</time>
      </trkpt>
      <trkpt lat="46.36224" lon="4.72908">
        <ele>219</ele>
        <time>2011-04-10T09:18:11Z</time>
      </trkpt>
      <trkpt lat="46.3622" lon="4.72934">
        <ele>216.8</ele>
        <time>2011-04-10T09:18:13Z</time>
      </trkpt>
      <trkpt lat="46.36217" lon="4.72953">
        <ele>214.8</ele>
        <time>2011-04-10T09:18:15Z</time>
      </trkpt>
      <trkpt lat="46.36215" lon="4.72959">
        <ele>213.8</ele>
        <time>2011-04-10T09:18:16Z</time>
      </trkpt>
      <trkpt lat="46.36205" lon="4.7296">
        <ele>211.4</ele>
        <time>2011-04-10T09:18:19Z</time>
      </trkpt>
      <trkpt lat="46.362" lon="4.72957">
        <ele>210.8</ele>
        <time>2011-04-10T09:18:20Z</time>
      </trkpt>
      <trkpt lat="46.36184" lon="4.7295">
        <ele>209.2</ele>
        <time>2011-04-10T09:18:23Z</time>
      </trkpt>
      <trkpt lat="46.36154" lon="4.7294">
        <ele>207.6</ele>
        <time>2011-04-10T09:18:28Z</time>
      </trkpt>
      <trkpt lat="46.36129" lon="4.72933">
        <ele>206.6</ele>
        <time>2011-04-10T09:18:32Z</time>
      </trkpt>
      <trkpt lat="46.36116" lon="4.72929">
        <ele>205.8</ele>
        <time>2011-04-10T09:18:34Z</time>
      </trkpt>
      <trkpt lat="46.36102" lon="4.72926">
        <ele>205.4</ele>
        <time>2011-04-10T09:18:36Z</time>
      </trkpt>
      <trkpt lat="46.36089" lon="4.72923">
        <ele>204.8</ele>
        <time>2011-04-10T09:18:38Z</time>
      </trkpt>
      <trkpt lat="46.36076" lon="4.7292">
        <ele>204.6</ele>
        <time>2011-04-10T09:18:40Z</time>
      </trkpt>
      <trkpt lat="46.3603" lon="4.7291">
        <ele>203.6</ele>
        <time>2011-04-10T09:18:48Z</time>
      </trkpt>
      <trkpt lat="46.36011" lon="4.72906">
        <ele>203.4</ele>
        <time>2011-04-10T09:18:51Z</time>
      </trkpt>
      <trkpt lat="46.35964" lon="4.72904">
        <ele>203.4</ele>
        <time>2011-04-10T09:18:59Z</time>
      </trkpt>
      <trkpt lat="46.35952" lon="4.72903">
        <ele>203.8</ele>
        <time>2011-04-10T09:19:01Z</time>
      </trkpt>
      <trkpt lat="46.35941" lon="4.72902">
        <ele>204</ele>
        <time>2011-04-10T09:19:03Z</time>
      </trkpt>
      <trkpt lat="46.3593" lon="4.729">
        <ele>204.2</ele>
        <time>2011-04-10T09:19:05Z</time>
      </trkpt>
      <trkpt lat="46.35919" lon="4.72898">
        <ele>204.4</ele>
        <time>2011-04-10T09:19:07Z</time>
      </trkpt>
      <trkpt lat="46.35893" lon="4.72893">
        <ele>204.8</ele>
        <time>2011-04-10T09:19:12Z</time>
      </trkpt>
      <trkpt lat="46.35871" lon="4.7289">
        <ele>205</ele>
        <time>2011-04-10T09:19:17Z</time>
      </trkpt>
      <trkpt lat="46.35869" lon="4.72892">
        <ele>205</ele>
        <time>2011-04-10T09:19:18Z</time>
      </trkpt>
      <trkpt lat="46.35866" lon="4.72903">
        <ele>205</ele>
        <time>2011-04-10T09:19:21Z</time>
      </trkpt>
      <trkpt lat="46.3586" lon="4.72929">
        <ele>205</ele>
        <time>2011-04-10T09:19:27Z</time>
      </trkpt>
      <trkpt lat="46.35855" lon="4.72947">
        <ele>205.4</ele>
        <time>2011-04-10T09:19:31Z</time>
      </trkpt>
      <trkpt lat="46.35852" lon="4.72956">
        <ele>205.6</ele>
        <time>2011-04-10T09:19:33Z</time>
      </trkpt>
      <trkpt lat="46.35849" lon="4.72965">
        <ele>206</ele>
        <time>2011-04-10T09:19:35Z</time>
      </trkpt>
      <trkpt lat="46.35846" lon="4.72973">
        <ele>206.2</ele>
        <time>2011-04-10T09:19:37Z</time>
      </trkpt>
      <trkpt lat="46.35843" lon="4.72983">
        <ele>206.4</ele>
        <time>2011-04-10T09:19:39Z</time>
      </trkpt>
      <trkpt lat="46.35839" lon="4.72997">
        <ele>206.8</ele>
        <time>2011-04-10T09:19:42Z</time>
      </trkpt>
      <trkpt lat="46.35837" lon="4.73007">
        <ele>207.4</ele>
        <time>2011-04-10T09:19:45Z</time>
      </trkpt>
      <trkpt lat="46.35836" lon="4.73015">
        <ele>207.8</ele>
        <time>2011-04-10T09:19:46Z</time>
      </trkpt>
      <trkpt lat="46.35835" lon="4.73024">
        <ele>208</ele>
        <time>2011-04-10T09:19:48Z</time>
      </trkpt>
      <trkpt lat="46.35834" lon="4.73033">
        <ele>208.2</ele>
        <time>2011-04-10T09:19:50Z</time>
      </trkpt>
      <trkpt lat="46.35833" lon="4.73038">
        <ele>208.6</ele>
        <time>2011-04-10T09:19:51Z</time>
      </trkpt>
      <trkpt lat="46.35832" lon="4.73046">
        <ele>209.2</ele>
        <time>2011-04-10T09:19:53Z</time>
      </trkpt>
      <trkpt lat="46.3583" lon="4.73055">
        <ele>209.6</ele>
        <time>2011-04-10T09:19:55Z</time>
      </trkpt>
      <trkpt lat="46.35828" lon="4.73064">
        <ele>210</ele>
        <time>2011-04-10T09:19:57Z</time>
      </trkpt>
      <trkpt lat="46.35826" lon="4.73072">
        <ele>210.2</ele>
        <time>2011-04-10T09:19:59Z</time>
      </trkpt>
      <trkpt lat="46.35825" lon="4.73075">
        <ele>210.6</ele>
        <time>2011-04-10T09:20:00Z</time>
      </trkpt>
      <trkpt lat="46.35823" lon="4.73082">
        <ele>211.2</ele>
        <time>2011-04-10T09:20:02Z</time>
      </trkpt>
      <trkpt lat="46.3582" lon="4.73089">
        <ele>211.6</ele>
        <time>2011-04-10T09:20:04Z</time>
      </trkpt>
      <trkpt lat="46.35817" lon="4.73095">
        <ele>212</ele>
        <time>2011-04-10T09:20:06Z</time>
      </trkpt>
      <trkpt lat="46.35815" lon="4.73102">
        <ele>212.2</ele>
        <time>2011-04-10T09:20:08Z</time>
      </trkpt>
      <trkpt lat="46.35812" lon="4.73112">
        <ele>212.8</ele>
        <time>2011-04-10T09:20:11Z</time>
      </trkpt>
      <trkpt lat="46.3581" lon="4.73119">
        <ele>213.4</ele>
        <time>2011-04-10T09:20:13Z</time>
      </trkpt>
      <trkpt lat="46.3581" lon="4.73125">
        <ele>213.8</ele>
        <time>2011-04-10T09:20:15Z</time>
      </trkpt>
      <trkpt lat="46.35811" lon="4.73131">
        <ele>214.2</ele>
        <time>2011-04-10T09:20:17Z</time>
      </trkpt>
      <trkpt lat="46.35813" lon="4.73137">
        <ele>214.6</ele>
        <time>2011-04-10T09:20:19Z</time>
      </trkpt>
      <trkpt lat="46.35815" lon="4.73142">
        <ele>215.4</ele>
        <time>2011-04-10T09:20:21Z</time>
      </trkpt>
      <trkpt lat="46.35816" lon="4.73147">
        <ele>215.8</ele>
        <time>2011-04-10T09:20:23Z</time>
      </trkpt>
      <trkpt lat="46.35817" lon="4.73153">
        <ele>216.2</ele>
        <time>2011-04-10T09:20:25Z</time>
      </trkpt>
      <trkpt lat="46.35818" lon="4.73155">
        <ele>216.6</ele>
        <time>2011-04-10T09:20:26Z</time>
      </trkpt>
      <trkpt lat="46.35818" lon="4.7316">
        <ele>217.4</ele>
        <time>2011-04-10T09:20:28Z</time>
      </trkpt>
      <trkpt lat="46.35819" lon="4.73166">
        <ele>218</ele>
        <time>2011-04-10T09:20:30Z</time>
      </trkpt>
      <trkpt lat="46.35819" lon="4.73171">
        <ele>218.6</ele>
        <time>2011-04-10T09:20:32Z</time>
      </trkpt>
      <trkpt lat="46.35819" lon="4.73177">
        <ele>219.4</ele>
        <time>2011-04-10T09:20:34Z</time>
      </trkpt>
      <trkpt lat="46.35819" lon="4.7318">
        <ele>219.6</ele>
        <time>2011-04-10T09:20:35Z</time>
      </trkpt>
      <trkpt lat="46.35819" lon="4.73183">
        <ele>220</ele>
        <time>2011-04-10T09:20:36Z</time>
      </trkpt>
      <trkpt lat="46.35818" lon="4.73188">
        <ele>220.6</ele>
        <time>2011-04-10T09:20:38Z</time>
      </trkpt>
      <trkpt lat="46.35817" lon="4.73193">
        <ele>221.4</ele>
        <time>2011-04-10T09:20:40Z</time>
      </trkpt>
      <trkpt lat="46.35816" lon="4.73198">
        <ele>222</ele>
        <time>2011-04-10T09:20:42Z</time>
      </trkpt>
      <trkpt lat="46.35815" lon="4.73202">
        <ele>222.8</ele>
        <time>2011-04-10T09:20:44Z</time>
      </trkpt>
      <trkpt lat="46.35815" lon="4.73206">
        <ele>223.6</ele>
        <time>2011-04-10T09:20:46Z</time>
      </trkpt>
      <trkpt lat="46.35813" lon="4.7321">
        <ele>224.2</ele>
        <time>2011-04-10T09:20:48Z</time>
      </trkpt>
      <trkpt lat="46.35811" lon="4.73214">
        <ele>224.6</ele>
        <time>2011-04-10T09:20:50Z</time>
      </trkpt>
      <trkpt lat="46.3581" lon="4.73218">
        <ele>225.2</ele>
        <time>2011-04-10T09:20:52Z</time>
      </trkpt>
      <trkpt lat="46.35808" lon="4.73222">
        <ele>226</ele>
        <time>2011-04-10T09:20:54Z</time>
      </trkpt>
      <trkpt lat="46.35806" lon="4.73226">
        <ele>226.6</ele>
        <time>2011-04-10T09:20:56Z</time>
      </trkpt>
      <trkpt lat="46.35805" lon="4.73231">
        <ele>227</ele>
        <time>2011-04-10T09:20:58Z</time>
      </trkpt>
      <trkpt lat="46.35803" lon="4.73234">
        <ele>227.6</ele>
        <time>2011-04-10T09:21:00Z</time>
      </trkpt>
      <trkpt lat="46.35802" lon="4.73238">
        <ele>228.2</ele>
        <time>2011-04-10T09:21:02Z</time>
      </trkpt>
      <trkpt lat="46.35802" lon="4.7324">
        <ele>228.4</ele>
        <time>2011-04-10T09:21:03Z</time>
      </trkpt>
      <trkpt lat="46.35801" lon="4.73244">
        <ele>229.2</ele>
        <time>2011-04-10T09:21:06Z</time>
      </trkpt>
      <trkpt lat="46.358" lon="4.73248">
        <ele>229.4</ele>
        <time>2011-04-10T09:21:08Z</time>
      </trkpt>
      <trkpt lat="46.35801" lon="4.73251">
        <ele>230</ele>
        <time>2011-04-10T09:21:10Z</time>
      </trkpt>
      <trkpt lat="46.35801" lon="4.73254">
        <ele>230.6</ele>
        <time>2011-04-10T09:21:12Z</time>
      </trkpt>
      <trkpt lat="46.35801" lon="4.73257">
        <ele>231</ele>
        <time>2011-04-10T09:21:14Z</time>
      </trkpt>
      <trkpt lat="46.35799" lon="4.73261">
        <ele>231.4</ele>
        <time>2011-04-10T09:21:16Z</time>
      </trkpt>
      <trkpt lat="46.35798" lon="4.73265">
        <ele>231.6</ele>
        <time>2011-04-10T09:21:18Z</time>
      </trkpt>
      <trkpt lat="46.35798" lon="4.73267">
        <ele>232</ele>
        <time>2011-04-10T09:21:19Z</time>
      </trkpt>
      <trkpt lat="46.35798" lon="4.7327">
        <ele>232.6</ele>
        <time>2011-04-10T09:21:21Z</time>
      </trkpt>
      <trkpt lat="46.35797" lon="4.73273">
        <ele>233</ele>
        <time>2011-04-10T09:21:23Z</time>
      </trkpt>
      <trkpt lat="46.35798" lon="4.73276">
        <ele>233.4</ele>
        <time>2011-04-10T09:21:25Z</time>
      </trkpt>
      <trkpt lat="46.35797" lon="4.73281">
        <ele>233.8</ele>
        <time>2011-04-10T09:21:27Z</time>
      </trkpt>
      <trkpt lat="46.35796" lon="4.73286">
        <ele>234.4</ele>
        <time>2011-04-10T09:21:30Z</time>
      </trkpt>
      <trkpt lat="46.35795" lon="4.7329">
        <ele>235</ele>
        <time>2011-04-10T09:21:32Z</time>
      </trkpt>
      <trkpt lat="46.35794" lon="4.73294">
        <ele>235.4</ele>
        <time>2011-04-10T09:21:34Z</time>
      </trkpt>
      <trkpt lat="46.35792" lon="4.733">
        <ele>235.8</ele>
        <time>2011-04-10T09:21:36Z</time>
      </trkpt>
      <trkpt lat="46.35788" lon="4.73308">
        <ele>236</ele>
        <time>2011-04-10T09:21:38Z</time>
      </trkpt>
      <trkpt lat="46.35787" lon="4.73311">
        <ele>236.4</ele>
        <time>2011-04-10T09:21:39Z</time>
      </trkpt>
      <trkpt lat="46.35786" lon="4.73318">
        <ele>237</ele>
        <time>2011-04-10T09:21:41Z</time>
      </trkpt>
      <trkpt lat="46.35785" lon="4.73323">
        <ele>237.4</ele>
        <time>2011-04-10T09:21:43Z</time>
      </trkpt>
      <trkpt lat="46.35784" lon="4.73328">
        <ele>237.8</ele>
        <time>2011-04-10T09:21:45Z</time>
      </trkpt>
      <trkpt lat="46.35783" lon="4.73332">
        <ele>238</ele>
        <time>2011-04-10T09:21:47Z</time>
      </trkpt>
      <trkpt lat="46.35778" lon="4.73342">
        <ele>238.8</ele>
        <time>2011-04-10T09:21:51Z</time>
      </trkpt>
      <trkpt lat="46.35777" lon="4.73348">
        <ele>239.4</ele>
        <time>2011-04-10T09:21:53Z</time>
      </trkpt>
      <trkpt lat="46.35775" lon="4.73354">
        <ele>239.8</ele>
        <time>2011-04-10T09:21:55Z</time>
      </trkpt>
      <trkpt lat="46.35774" lon="4.7336">
        <ele>240.2</ele>
        <time>2011-04-10T09:21:57Z</time>
      </trkpt>
      <trkpt lat="46.35773" lon="4.73363">
        <ele>240.2</ele>
        <time>2011-04-10T09:21:58Z</time>
      </trkpt>
      <trkpt lat="46.35772" lon="4.73369">
        <ele>240.8</ele>
        <time>2011-04-10T09:22:00Z</time>
      </trkpt>
      <trkpt lat="46.3577" lon="4.73374">
        <ele>241.2</ele>
        <time>2011-04-10T09:22:02Z</time>
      </trkpt>
      <trkpt lat="46.35769" lon="4.73378">
        <ele>241.8</ele>
        <time>2011-04-10T09:22:04Z</time>
      </trkpt>
      <trkpt lat="46.35768" lon="4.73383">
        <ele>242.2</ele>
        <time>2011-04-10T09:22:06Z</time>
      </trkpt>
      <trkpt lat="46.35767" lon="4.73388">
        <ele>242.4</ele>
        <time>2011-04-10T09:22:08Z</time>
      </trkpt>
      <trkpt lat="46.35764" lon="4.73398">
        <ele>243</ele>
        <time>2011-04-10T09:22:11Z</time>
      </trkpt>
      <trkpt lat="46.35763" lon="4.73403">
        <ele>243.6</ele>
        <time>2011-04-10T09:22:13Z</time>
      </trkpt>
      <trkpt lat="46.35763" lon="4.73407">
        <ele>244</ele>
        <time>2011-04-10T09:22:15Z</time>
      </trkpt>
      <trkpt lat="46.35762" lon="4.73409">
        <ele>244.2</ele>
        <time>2011-04-10T09:22:16Z</time>
      </trkpt>
      <trkpt lat="46.35761" lon="4.73412">
        <ele>244.4</ele>
        <time>2011-04-10T09:22:17Z</time>
      </trkpt>
      <trkpt lat="46.35759" lon="4.73418">
        <ele>244.6</ele>
        <time>2011-04-10T09:22:19Z</time>
      </trkpt>
      <trkpt lat="46.35759" lon="4.7342">
        <ele>244.8</ele>
        <time>2011-04-10T09:22:20Z</time>
      </trkpt>
      <trkpt lat="46.35758" lon="4.73425">
        <ele>245.2</ele>
        <time>2011-04-10T09:22:22Z</time>
      </trkpt>
      <trkpt lat="46.35756" lon="4.73429">
        <ele>245.8</ele>
        <time>2011-04-10T09:22:24Z</time>
      </trkpt>
      <trkpt lat="46.35755" lon="4.73434">
        <ele>246.2</ele>
        <time>2011-04-10T09:22:26Z</time>
      </trkpt>
      <trkpt lat="46.35754" lon="4.73439">
        <ele>246.6</ele>
        <time>2011-04-10T09:22:28Z</time>
      </trkpt>
      <trkpt lat="46.35753" lon="4.73445">
        <ele>246.8</ele>
        <time>2011-04-10T09:22:30Z</time>
      </trkpt>
      <trkpt lat="46.35752" lon="4.73448">
        <ele>247.2</ele>
        <time>2011-04-10T09:22:31Z</time>
      </trkpt>
      <trkpt lat="46.35751" lon="4.73453">
        <ele>247.8</ele>
        <time>2011-04-10T09:22:33Z</time>
      </trkpt>
      <trkpt lat="46.3575" lon="4.73457">
        <ele>248.2</ele>
        <time>2011-04-10T09:22:35Z</time>
      </trkpt>
      <trkpt lat="46.3575" lon="4.73462">
        <ele>248.6</ele>
        <time>2011-04-10T09:22:37Z</time>
      </trkpt>
      <trkpt lat="46.35749" lon="4.73467">
        <ele>249</ele>
        <time>2011-04-10T09:22:39Z</time>
      </trkpt>
      <trkpt lat="46.35749" lon="4.7347">
        <ele>249.2</ele>
        <time>2011-04-10T09:22:40Z</time>
      </trkpt>
      <trkpt lat="46.35749" lon="4.73474">
        <ele>249.6</ele>
        <time>2011-04-10T09:22:42Z</time>
      </trkpt>
      <trkpt lat="46.35748" lon="4.73479">
        <ele>250.2</ele>
        <time>2011-04-10T09:22:44Z</time>
      </trkpt>
      <trkpt lat="46.35747" lon="4.73482">
        <ele>250.4</ele>
        <time>2011-04-10T09:22:45Z</time>
      </trkpt>
      <trkpt lat="46.35746" lon="4.73485">
        <ele>250.6</ele>
        <time>2011-04-10T09:22:46Z</time>
      </trkpt>
      <trkpt lat="46.35745" lon="4.73491">
        <ele>251</ele>
        <time>2011-04-10T09:22:48Z</time>
      </trkpt>
      <trkpt lat="46.35743" lon="4.73497">
        <ele>251.4</ele>
        <time>2011-04-10T09:22:50Z</time>
      </trkpt>
      <trkpt lat="46.35743" lon="4.73503">
        <ele>251.8</ele>
        <time>2011-04-10T09:22:52Z</time>
      </trkpt>
      <trkpt lat="46.35742" lon="4.73509">
        <ele>252.4</ele>
        <time>2011-04-10T09:22:54Z</time>
      </trkpt>
      <trkpt lat="46.35742" lon="4.73512">
        <ele>252.8</ele>
        <time>2011-04-10T09:22:55Z</time>
      </trkpt>
      <trkpt lat="46.35742" lon="4.7352">
        <ele>253.4</ele>
        <time>2011-04-10T09:22:58Z</time>
      </trkpt>
      <trkpt lat="46.35742" lon="4.73525">
        <ele>253.6</ele>
        <time>2011-04-10T09:23:00Z</time>
      </trkpt>
      <trkpt lat="46.35742" lon="4.73528">
        <ele>254</ele>
        <time>2011-04-10T09:23:01Z</time>
      </trkpt>
      <trkpt lat="46.35742" lon="4.73531">
        <ele>254.4</ele>
        <time>2011-04-10T09:23:02Z</time>
      </trkpt>
      <trkpt lat="46.35743" lon="4.73538">
        <ele>255.2</ele>
        <time>2011-04-10T09:23:05Z</time>
      </trkpt>
      <trkpt lat="46.35742" lon="4.73543">
        <ele>255.6</ele>
        <time>2011-04-10T09:23:07Z</time>
      </trkpt>
      <trkpt lat="46.35742" lon="4.7355">
        <ele>256.2</ele>
        <time>2011-04-10T09:23:09Z</time>
      </trkpt>
      <trkpt lat="46.35742" lon="4.73554">
        <ele>256.8</ele>
        <time>2011-04-10T09:23:11Z</time>
      </trkpt>
      <trkpt lat="46.35742" lon="4.73557">
        <ele>257</ele>
        <time>2011-04-10T09:23:12Z</time>
      </trkpt>
      <trkpt lat="46.35741" lon="4.73559">
        <ele>257.2</ele>
        <time>2011-04-10T09:23:13Z</time>
      </trkpt>
      <trkpt lat="46.35739" lon="4.73565">
        <ele>257.6</ele>
        <time>2011-04-10T09:23:15Z</time>
      </trkpt>
      <trkpt lat="46.35738" lon="4.73571">
        <ele>258</ele>
        <time>2011-04-10T09:23:17Z</time>
      </trkpt>
      <trkpt lat="46.35738" lon="4.73574">
        <ele>258.4</ele>
        <time>2011-04-10T09:23:18Z</time>
      </trkpt>
      <trkpt lat="46.35738" lon="4.7358">
        <ele>259</ele>
        <time>2011-04-10T09:23:20Z</time>
      </trkpt>
      <trkpt lat="46.35739" lon="4.73586">
        <ele>259.6</ele>
        <time>2011-04-10T09:23:22Z</time>
      </trkpt>
      <trkpt lat="46.35739" lon="4.73591">
        <ele>260</ele>
        <time>2011-04-10T09:23:24Z</time>
      </trkpt>
      <trkpt lat="46.35739" lon="4.73593">
        <ele>260.2</ele>
        <time>2011-04-10T09:23:25Z</time>
      </trkpt>
      <trkpt lat="46.35739" lon="4.73595">
        <ele>260.6</ele>
        <time>2011-04-10T09:23:26Z</time>
      </trkpt>
      <trkpt lat="46.3574" lon="4.73599">
        <ele>261.2</ele>
        <time>2011-04-10T09:23:28Z</time>
      </trkpt>
      <trkpt lat="46.35739" lon="4.73603">
        <ele>261.6</ele>
        <time>2011-04-10T09:23:30Z</time>
      </trkpt>
      <trkpt lat="46.35739" lon="4.73608">
        <ele>262.2</ele>
        <time>2011-04-10T09:23:32Z</time>
      </trkpt>
      <trkpt lat="46.35738" lon="4.73612">
        <ele>262.6</ele>
        <time>2011-04-10T09:23:34Z</time>
      </trkpt>
      <trkpt lat="46.35738" lon="4.73617">
        <ele>263.2</ele>
        <time>2011-04-10T09:23:36Z</time>
      </trkpt>
      <trkpt lat="46.35738" lon="4.73619">
        <ele>263.6</ele>
        <time>2011-04-10T09:23:37Z</time>
      </trkpt>
      <trkpt lat="46.35739" lon="4.73622">
        <ele>263.8</ele>
        <time>2011-04-10T09:23:38Z</time>
      </trkpt>
      <trkpt lat="46.35739" lon="4.73626">
        <ele>264.2</ele>
        <time>2011-04-10T09:23:40Z</time>
      </trkpt>
      <trkpt lat="46.35739" lon="4.73629">
        <ele>264.6</ele>
        <time>2011-04-10T09:23:41Z</time>
      </trkpt>
      <trkpt lat="46.35739" lon="4.73634">
        <ele>265.2</ele>
        <time>2011-04-10T09:23:43Z</time>
      </trkpt>
      <trkpt lat="46.35738" lon="4.7364">
        <ele>265.8</ele>
        <time>2011-04-10T09:23:45Z</time>
      </trkpt>
      <trkpt lat="46.35736" lon="4.73645">
        <ele>266.2</ele>
        <time>2011-04-10T09:23:47Z</time>
      </trkpt>
      <trkpt lat="46.35736" lon="4.73648">
        <ele>266.4</ele>
        <time>2011-04-10T09:23:48Z</time>
      </trkpt>
      <trkpt lat="46.35735" lon="4.7365">
        <ele>266.6</ele>
        <time>2011-04-10T09:23:49Z</time>
      </trkpt>
      <trkpt lat="46.35734" lon="4.73655">
        <ele>267</ele>
        <time>2011-04-10T09:23:51Z</time>
      </trkpt>
      <trkpt lat="46.35733" lon="4.73659">
        <ele>267.6</ele>
        <time>2011-04-10T09:23:53Z</time>
      </trkpt>
      <trkpt lat="46.35732" lon="4.73663">
        <ele>268.2</ele>
        <time>2011-04-10T09:23:55Z</time>
      </trkpt>
      <trkpt lat="46.3573" lon="4.73666">
        <ele>268.6</ele>
        <time>2011-04-10T09:23:57Z</time>
      </trkpt>
      <trkpt lat="46.35729" lon="4.7367">
        <ele>269</ele>
        <time>2011-04-10T09:23:59Z</time>
      </trkpt>
      <trkpt lat="46.35727" lon="4.73673">
        <ele>269.8</ele>
        <time>2011-04-10T09:24:01Z</time>
      </trkpt>
      <trkpt lat="46.35726" lon="4.73677">
        <ele>270.4</ele>
        <time>2011-04-10T09:24:03Z</time>
      </trkpt>
      <trkpt lat="46.35724" lon="4.73681">
        <ele>270.8</ele>
        <time>2011-04-10T09:24:05Z</time>
      </trkpt>
      <trkpt lat="46.35723" lon="4.73684">
        <ele>271</ele>
        <time>2011-04-10T09:24:07Z</time>
      </trkpt>
      <trkpt lat="46.35722" lon="4.73686">
        <ele>271.4</ele>
        <time>2011-04-10T09:24:08Z</time>
      </trkpt>
      <trkpt lat="46.3572" lon="4.73689">
        <ele>272.2</ele>
        <time>2011-04-10T09:24:10Z</time>
      </trkpt>
      <trkpt lat="46.35719" lon="4.73692">
        <ele>272.6</ele>
        <time>2011-04-10T09:24:12Z</time>
      </trkpt>
      <trkpt lat="46.35718" lon="4.73693">
        <ele>272.8</ele>
        <time>2011-04-10T09:24:13Z</time>
      </trkpt>
      <trkpt lat="46.35717" lon="4.73695">
        <ele>273</ele>
        <time>2011-04-10T09:24:14Z</time>
      </trkpt>
      <trkpt lat="46.35716" lon="4.73696">
        <ele>273.4</ele>
        <time>2011-04-10T09:24:15Z</time>
      </trkpt>
      <trkpt lat="46.35715" lon="4.73698">
        <ele>274.2</ele>
        <time>2011-04-10T09:24:17Z</time>
      </trkpt>
      <trkpt lat="46.35713" lon="4.73702">
        <ele>274.6</ele>
        <time>2011-04-10T09:24:19Z</time>
      </trkpt>
      <trkpt lat="46.35711" lon="4.73706">
        <ele>275</ele>
        <time>2011-04-10T09:24:21Z</time>
      </trkpt>
      <trkpt lat="46.35709" lon="4.7371">
        <ele>275.6</ele>
        <time>2011-04-10T09:24:23Z</time>
      </trkpt>
      <trkpt lat="46.35707" lon="4.73714">
        <ele>276.2</ele>
        <time>2011-04-10T09:24:25Z</time>
      </trkpt>
      <trkpt lat="46.35705" lon="4.73717">
        <ele>276.8</ele>
        <time>2011-04-10T09:24:27Z</time>
      </trkpt>
      <trkpt lat="46.35704" lon="4.73719">
        <ele>277</ele>
        <time>2011-04-10T09:24:28Z</time>
      </trkpt>
      <trkpt lat="46.35704" lon="4.73724">
        <ele>277.6</ele>
        <time>2011-04-10T09:24:31Z</time>
      </trkpt>
      <trkpt lat="46.35704" lon="4.73727">
        <ele>278</ele>
        <time>2011-04-10T09:24:32Z</time>
      </trkpt>
      <trkpt lat="46.35705" lon="4.73732">
        <ele>278.6</ele>
        <time>2011-04-10T09:24:34Z</time>
      </trkpt>
      <trkpt lat="46.35707" lon="4.73738">
        <ele>279</ele>
        <time>2011-04-10T09:24:36Z</time>
      </trkpt>
      <trkpt lat="46.35708" lon="4.73745">
        <ele>279.4</ele>
        <time>2011-04-10T09:24:38Z</time>
      </trkpt>
      <trkpt lat="46.35709" lon="4.7375">
        <ele>279.6</ele>
        <time>2011-04-10T09:24:40Z</time>
      </trkpt>
      <trkpt lat="46.35709" lon="4.73752">
        <ele>280</ele>
        <time>2011-04-10T09:24:41Z</time>
      </trkpt>
      <trkpt lat="46.3571" lon="4.73756">
        <ele>280.6</ele>
        <time>2011-04-10T09:24:43Z</time>
      </trkpt>
      <trkpt lat="46.3571" lon="4.7376">
        <ele>281</ele>
        <time>2011-04-10T09:24:45Z</time>
      </trkpt>
      <trkpt lat="46.35711" lon="4.73765">
        <ele>281.4</ele>
        <time>2011-04-10T09:24:47Z</time>
      </trkpt>
      <trkpt lat="46.35712" lon="4.7377">
        <ele>281.8</ele>
        <time>2011-04-10T09:24:49Z</time>
      </trkpt>
      <trkpt lat="46.35714" lon="4.73775">
        <ele>282.2</ele>
        <time>2011-04-10T09:24:51Z</time>
      </trkpt>
      <trkpt lat="46.35715" lon="4.73779">
        <ele>282.8</ele>
        <time>2011-04-10T09:24:53Z</time>
      </trkpt>
      <trkpt lat="46.35716" lon="4.73785">
        <ele>283.2</ele>
        <time>2011-04-10T09:24:55Z</time>
      </trkpt>
      <trkpt lat="46.35716" lon="4.73789">
        <ele>283.6</ele>
        <time>2011-04-10T09:24:57Z</time>
      </trkpt>
      <trkpt lat="46.35715" lon="4.73793">
        <ele>284</ele>
        <time>2011-04-10T09:24:59Z</time>
      </trkpt>
      <trkpt lat="46.35715" lon="4.73795">
        <ele>284</ele>
        <time>2011-04-10T09:25:00Z</time>
      </trkpt>
      <trkpt lat="46.35715" lon="4.738">
        <ele>285</ele>
        <time>2011-04-10T09:25:03Z</time>
      </trkpt>
      <trkpt lat="46.35715" lon="4.73801">
        <ele>285.4</ele>
        <time>2011-04-10T09:25:05Z</time>
      </trkpt>
      <trkpt lat="46.35715" lon="4.73801">
        <ele>285.8</ele>
        <time>2011-04-10T09:25:07Z</time>
      </trkpt>
      <trkpt lat="46.35715" lon="4.73801">
        <ele>286</ele>
        <time>2011-04-10T09:25:10Z</time>
      </trkpt>
      <trkpt lat="46.35715" lon="4.73801">
        <ele>286.8</ele>
        <time>2011-04-10T09:25:20Z</time>
      </trkpt>
      <trkpt lat="46.35716" lon="4.73801">
        <ele>287</ele>
        <time>2011-04-10T09:25:30Z</time>
      </trkpt>
      <trkpt lat="46.35716" lon="4.73802">
        <ele>287.2</ele>
        <time>2011-04-10T09:25:36Z</time>
      </trkpt>
      <trkpt lat="46.35716" lon="4.73802">
        <ele>287.2</ele>
        <time>2011-04-10T09:25:43Z</time>
      </trkpt>
      <trkpt lat="46.35716" lon="4.73805">
        <ele>287.2</ele>
        <time>2011-04-10T09:25:49Z</time>
      </trkpt>
      <trkpt lat="46.35716" lon="4.73807">
        <ele>287.2</ele>
        <time>2011-04-10T09:25:57Z</time>
      </trkpt>
      <trkpt lat="46.35716" lon="4.73807">
        <ele>287.2</ele>
        <time>2011-04-10T09:26:03Z</time>
      </trkpt>
      <trkpt lat="46.35713" lon="4.73805">
        <ele>287.2</ele>
        <time>2011-04-10T09:26:25Z</time>
      </trkpt>
      <trkpt lat="46.35703" lon="4.738">
        <ele>287.2</ele>
        <time>2011-04-10T09:26:30Z</time>
      </trkpt>
      <trkpt lat="46.35691" lon="4.73798">
        <ele>287.2</ele>
        <time>2011-04-10T09:26:35Z</time>
      </trkpt>
      <trkpt lat="46.35678" lon="4.73801">
        <ele>287.2</ele>
        <time>2011-04-10T09:26:39Z</time>
      </trkpt>
      <trkpt lat="46.35667" lon="4.73812">
        <ele>287.2</ele>
        <time>2011-04-10T09:26:45Z</time>
      </trkpt>
      <trkpt lat="46.3566" lon="4.7382">
        <ele>287.4</ele>
        <time>2011-04-10T09:26:48Z</time>
      </trkpt>
      <trkpt lat="46.35655" lon="4.73827">
        <ele>287.8</ele>
        <time>2011-04-10T09:26:50Z</time>
      </trkpt>
      <trkpt lat="46.35651" lon="4.73834">
        <ele>288</ele>
        <time>2011-04-10T09:26:52Z</time>
      </trkpt>
      <trkpt lat="46.35647" lon="4.7384">
        <ele>288.2</ele>
        <time>2011-04-10T09:26:54Z</time>
      </trkpt>
      <trkpt lat="46.35645" lon="4.73846">
        <ele>288.4</ele>
        <time>2011-04-10T09:26:56Z</time>
      </trkpt>
      <trkpt lat="46.35635" lon="4.73871">
        <ele>288.8</ele>
        <time>2011-04-10T09:27:02Z</time>
      </trkpt>
      <trkpt lat="46.35632" lon="4.73882">
        <ele>289.2</ele>
        <time>2011-04-10T09:27:04Z</time>
      </trkpt>
      <trkpt lat="46.35629" lon="4.73893">
        <ele>289.6</ele>
        <time>2011-04-10T09:27:06Z</time>
      </trkpt>
      <trkpt lat="46.35627" lon="4.73901">
        <ele>289.8</ele>
        <time>2011-04-10T09:27:08Z</time>
      </trkpt>
      <trkpt lat="46.35625" lon="4.73908">
        <ele>290.2</ele>
        <time>2011-04-10T09:27:10Z</time>
      </trkpt>
      <trkpt lat="46.35624" lon="4.73915">
        <ele>290.4</ele>
        <time>2011-04-10T09:27:12Z</time>
      </trkpt>
      <trkpt lat="46.35622" lon="4.73923">
        <ele>290.8</ele>
        <time>2011-04-10T09:27:14Z</time>
      </trkpt>
      <trkpt lat="46.35617" lon="4.73934">
        <ele>291.2</ele>
        <time>2011-04-10T09:27:16Z</time>
      </trkpt>
      <trkpt lat="46.35613" lon="4.73945">
        <ele>291.6</ele>
        <time>2011-04-10T09:27:18Z</time>
      </trkpt>
      <trkpt lat="46.35609" lon="4.73955">
        <ele>292</ele>
        <time>2011-04-10T09:27:20Z</time>
      </trkpt>
      <trkpt lat="46.35607" lon="4.7396">
        <ele>292.4</ele>
        <time>2011-04-10T09:27:21Z</time>
      </trkpt>
      <trkpt lat="46.35604" lon="4.73967">
        <ele>293</ele>
        <time>2011-04-10T09:27:23Z</time>
      </trkpt>
      <trkpt lat="46.356" lon="4.73977">
        <ele>293.4</ele>
        <time>2011-04-10T09:27:25Z</time>
      </trkpt>
      <trkpt lat="46.35594" lon="4.73987">
        <ele>294</ele>
        <time>2011-04-10T09:27:27Z</time>
      </trkpt>
      <trkpt lat="46.35591" lon="4.73994">
        <ele>294.8</ele>
        <time>2011-04-10T09:27:29Z</time>
      </trkpt>
      <trkpt lat="46.35586" lon="4.74003">
        <ele>295.4</ele>
        <time>2011-04-10T09:27:31Z</time>
      </trkpt>
      <trkpt lat="46.35581" lon="4.74012">
        <ele>295.8</ele>
        <time>2011-04-10T09:27:33Z</time>
      </trkpt>
      <trkpt lat="46.35576" lon="4.74021">
        <ele>296.2</ele>
        <time>2011-04-10T09:27:35Z</time>
      </trkpt>
      <trkpt lat="46.35568" lon="4.74034">
        <ele>296.8</ele>
        <time>2011-04-10T09:27:38Z</time>
      </trkpt>
      <trkpt lat="46.35562" lon="4.74043">
        <ele>297.4</ele>
        <time>2011-04-10T09:27:40Z</time>
      </trkpt>
      <trkpt lat="46.35557" lon="4.74052">
        <ele>297.8</ele>
        <time>2011-04-10T09:27:42Z</time>
      </trkpt>
      <trkpt lat="46.35553" lon="4.74059">
        <ele>298.2</ele>
        <time>2011-04-10T09:27:44Z</time>
      </trkpt>
      <trkpt lat="46.35549" lon="4.74064">
        <ele>298.6</ele>
        <time>2011-04-10T09:27:46Z</time>
      </trkpt>
      <trkpt lat="46.35536" lon="4.74082">
        <ele>299</ele>
        <time>2011-04-10T09:27:51Z</time>
      </trkpt>
      <trkpt lat="46.35526" lon="4.74094">
        <ele>299.4</ele>
        <time>2011-04-10T09:27:54Z</time>
      </trkpt>
      <trkpt lat="46.35521" lon="4.74101">
        <ele>300</ele>
        <time>2011-04-10T09:27:56Z</time>
      </trkpt>
      <trkpt lat="46.35515" lon="4.7411">
        <ele>300.2</ele>
        <time>2011-04-10T09:27:58Z</time>
      </trkpt>
      <trkpt lat="46.3551" lon="4.74118">
        <ele>300.6</ele>
        <time>2011-04-10T09:28:00Z</time>
      </trkpt>
      <trkpt lat="46.35505" lon="4.74125">
        <ele>300.8</ele>
        <time>2011-04-10T09:28:02Z</time>
      </trkpt>
      <trkpt lat="46.35488" lon="4.74149">
        <ele>301.4</ele>
        <time>2011-04-10T09:28:08Z</time>
      </trkpt>
      <trkpt lat="46.35477" lon="4.74165">
        <ele>301.6</ele>
        <time>2011-04-10T09:28:13Z</time>
      </trkpt>
      <trkpt lat="46.35473" lon="4.74166">
        <ele>301.6</ele>
        <time>2011-04-10T09:28:18Z</time>
      </trkpt>
      <trkpt lat="46.35474" lon="4.74164">
        <ele>301.6</ele>
        <time>2011-04-10T09:28:23Z</time>
      </trkpt>
      <trkpt lat="46.35474" lon="4.74164">
        <ele>301.2</ele>
        <time>2011-04-10T09:28:25Z</time>
      </trkpt>
      <trkpt lat="46.35474" lon="4.74164">
        <ele>301</ele>
        <time>2011-04-10T09:28:27Z</time>
      </trkpt>
      <trkpt lat="46.35475" lon="4.74164">
        <ele>300.8</ele>
        <time>2011-04-10T09:28:29Z</time>
      </trkpt>
      <trkpt lat="46.35475" lon="4.74164">
        <ele>300.6</ele>
        <time>2011-04-10T09:28:31Z</time>
      </trkpt>
      <trkpt lat="46.35474" lon="4.74163">
        <ele>300.6</ele>
        <time>2011-04-10T09:28:32Z</time>
      </trkpt>
      <trkpt lat="46.35474" lon="4.74159">
        <ele>300.4</ele>
        <time>2011-04-10T09:28:35Z</time>
      </trkpt>
      <trkpt lat="46.35469" lon="4.74144">
        <ele>300.2</ele>
        <time>2011-04-10T09:28:40Z</time>
      </trkpt>
      <trkpt lat="46.35464" lon="4.74129">
        <ele>300</ele>
        <time>2011-04-10T09:28:45Z</time>
      </trkpt>
      <trkpt lat="46.35457" lon="4.74113">
        <ele>300</ele>
        <time>2011-04-10T09:28:49Z</time>
      </trkpt>
      <trkpt lat="46.35449" lon="4.74096">
        <ele>300.2</ele>
        <time>2011-04-10T09:28:53Z</time>
      </trkpt>
      <trkpt lat="46.35445" lon="4.74087">
        <ele>300.4</ele>
        <time>2011-04-10T09:28:55Z</time>
      </trkpt>
      <trkpt lat="46.35441" lon="4.74079">
        <ele>300.8</ele>
        <time>2011-04-10T09:28:57Z</time>
      </trkpt>
      <trkpt lat="46.35436" lon="4.74069">
        <ele>301</ele>
        <time>2011-04-10T09:28:59Z</time>
      </trkpt>
      <trkpt lat="46.35431" lon="4.7406">
        <ele>301.2</ele>
        <time>2011-04-10T09:29:01Z</time>
      </trkpt>
      <trkpt lat="46.35416" lon="4.74031">
        <ele>301.6</ele>
        <time>2011-04-10T09:29:08Z</time>
      </trkpt>
      <trkpt lat="46.35403" lon="4.74012">
        <ele>301.6</ele>
        <time>2011-04-10T09:29:12Z</time>
      </trkpt>
      <trkpt lat="46.35384" lon="4.73987">
        <ele>301.8</ele>
        <time>2011-04-10T09:29:18Z</time>
      </trkpt>
      <trkpt lat="46.35375" lon="4.73968">
        <ele>301.8</ele>
        <time>2011-04-10T09:29:22Z</time>
      </trkpt>
      <trkpt lat="46.3535" lon="4.73934">
        <ele>301.8</ele>
        <time>2011-04-10T09:29:29Z</time>
      </trkpt>
      <trkpt lat="46.35332" lon="4.73909">
        <ele>301.8</ele>
        <time>2011-04-10T09:29:34Z</time>
      </trkpt>
      <trkpt lat="46.35324" lon="4.73892">
        <ele>301.8</ele>
        <time>2011-04-10T09:29:36Z</time>
      </trkpt>
      <trkpt lat="46.35315" lon="4.73869">
        <ele>302</ele>
        <time>2011-04-10T09:29:40Z</time>
      </trkpt>
      <trkpt lat="46.3531" lon="4.73859">
        <ele>302.4</ele>
        <time>2011-04-10T09:29:42Z</time>
      </trkpt>
      <trkpt lat="46.35306" lon="4.73854">
        <ele>302.6</ele>
        <time>2011-04-10T09:29:43Z</time>
      </trkpt>
      <trkpt lat="46.35303" lon="4.7385">
        <ele>302.8</ele>
        <time>2011-04-10T09:29:44Z</time>
      </trkpt>
      <trkpt lat="46.35297" lon="4.73842">
        <ele>303</ele>
        <time>2011-04-10T09:29:46Z</time>
      </trkpt>
      <trkpt lat="46.3529" lon="4.73835">
        <ele>303.2</ele>
        <time>2011-04-10T09:29:48Z</time>
      </trkpt>
      <trkpt lat="46.35287" lon="4.73832">
        <ele>303.2</ele>
        <time>2011-04-10T09:29:49Z</time>
      </trkpt>
      <trkpt lat="46.35283" lon="4.73829">
        <ele>303.6</ele>
        <time>2011-04-10T09:29:50Z</time>
      </trkpt>
      <trkpt lat="46.35276" lon="4.73822">
        <ele>304</ele>
        <time>2011-04-10T09:29:52Z</time>
      </trkpt>
      <trkpt lat="46.35271" lon="4.73819">
        <ele>304.2</ele>
        <time>2011-04-10T09:29:53Z</time>
      </trkpt>
      <trkpt lat="46.35267" lon="4.73816">
        <ele>304.4</ele>
        <time>2011-04-10T09:29:54Z</time>
      </trkpt>
      <trkpt lat="46.35263" lon="4.73813">
        <ele>304.6</ele>
        <time>2011-04-10T09:29:55Z</time>
      </trkpt>
      <trkpt lat="46.35251" lon="4.73804">
        <ele>305</ele>
        <time>2011-04-10T09:29:58Z</time>
      </trkpt>
      <trkpt lat="46.35231" lon="4.73787">
        <ele>305.6</ele>
        <time>2011-04-10T09:30:04Z</time>
      </trkpt>
      <trkpt lat="46.35228" lon="4.73783">
        <ele>305.8</ele>
        <time>2011-04-10T09:30:05Z</time>
      </trkpt>
      <trkpt lat="46.35221" lon="4.73775">
        <ele>306.2</ele>
        <time>2011-04-10T09:30:07Z</time>
      </trkpt>
      <trkpt lat="46.35213" lon="4.73768">
        <ele>306.6</ele>
        <time>2011-04-10T09:30:09Z</time>
      </trkpt>
      <trkpt lat="46.35206" lon="4.73761">
        <ele>306.8</ele>
        <time>2011-04-10T09:30:11Z</time>
      </trkpt>
      <trkpt lat="46.35201" lon="4.73754">
        <ele>307</ele>
        <time>2011-04-10T09:30:13Z</time>
      </trkpt>
      <trkpt lat="46.3518" lon="4.7374">
        <ele>307.6</ele>
        <time>2011-04-10T09:30:19Z</time>
      </trkpt>
      <trkpt lat="46.35173" lon="4.73737">
        <ele>308</ele>
        <time>2011-04-10T09:30:21Z</time>
      </trkpt>
      <trkpt lat="46.35165" lon="4.73736">
        <ele>308.4</ele>
        <time>2011-04-10T09:30:23Z</time>
      </trkpt>
      <trkpt lat="46.35158" lon="4.73735">
        <ele>308.8</ele>
        <time>2011-04-10T09:30:25Z</time>
      </trkpt>
      <trkpt lat="46.35151" lon="4.73735">
        <ele>309</ele>
        <time>2011-04-10T09:30:27Z</time>
      </trkpt>
      <trkpt lat="46.35145" lon="4.73734">
        <ele>309.4</ele>
        <time>2011-04-10T09:30:29Z</time>
      </trkpt>
      <trkpt lat="46.35139" lon="4.73731">
        <ele>309.8</ele>
        <time>2011-04-10T09:30:31Z</time>
      </trkpt>
      <trkpt lat="46.35133" lon="4.73729">
        <ele>310.2</ele>
        <time>2011-04-10T09:30:33Z</time>
      </trkpt>
      <trkpt lat="46.35127" lon="4.73727">
        <ele>310.6</ele>
        <time>2011-04-10T09:30:35Z</time>
      </trkpt>
      <trkpt lat="46.35121" lon="4.73727">
        <ele>311</ele>
        <time>2011-04-10T09:30:37Z</time>
      </trkpt>
      <trkpt lat="46.35117" lon="4.73726">
        <ele>311.2</ele>
        <time>2011-04-10T09:30:39Z</time>
      </trkpt>
      <trkpt lat="46.35114" lon="4.73727">
        <ele>311.4</ele>
        <time>2011-04-10T09:30:40Z</time>
      </trkpt>
      <trkpt lat="46.35103" lon="4.73726">
        <ele>311.6</ele>
        <time>2011-04-10T09:30:43Z</time>
      </trkpt>
      <trkpt lat="46.35093" lon="4.73725">
        <ele>312.4</ele>
        <time>2011-04-10T09:30:46Z</time>
      </trkpt>
      <trkpt lat="46.35087" lon="4.73726">
        <ele>312.8</ele>
        <time>2011-04-10T09:30:48Z</time>
      </trkpt>
      <trkpt lat="46.35081" lon="4.73725">
        <ele>313.2</ele>
        <time>2011-04-10T09:30:50Z</time>
      </trkpt>
      <trkpt lat="46.35076" lon="4.73725">
        <ele>313.4</ele>
        <time>2011-04-10T09:30:52Z</time>
      </trkpt>
      <trkpt lat="46.35073" lon="4.73725">
        <ele>313.6</ele>
        <time>2011-04-10T09:30:53Z</time>
      </trkpt>
      <trkpt lat="46.35066" lon="4.73726">
        <ele>314.2</ele>
        <time>2011-04-10T09:30:55Z</time>
      </trkpt>
      <trkpt lat="46.3506" lon="4.73727">
        <ele>314.6</ele>
        <time>2011-04-10T09:30:57Z</time>
      </trkpt>
      <trkpt lat="46.35055" lon="4.73726">
        <ele>315</ele>
        <time>2011-04-10T09:30:59Z</time>
      </trkpt>
      <trkpt lat="46.35052" lon="4.73727">
        <ele>315.2</ele>
        <time>2011-04-10T09:31:00Z</time>
      </trkpt>
      <trkpt lat="46.3505" lon="4.73728">
        <ele>315.4</ele>
        <time>2011-04-10T09:31:01Z</time>
      </trkpt>
      <trkpt lat="46.35043" lon="4.73726">
        <ele>315.8</ele>
        <time>2011-04-10T09:31:05Z</time>
      </trkpt>
      <trkpt lat="46.35039" lon="4.73724">
        <ele>316.2</ele>
        <time>2011-04-10T09:31:07Z</time>
      </trkpt>
      <trkpt lat="46.35037" lon="4.73724">
        <ele>316.4</ele>
        <time>2011-04-10T09:31:08Z</time>
      </trkpt>
      <trkpt lat="46.35035" lon="4.73726">
        <ele>316.6</ele>
        <time>2011-04-10T09:31:09Z</time>
      </trkpt>
      <trkpt lat="46.3503" lon="4.73731">
        <ele>317</ele>
        <time>2011-04-10T09:31:11Z</time>
      </trkpt>
      <trkpt lat="46.35026" lon="4.73734">
        <ele>317.2</ele>
        <time>2011-04-10T09:31:12Z</time>
      </trkpt>
      <trkpt lat="46.35023" lon="4.73737">
        <ele>317.4</ele>
        <time>2011-04-10T09:31:13Z</time>
      </trkpt>
      <trkpt lat="46.35018" lon="4.73742">
        <ele>317.6</ele>
        <time>2011-04-10T09:31:15Z</time>
      </trkpt>
      <trkpt lat="46.35015" lon="4.73745">
        <ele>317.8</ele>
        <time>2011-04-10T09:31:17Z</time>
      </trkpt>
      <trkpt lat="46.35012" lon="4.73749">
        <ele>318.2</ele>
        <time>2011-04-10T09:31:19Z</time>
      </trkpt>
      <trkpt lat="46.35007" lon="4.73754">
        <ele>318.6</ele>
        <time>2011-04-10T09:31:21Z</time>
      </trkpt>
      <trkpt lat="46.35" lon="4.7376">
        <ele>319</ele>
        <time>2011-04-10T09:31:23Z</time>
      </trkpt>
      <trkpt lat="46.34994" lon="4.73766">
        <ele>319.4</ele>
        <time>2011-04-10T09:31:25Z</time>
      </trkpt>
      <trkpt lat="46.34988" lon="4.73772">
        <ele>319.6</ele>
        <time>2011-04-10T09:31:27Z</time>
      </trkpt>
      <trkpt lat="46.34968" lon="4.73787">
        <ele>320.2</ele>
        <time>2011-04-10T09:31:33Z</time>
      </trkpt>
      <trkpt lat="46.34963" lon="4.73789">
        <ele>320.8</ele>
        <time>2011-04-10T09:31:34Z</time>
      </trkpt>
      <trkpt lat="46.34959" lon="4.73794">
        <ele>321.2</ele>
        <time>2011-04-10T09:31:36Z</time>
      </trkpt>
      <trkpt lat="46.34951" lon="4.73801">
        <ele>321.6</ele>
        <time>2011-04-10T09:31:38Z</time>
      </trkpt>
      <trkpt lat="46.34943" lon="4.73804">
        <ele>321.8</ele>
        <time>2011-04-10T09:31:40Z</time>
      </trkpt>
      <trkpt lat="46.34924" lon="4.73806">
        <ele>322.6</ele>
        <time>2011-04-10T09:31:45Z</time>
      </trkpt>
      <trkpt lat="46.34914" lon="4.73808">
        <ele>323</ele>
        <time>2011-04-10T09:31:47Z</time>
      </trkpt>
      <trkpt lat="46.34904" lon="4.73812">
        <ele>323.4</ele>
        <time>2011-04-10T09:31:49Z</time>
      </trkpt>
      <trkpt lat="46.34894" lon="4.73814">
        <ele>323.8</ele>
        <time>2011-04-10T09:31:51Z</time>
      </trkpt>
      <trkpt lat="46.34882" lon="4.73817">
        <ele>324</ele>
        <time>2011-04-10T09:31:53Z</time>
      </trkpt>
      <trkpt lat="46.34876" lon="4.73817">
        <ele>324.2</ele>
        <time>2011-04-10T09:31:54Z</time>
      </trkpt>
      <trkpt lat="46.3485" lon="4.73813">
        <ele>324.6</ele>
        <time>2011-04-10T09:31:59Z</time>
      </trkpt>
      <trkpt lat="46.34847" lon="4.73812">
        <ele>324.6</ele>
        <time>2011-04-10T09:32:00Z</time>
      </trkpt>
      <trkpt lat="46.34846" lon="4.73831">
        <ele>324.8</ele>
        <time>2011-04-10T09:32:05Z</time>
      </trkpt>
      <trkpt lat="46.34846" lon="4.73841">
        <ele>324.8</ele>
        <time>2011-04-10T09:32:07Z</time>
      </trkpt>
      <trkpt lat="46.34845" lon="4.73856">
        <ele>324.6</ele>
        <time>2011-04-10T09:32:08Z</time>
      </trkpt>
      <trkpt lat="46.34846" lon="4.73865">
        <ele>324.4</ele>
        <time>2011-04-10T09:32:09Z</time>
      </trkpt>
      <trkpt lat="46.34845" lon="4.73881">
        <ele>323.8</ele>
        <time>2011-04-10T09:32:11Z</time>
      </trkpt>
      <trkpt lat="46.34845" lon="4.73888">
        <ele>323.6</ele>
        <time>2011-04-10T09:32:12Z</time>
      </trkpt>
      <trkpt lat="46.34845" lon="4.73896">
        <ele>323.2</ele>
        <time>2011-04-10T09:32:13Z</time>
      </trkpt>
      <trkpt lat="46.34844" lon="4.73902">
        <ele>323</ele>
        <time>2011-04-10T09:32:14Z</time>
      </trkpt>
      <trkpt lat="46.34845" lon="4.7391">
        <ele>322.6</ele>
        <time>2011-04-10T09:32:15Z</time>
      </trkpt>
      <trkpt lat="46.34845" lon="4.73917">
        <ele>322.2</ele>
        <time>2011-04-10T09:32:16Z</time>
      </trkpt>
      <trkpt lat="46.34845" lon="4.73935">
        <ele>321</ele>
        <time>2011-04-10T09:32:19Z</time>
      </trkpt>
      <trkpt lat="46.34845" lon="4.73946">
        <ele>320</ele>
        <time>2011-04-10T09:32:21Z</time>
      </trkpt>
      <trkpt lat="46.34845" lon="4.73952">
        <ele>319.4</ele>
        <time>2011-04-10T09:32:22Z</time>
      </trkpt>
      <trkpt lat="46.34846" lon="4.7396">
        <ele>318.8</ele>
        <time>2011-04-10T09:32:23Z</time>
      </trkpt>
      <trkpt lat="46.34846" lon="4.73969">
        <ele>318.4</ele>
        <time>2011-04-10T09:32:24Z</time>
      </trkpt>
      <trkpt lat="46.34846" lon="4.73977">
        <ele>317.8</ele>
        <time>2011-04-10T09:32:25Z</time>
      </trkpt>
      <trkpt lat="46.34846" lon="4.73989">
        <ele>317</ele>
        <time>2011-04-10T09:32:26Z</time>
      </trkpt>
      <trkpt lat="46.34847" lon="4.74014">
        <ele>315.4</ele>
        <time>2011-04-10T09:32:29Z</time>
      </trkpt>
      <trkpt lat="46.34848" lon="4.7402">
        <ele>314.6</ele>
        <time>2011-04-10T09:32:30Z</time>
      </trkpt>
      <trkpt lat="46.34848" lon="4.74033">
        <ele>313.4</ele>
        <time>2011-04-10T09:32:32Z</time>
      </trkpt>
      <trkpt lat="46.34848" lon="4.74048">
        <ele>311.8</ele>
        <time>2011-04-10T09:32:34Z</time>
      </trkpt>
      <trkpt lat="46.34848" lon="4.74055">
        <ele>311.2</ele>
        <time>2011-04-10T09:32:35Z</time>
      </trkpt>
      <trkpt lat="46.34848" lon="4.7407">
        <ele>309.6</ele>
        <time>2011-04-10T09:32:37Z</time>
      </trkpt>
      <trkpt lat="46.34849" lon="4.74093">
        <ele>308.4</ele>
        <time>2011-04-10T09:32:39Z</time>
      </trkpt>
      <trkpt lat="46.34849" lon="4.74116">
        <ele>307</ele>
        <time>2011-04-10T09:32:41Z</time>
      </trkpt>
      <trkpt lat="46.3485" lon="4.74126">
        <ele>306.2</ele>
        <time>2011-04-10T09:32:42Z</time>
      </trkpt>
      <trkpt lat="46.3485" lon="4.74142">
        <ele>304.8</ele>
        <time>2011-04-10T09:32:44Z</time>
      </trkpt>
      <trkpt lat="46.34851" lon="4.7416">
        <ele>303.4</ele>
        <time>2011-04-10T09:32:46Z</time>
      </trkpt>
      <trkpt lat="46.3485" lon="4.74166">
        <ele>302.6</ele>
        <time>2011-04-10T09:32:47Z</time>
      </trkpt>
      <trkpt lat="46.34847" lon="4.74172">
        <ele>302</ele>
        <time>2011-04-10T09:32:48Z</time>
      </trkpt>
      <trkpt lat="46.34846" lon="4.74177">
        <ele>301.4</ele>
        <time>2011-04-10T09:32:49Z</time>
      </trkpt>
      <trkpt lat="46.34846" lon="4.7419">
        <ele>300</ele>
        <time>2011-04-10T09:32:51Z</time>
      </trkpt>
      <trkpt lat="46.34847" lon="4.74196">
        <ele>299.4</ele>
        <time>2011-04-10T09:32:52Z</time>
      </trkpt>
      <trkpt lat="46.34848" lon="4.74203">
        <ele>298.8</ele>
        <time>2011-04-10T09:32:53Z</time>
      </trkpt>
      <trkpt lat="46.34853" lon="4.74214">
        <ele>297.8</ele>
        <time>2011-04-10T09:32:55Z</time>
      </trkpt>
      <trkpt lat="46.34854" lon="4.7422">
        <ele>297.2</ele>
        <time>2011-04-10T09:32:56Z</time>
      </trkpt>
      <trkpt lat="46.34855" lon="4.74227">
        <ele>296.6</ele>
        <time>2011-04-10T09:32:57Z</time>
      </trkpt>
      <trkpt lat="46.34859" lon="4.74248">
        <ele>295.2</ele>
        <time>2011-04-10T09:33:00Z</time>
      </trkpt>
      <trkpt lat="46.34862" lon="4.74261">
        <ele>294.4</ele>
        <time>2011-04-10T09:33:02Z</time>
      </trkpt>
      <trkpt lat="46.34864" lon="4.74269">
        <ele>293.6</ele>
        <time>2011-04-10T09:33:04Z</time>
      </trkpt>
      <trkpt lat="46.34864" lon="4.74274">
        <ele>292.6</ele>
        <time>2011-04-10T09:33:06Z</time>
      </trkpt>
      <trkpt lat="46.34864" lon="4.74276">
        <ele>292</ele>
        <time>2011-04-10T09:33:08Z</time>
      </trkpt>
      <trkpt lat="46.34864" lon="4.74275">
        <ele>291.4</ele>
        <time>2011-04-10T09:33:10Z</time>
      </trkpt>
      <trkpt lat="46.34864" lon="4.74277">
        <ele>291</ele>
        <time>2011-04-10T09:33:12Z</time>
      </trkpt>
      <trkpt lat="46.34863" lon="4.7428">
        <ele>290.8</ele>
        <time>2011-04-10T09:33:13Z</time>
      </trkpt>
      <trkpt lat="46.34857" lon="4.74297">
        <ele>290.2</ele>
        <time>2011-04-10T09:33:17Z</time>
      </trkpt>
      <trkpt lat="46.34853" lon="4.74308">
        <ele>289.8</ele>
        <time>2011-04-10T09:33:20Z</time>
      </trkpt>
      <trkpt lat="46.34852" lon="4.74322">
        <ele>289.4</ele>
        <time>2011-04-10T09:33:22Z</time>
      </trkpt>
      <trkpt lat="46.34852" lon="4.74339">
        <ele>289</ele>
        <time>2011-04-10T09:33:24Z</time>
      </trkpt>
      <trkpt lat="46.34854" lon="4.74355">
        <ele>288.6</ele>
        <time>2011-04-10T09:33:26Z</time>
      </trkpt>
      <trkpt lat="46.34855" lon="4.74363">
        <ele>288.2</ele>
        <time>2011-04-10T09:33:27Z</time>
      </trkpt>
      <trkpt lat="46.34857" lon="4.7438">
        <ele>287.4</ele>
        <time>2011-04-10T09:33:29Z</time>
      </trkpt>
      <trkpt lat="46.34857" lon="4.74388">
        <ele>287</ele>
        <time>2011-04-10T09:33:30Z</time>
      </trkpt>
      <trkpt lat="46.34857" lon="4.74416">
        <ele>286.4</ele>
        <time>2011-04-10T09:33:33Z</time>
      </trkpt>
      <trkpt lat="46.34858" lon="4.74425">
        <ele>286.2</ele>
        <time>2011-04-10T09:33:34Z</time>
      </trkpt>
      <trkpt lat="46.3486" lon="4.74435">
        <ele>285.8</ele>
        <time>2011-04-10T09:33:35Z</time>
      </trkpt>
      <trkpt lat="46.34865" lon="4.74456">
        <ele>285</ele>
        <time>2011-04-10T09:33:37Z</time>
      </trkpt>
      <trkpt lat="46.34869" lon="4.74466">
        <ele>284.8</ele>
        <time>2011-04-10T09:33:38Z</time>
      </trkpt>
      <trkpt lat="46.34878" lon="4.74487">
        <ele>284</ele>
        <time>2011-04-10T09:33:40Z</time>
      </trkpt>
      <trkpt lat="46.34888" lon="4.74507">
        <ele>283.2</ele>
        <time>2011-04-10T09:33:42Z</time>
      </trkpt>
      <trkpt lat="46.34893" lon="4.74516">
        <ele>283</ele>
        <time>2011-04-10T09:33:43Z</time>
      </trkpt>
      <trkpt lat="46.34902" lon="4.74534">
        <ele>281.8</ele>
        <time>2011-04-10T09:33:45Z</time>
      </trkpt>
      <trkpt lat="46.34905" lon="4.74571">
        <ele>279.8</ele>
        <time>2011-04-10T09:33:48Z</time>
      </trkpt>
      <trkpt lat="46.34901" lon="4.74584">
        <ele>279.2</ele>
        <time>2011-04-10T09:33:49Z</time>
      </trkpt>
      <trkpt lat="46.34888" lon="4.7461">
        <ele>277.8</ele>
        <time>2011-04-10T09:33:51Z</time>
      </trkpt>
      <trkpt lat="46.34873" lon="4.74628">
        <ele>276.4</ele>
        <time>2011-04-10T09:33:53Z</time>
      </trkpt>
      <trkpt lat="46.34856" lon="4.74642">
        <ele>275</ele>
        <time>2011-04-10T09:33:55Z</time>
      </trkpt>
      <trkpt lat="46.34848" lon="4.74649">
        <ele>274.4</ele>
        <time>2011-04-10T09:33:56Z</time>
      </trkpt>
      <trkpt lat="46.3484" lon="4.74656">
        <ele>273.8</ele>
        <time>2011-04-10T09:33:57Z</time>
      </trkpt>
      <trkpt lat="46.34833" lon="4.74663">
        <ele>273</ele>
        <time>2011-04-10T09:33:58Z</time>
      </trkpt>
      <trkpt lat="46.34819" lon="4.74678">
        <ele>271.6</ele>
        <time>2011-04-10T09:34:00Z</time>
      </trkpt>
      <trkpt lat="46.34806" lon="4.74692">
        <ele>270.6</ele>
        <time>2011-04-10T09:34:02Z</time>
      </trkpt>
      <trkpt lat="46.34792" lon="4.74704">
        <ele>269.8</ele>
        <time>2011-04-10T09:34:04Z</time>
      </trkpt>
      <trkpt lat="46.34784" lon="4.74709">
        <ele>269.4</ele>
        <time>2011-04-10T09:34:05Z</time>
      </trkpt>
      <trkpt lat="46.34776" lon="4.74714">
        <ele>268.8</ele>
        <time>2011-04-10T09:34:06Z</time>
      </trkpt>
      <trkpt lat="46.3476" lon="4.74722">
        <ele>267.8</ele>
        <time>2011-04-10T09:34:08Z</time>
      </trkpt>
      <trkpt lat="46.34744" lon="4.74729">
        <ele>267.2</ele>
        <time>2011-04-10T09:34:10Z</time>
      </trkpt>
      <trkpt lat="46.34728" lon="4.74737">
        <ele>266.2</ele>
        <time>2011-04-10T09:34:12Z</time>
      </trkpt>
      <trkpt lat="46.34712" lon="4.74746">
        <ele>265.4</ele>
        <time>2011-04-10T09:34:14Z</time>
      </trkpt>
      <trkpt lat="46.34702" lon="4.74752">
        <ele>264.6</ele>
        <time>2011-04-10T09:34:15Z</time>
      </trkpt>
      <trkpt lat="46.34694" lon="4.74757">
        <ele>264.2</ele>
        <time>2011-04-10T09:34:16Z</time>
      </trkpt>
      <trkpt lat="46.34685" lon="4.74764">
        <ele>263.6</ele>
        <time>2011-04-10T09:34:17Z</time>
      </trkpt>
      <trkpt lat="46.34676" lon="4.74772">
        <ele>263</ele>
        <time>2011-04-10T09:34:18Z</time>
      </trkpt>
      <trkpt lat="46.34668" lon="4.7478">
        <ele>262.4</ele>
        <time>2011-04-10T09:34:19Z</time>
      </trkpt>
      <trkpt lat="46.34652" lon="4.74797">
        <ele>261</ele>
        <time>2011-04-10T09:34:21Z</time>
      </trkpt>
      <trkpt lat="46.34636" lon="4.74816">
        <ele>259.6</ele>
        <time>2011-04-10T09:34:23Z</time>
      </trkpt>
      <trkpt lat="46.34623" lon="4.74831">
        <ele>258.6</ele>
        <time>2011-04-10T09:34:25Z</time>
      </trkpt>
      <trkpt lat="46.34618" lon="4.74836">
        <ele>258</ele>
        <time>2011-04-10T09:34:26Z</time>
      </trkpt>
      <trkpt lat="46.34612" lon="4.74844">
        <ele>256.8</ele>
        <time>2011-04-10T09:34:28Z</time>
      </trkpt>
      <trkpt lat="46.34611" lon="4.74846">
        <ele>256.4</ele>
        <time>2011-04-10T09:34:29Z</time>
      </trkpt>
      <trkpt lat="46.3461" lon="4.7485">
        <ele>254.6</ele>
        <time>2011-04-10T09:34:32Z</time>
      </trkpt>
      <trkpt lat="46.34611" lon="4.7485">
        <ele>253.6</ele>
        <time>2011-04-10T09:34:34Z</time>
      </trkpt>
      <trkpt lat="46.34611" lon="4.7485">
        <ele>253.2</ele>
        <time>2011-04-10T09:34:35Z</time>
      </trkpt>
      <trkpt lat="46.34614" lon="4.74856">
        <ele>252.2</ele>
        <time>2011-04-10T09:34:38Z</time>
      </trkpt>
      <trkpt lat="46.34629" lon="4.74864">
        <ele>251</ele>
        <time>2011-04-10T09:34:43Z</time>
      </trkpt>
      <trkpt lat="46.34647" lon="4.74873">
        <ele>250.4</ele>
        <time>2011-04-10T09:34:49Z</time>
      </trkpt>
      <trkpt lat="46.34658" lon="4.74883">
        <ele>250.2</ele>
        <time>2011-04-10T09:34:53Z</time>
      </trkpt>
      <trkpt lat="46.34664" lon="4.74887">
        <ele>250.6</ele>
        <time>2011-04-10T09:34:55Z</time>
      </trkpt>
      <trkpt lat="46.34668" lon="4.74893">
        <ele>250.8</ele>
        <time>2011-04-10T09:34:57Z</time>
      </trkpt>
      <trkpt lat="46.34672" lon="4.74899">
        <ele>251</ele>
        <time>2011-04-10T09:34:59Z</time>
      </trkpt>
      <trkpt lat="46.34676" lon="4.74906">
        <ele>251</ele>
        <time>2011-04-10T09:35:01Z</time>
      </trkpt>
      <trkpt lat="46.34686" lon="4.74927">
        <ele>251.2</ele>
        <time>2011-04-10T09:35:06Z</time>
      </trkpt>
      <trkpt lat="46.34688" lon="4.74933">
        <ele>251.4</ele>
        <time>2011-04-10T09:35:07Z</time>
      </trkpt>
      <trkpt lat="46.34698" lon="4.74965">
        <ele>251.4</ele>
        <time>2011-04-10T09:35:12Z</time>
      </trkpt>
      <trkpt lat="46.34703" lon="4.75005">
        <ele>251.6</ele>
        <time>2011-04-10T09:35:17Z</time>
      </trkpt>
      <trkpt lat="46.34697" lon="4.7503">
        <ele>251.6</ele>
        <time>2011-04-10T09:35:20Z</time>
      </trkpt>
      <trkpt lat="46.34674" lon="4.75115">
        <ele>251.6</ele>
        <time>2011-04-10T09:35:30Z</time>
      </trkpt>
      <trkpt lat="46.34672" lon="4.75124">
        <ele>251.6</ele>
        <time>2011-04-10T09:35:31Z</time>
      </trkpt>
      <trkpt lat="46.34657" lon="4.75163">
        <ele>251.6</ele>
        <time>2011-04-10T09:35:36Z</time>
      </trkpt>
      <trkpt lat="46.3465" lon="4.75189">
        <ele>251.6</ele>
        <time>2011-04-10T09:35:40Z</time>
      </trkpt>
      <trkpt lat="46.34641" lon="4.75207">
        <ele>251.6</ele>
        <time>2011-04-10T09:35:43Z</time>
      </trkpt>
      <trkpt lat="46.34633" lon="4.75229">
        <ele>251.6</ele>
        <time>2011-04-10T09:35:46Z</time>
      </trkpt>
      <trkpt lat="46.34632" lon="4.75246">
        <ele>251.6</ele>
        <time>2011-04-10T09:35:48Z</time>
      </trkpt>
      <trkpt lat="46.34634" lon="4.75264">
        <ele>251.6</ele>
        <time>2011-04-10T09:35:50Z</time>
      </trkpt>
      <trkpt lat="46.34641" lon="4.75302">
        <ele>251.6</ele>
        <time>2011-04-10T09:35:55Z</time>
      </trkpt>
      <trkpt lat="46.34637" lon="4.75309">
        <ele>251.6</ele>
        <time>2011-04-10T09:35:57Z</time>
      </trkpt>
      <trkpt lat="46.34633" lon="4.75309">
        <ele>251.6</ele>
        <time>2011-04-10T09:35:58Z</time>
      </trkpt>
      <trkpt lat="46.34597" lon="4.75299">
        <ele>251.6</ele>
        <time>2011-04-10T09:36:04Z</time>
      </trkpt>
      <trkpt lat="46.34584" lon="4.75298">
        <ele>251.8</ele>
        <time>2011-04-10T09:36:06Z</time>
      </trkpt>
      <trkpt lat="46.34571" lon="4.75298">
        <ele>252.2</ele>
        <time>2011-04-10T09:36:08Z</time>
      </trkpt>
      <trkpt lat="46.34558" lon="4.75298">
        <ele>252.6</ele>
        <time>2011-04-10T09:36:10Z</time>
      </trkpt>
      <trkpt lat="46.34544" lon="4.75297">
        <ele>252.8</ele>
        <time>2011-04-10T09:36:12Z</time>
      </trkpt>
      <trkpt lat="46.34528" lon="4.75297">
        <ele>253</ele>
        <time>2011-04-10T09:36:14Z</time>
      </trkpt>
      <trkpt lat="46.34498" lon="4.75299">
        <ele>253.2</ele>
        <time>2011-04-10T09:36:18Z</time>
      </trkpt>
      <trkpt lat="46.3449" lon="4.75298">
        <ele>253</ele>
        <time>2011-04-10T09:36:19Z</time>
      </trkpt>
      <trkpt lat="46.34469" lon="4.75295">
        <ele>252.8</ele>
        <time>2011-04-10T09:36:21Z</time>
      </trkpt>
      <trkpt lat="46.34459" lon="4.75293">
        <ele>252.6</ele>
        <time>2011-04-10T09:36:22Z</time>
      </trkpt>
      <trkpt lat="46.34449" lon="4.75291">
        <ele>252.4</ele>
        <time>2011-04-10T09:36:23Z</time>
      </trkpt>
      <trkpt lat="46.34427" lon="4.75287">
        <ele>251.8</ele>
        <time>2011-04-10T09:36:25Z</time>
      </trkpt>
      <trkpt lat="46.34417" lon="4.75285">
        <ele>251.4</ele>
        <time>2011-04-10T09:36:26Z</time>
      </trkpt>
      <trkpt lat="46.34387" lon="4.75277">
        <ele>250.2</ele>
        <time>2011-04-10T09:36:29Z</time>
      </trkpt>
      <trkpt lat="46.34378" lon="4.75275">
        <ele>249.4</ele>
        <time>2011-04-10T09:36:30Z</time>
      </trkpt>
      <trkpt lat="46.34371" lon="4.75272">
        <ele>248.8</ele>
        <time>2011-04-10T09:36:31Z</time>
      </trkpt>
      <trkpt lat="46.34365" lon="4.75269">
        <ele>248</ele>
        <time>2011-04-10T09:36:32Z</time>
      </trkpt>
      <trkpt lat="46.34359" lon="4.75265">
        <ele>247.4</ele>
        <time>2011-04-10T09:36:33Z</time>
      </trkpt>
      <trkpt lat="46.34354" lon="4.75261">
        <ele>246.8</ele>
        <time>2011-04-10T09:36:34Z</time>
      </trkpt>
      <trkpt lat="46.34349" lon="4.75257">
        <ele>245.8</ele>
        <time>2011-04-10T09:36:35Z</time>
      </trkpt>
      <trkpt lat="46.34337" lon="4.75251">
        <ele>244.4</ele>
        <time>2011-04-10T09:36:37Z</time>
      </trkpt>
      <trkpt lat="46.34333" lon="4.75247">
        <ele>243.6</ele>
        <time>2011-04-10T09:36:38Z</time>
      </trkpt>
      <trkpt lat="46.34324" lon="4.75238">
        <ele>242</ele>
        <time>2011-04-10T09:36:40Z</time>
      </trkpt>
      <trkpt lat="46.3432" lon="4.75233">
        <ele>241.4</ele>
        <time>2011-04-10T09:36:41Z</time>
      </trkpt>
      <trkpt lat="46.34315" lon="4.75229">
        <ele>240.6</ele>
        <time>2011-04-10T09:36:42Z</time>
      </trkpt>
      <trkpt lat="46.34311" lon="4.75224">
        <ele>239.8</ele>
        <time>2011-04-10T09:36:43Z</time>
      </trkpt>
      <trkpt lat="46.34306" lon="4.75221">
        <ele>239.2</ele>
        <time>2011-04-10T09:36:44Z</time>
      </trkpt>
      <trkpt lat="46.34303" lon="4.75218">
        <ele>238.4</ele>
        <time>2011-04-10T09:36:45Z</time>
      </trkpt>
      <trkpt lat="46.34297" lon="4.75213">
        <ele>236.8</ele>
        <time>2011-04-10T09:36:47Z</time>
      </trkpt>
      <trkpt lat="46.34293" lon="4.75211">
        <ele>236</ele>
        <time>2011-04-10T09:36:48Z</time>
      </trkpt>
      <trkpt lat="46.34285" lon="4.75205">
        <ele>234.4</ele>
        <time>2011-04-10T09:36:50Z</time>
      </trkpt>
      <trkpt lat="46.34278" lon="4.75199">
        <ele>233</ele>
        <time>2011-04-10T09:36:52Z</time>
      </trkpt>
      <trkpt lat="46.34276" lon="4.75199">
        <ele>232.4</ele>
        <time>2011-04-10T09:36:53Z</time>
      </trkpt>
      <trkpt lat="46.34273" lon="4.75203">
        <ele>231.2</ele>
        <time>2011-04-10T09:36:55Z</time>
      </trkpt>
      <trkpt lat="46.34261" lon="4.75216">
        <ele>229.6</ele>
        <time>2011-04-10T09:36:58Z</time>
      </trkpt>
      <trkpt lat="46.34256" lon="4.75221">
        <ele>229.4</ele>
        <time>2011-04-10T09:36:59Z</time>
      </trkpt>
      <trkpt lat="46.34252" lon="4.75227">
        <ele>228.8</ele>
        <time>2011-04-10T09:37:00Z</time>
      </trkpt>
      <trkpt lat="46.3425" lon="4.75243">
        <ele>227.8</ele>
        <time>2011-04-10T09:37:02Z</time>
      </trkpt>
      <trkpt lat="46.34253" lon="4.75262">
        <ele>227</ele>
        <time>2011-04-10T09:37:04Z</time>
      </trkpt>
      <trkpt lat="46.34255" lon="4.75271">
        <ele>226.6</ele>
        <time>2011-04-10T09:37:05Z</time>
      </trkpt>
      <trkpt lat="46.34256" lon="4.75281">
        <ele>226.4</ele>
        <time>2011-04-10T09:37:06Z</time>
      </trkpt>
      <trkpt lat="46.34255" lon="4.75301">
        <ele>225.8</ele>
        <time>2011-04-10T09:37:08Z</time>
      </trkpt>
      <trkpt lat="46.34252" lon="4.75311">
        <ele>225.6</ele>
        <time>2011-04-10T09:37:09Z</time>
      </trkpt>
      <trkpt lat="46.34242" lon="4.75327">
        <ele>225.4</ele>
        <time>2011-04-10T09:37:11Z</time>
      </trkpt>
      <trkpt lat="46.34227" lon="4.75339">
        <ele>225.6</ele>
        <time>2011-04-10T09:37:13Z</time>
      </trkpt>
      <trkpt lat="46.3422" lon="4.75348">
        <ele>225.6</ele>
        <time>2011-04-10T09:37:14Z</time>
      </trkpt>
      <trkpt lat="46.34215" lon="4.75357">
        <ele>225.6</ele>
        <time>2011-04-10T09:37:15Z</time>
      </trkpt>
      <trkpt lat="46.34206" lon="4.75383">
        <ele>225.4</ele>
        <time>2011-04-10T09:37:17Z</time>
      </trkpt>
      <trkpt lat="46.34202" lon="4.75397">
        <ele>225.2</ele>
        <time>2011-04-10T09:37:18Z</time>
      </trkpt>
      <trkpt lat="46.34198" lon="4.75412">
        <ele>225</ele>
        <time>2011-04-10T09:37:19Z</time>
      </trkpt>
      <trkpt lat="46.34189" lon="4.75443">
        <ele>224.8</ele>
        <time>2011-04-10T09:37:21Z</time>
      </trkpt>
      <trkpt lat="46.34185" lon="4.7546">
        <ele>224.6</ele>
        <time>2011-04-10T09:37:22Z</time>
      </trkpt>
      <trkpt lat="46.3418" lon="4.7551">
        <ele>223.8</ele>
        <time>2011-04-10T09:37:25Z</time>
      </trkpt>
      <trkpt lat="46.34181" lon="4.75544">
        <ele>223.2</ele>
        <time>2011-04-10T09:37:27Z</time>
      </trkpt>
      <trkpt lat="46.34182" lon="4.75578">
        <ele>223</ele>
        <time>2011-04-10T09:37:29Z</time>
      </trkpt>
      <trkpt lat="46.34183" lon="4.75612">
        <ele>222.6</ele>
        <time>2011-04-10T09:37:31Z</time>
      </trkpt>
      <trkpt lat="46.34182" lon="4.75695">
        <ele>222.2</ele>
        <time>2011-04-10T09:37:36Z</time>
      </trkpt>
      <trkpt lat="46.34179" lon="4.75726">
        <ele>222</ele>
        <time>2011-04-10T09:37:38Z</time>
      </trkpt>
      <trkpt lat="46.3417" lon="4.75767">
        <ele>221.2</ele>
        <time>2011-04-10T09:37:41Z</time>
      </trkpt>
      <trkpt lat="46.34168" lon="4.75781">
        <ele>221</ele>
        <time>2011-04-10T09:37:42Z</time>
      </trkpt>
      <trkpt lat="46.34163" lon="4.75809">
        <ele>220.4</ele>
        <time>2011-04-10T09:37:44Z</time>
      </trkpt>
      <trkpt lat="46.3416" lon="4.75822">
        <ele>220.2</ele>
        <time>2011-04-10T09:37:45Z</time>
      </trkpt>
      <trkpt lat="46.34148" lon="4.75839">
        <ele>219.4</ele>
        <time>2011-04-10T09:37:47Z</time>
      </trkpt>
      <trkpt lat="46.3413" lon="4.75849">
        <ele>218.2</ele>
        <time>2011-04-10T09:37:49Z</time>
      </trkpt>
      <trkpt lat="46.34121" lon="4.75853">
        <ele>217.8</ele>
        <time>2011-04-10T09:37:50Z</time>
      </trkpt>
      <trkpt lat="46.34108" lon="4.75882">
        <ele>215.6</ele>
        <time>2011-04-10T09:37:53Z</time>
      </trkpt>
      <trkpt lat="46.34108" lon="4.75896">
        <ele>214.8</ele>
        <time>2011-04-10T09:37:54Z</time>
      </trkpt>
      <trkpt lat="46.34111" lon="4.75911">
        <ele>214.2</ele>
        <time>2011-04-10T09:37:55Z</time>
      </trkpt>
      <trkpt lat="46.34118" lon="4.75958">
        <ele>212.4</ele>
        <time>2011-04-10T09:37:58Z</time>
      </trkpt>
      <trkpt lat="46.34121" lon="4.75989">
        <ele>211.4</ele>
        <time>2011-04-10T09:38:00Z</time>
      </trkpt>
      <trkpt lat="46.34122" lon="4.76004">
        <ele>210.8</ele>
        <time>2011-04-10T09:38:01Z</time>
      </trkpt>
      <trkpt lat="46.34125" lon="4.76031">
        <ele>209.8</ele>
        <time>2011-04-10T09:38:03Z</time>
      </trkpt>
      <trkpt lat="46.34127" lon="4.76044">
        <ele>209.4</ele>
        <time>2011-04-10T09:38:04Z</time>
      </trkpt>
      <trkpt lat="46.34137" lon="4.76081">
        <ele>208.2</ele>
        <time>2011-04-10T09:38:07Z</time>
      </trkpt>
      <trkpt lat="46.34146" lon="4.76104">
        <ele>207.8</ele>
        <time>2011-04-10T09:38:09Z</time>
      </trkpt>
      <trkpt lat="46.34155" lon="4.76125">
        <ele>207</ele>
        <time>2011-04-10T09:38:11Z</time>
      </trkpt>
      <trkpt lat="46.34163" lon="4.76147">
        <ele>206.2</ele>
        <time>2011-04-10T09:38:13Z</time>
      </trkpt>
      <trkpt lat="46.3417" lon="4.76166">
        <ele>205.6</ele>
        <time>2011-04-10T09:38:15Z</time>
      </trkpt>
      <trkpt lat="46.34176" lon="4.76183">
        <ele>205.2</ele>
        <time>2011-04-10T09:38:17Z</time>
      </trkpt>
      <trkpt lat="46.34181" lon="4.76198">
        <ele>204.8</ele>
        <time>2011-04-10T09:38:19Z</time>
      </trkpt>
      <trkpt lat="46.34186" lon="4.76211">
        <ele>204.4</ele>
        <time>2011-04-10T09:38:21Z</time>
      </trkpt>
      <trkpt lat="46.34185" lon="4.7622">
        <ele>203.8</ele>
        <time>2011-04-10T09:38:24Z</time>
      </trkpt>
      <trkpt lat="46.3418" lon="4.76221">
        <ele>203.4</ele>
        <time>2011-04-10T09:38:26Z</time>
      </trkpt>
      <trkpt lat="46.34177" lon="4.7622">
        <ele>203</ele>
        <time>2011-04-10T09:38:27Z</time>
      </trkpt>
      <trkpt lat="46.34166" lon="4.76216">
        <ele>202.6</ele>
        <time>2011-04-10T09:38:30Z</time>
      </trkpt>
      <trkpt lat="46.34159" lon="4.76214">
        <ele>202.2</ele>
        <time>2011-04-10T09:38:32Z</time>
      </trkpt>
      <trkpt lat="46.34151" lon="4.76212">
        <ele>202</ele>
        <time>2011-04-10T09:38:34Z</time>
      </trkpt>
      <trkpt lat="46.34115" lon="4.76205">
        <ele>201.4</ele>
        <time>2011-04-10T09:38:42Z</time>
      </trkpt>
      <trkpt lat="46.34078" lon="4.7619">
        <ele>201.2</ele>
        <time>2011-04-10T09:38:48Z</time>
      </trkpt>
      <trkpt lat="46.34025" lon="4.76174">
        <ele>201.2</ele>
        <time>2011-04-10T09:38:56Z</time>
      </trkpt>
      <trkpt lat="46.33971" lon="4.76162">
        <ele>201</ele>
        <time>2011-04-10T09:39:04Z</time>
      </trkpt>
      <trkpt lat="46.33963" lon="4.7616">
        <ele>200.8</ele>
        <time>2011-04-10T09:39:05Z</time>
      </trkpt>
      <trkpt lat="46.33946" lon="4.76158">
        <ele>200.4</ele>
        <time>2011-04-10T09:39:07Z</time>
      </trkpt>
      <trkpt lat="46.33926" lon="4.76156">
        <ele>200.2</ele>
        <time>2011-04-10T09:39:09Z</time>
      </trkpt>
      <trkpt lat="46.33907" lon="4.76154">
        <ele>200</ele>
        <time>2011-04-10T09:39:11Z</time>
      </trkpt>
      <trkpt lat="46.33888" lon="4.76152">
        <ele>199.6</ele>
        <time>2011-04-10T09:39:13Z</time>
      </trkpt>
      <trkpt lat="46.33844" lon="4.76147">
        <ele>199.4</ele>
        <time>2011-04-10T09:39:18Z</time>
      </trkpt>
      <trkpt lat="46.33781" lon="4.76139">
        <ele>199</ele>
        <time>2011-04-10T09:39:25Z</time>
      </trkpt>
      <trkpt lat="46.33731" lon="4.76132">
        <ele>199</ele>
        <time>2011-04-10T09:39:31Z</time>
      </trkpt>
      <trkpt lat="46.337" lon="4.7613">
        <ele>198.8</ele>
        <time>2011-04-10T09:39:35Z</time>
      </trkpt>
      <trkpt lat="46.33685" lon="4.76129">
        <ele>198.4</ele>
        <time>2011-04-10T09:39:37Z</time>
      </trkpt>
      <trkpt lat="46.3367" lon="4.76128">
        <ele>198</ele>
        <time>2011-04-10T09:39:39Z</time>
      </trkpt>
      <trkpt lat="46.33656" lon="4.76126">
        <ele>197.8</ele>
        <time>2011-04-10T09:39:41Z</time>
      </trkpt>
      <trkpt lat="46.33644" lon="4.76126">
        <ele>197.4</ele>
        <time>2011-04-10T09:39:43Z</time>
      </trkpt>
      <trkpt lat="46.33639" lon="4.76126">
        <ele>197.4</ele>
        <time>2011-04-10T09:39:44Z</time>
      </trkpt>
      <trkpt lat="46.33632" lon="4.76128">
        <ele>197</ele>
        <time>2011-04-10T09:39:47Z</time>
      </trkpt>
      <trkpt lat="46.33631" lon="4.76135">
        <ele>196.4</ele>
        <time>2011-04-10T09:39:49Z</time>
      </trkpt>
      <trkpt lat="46.33632" lon="4.76143">
        <ele>196</ele>
        <time>2011-04-10T09:39:51Z</time>
      </trkpt>
      <trkpt lat="46.33633" lon="4.76148">
        <ele>195.8</ele>
        <time>2011-04-10T09:39:52Z</time>
      </trkpt>
      <trkpt lat="46.33633" lon="4.76153">
        <ele>195.6</ele>
        <time>2011-04-10T09:39:53Z</time>
      </trkpt>
      <trkpt lat="46.33633" lon="4.76165">
        <ele>195.4</ele>
        <time>2011-04-10T09:39:55Z</time>
      </trkpt>
      <trkpt lat="46.33632" lon="4.76188">
        <ele>195.2</ele>
        <time>2011-04-10T09:39:58Z</time>
      </trkpt>
      <trkpt lat="46.3363" lon="4.76225">
        <ele>194.6</ele>
        <time>2011-04-10T09:40:02Z</time>
      </trkpt>
      <trkpt lat="46.3363" lon="4.76245">
        <ele>194.2</ele>
        <time>2011-04-10T09:40:04Z</time>
      </trkpt>
      <trkpt lat="46.33628" lon="4.76267">
        <ele>193.8</ele>
        <time>2011-04-10T09:40:06Z</time>
      </trkpt>
      <trkpt lat="46.33629" lon="4.7629">
        <ele>193.4</ele>
        <time>2011-04-10T09:40:08Z</time>
      </trkpt>
      <trkpt lat="46.33629" lon="4.76314">
        <ele>193</ele>
        <time>2011-04-10T09:40:10Z</time>
      </trkpt>
      <trkpt lat="46.33627" lon="4.76341">
        <ele>192.4</ele>
        <time>2011-04-10T09:40:12Z</time>
      </trkpt>
      <trkpt lat="46.33622" lon="4.76364">
        <ele>191.6</ele>
        <time>2011-04-10T09:40:14Z</time>
      </trkpt>
      <trkpt lat="46.3362" lon="4.76386">
        <ele>190.8</ele>
        <time>2011-04-10T09:40:16Z</time>
      </trkpt>
      <trkpt lat="46.33619" lon="4.76398">
        <ele>190</ele>
        <time>2011-04-10T09:40:17Z</time>
      </trkpt>
      <trkpt lat="46.3362" lon="4.76422">
        <ele>189</ele>
        <time>2011-04-10T09:40:19Z</time>
      </trkpt>
      <trkpt lat="46.33622" lon="4.76432">
        <ele>188.6</ele>
        <time>2011-04-10T09:40:20Z</time>
      </trkpt>
      <trkpt lat="46.33623" lon="4.76451">
        <ele>187.4</ele>
        <time>2011-04-10T09:40:23Z</time>
      </trkpt>
      <trkpt lat="46.33618" lon="4.76455">
        <ele>187</ele>
        <time>2011-04-10T09:40:25Z</time>
      </trkpt>
      <trkpt lat="46.33613" lon="4.76456">
        <ele>186.6</ele>
        <time>2011-04-10T09:40:26Z</time>
      </trkpt>
      <trkpt lat="46.33606" lon="4.76458">
        <ele>186</ele>
        <time>2011-04-10T09:40:28Z</time>
      </trkpt>
      <trkpt lat="46.33598" lon="4.76462">
        <ele>185.4</ele>
        <time>2011-04-10T09:40:30Z</time>
      </trkpt>
      <trkpt lat="46.33589" lon="4.76468">
        <ele>184.8</ele>
        <time>2011-04-10T09:40:32Z</time>
      </trkpt>
      <trkpt lat="46.33579" lon="4.76473">
        <ele>184.4</ele>
        <time>2011-04-10T09:40:34Z</time>
      </trkpt>
      <trkpt lat="46.3357" lon="4.76478">
        <ele>184</ele>
        <time>2011-04-10T09:40:36Z</time>
      </trkpt>
      <trkpt lat="46.33565" lon="4.7648">
        <ele>184</ele>
        <time>2011-04-10T09:40:37Z</time>
      </trkpt>
      <trkpt lat="46.33534" lon="4.76484">
        <ele>183.2</ele>
        <time>2011-04-10T09:40:43Z</time>
      </trkpt>
      <trkpt lat="46.33491" lon="4.76489">
        <ele>182.8</ele>
        <time>2011-04-10T09:40:50Z</time>
      </trkpt>
      <trkpt lat="46.33444" lon="4.76495">
        <ele>182.8</ele>
        <time>2011-04-10T09:40:57Z</time>
      </trkpt>
      <trkpt lat="46.33409" lon="4.76497">
        <ele>182.6</ele>
        <time>2011-04-10T09:41:02Z</time>
      </trkpt>
      <trkpt lat="46.33368" lon="4.76494">
        <ele>182.6</ele>
        <time>2011-04-10T09:41:07Z</time>
      </trkpt>
      <trkpt lat="46.33343" lon="4.76485">
        <ele>182.6</ele>
        <time>2011-04-10T09:41:10Z</time>
      </trkpt>
      <trkpt lat="46.33307" lon="4.76488">
        <ele>182.6</ele>
        <time>2011-04-10T09:41:14Z</time>
      </trkpt>
      <trkpt lat="46.33298" lon="4.76496">
        <ele>182.2</ele>
        <time>2011-04-10T09:41:15Z</time>
      </trkpt>
      <trkpt lat="46.3329" lon="4.76504">
        <ele>182</ele>
        <time>2011-04-10T09:41:16Z</time>
      </trkpt>
      <trkpt lat="46.33281" lon="4.76511">
        <ele>181.8</ele>
        <time>2011-04-10T09:41:17Z</time>
      </trkpt>
      <trkpt lat="46.33272" lon="4.76513">
        <ele>181.6</ele>
        <time>2011-04-10T09:41:18Z</time>
      </trkpt>
      <trkpt lat="46.33263" lon="4.76513">
        <ele>181.4</ele>
        <time>2011-04-10T09:41:19Z</time>
      </trkpt>
      <trkpt lat="46.33245" lon="4.76507">
        <ele>181.2</ele>
        <time>2011-04-10T09:41:21Z</time>
      </trkpt>
      <trkpt lat="46.33235" lon="4.76505">
        <ele>181</ele>
        <time>2011-04-10T09:41:22Z</time>
      </trkpt>
      <trkpt lat="46.33216" lon="4.76503">
        <ele>180.6</ele>
        <time>2011-04-10T09:41:24Z</time>
      </trkpt>
      <trkpt lat="46.33197" lon="4.76504">
        <ele>180</ele>
        <time>2011-04-10T09:41:26Z</time>
      </trkpt>
      <trkpt lat="46.33178" lon="4.76505">
        <ele>179.6</ele>
        <time>2011-04-10T09:41:28Z</time>
      </trkpt>
      <trkpt lat="46.33159" lon="4.76506">
        <ele>179.2</ele>
        <time>2011-04-10T09:41:30Z</time>
      </trkpt>
      <trkpt lat="46.33141" lon="4.76506">
        <ele>179</ele>
        <time>2011-04-10T09:41:32Z</time>
      </trkpt>
      <trkpt lat="46.33106" lon="4.76501">
        <ele>178.6</ele>
        <time>2011-04-10T09:41:36Z</time>
      </trkpt>
      <trkpt lat="46.3308" lon="4.76498">
        <ele>178.2</ele>
        <time>2011-04-10T09:41:39Z</time>
      </trkpt>
      <trkpt lat="46.33066" lon="4.76497">
        <ele>177.6</ele>
        <time>2011-04-10T09:41:41Z</time>
      </trkpt>
      <trkpt lat="46.3306" lon="4.76497">
        <ele>177.4</ele>
        <time>2011-04-10T09:41:42Z</time>
      </trkpt>
      <trkpt lat="46.33056" lon="4.765">
        <ele>177.2</ele>
        <time>2011-04-10T09:41:43Z</time>
      </trkpt>
      <trkpt lat="46.33055" lon="4.76513">
        <ele>177</ele>
        <time>2011-04-10T09:41:45Z</time>
      </trkpt>
      <trkpt lat="46.33057" lon="4.76522">
        <ele>176.8</ele>
        <time>2011-04-10T09:41:46Z</time>
      </trkpt>
      <trkpt lat="46.33059" lon="4.76531">
        <ele>176.8</ele>
        <time>2011-04-10T09:41:47Z</time>
      </trkpt>
      <trkpt lat="46.3306" lon="4.76575">
        <ele>176.2</ele>
        <time>2011-04-10T09:41:52Z</time>
      </trkpt>
      <trkpt lat="46.3306" lon="4.76591">
        <ele>176.2</ele>
        <time>2011-04-10T09:41:54Z</time>
      </trkpt>
      <trkpt lat="46.33063" lon="4.76629">
        <ele>176</ele>
        <time>2011-04-10T09:41:59Z</time>
      </trkpt>
      <trkpt lat="46.33065" lon="4.76668">
        <ele>175.8</ele>
        <time>2011-04-10T09:42:04Z</time>
      </trkpt>
      <trkpt lat="46.33065" lon="4.76675">
        <ele>175.8</ele>
        <time>2011-04-10T09:42:05Z</time>
      </trkpt>
      <trkpt lat="46.33067" lon="4.76691">
        <ele>175.8</ele>
        <time>2011-04-10T09:42:09Z</time>
      </trkpt>
      <trkpt lat="46.33072" lon="4.76707">
        <ele>175.8</ele>
        <time>2011-04-10T09:42:14Z</time>
      </trkpt>
      <trkpt lat="46.33076" lon="4.76718">
        <ele>176</ele>
        <time>2011-04-10T09:42:18Z</time>
      </trkpt>
      <trkpt lat="46.33079" lon="4.76722">
        <ele>176.2</ele>
        <time>2011-04-10T09:42:20Z</time>
      </trkpt>
      <trkpt lat="46.33083" lon="4.76725">
        <ele>176.6</ele>
        <time>2011-04-10T09:42:22Z</time>
      </trkpt>
      <trkpt lat="46.33085" lon="4.76726">
        <ele>176.8</ele>
        <time>2011-04-10T09:42:23Z</time>
      </trkpt>
      <trkpt lat="46.33088" lon="4.76727">
        <ele>177.4</ele>
        <time>2011-04-10T09:42:25Z</time>
      </trkpt>
      <trkpt lat="46.33092" lon="4.76727">
        <ele>177.8</ele>
        <time>2011-04-10T09:42:27Z</time>
      </trkpt>
      <trkpt lat="46.33095" lon="4.76728">
        <ele>178.2</ele>
        <time>2011-04-10T09:42:29Z</time>
      </trkpt>
      <trkpt lat="46.33097" lon="4.76728">
        <ele>178.6</ele>
        <time>2011-04-10T09:42:30Z</time>
      </trkpt>
      <trkpt lat="46.331" lon="4.76728">
        <ele>179.2</ele>
        <time>2011-04-10T09:42:32Z</time>
      </trkpt>
      <trkpt lat="46.33103" lon="4.76729">
        <ele>179.8</ele>
        <time>2011-04-10T09:42:34Z</time>
      </trkpt>
      <trkpt lat="46.33106" lon="4.76729">
        <ele>180.4</ele>
        <time>2011-04-10T09:42:36Z</time>
      </trkpt>
      <trkpt lat="46.33109" lon="4.76729">
        <ele>181</ele>
        <time>2011-04-10T09:42:38Z</time>
      </trkpt>
      <trkpt lat="46.33112" lon="4.7673">
        <ele>181.6</ele>
        <time>2011-04-10T09:42:40Z</time>
      </trkpt>
      <trkpt lat="46.33115" lon="4.7673">
        <ele>182</ele>
        <time>2011-04-10T09:42:42Z</time>
      </trkpt>
      <trkpt lat="46.33116" lon="4.76731">
        <ele>182.4</ele>
        <time>2011-04-10T09:42:43Z</time>
      </trkpt>
      <trkpt lat="46.33117" lon="4.76731">
        <ele>182.8</ele>
        <time>2011-04-10T09:42:44Z</time>
      </trkpt>
      <trkpt lat="46.33121" lon="4.76734">
        <ele>183.8</ele>
        <time>2011-04-10T09:42:47Z</time>
      </trkpt>
      <trkpt lat="46.33122" lon="4.76736">
        <ele>184.2</ele>
        <time>2011-04-10T09:42:49Z</time>
      </trkpt>
      <trkpt lat="46.33124" lon="4.76739">
        <ele>184.8</ele>
        <time>2011-04-10T09:42:51Z</time>
      </trkpt>
      <trkpt lat="46.33126" lon="4.76743">
        <ele>185.6</ele>
        <time>2011-04-10T09:42:53Z</time>
      </trkpt>
      <trkpt lat="46.33128" lon="4.76747">
        <ele>186</ele>
        <time>2011-04-10T09:42:55Z</time>
      </trkpt>
      <trkpt lat="46.33129" lon="4.76751">
        <ele>186.6</ele>
        <time>2011-04-10T09:42:57Z</time>
      </trkpt>
      <trkpt lat="46.33129" lon="4.76756">
        <ele>187</ele>
        <time>2011-04-10T09:42:59Z</time>
      </trkpt>
      <trkpt lat="46.3313" lon="4.76758">
        <ele>187.2</ele>
        <time>2011-04-10T09:43:00Z</time>
      </trkpt>
      <trkpt lat="46.33131" lon="4.76762">
        <ele>188</ele>
        <time>2011-04-10T09:43:02Z</time>
      </trkpt>
      <trkpt lat="46.33132" lon="4.76766">
        <ele>188.4</ele>
        <time>2011-04-10T09:43:04Z</time>
      </trkpt>
      <trkpt lat="46.33133" lon="4.76771">
        <ele>188.8</ele>
        <time>2011-04-10T09:43:06Z</time>
      </trkpt>
      <trkpt lat="46.33133" lon="4.76775">
        <ele>189.2</ele>
        <time>2011-04-10T09:43:08Z</time>
      </trkpt>
      <trkpt lat="46.33134" lon="4.76782">
        <ele>189.8</ele>
        <time>2011-04-10T09:43:11Z</time>
      </trkpt>
      <trkpt lat="46.33135" lon="4.76787">
        <ele>190.2</ele>
        <time>2011-04-10T09:43:13Z</time>
      </trkpt>
      <trkpt lat="46.33137" lon="4.76792">
        <ele>190.8</ele>
        <time>2011-04-10T09:43:15Z</time>
      </trkpt>
      <trkpt lat="46.33139" lon="4.76797">
        <ele>191</ele>
        <time>2011-04-10T09:43:17Z</time>
      </trkpt>
      <trkpt lat="46.33141" lon="4.76804">
        <ele>191.4</ele>
        <time>2011-04-10T09:43:20Z</time>
      </trkpt>
      <trkpt lat="46.33146" lon="4.76817">
        <ele>192.2</ele>
        <time>2011-04-10T09:43:25Z</time>
      </trkpt>
      <trkpt lat="46.33148" lon="4.7682">
        <ele>192.6</ele>
        <time>2011-04-10T09:43:27Z</time>
      </trkpt>
      <trkpt lat="46.33149" lon="4.76824">
        <ele>193</ele>
        <time>2011-04-10T09:43:29Z</time>
      </trkpt>
      <trkpt lat="46.3315" lon="4.76828">
        <ele>193.4</ele>
        <time>2011-04-10T09:43:31Z</time>
      </trkpt>
      <trkpt lat="46.33152" lon="4.7683">
        <ele>193.6</ele>
        <time>2011-04-10T09:43:32Z</time>
      </trkpt>
      <trkpt lat="46.33153" lon="4.76831">
        <ele>193.6</ele>
        <time>2011-04-10T09:43:33Z</time>
      </trkpt>
      <trkpt lat="46.33157" lon="4.76836">
        <ele>194.2</ele>
        <time>2011-04-10T09:43:36Z</time>
      </trkpt>
      <trkpt lat="46.3316" lon="4.7684">
        <ele>194.6</ele>
        <time>2011-04-10T09:43:38Z</time>
      </trkpt>
      <trkpt lat="46.33162" lon="4.76842">
        <ele>195</ele>
        <time>2011-04-10T09:43:39Z</time>
      </trkpt>
      <trkpt lat="46.33163" lon="4.76844">
        <ele>195.2</ele>
        <time>2011-04-10T09:43:40Z</time>
      </trkpt>
      <trkpt lat="46.33167" lon="4.76848">
        <ele>195.4</ele>
        <time>2011-04-10T09:43:42Z</time>
      </trkpt>
      <trkpt lat="46.33171" lon="4.76852">
        <ele>196</ele>
        <time>2011-04-10T09:43:44Z</time>
      </trkpt>
      <trkpt lat="46.33175" lon="4.76856">
        <ele>196.6</ele>
        <time>2011-04-10T09:43:46Z</time>
      </trkpt>
      <trkpt lat="46.33179" lon="4.76859">
        <ele>197</ele>
        <time>2011-04-10T09:43:48Z</time>
      </trkpt>
      <trkpt lat="46.33183" lon="4.76862">
        <ele>197.4</ele>
        <time>2011-04-10T09:43:50Z</time>
      </trkpt>
      <trkpt lat="46.33187" lon="4.76866">
        <ele>197.6</ele>
        <time>2011-04-10T09:43:52Z</time>
      </trkpt>
      <trkpt lat="46.33192" lon="4.76869">
        <ele>198.2</ele>
        <time>2011-04-10T09:43:54Z</time>
      </trkpt>
      <trkpt lat="46.33196" lon="4.76872">
        <ele>198.8</ele>
        <time>2011-04-10T09:43:56Z</time>
      </trkpt>
      <trkpt lat="46.332" lon="4.76876">
        <ele>199.2</ele>
        <time>2011-04-10T09:43:58Z</time>
      </trkpt>
      <trkpt lat="46.33205" lon="4.7688">
        <ele>199.6</ele>
        <time>2011-04-10T09:44:00Z</time>
      </trkpt>
      <trkpt lat="46.3321" lon="4.76883">
        <ele>200.2</ele>
        <time>2011-04-10T09:44:02Z</time>
      </trkpt>
      <trkpt lat="46.33214" lon="4.76885">
        <ele>200.8</ele>
        <time>2011-04-10T09:44:04Z</time>
      </trkpt>
      <trkpt lat="46.33218" lon="4.76888">
        <ele>201.2</ele>
        <time>2011-04-10T09:44:06Z</time>
      </trkpt>
      <trkpt lat="46.33221" lon="4.76892">
        <ele>201.8</ele>
        <time>2011-04-10T09:44:08Z</time>
      </trkpt>
      <trkpt lat="46.33225" lon="4.76895">
        <ele>202.6</ele>
        <time>2011-04-10T09:44:10Z</time>
      </trkpt>
      <trkpt lat="46.33229" lon="4.76898">
        <ele>203</ele>
        <time>2011-04-10T09:44:12Z</time>
      </trkpt>
      <trkpt lat="46.33233" lon="4.76902">
        <ele>203.6</ele>
        <time>2011-04-10T09:44:14Z</time>
      </trkpt>
      <trkpt lat="46.33235" lon="4.76905">
        <ele>204.2</ele>
        <time>2011-04-10T09:44:16Z</time>
      </trkpt>
      <trkpt lat="46.33237" lon="4.76911">
        <ele>204.8</ele>
        <time>2011-04-10T09:44:18Z</time>
      </trkpt>
      <trkpt lat="46.33236" lon="4.76917">
        <ele>205.4</ele>
        <time>2011-04-10T09:44:20Z</time>
      </trkpt>
      <trkpt lat="46.33236" lon="4.76924">
        <ele>205.8</ele>
        <time>2011-04-10T09:44:22Z</time>
      </trkpt>
      <trkpt lat="46.33235" lon="4.7693">
        <ele>206.2</ele>
        <time>2011-04-10T09:44:24Z</time>
      </trkpt>
      <trkpt lat="46.33233" lon="4.76955">
        <ele>207</ele>
        <time>2011-04-10T09:44:32Z</time>
      </trkpt>
      <trkpt lat="46.33233" lon="4.76959">
        <ele>207.2</ele>
        <time>2011-04-10T09:44:33Z</time>
      </trkpt>
      <trkpt lat="46.33234" lon="4.76966">
        <ele>207.8</ele>
        <time>2011-04-10T09:44:35Z</time>
      </trkpt>
      <trkpt lat="46.33234" lon="4.76974">
        <ele>208</ele>
        <time>2011-04-10T09:44:37Z</time>
      </trkpt>
      <trkpt lat="46.33234" lon="4.76981">
        <ele>208.4</ele>
        <time>2011-04-10T09:44:39Z</time>
      </trkpt>
      <trkpt lat="46.33234" lon="4.76988">
        <ele>208.6</ele>
        <time>2011-04-10T09:44:41Z</time>
      </trkpt>
      <trkpt lat="46.33231" lon="4.77003">
        <ele>209.2</ele>
        <time>2011-04-10T09:44:45Z</time>
      </trkpt>
      <trkpt lat="46.3323" lon="4.77011">
        <ele>209.8</ele>
        <time>2011-04-10T09:44:47Z</time>
      </trkpt>
      <trkpt lat="46.33229" lon="4.77018">
        <ele>210.2</ele>
        <time>2011-04-10T09:44:49Z</time>
      </trkpt>
      <trkpt lat="46.33227" lon="4.77026">
        <ele>210.4</ele>
        <time>2011-04-10T09:44:51Z</time>
      </trkpt>
      <trkpt lat="46.33225" lon="4.77033">
        <ele>210.8</ele>
        <time>2011-04-10T09:44:53Z</time>
      </trkpt>
      <trkpt lat="46.33216" lon="4.77056">
        <ele>211.2</ele>
        <time>2011-04-10T09:44:59Z</time>
      </trkpt>
      <trkpt lat="46.33203" lon="4.77077">
        <ele>211.6</ele>
        <time>2011-04-10T09:45:05Z</time>
      </trkpt>
      <trkpt lat="46.33186" lon="4.77094">
        <ele>211.8</ele>
        <time>2011-04-10T09:45:11Z</time>
      </trkpt>
      <trkpt lat="46.33177" lon="4.771">
        <ele>212</ele>
        <time>2011-04-10T09:45:14Z</time>
      </trkpt>
      <trkpt lat="46.33172" lon="4.77102">
        <ele>212.4</ele>
        <time>2011-04-10T09:45:16Z</time>
      </trkpt>
      <trkpt lat="46.33168" lon="4.77105">
        <ele>212.6</ele>
        <time>2011-04-10T09:45:18Z</time>
      </trkpt>
      <trkpt lat="46.33162" lon="4.77107">
        <ele>212.8</ele>
        <time>2011-04-10T09:45:20Z</time>
      </trkpt>
      <trkpt lat="46.33156" lon="4.77109">
        <ele>213</ele>
        <time>2011-04-10T09:45:22Z</time>
      </trkpt>
      <trkpt lat="46.33139" lon="4.77112">
        <ele>213.4</ele>
        <time>2011-04-10T09:45:28Z</time>
      </trkpt>
      <trkpt lat="46.3312" lon="4.77106">
        <ele>213.6</ele>
        <time>2011-04-10T09:45:34Z</time>
      </trkpt>
      <trkpt lat="46.33101" lon="4.77095">
        <ele>213.8</ele>
        <time>2011-04-10T09:45:39Z</time>
      </trkpt>
      <trkpt lat="46.33077" lon="4.7708">
        <ele>213.8</ele>
        <time>2011-04-10T09:45:45Z</time>
      </trkpt>
      <trkpt lat="46.33046" lon="4.77062">
        <ele>213.8</ele>
        <time>2011-04-10T09:45:52Z</time>
      </trkpt>
      <trkpt lat="46.33016" lon="4.77047">
        <ele>213.6</ele>
        <time>2011-04-10T09:45:58Z</time>
      </trkpt>
      <trkpt lat="46.33005" lon="4.77043">
        <ele>213.2</ele>
        <time>2011-04-10T09:46:00Z</time>
      </trkpt>
      <trkpt lat="46.32995" lon="4.77038">
        <ele>213</ele>
        <time>2011-04-10T09:46:02Z</time>
      </trkpt>
      <trkpt lat="46.32984" lon="4.77035">
        <ele>212.6</ele>
        <time>2011-04-10T09:46:04Z</time>
      </trkpt>
      <trkpt lat="46.32974" lon="4.77031">
        <ele>212.4</ele>
        <time>2011-04-10T09:46:06Z</time>
      </trkpt>
      <trkpt lat="46.32942" lon="4.77021">
        <ele>212</ele>
        <time>2011-04-10T09:46:12Z</time>
      </trkpt>
      <trkpt lat="46.32926" lon="4.7702">
        <ele>212</ele>
        <time>2011-04-10T09:46:15Z</time>
      </trkpt>
      <trkpt lat="46.32903" lon="4.77021">
        <ele>211.6</ele>
        <time>2011-04-10T09:46:19Z</time>
      </trkpt>
      <trkpt lat="46.32891" lon="4.77023">
        <ele>211.2</ele>
        <time>2011-04-10T09:46:21Z</time>
      </trkpt>
      <trkpt lat="46.32878" lon="4.77024">
        <ele>211</ele>
        <time>2011-04-10T09:46:23Z</time>
      </trkpt>
      <trkpt lat="46.32866" lon="4.77026">
        <ele>210.6</ele>
        <time>2011-04-10T09:46:25Z</time>
      </trkpt>
      <trkpt lat="46.32853" lon="4.77028">
        <ele>210.4</ele>
        <time>2011-04-10T09:46:27Z</time>
      </trkpt>
      <trkpt lat="46.32814" lon="4.77031">
        <ele>210</ele>
        <time>2011-04-10T09:46:33Z</time>
      </trkpt>
      <trkpt lat="46.328" lon="4.77032">
        <ele>209.4</ele>
        <time>2011-04-10T09:46:34Z</time>
      </trkpt>
      <trkpt lat="46.32784" lon="4.77033">
        <ele>209.2</ele>
        <time>2011-04-10T09:46:36Z</time>
      </trkpt>
      <trkpt lat="46.32775" lon="4.77034">
        <ele>208.8</ele>
        <time>2011-04-10T09:46:37Z</time>
      </trkpt>
      <trkpt lat="46.32767" lon="4.77035">
        <ele>208.4</ele>
        <time>2011-04-10T09:46:38Z</time>
      </trkpt>
      <trkpt lat="46.3274" lon="4.77032">
        <ele>207.4</ele>
        <time>2011-04-10T09:46:41Z</time>
      </trkpt>
      <trkpt lat="46.32722" lon="4.77029">
        <ele>206.6</ele>
        <time>2011-04-10T09:46:43Z</time>
      </trkpt>
      <trkpt lat="46.32713" lon="4.77027">
        <ele>205.8</ele>
        <time>2011-04-10T09:46:44Z</time>
      </trkpt>
      <trkpt lat="46.32697" lon="4.77023">
        <ele>204.8</ele>
        <time>2011-04-10T09:46:46Z</time>
      </trkpt>
      <trkpt lat="46.32687" lon="4.77019">
        <ele>203.6</ele>
        <time>2011-04-10T09:46:48Z</time>
      </trkpt>
      <trkpt lat="46.32681" lon="4.77017">
        <ele>202.4</ele>
        <time>2011-04-10T09:46:50Z</time>
      </trkpt>
      <trkpt lat="46.3268" lon="4.77015">
        <ele>202</ele>
        <time>2011-04-10T09:46:51Z</time>
      </trkpt>
      <trkpt lat="46.32679" lon="4.77012">
        <ele>201.4</ele>
        <time>2011-04-10T09:46:52Z</time>
      </trkpt>
      <trkpt lat="46.32681" lon="4.77">
        <ele>200.4</ele>
        <time>2011-04-10T09:46:54Z</time>
      </trkpt>
      <trkpt lat="46.32682" lon="4.76993">
        <ele>200</ele>
        <time>2011-04-10T09:46:55Z</time>
      </trkpt>
      <trkpt lat="46.32684" lon="4.7697">
        <ele>198.6</ele>
        <time>2011-04-10T09:46:58Z</time>
      </trkpt>
      <trkpt lat="46.32685" lon="4.76956">
        <ele>197.8</ele>
        <time>2011-04-10T09:47:00Z</time>
      </trkpt>
      <trkpt lat="46.32687" lon="4.76948">
        <ele>197.2</ele>
        <time>2011-04-10T09:47:01Z</time>
      </trkpt>
      <trkpt lat="46.32688" lon="4.76941">
        <ele>196.8</ele>
        <time>2011-04-10T09:47:02Z</time>
      </trkpt>
      <trkpt lat="46.32694" lon="4.76927">
        <ele>196.2</ele>
        <time>2011-04-10T09:47:04Z</time>
      </trkpt>
      <trkpt lat="46.32698" lon="4.76921">
        <ele>195.8</ele>
        <time>2011-04-10T09:47:05Z</time>
      </trkpt>
      <trkpt lat="46.32702" lon="4.76916">
        <ele>195.6</ele>
        <time>2011-04-10T09:47:06Z</time>
      </trkpt>
      <trkpt lat="46.32707" lon="4.76912">
        <ele>195.2</ele>
        <time>2011-04-10T09:47:07Z</time>
      </trkpt>
      <trkpt lat="46.32711" lon="4.76908">
        <ele>195</ele>
        <time>2011-04-10T09:47:08Z</time>
      </trkpt>
      <trkpt lat="46.32719" lon="4.76896">
        <ele>194.4</ele>
        <time>2011-04-10T09:47:11Z</time>
      </trkpt>
      <trkpt lat="46.32721" lon="4.76894">
        <ele>194.2</ele>
        <time>2011-04-10T09:47:12Z</time>
      </trkpt>
      <trkpt lat="46.32723" lon="4.76894">
        <ele>193.8</ele>
        <time>2011-04-10T09:47:13Z</time>
      </trkpt>
      <trkpt lat="46.32727" lon="4.76896">
        <ele>193</ele>
        <time>2011-04-10T09:47:16Z</time>
      </trkpt>
      <trkpt lat="46.32727" lon="4.76897">
        <ele>192.6</ele>
        <time>2011-04-10T09:47:18Z</time>
      </trkpt>
      <trkpt lat="46.32727" lon="4.76897">
        <ele>192.4</ele>
        <time>2011-04-10T09:47:20Z</time>
      </trkpt>
      <trkpt lat="46.32728" lon="4.769">
        <ele>191.4</ele>
        <time>2011-04-10T09:47:32Z</time>
      </trkpt>
      <trkpt lat="46.3273" lon="4.76903">
        <ele>191.2</ele>
        <time>2011-04-10T09:47:38Z</time>
      </trkpt>
      <trkpt lat="46.32731" lon="4.76903">
        <ele>191</ele>
        <time>2011-04-10T09:48:05Z</time>
      </trkpt>
      <trkpt lat="46.32731" lon="4.76903">
        <ele>191</ele>
        <time>2011-04-10T09:48:17Z</time>
      </trkpt>
      <trkpt lat="46.32732" lon="4.76904">
        <ele>191</ele>
        <time>2011-04-10T09:48:57Z</time>
      </trkpt>
      <trkpt lat="46.32732" lon="4.76904">
        <ele>191</ele>
        <time>2011-04-10T09:49:29Z</time>
      </trkpt>
      <trkpt lat="46.32732" lon="4.76904">
        <ele>191</ele>
        <time>2011-04-10T09:49:37Z</time>
      </trkpt>
      <trkpt lat="46.32731" lon="4.76903">
        <ele>191</ele>
        <time>2011-04-10T09:51:29Z</time>
      </trkpt>
      <trkpt lat="46.32732" lon="4.76904">
        <ele>191</ele>
        <time>2011-04-10T09:51:44Z</time>
      </trkpt>
      <trkpt lat="46.3273" lon="4.76901">
        <ele>191</ele>
        <time>2011-04-10T09:52:10Z</time>
      </trkpt>
      <trkpt lat="46.3273" lon="4.76899">
        <ele>191</ele>
        <time>2011-04-10T09:52:14Z</time>
      </trkpt>
      <trkpt lat="46.32728" lon="4.76897">
        <ele>191</ele>
        <time>2011-04-10T09:52:17Z</time>
      </trkpt>
      <trkpt lat="46.32721" lon="4.76898">
        <ele>191</ele>
        <time>2011-04-10T09:52:23Z</time>
      </trkpt>
      <trkpt lat="46.3272" lon="4.76901">
        <ele>191</ele>
        <time>2011-04-10T09:52:35Z</time>
      </trkpt>
      <trkpt lat="46.32719" lon="4.76903">
        <ele>191</ele>
        <time>2011-04-10T09:52:37Z</time>
      </trkpt>
      <trkpt lat="46.32711" lon="4.76912">
        <ele>191</ele>
        <time>2011-04-10T09:52:42Z</time>
      </trkpt>
      <trkpt lat="46.32698" lon="4.76928">
        <ele>191</ele>
        <time>2011-04-10T09:52:46Z</time>
      </trkpt>
      <trkpt lat="46.32695" lon="4.76934">
        <ele>191</ele>
        <time>2011-04-10T09:52:47Z</time>
      </trkpt>
      <trkpt lat="46.32692" lon="4.76939">
        <ele>191</ele>
        <time>2011-04-10T09:52:48Z</time>
      </trkpt>
      <trkpt lat="46.32687" lon="4.76955">
        <ele>191</ele>
        <time>2011-04-10T09:52:51Z</time>
      </trkpt>
      <trkpt lat="46.32686" lon="4.76973">
        <ele>191</ele>
        <time>2011-04-10T09:52:54Z</time>
      </trkpt>
      <trkpt lat="46.32686" lon="4.76979">
        <ele>191</ele>
        <time>2011-04-10T09:52:55Z</time>
      </trkpt>
      <trkpt lat="46.32683" lon="4.76998">
        <ele>191.2</ele>
        <time>2011-04-10T09:52:58Z</time>
      </trkpt>
      <trkpt lat="46.32682" lon="4.77004">
        <ele>191.4</ele>
        <time>2011-04-10T09:52:59Z</time>
      </trkpt>
      <trkpt lat="46.32674" lon="4.77015">
        <ele>191.8</ele>
        <time>2011-04-10T09:53:02Z</time>
      </trkpt>
      <trkpt lat="46.32669" lon="4.77016">
        <ele>192</ele>
        <time>2011-04-10T09:53:03Z</time>
      </trkpt>
      <trkpt lat="46.32641" lon="4.77005">
        <ele>192.2</ele>
        <time>2011-04-10T09:53:06Z</time>
      </trkpt>
      <trkpt lat="46.32604" lon="4.76985">
        <ele>192.4</ele>
        <time>2011-04-10T09:53:11Z</time>
      </trkpt>
      <trkpt lat="46.32591" lon="4.76971">
        <ele>192</ele>
        <time>2011-04-10T09:53:13Z</time>
      </trkpt>
      <trkpt lat="46.32577" lon="4.76958">
        <ele>191.8</ele>
        <time>2011-04-10T09:53:15Z</time>
      </trkpt>
      <trkpt lat="46.32563" lon="4.76945">
        <ele>191.6</ele>
        <time>2011-04-10T09:53:17Z</time>
      </trkpt>
      <trkpt lat="46.32556" lon="4.7694">
        <ele>191.2</ele>
        <time>2011-04-10T09:53:18Z</time>
      </trkpt>
      <trkpt lat="46.32541" lon="4.7693">
        <ele>190.8</ele>
        <time>2011-04-10T09:53:20Z</time>
      </trkpt>
      <trkpt lat="46.32525" lon="4.76921">
        <ele>190.4</ele>
        <time>2011-04-10T09:53:22Z</time>
      </trkpt>
      <trkpt lat="46.32517" lon="4.76916">
        <ele>190</ele>
        <time>2011-04-10T09:53:23Z</time>
      </trkpt>
      <trkpt lat="46.32501" lon="4.76908">
        <ele>189.2</ele>
        <time>2011-04-10T09:53:25Z</time>
      </trkpt>
      <trkpt lat="46.32486" lon="4.76898">
        <ele>188.6</ele>
        <time>2011-04-10T09:53:27Z</time>
      </trkpt>
      <trkpt lat="46.3247" lon="4.76889">
        <ele>188</ele>
        <time>2011-04-10T09:53:29Z</time>
      </trkpt>
      <trkpt lat="46.32454" lon="4.76878">
        <ele>187.2</ele>
        <time>2011-04-10T09:53:31Z</time>
      </trkpt>
      <trkpt lat="46.32439" lon="4.76867">
        <ele>186.6</ele>
        <time>2011-04-10T09:53:33Z</time>
      </trkpt>
      <trkpt lat="46.32431" lon="4.7686">
        <ele>186.2</ele>
        <time>2011-04-10T09:53:34Z</time>
      </trkpt>
      <trkpt lat="46.32416" lon="4.76847">
        <ele>185.2</ele>
        <time>2011-04-10T09:53:36Z</time>
      </trkpt>
      <trkpt lat="46.324" lon="4.76834">
        <ele>184.4</ele>
        <time>2011-04-10T09:53:38Z</time>
      </trkpt>
      <trkpt lat="46.32383" lon="4.76821">
        <ele>183.4</ele>
        <time>2011-04-10T09:53:40Z</time>
      </trkpt>
      <trkpt lat="46.32375" lon="4.76814">
        <ele>182.8</ele>
        <time>2011-04-10T09:53:41Z</time>
      </trkpt>
      <trkpt lat="46.32357" lon="4.76801">
        <ele>181.6</ele>
        <time>2011-04-10T09:53:43Z</time>
      </trkpt>
      <trkpt lat="46.32348" lon="4.76794">
        <ele>180.8</ele>
        <time>2011-04-10T09:53:44Z</time>
      </trkpt>
      <trkpt lat="46.32331" lon="4.76783">
        <ele>179.6</ele>
        <time>2011-04-10T09:53:46Z</time>
      </trkpt>
      <trkpt lat="46.32323" lon="4.76777">
        <ele>178.8</ele>
        <time>2011-04-10T09:53:47Z</time>
      </trkpt>
      <trkpt lat="46.32305" lon="4.76767">
        <ele>177.6</ele>
        <time>2011-04-10T09:53:49Z</time>
      </trkpt>
      <trkpt lat="46.32297" lon="4.76763">
        <ele>176.8</ele>
        <time>2011-04-10T09:53:50Z</time>
      </trkpt>
      <trkpt lat="46.32279" lon="4.76755">
        <ele>175.6</ele>
        <time>2011-04-10T09:53:52Z</time>
      </trkpt>
      <trkpt lat="46.3226" lon="4.76749">
        <ele>174.2</ele>
        <time>2011-04-10T09:53:54Z</time>
      </trkpt>
      <trkpt lat="46.32244" lon="4.76743">
        <ele>173</ele>
        <time>2011-04-10T09:53:56Z</time>
      </trkpt>
      <trkpt lat="46.32238" lon="4.76739">
        <ele>172.2</ele>
        <time>2011-04-10T09:53:57Z</time>
      </trkpt>
      <trkpt lat="46.32229" lon="4.76732">
        <ele>170.8</ele>
        <time>2011-04-10T09:53:59Z</time>
      </trkpt>
      <trkpt lat="46.32226" lon="4.76729">
        <ele>170</ele>
        <time>2011-04-10T09:54:00Z</time>
      </trkpt>
      <trkpt lat="46.32224" lon="4.76727">
        <ele>168.6</ele>
        <time>2011-04-10T09:54:02Z</time>
      </trkpt>
      <trkpt lat="46.32223" lon="4.76727">
        <ele>167.6</ele>
        <time>2011-04-10T09:54:04Z</time>
      </trkpt>
      <trkpt lat="46.32221" lon="4.76726">
        <ele>166.6</ele>
        <time>2011-04-10T09:54:06Z</time>
      </trkpt>
      <trkpt lat="46.32216" lon="4.76723">
        <ele>166</ele>
        <time>2011-04-10T09:54:08Z</time>
      </trkpt>
      <trkpt lat="46.32212" lon="4.76721">
        <ele>165.6</ele>
        <time>2011-04-10T09:54:09Z</time>
      </trkpt>
      <trkpt lat="46.32202" lon="4.76719">
        <ele>165</ele>
        <time>2011-04-10T09:54:11Z</time>
      </trkpt>
      <trkpt lat="46.3218" lon="4.7673">
        <ele>164.4</ele>
        <time>2011-04-10T09:54:15Z</time>
      </trkpt>
      <trkpt lat="46.32175" lon="4.76738">
        <ele>164</ele>
        <time>2011-04-10T09:54:16Z</time>
      </trkpt>
      <trkpt lat="46.3217" lon="4.76748">
        <ele>163.6</ele>
        <time>2011-04-10T09:54:17Z</time>
      </trkpt>
      <trkpt lat="46.3216" lon="4.76778">
        <ele>162.8</ele>
        <time>2011-04-10T09:54:20Z</time>
      </trkpt>
      <trkpt lat="46.32153" lon="4.76794">
        <ele>162.4</ele>
        <time>2011-04-10T09:54:22Z</time>
      </trkpt>
      <trkpt lat="46.32147" lon="4.76808">
        <ele>162.2</ele>
        <time>2011-04-10T09:54:24Z</time>
      </trkpt>
      <trkpt lat="46.32143" lon="4.76814">
        <ele>162</ele>
        <time>2011-04-10T09:54:25Z</time>
      </trkpt>
      <trkpt lat="46.32136" lon="4.76825">
        <ele>161.8</ele>
        <time>2011-04-10T09:54:27Z</time>
      </trkpt>
      <trkpt lat="46.32128" lon="4.76835">
        <ele>162</ele>
        <time>2011-04-10T09:54:29Z</time>
      </trkpt>
      <trkpt lat="46.32118" lon="4.76843">
        <ele>162.2</ele>
        <time>2011-04-10T09:54:31Z</time>
      </trkpt>
      <trkpt lat="46.321" lon="4.76852">
        <ele>162.6</ele>
        <time>2011-04-10T09:54:34Z</time>
      </trkpt>
      <trkpt lat="46.32086" lon="4.76858">
        <ele>162.6</ele>
        <time>2011-04-10T09:54:36Z</time>
      </trkpt>
      <trkpt lat="46.3205" lon="4.76874">
        <ele>162.6</ele>
        <time>2011-04-10T09:54:41Z</time>
      </trkpt>
      <trkpt lat="46.32044" lon="4.76875">
        <ele>162.6</ele>
        <time>2011-04-10T09:54:42Z</time>
      </trkpt>
      <trkpt lat="46.32038" lon="4.76871">
        <ele>162.4</ele>
        <time>2011-04-10T09:54:43Z</time>
      </trkpt>
      <trkpt lat="46.32028" lon="4.76855">
        <ele>162.2</ele>
        <time>2011-04-10T09:54:45Z</time>
      </trkpt>
      <trkpt lat="46.32024" lon="4.76844">
        <ele>161.8</ele>
        <time>2011-04-10T09:54:46Z</time>
      </trkpt>
      <trkpt lat="46.32014" lon="4.76819">
        <ele>161.2</ele>
        <time>2011-04-10T09:54:49Z</time>
      </trkpt>
      <trkpt lat="46.32008" lon="4.76798">
        <ele>160.8</ele>
        <time>2011-04-10T09:54:50Z</time>
      </trkpt>
      <trkpt lat="46.32004" lon="4.76775">
        <ele>160.2</ele>
        <time>2011-04-10T09:54:52Z</time>
      </trkpt>
      <trkpt lat="46.32001" lon="4.76765">
        <ele>159.8</ele>
        <time>2011-04-10T09:54:53Z</time>
      </trkpt>
      <trkpt lat="46.31999" lon="4.76756">
        <ele>159.4</ele>
        <time>2011-04-10T09:54:54Z</time>
      </trkpt>
      <trkpt lat="46.31992" lon="4.76739">
        <ele>159</ele>
        <time>2011-04-10T09:54:56Z</time>
      </trkpt>
      <trkpt lat="46.3199" lon="4.76731">
        <ele>158.8</ele>
        <time>2011-04-10T09:54:57Z</time>
      </trkpt>
      <trkpt lat="46.31986" lon="4.76705">
        <ele>158.2</ele>
        <time>2011-04-10T09:55:00Z</time>
      </trkpt>
      <trkpt lat="46.31987" lon="4.76697">
        <ele>158</ele>
        <time>2011-04-10T09:55:01Z</time>
      </trkpt>
      <trkpt lat="46.31991" lon="4.76685">
        <ele>157.6</ele>
        <time>2011-04-10T09:55:03Z</time>
      </trkpt>
      <trkpt lat="46.31992" lon="4.76676">
        <ele>157</ele>
        <time>2011-04-10T09:55:05Z</time>
      </trkpt>
      <trkpt lat="46.31992" lon="4.76673">
        <ele>156.8</ele>
        <time>2011-04-10T09:55:06Z</time>
      </trkpt>
      <trkpt lat="46.31985" lon="4.7667">
        <ele>156.2</ele>
        <time>2011-04-10T09:55:09Z</time>
      </trkpt>
      <trkpt lat="46.31975" lon="4.76672">
        <ele>155.8</ele>
        <time>2011-04-10T09:55:11Z</time>
      </trkpt>
      <trkpt lat="46.3197" lon="4.76673">
        <ele>155.8</ele>
        <time>2011-04-10T09:55:12Z</time>
      </trkpt>
      <trkpt lat="46.31937" lon="4.76676">
        <ele>155.2</ele>
        <time>2011-04-10T09:55:18Z</time>
      </trkpt>
      <trkpt lat="46.31906" lon="4.76678">
        <ele>155.2</ele>
        <time>2011-04-10T09:55:23Z</time>
      </trkpt>
      <trkpt lat="46.31893" lon="4.7668">
        <ele>155.6</ele>
        <time>2011-04-10T09:55:25Z</time>
      </trkpt>
      <trkpt lat="46.3188" lon="4.76681">
        <ele>155.8</ele>
        <time>2011-04-10T09:55:27Z</time>
      </trkpt>
      <trkpt lat="46.31866" lon="4.76683">
        <ele>156</ele>
        <time>2011-04-10T09:55:29Z</time>
      </trkpt>
      <trkpt lat="46.31853" lon="4.76685">
        <ele>156.2</ele>
        <time>2011-04-10T09:55:31Z</time>
      </trkpt>
      <trkpt lat="46.31825" lon="4.76692">
        <ele>156.4</ele>
        <time>2011-04-10T09:55:35Z</time>
      </trkpt>
      <trkpt lat="46.31796" lon="4.76702">
        <ele>156.6</ele>
        <time>2011-04-10T09:55:39Z</time>
      </trkpt>
      <trkpt lat="46.31764" lon="4.76714">
        <ele>156.6</ele>
        <time>2011-04-10T09:55:43Z</time>
      </trkpt>
      <trkpt lat="46.31756" lon="4.76717">
        <ele>156.6</ele>
        <time>2011-04-10T09:55:44Z</time>
      </trkpt>
      <trkpt lat="46.31734" lon="4.76709">
        <ele>156.6</ele>
        <time>2011-04-10T09:55:47Z</time>
      </trkpt>
      <trkpt lat="46.31728" lon="4.76701">
        <ele>156.8</ele>
        <time>2011-04-10T09:55:48Z</time>
      </trkpt>
      <trkpt lat="46.31717" lon="4.76682">
        <ele>156.8</ele>
        <time>2011-04-10T09:55:50Z</time>
      </trkpt>
      <trkpt lat="46.31684" lon="4.76662">
        <ele>156.8</ele>
        <time>2011-04-10T09:55:55Z</time>
      </trkpt>
      <trkpt lat="46.3164" lon="4.76649">
        <ele>156.8</ele>
        <time>2011-04-10T09:56:02Z</time>
      </trkpt>
      <trkpt lat="46.31628" lon="4.76648">
        <ele>157</ele>
        <time>2011-04-10T09:56:04Z</time>
      </trkpt>
      <trkpt lat="46.31618" lon="4.76647">
        <ele>157.4</ele>
        <time>2011-04-10T09:56:06Z</time>
      </trkpt>
      <trkpt lat="46.31608" lon="4.76647">
        <ele>157.8</ele>
        <time>2011-04-10T09:56:08Z</time>
      </trkpt>
      <trkpt lat="46.31598" lon="4.76645">
        <ele>158</ele>
        <time>2011-04-10T09:56:10Z</time>
      </trkpt>
      <trkpt lat="46.31587" lon="4.76644">
        <ele>158.2</ele>
        <time>2011-04-10T09:56:12Z</time>
      </trkpt>
      <trkpt lat="46.31555" lon="4.76635">
        <ele>158.6</ele>
        <time>2011-04-10T09:56:17Z</time>
      </trkpt>
      <trkpt lat="46.31518" lon="4.76621">
        <ele>158.8</ele>
        <time>2011-04-10T09:56:22Z</time>
      </trkpt>
      <trkpt lat="46.31504" lon="4.76617">
        <ele>158.8</ele>
        <time>2011-04-10T09:56:24Z</time>
      </trkpt>
      <trkpt lat="46.3147" lon="4.76619">
        <ele>158.8</ele>
        <time>2011-04-10T09:56:28Z</time>
      </trkpt>
      <trkpt lat="46.31447" lon="4.76628">
        <ele>158.4</ele>
        <time>2011-04-10T09:56:31Z</time>
      </trkpt>
      <trkpt lat="46.3143" lon="4.76636">
        <ele>158</ele>
        <time>2011-04-10T09:56:33Z</time>
      </trkpt>
      <trkpt lat="46.31422" lon="4.76639">
        <ele>158</ele>
        <time>2011-04-10T09:56:34Z</time>
      </trkpt>
      <trkpt lat="46.31393" lon="4.76637">
        <ele>157.6</ele>
        <time>2011-04-10T09:56:37Z</time>
      </trkpt>
      <trkpt lat="46.31375" lon="4.76635">
        <ele>157.6</ele>
        <time>2011-04-10T09:56:39Z</time>
      </trkpt>
      <trkpt lat="46.31347" lon="4.76643">
        <ele>157.2</ele>
        <time>2011-04-10T09:56:42Z</time>
      </trkpt>
      <trkpt lat="46.31338" lon="4.76644">
        <ele>157</ele>
        <time>2011-04-10T09:56:43Z</time>
      </trkpt>
      <trkpt lat="46.3131" lon="4.76632">
        <ele>156.4</ele>
        <time>2011-04-10T09:56:46Z</time>
      </trkpt>
      <trkpt lat="46.31301" lon="4.76628">
        <ele>156</ele>
        <time>2011-04-10T09:56:47Z</time>
      </trkpt>
      <trkpt lat="46.31287" lon="4.7663">
        <ele>155.4</ele>
        <time>2011-04-10T09:56:49Z</time>
      </trkpt>
      <trkpt lat="46.3128" lon="4.76647">
        <ele>154.6</ele>
        <time>2011-04-10T09:56:51Z</time>
      </trkpt>
      <trkpt lat="46.31276" lon="4.76673">
        <ele>154</ele>
        <time>2011-04-10T09:56:53Z</time>
      </trkpt>
      <trkpt lat="46.31275" lon="4.76687">
        <ele>153.6</ele>
        <time>2011-04-10T09:56:54Z</time>
      </trkpt>
      <trkpt lat="46.31274" lon="4.76702">
        <ele>153.2</ele>
        <time>2011-04-10T09:56:55Z</time>
      </trkpt>
      <trkpt lat="46.31272" lon="4.7673">
        <ele>152.6</ele>
        <time>2011-04-10T09:56:57Z</time>
      </trkpt>
      <trkpt lat="46.31269" lon="4.76758">
        <ele>151.8</ele>
        <time>2011-04-10T09:56:59Z</time>
      </trkpt>
      <trkpt lat="46.31268" lon="4.76771">
        <ele>151.4</ele>
        <time>2011-04-10T09:57:00Z</time>
      </trkpt>
      <trkpt lat="46.31269" lon="4.76785">
        <ele>151.2</ele>
        <time>2011-04-10T09:57:01Z</time>
      </trkpt>
      <trkpt lat="46.3127" lon="4.76799">
        <ele>150.6</ele>
        <time>2011-04-10T09:57:02Z</time>
      </trkpt>
      <trkpt lat="46.31272" lon="4.76812">
        <ele>150.2</ele>
        <time>2011-04-10T09:57:03Z</time>
      </trkpt>
      <trkpt lat="46.3127" lon="4.76852">
        <ele>149.2</ele>
        <time>2011-04-10T09:57:06Z</time>
      </trkpt>
      <trkpt lat="46.31267" lon="4.76863">
        <ele>149</ele>
        <time>2011-04-10T09:57:07Z</time>
      </trkpt>
      <trkpt lat="46.31257" lon="4.76885">
        <ele>148.4</ele>
        <time>2011-04-10T09:57:09Z</time>
      </trkpt>
      <trkpt lat="46.31251" lon="4.76896">
        <ele>148.2</ele>
        <time>2011-04-10T09:57:10Z</time>
      </trkpt>
      <trkpt lat="46.31246" lon="4.76905">
        <ele>147.8</ele>
        <time>2011-04-10T09:57:11Z</time>
      </trkpt>
      <trkpt lat="46.31232" lon="4.76919">
        <ele>147.2</ele>
        <time>2011-04-10T09:57:13Z</time>
      </trkpt>
      <trkpt lat="46.31225" lon="4.76923">
        <ele>147</ele>
        <time>2011-04-10T09:57:14Z</time>
      </trkpt>
      <trkpt lat="46.31204" lon="4.76936">
        <ele>146.2</ele>
        <time>2011-04-10T09:57:17Z</time>
      </trkpt>
      <trkpt lat="46.31199" lon="4.76942">
        <ele>146</ele>
        <time>2011-04-10T09:57:18Z</time>
      </trkpt>
      <trkpt lat="46.31194" lon="4.76949">
        <ele>146</ele>
        <time>2011-04-10T09:57:19Z</time>
      </trkpt>
      <trkpt lat="46.31189" lon="4.76957">
        <ele>146</ele>
        <time>2011-04-10T09:57:20Z</time>
      </trkpt>
      <trkpt lat="46.31179" lon="4.76974">
        <ele>146</ele>
        <time>2011-04-10T09:57:22Z</time>
      </trkpt>
      <trkpt lat="46.31174" lon="4.76981">
        <ele>146</ele>
        <time>2011-04-10T09:57:23Z</time>
      </trkpt>
      <trkpt lat="46.31164" lon="4.76991">
        <ele>146.4</ele>
        <time>2011-04-10T09:57:25Z</time>
      </trkpt>
      <trkpt lat="46.31159" lon="4.76994">
        <ele>146.6</ele>
        <time>2011-04-10T09:57:26Z</time>
      </trkpt>
      <trkpt lat="46.31143" lon="4.77">
        <ele>147.2</ele>
        <time>2011-04-10T09:57:29Z</time>
      </trkpt>
      <trkpt lat="46.31137" lon="4.77001">
        <ele>147.4</ele>
        <time>2011-04-10T09:57:30Z</time>
      </trkpt>
      <trkpt lat="46.31126" lon="4.77005">
        <ele>148</ele>
        <time>2011-04-10T09:57:32Z</time>
      </trkpt>
      <trkpt lat="46.31115" lon="4.77008">
        <ele>148.6</ele>
        <time>2011-04-10T09:57:34Z</time>
      </trkpt>
      <trkpt lat="46.31102" lon="4.77011">
        <ele>149.2</ele>
        <time>2011-04-10T09:57:36Z</time>
      </trkpt>
      <trkpt lat="46.31092" lon="4.77015">
        <ele>149.8</ele>
        <time>2011-04-10T09:57:38Z</time>
      </trkpt>
      <trkpt lat="46.3108" lon="4.77019">
        <ele>150.4</ele>
        <time>2011-04-10T09:57:40Z</time>
      </trkpt>
      <trkpt lat="46.3107" lon="4.77023">
        <ele>151</ele>
        <time>2011-04-10T09:57:42Z</time>
      </trkpt>
      <trkpt lat="46.3106" lon="4.77026">
        <ele>151.6</ele>
        <time>2011-04-10T09:57:44Z</time>
      </trkpt>
      <trkpt lat="46.31055" lon="4.77027">
        <ele>152</ele>
        <time>2011-04-10T09:57:45Z</time>
      </trkpt>
      <trkpt lat="46.31049" lon="4.77028">
        <ele>152.2</ele>
        <time>2011-04-10T09:57:46Z</time>
      </trkpt>
      <trkpt lat="46.31039" lon="4.7703">
        <ele>152.6</ele>
        <time>2011-04-10T09:57:48Z</time>
      </trkpt>
      <trkpt lat="46.31018" lon="4.77037">
        <ele>153.4</ele>
        <time>2011-04-10T09:57:52Z</time>
      </trkpt>
      <trkpt lat="46.31008" lon="4.7704">
        <ele>154</ele>
        <time>2011-04-10T09:57:54Z</time>
      </trkpt>
      <trkpt lat="46.31" lon="4.77044">
        <ele>154.6</ele>
        <time>2011-04-10T09:57:56Z</time>
      </trkpt>
      <trkpt lat="46.30991" lon="4.77047">
        <ele>155</ele>
        <time>2011-04-10T09:57:58Z</time>
      </trkpt>
      <trkpt lat="46.30988" lon="4.77047">
        <ele>155.2</ele>
        <time>2011-04-10T09:57:59Z</time>
      </trkpt>
      <trkpt lat="46.30978" lon="4.77035">
        <ele>155.6</ele>
        <time>2011-04-10T09:58:03Z</time>
      </trkpt>
      <trkpt lat="46.30962" lon="4.77014">
        <ele>156</ele>
        <time>2011-04-10T09:58:07Z</time>
      </trkpt>
      <trkpt lat="46.30933" lon="4.76999">
        <ele>156.2</ele>
        <time>2011-04-10T09:58:12Z</time>
      </trkpt>
      <trkpt lat="46.30893" lon="4.76994">
        <ele>156.4</ele>
        <time>2011-04-10T09:58:18Z</time>
      </trkpt>
      <trkpt lat="46.30861" lon="4.76994">
        <ele>156.4</ele>
        <time>2011-04-10T09:58:22Z</time>
      </trkpt>
      <trkpt lat="46.30841" lon="4.76994">
        <ele>156</ele>
        <time>2011-04-10T09:58:24Z</time>
      </trkpt>
      <trkpt lat="46.30821" lon="4.76994">
        <ele>155.8</ele>
        <time>2011-04-10T09:58:26Z</time>
      </trkpt>
      <trkpt lat="46.30802" lon="4.76994">
        <ele>155.4</ele>
        <time>2011-04-10T09:58:28Z</time>
      </trkpt>
      <trkpt lat="46.30784" lon="4.76993">
        <ele>155.4</ele>
        <time>2011-04-10T09:58:30Z</time>
      </trkpt>
      <trkpt lat="46.30774" lon="4.76991">
        <ele>155.2</ele>
        <time>2011-04-10T09:58:31Z</time>
      </trkpt>
      <trkpt lat="46.30752" lon="4.76967">
        <ele>154.8</ele>
        <time>2011-04-10T09:58:34Z</time>
      </trkpt>
      <trkpt lat="46.30741" lon="4.7694">
        <ele>154.4</ele>
        <time>2011-04-10T09:58:36Z</time>
      </trkpt>
      <trkpt lat="46.30736" lon="4.76925">
        <ele>154.2</ele>
        <time>2011-04-10T09:58:37Z</time>
      </trkpt>
      <trkpt lat="46.30731" lon="4.76911">
        <ele>153.8</ele>
        <time>2011-04-10T09:58:38Z</time>
      </trkpt>
      <trkpt lat="46.30721" lon="4.76882">
        <ele>153</ele>
        <time>2011-04-10T09:58:40Z</time>
      </trkpt>
      <trkpt lat="46.30716" lon="4.76868">
        <ele>152.4</ele>
        <time>2011-04-10T09:58:41Z</time>
      </trkpt>
      <trkpt lat="46.30707" lon="4.76843">
        <ele>151.6</ele>
        <time>2011-04-10T09:58:43Z</time>
      </trkpt>
      <trkpt lat="46.30703" lon="4.76832">
        <ele>151</ele>
        <time>2011-04-10T09:58:44Z</time>
      </trkpt>
      <trkpt lat="46.30699" lon="4.76815">
        <ele>150</ele>
        <time>2011-04-10T09:58:46Z</time>
      </trkpt>
      <trkpt lat="46.30697" lon="4.76808">
        <ele>149.2</ele>
        <time>2011-04-10T09:58:47Z</time>
      </trkpt>
      <trkpt lat="46.30695" lon="4.76802">
        <ele>148.6</ele>
        <time>2011-04-10T09:58:48Z</time>
      </trkpt>
      <trkpt lat="46.30692" lon="4.76799">
        <ele>148</ele>
        <time>2011-04-10T09:58:49Z</time>
      </trkpt>
      <trkpt lat="46.30686" lon="4.76798">
        <ele>147</ele>
        <time>2011-04-10T09:58:51Z</time>
      </trkpt>
      <trkpt lat="46.30682" lon="4.768">
        <ele>146.6</ele>
        <time>2011-04-10T09:58:52Z</time>
      </trkpt>
      <trkpt lat="46.30674" lon="4.76806">
        <ele>145.8</ele>
        <time>2011-04-10T09:58:55Z</time>
      </trkpt>
      <trkpt lat="46.30668" lon="4.7681">
        <ele>144.8</ele>
        <time>2011-04-10T09:58:56Z</time>
      </trkpt>
      <trkpt lat="46.30663" lon="4.76813">
        <ele>144.2</ele>
        <time>2011-04-10T09:58:58Z</time>
      </trkpt>
      <trkpt lat="46.30662" lon="4.76812">
        <ele>143.8</ele>
        <time>2011-04-10T09:58:59Z</time>
      </trkpt>
      <trkpt lat="46.3066" lon="4.76812">
        <ele>143.6</ele>
        <time>2011-04-10T09:59:01Z</time>
      </trkpt>
      <trkpt lat="46.30655" lon="4.76814">
        <ele>143</ele>
        <time>2011-04-10T09:59:02Z</time>
      </trkpt>
      <trkpt lat="46.30651" lon="4.76817">
        <ele>142.8</ele>
        <time>2011-04-10T09:59:03Z</time>
      </trkpt>
      <trkpt lat="46.30628" lon="4.76836">
        <ele>142.2</ele>
        <time>2011-04-10T09:59:07Z</time>
      </trkpt>
      <trkpt lat="46.30604" lon="4.76854">
        <ele>141.8</ele>
        <time>2011-04-10T09:59:11Z</time>
      </trkpt>
      <trkpt lat="46.30587" lon="4.76868">
        <ele>141.4</ele>
        <time>2011-04-10T09:59:15Z</time>
      </trkpt>
      <trkpt lat="46.30571" lon="4.76883">
        <ele>141.4</ele>
        <time>2011-04-10T09:59:18Z</time>
      </trkpt>
      <trkpt lat="46.30565" lon="4.76889">
        <ele>141.4</ele>
        <time>2011-04-10T09:59:19Z</time>
      </trkpt>
      <trkpt lat="46.30525" lon="4.76916">
        <ele>141.2</ele>
        <time>2011-04-10T09:59:25Z</time>
      </trkpt>
      <trkpt lat="46.30499" lon="4.76924">
        <ele>141.2</ele>
        <time>2011-04-10T09:59:28Z</time>
      </trkpt>
      <trkpt lat="46.30447" lon="4.76941">
        <ele>141</ele>
        <time>2011-04-10T09:59:34Z</time>
      </trkpt>
      <trkpt lat="46.30391" lon="4.76958">
        <ele>141</ele>
        <time>2011-04-10T09:59:41Z</time>
      </trkpt>
      <trkpt lat="46.30382" lon="4.7696">
        <ele>141</ele>
        <time>2011-04-10T09:59:42Z</time>
      </trkpt>
      <trkpt lat="46.30324" lon="4.76986">
        <ele>141</ele>
        <time>2011-04-10T09:59:48Z</time>
      </trkpt>
      <trkpt lat="46.30292" lon="4.77009">
        <ele>141</ele>
        <time>2011-04-10T09:59:52Z</time>
      </trkpt>
      <trkpt lat="46.30285" lon="4.77014">
        <ele>141</ele>
        <time>2011-04-10T09:59:53Z</time>
      </trkpt>
      <trkpt lat="46.30274" lon="4.77021">
        <ele>141</ele>
        <time>2011-04-10T09:59:55Z</time>
      </trkpt>
      <trkpt lat="46.30262" lon="4.77038">
        <ele>141</ele>
        <time>2011-04-10T09:59:59Z</time>
      </trkpt>
      <trkpt lat="46.30249" lon="4.77055">
        <ele>141</ele>
        <time>2011-04-10T10:00:03Z</time>
      </trkpt>
      <trkpt lat="46.3024" lon="4.77064">
        <ele>141</ele>
        <time>2011-04-10T10:00:05Z</time>
      </trkpt>
      <trkpt lat="46.30218" lon="4.77095">
        <ele>141</ele>
        <time>2011-04-10T10:00:10Z</time>
      </trkpt>
      <trkpt lat="46.30191" lon="4.77141">
        <ele>141</ele>
        <time>2011-04-10T10:00:16Z</time>
      </trkpt>
      <trkpt lat="46.30173" lon="4.77179">
        <ele>141</ele>
        <time>2011-04-10T10:00:20Z</time>
      </trkpt>
      <trkpt lat="46.30169" lon="4.77191">
        <ele>141</ele>
        <time>2011-04-10T10:00:21Z</time>
      </trkpt>
      <trkpt lat="46.30147" lon="4.77243">
        <ele>141</ele>
        <time>2011-04-10T10:00:25Z</time>
      </trkpt>
      <trkpt lat="46.30118" lon="4.77309">
        <ele>141</ele>
        <time>2011-04-10T10:00:30Z</time>
      </trkpt>
      <trkpt lat="46.30085" lon="4.77366">
        <ele>141</ele>
        <time>2011-04-10T10:00:35Z</time>
      </trkpt>
      <trkpt lat="46.30043" lon="4.7742">
        <ele>141</ele>
        <time>2011-04-10T10:00:41Z</time>
      </trkpt>
      <trkpt lat="46.29999" lon="4.77473">
        <ele>141</ele>
        <time>2011-04-10T10:00:47Z</time>
      </trkpt>
      <trkpt lat="46.29991" lon="4.77481">
        <ele>141</ele>
        <time>2011-04-10T10:00:48Z</time>
      </trkpt>
      <trkpt lat="46.29953" lon="4.77507">
        <ele>141</ele>
        <time>2011-04-10T10:00:53Z</time>
      </trkpt>
      <trkpt lat="46.29936" lon="4.7752">
        <ele>141</ele>
        <time>2011-04-10T10:00:56Z</time>
      </trkpt>
      <trkpt lat="46.29922" lon="4.77538">
        <ele>141</ele>
        <time>2011-04-10T10:01:00Z</time>
      </trkpt>
      <trkpt lat="46.29919" lon="4.77544">
        <ele>141</ele>
        <time>2011-04-10T10:01:02Z</time>
      </trkpt>
      <trkpt lat="46.29918" lon="4.77547">
        <ele>141</ele>
        <time>2011-04-10T10:01:07Z</time>
      </trkpt>
      <trkpt lat="46.29918" lon="4.77546">
        <ele>141</ele>
        <time>2011-04-10T10:01:10Z</time>
      </trkpt>
    </trkseg>
  </trk>
</gpx>